<?xml version="1.0" encoding="UTF-8" standalone="no" ?>
<gpx xmlns="http://www.topografix.com/GPX/1/1" xmlns:xsi="http://www.w3.org/2001/XMLSchema-instance" xsi:schemaLocation="http://www.topografix.com/GPX/1/1 http://www.topografix.com/GPX/1/1/gpx.xsd" version="1.1" creator="VisuGPX - https://www.visugpx.com">
  <metadata>
    <name>Cajarc / Saint Chels et passage source de Font Negre </name>
    <desc><![CDATA[Une trace sympa au départ de Cajarc qui vous mènera jusqu’à Saint Chels et un magnifique passage à la source de Font Negre pour redescendre à Larnagol avec un retour à Cajarc par les balcons au dessus du Lot]]></desc>
  </metadata>
  <trk>
    <name><![CDATA[Cajarc / Saint Chels et passage source de Font Negre _1]]></name>
    <trkseg>
      <trkpt lat="44.48682" lon="1.83812">
        <ele>166.4</ele>
        <time>2023-04-08T10:28:06Z</time>
      </trkpt>
      <trkpt lat="44.48671" lon="1.83817">
        <ele>166</ele>
        <time>2023-04-08T10:28:08Z</time>
      </trkpt>
      <trkpt lat="44.4866" lon="1.83822">
        <ele>165.6</ele>
        <time>2023-04-08T10:28:10Z</time>
      </trkpt>
      <trkpt lat="44.48891" lon="1.83738">
        <ele>169.1</ele>
      </trkpt>
      <trkpt lat="44.4907" lon="1.83646">
        <ele>202.4</ele>
      </trkpt>
      <trkpt lat="44.4898" lon="1.83568">
        <ele>226.1</ele>
      </trkpt>
      <trkpt lat="44.48948" lon="1.83512">
        <ele>239.9</ele>
      </trkpt>
      <trkpt lat="44.48916" lon="1.83487">
        <ele>240.9</ele>
      </trkpt>
      <trkpt lat="44.4888" lon="1.83484">
        <ele>248.7</ele>
      </trkpt>
      <trkpt lat="44.48891" lon="1.8347">
        <ele>252.9</ele>
      </trkpt>
      <trkpt lat="44.48903" lon="1.83464">
        <ele>253.8</ele>
      </trkpt>
      <trkpt lat="44.48916" lon="1.83461">
        <ele>253.5</ele>
      </trkpt>
      <trkpt lat="44.48958" lon="1.83417">
        <ele>285.2</ele>
        <time>2023-04-08T06:46:06Z</time>
      </trkpt>
      <trkpt lat="44.48958" lon="1.83417">
        <ele>285.2</ele>
        <time>2023-04-08T06:46:06Z</time>
      </trkpt>
      <trkpt lat="44.48924" lon="1.8339">
        <ele>290.3</ele>
      </trkpt>
      <trkpt lat="44.48808" lon="1.83456">
        <ele>285.3</ele>
      </trkpt>
      <trkpt lat="44.48754" lon="1.83448">
        <ele>293.9</ele>
      </trkpt>
      <trkpt lat="44.48706" lon="1.83485">
        <ele>287.6</ele>
      </trkpt>
      <trkpt lat="44.48614" lon="1.83476">
        <ele>304.7</ele>
      </trkpt>
      <trkpt lat="44.48509" lon="1.83538">
        <ele>301.4</ele>
      </trkpt>
      <trkpt lat="44.48449" lon="1.83532">
        <ele>295.9</ele>
      </trkpt>
      <trkpt lat="44.48512" lon="1.8345">
        <ele>299.8</ele>
      </trkpt>
      <trkpt lat="44.48512" lon="1.83401">
        <ele>296.3</ele>
      </trkpt>
      <trkpt lat="44.48513" lon="1.83255">
        <ele>290.4</ele>
      </trkpt>
      <trkpt lat="44.48484" lon="1.83075">
        <ele>289.8</ele>
      </trkpt>
      <trkpt lat="44.48515" lon="1.82977">
        <ele>290.8</ele>
        <time>2023-04-08T06:46:10Z</time>
      </trkpt>
      <trkpt lat="44.48524" lon="1.82969">
        <ele>291.7</ele>
        <time>2023-04-08T06:46:14Z</time>
      </trkpt>
      <trkpt lat="44.48532" lon="1.8296">
        <ele>292.5</ele>
        <time>2023-04-08T06:46:18Z</time>
      </trkpt>
      <trkpt lat="44.48538" lon="1.82948">
        <ele>293.3</ele>
        <time>2023-04-08T06:46:22Z</time>
      </trkpt>
      <trkpt lat="44.48544" lon="1.82937">
        <ele>294.2</ele>
        <time>2023-04-08T06:46:26Z</time>
      </trkpt>
      <trkpt lat="44.4855" lon="1.82925">
        <ele>295</ele>
        <time>2023-04-08T06:46:30Z</time>
      </trkpt>
      <trkpt lat="44.48555" lon="1.82914">
        <ele>295.8</ele>
        <time>2023-04-08T06:46:34Z</time>
      </trkpt>
      <trkpt lat="44.48562" lon="1.82904">
        <ele>296.8</ele>
        <time>2023-04-08T06:46:38Z</time>
      </trkpt>
      <trkpt lat="44.4857" lon="1.82896">
        <ele>297.8</ele>
        <time>2023-04-08T06:46:42Z</time>
      </trkpt>
      <trkpt lat="44.48577" lon="1.82885">
        <ele>298.5</ele>
        <time>2023-04-08T06:46:46Z</time>
      </trkpt>
      <trkpt lat="44.48581" lon="1.82873">
        <ele>299</ele>
        <time>2023-04-08T06:46:50Z</time>
      </trkpt>
      <trkpt lat="44.48585" lon="1.82861">
        <ele>299.6</ele>
        <time>2023-04-08T06:46:53Z</time>
      </trkpt>
      <trkpt lat="44.48592" lon="1.82849">
        <ele>300.4</ele>
        <time>2023-04-08T06:46:56Z</time>
      </trkpt>
      <trkpt lat="44.48602" lon="1.82841">
        <ele>301</ele>
        <time>2023-04-08T06:46:59Z</time>
      </trkpt>
      <trkpt lat="44.48612" lon="1.82834">
        <ele>301.6</ele>
        <time>2023-04-08T06:47:02Z</time>
      </trkpt>
      <trkpt lat="44.48622" lon="1.82828">
        <ele>301.9</ele>
        <time>2023-04-08T06:47:05Z</time>
      </trkpt>
      <trkpt lat="44.48632" lon="1.8282">
        <ele>300.7</ele>
        <time>2023-04-08T06:47:08Z</time>
      </trkpt>
      <trkpt lat="44.48624" lon="1.82809">
        <ele>299.5</ele>
        <time>2023-04-08T06:47:14Z</time>
      </trkpt>
      <trkpt lat="44.48608" lon="1.82808">
        <ele>298.4</ele>
        <time>2023-04-08T06:47:16Z</time>
      </trkpt>
      <trkpt lat="44.48591" lon="1.82805">
        <ele>297.1</ele>
        <time>2023-04-08T06:47:18Z</time>
      </trkpt>
      <trkpt lat="44.48574" lon="1.82799">
        <ele>295.2</ele>
        <time>2023-04-08T06:47:20Z</time>
      </trkpt>
      <trkpt lat="44.48558" lon="1.82794">
        <ele>292.5</ele>
        <time>2023-04-08T06:47:22Z</time>
      </trkpt>
      <trkpt lat="44.48543" lon="1.82793">
        <ele>290.2</ele>
        <time>2023-04-08T06:47:24Z</time>
      </trkpt>
      <trkpt lat="44.48527" lon="1.82794">
        <ele>288.6</ele>
        <time>2023-04-08T06:47:26Z</time>
      </trkpt>
      <trkpt lat="44.48512" lon="1.82797">
        <ele>286.6</ele>
        <time>2023-04-08T06:47:28Z</time>
      </trkpt>
      <trkpt lat="44.48498" lon="1.82798">
        <ele>284.1</ele>
        <time>2023-04-08T06:47:30Z</time>
      </trkpt>
      <trkpt lat="44.48484" lon="1.82802">
        <ele>281.7</ele>
        <time>2023-04-08T06:47:32Z</time>
      </trkpt>
      <trkpt lat="44.4847" lon="1.82804">
        <ele>279.3</ele>
        <time>2023-04-08T06:47:34Z</time>
      </trkpt>
      <trkpt lat="44.48455" lon="1.82809">
        <ele>277.2</ele>
        <time>2023-04-08T06:47:36Z</time>
      </trkpt>
      <trkpt lat="44.48439" lon="1.82814">
        <ele>274.8</ele>
        <time>2023-04-08T06:47:38Z</time>
      </trkpt>
      <trkpt lat="44.48422" lon="1.82819">
        <ele>271.5</ele>
        <time>2023-04-08T06:47:40Z</time>
      </trkpt>
      <trkpt lat="44.48413" lon="1.82822">
        <ele>269.7</ele>
        <time>2023-04-08T06:47:41Z</time>
      </trkpt>
      <trkpt lat="44.48404" lon="1.82825">
        <ele>268.1</ele>
        <time>2023-04-08T06:47:42Z</time>
      </trkpt>
      <trkpt lat="44.48388" lon="1.8283">
        <ele>264.9</ele>
        <time>2023-04-08T06:47:44Z</time>
      </trkpt>
      <trkpt lat="44.48373" lon="1.82834">
        <ele>262.1</ele>
        <time>2023-04-08T06:47:46Z</time>
      </trkpt>
      <trkpt lat="44.48356" lon="1.82841">
        <ele>259.2</ele>
        <time>2023-04-08T06:47:48Z</time>
      </trkpt>
      <trkpt lat="44.4834" lon="1.8285">
        <ele>256.1</ele>
        <time>2023-04-08T06:47:50Z</time>
      </trkpt>
      <trkpt lat="44.48325" lon="1.82858">
        <ele>253.5</ele>
        <time>2023-04-08T06:47:52Z</time>
      </trkpt>
      <trkpt lat="44.4831" lon="1.8287">
        <ele>251</ele>
        <time>2023-04-08T06:47:54Z</time>
      </trkpt>
      <trkpt lat="44.48295" lon="1.82883">
        <ele>248.6</ele>
        <time>2023-04-08T06:47:56Z</time>
      </trkpt>
      <trkpt lat="44.48284" lon="1.82892">
        <ele>246.4</ele>
        <time>2023-04-08T06:47:58Z</time>
      </trkpt>
      <trkpt lat="44.48273" lon="1.82895">
        <ele>244.5</ele>
        <time>2023-04-08T06:48:00Z</time>
      </trkpt>
      <trkpt lat="44.48263" lon="1.82901">
        <ele>243</ele>
        <time>2023-04-08T06:48:02Z</time>
      </trkpt>
      <trkpt lat="44.48257" lon="1.82911">
        <ele>241.8</ele>
        <time>2023-04-08T06:48:04Z</time>
      </trkpt>
      <trkpt lat="44.4825" lon="1.82926">
        <ele>240.4</ele>
        <time>2023-04-08T06:48:06Z</time>
      </trkpt>
      <trkpt lat="44.48242" lon="1.82942">
        <ele>238.7</ele>
        <time>2023-04-08T06:48:08Z</time>
      </trkpt>
      <trkpt lat="44.48234" lon="1.82962">
        <ele>236.5</ele>
        <time>2023-04-08T06:48:10Z</time>
      </trkpt>
      <trkpt lat="44.48227" lon="1.82981">
        <ele>234.3</ele>
        <time>2023-04-08T06:48:12Z</time>
      </trkpt>
      <trkpt lat="44.48218" lon="1.82997">
        <ele>232.3</ele>
        <time>2023-04-08T06:48:14Z</time>
      </trkpt>
      <trkpt lat="44.48211" lon="1.83012">
        <ele>230.1</ele>
        <time>2023-04-08T06:48:16Z</time>
      </trkpt>
      <trkpt lat="44.48203" lon="1.83022">
        <ele>228.8</ele>
        <time>2023-04-08T06:48:18Z</time>
      </trkpt>
      <trkpt lat="44.48193" lon="1.83022">
        <ele>228.1</ele>
        <time>2023-04-08T06:48:20Z</time>
      </trkpt>
      <trkpt lat="44.48181" lon="1.83018">
        <ele>227</ele>
        <time>2023-04-08T06:48:23Z</time>
      </trkpt>
      <trkpt lat="44.48171" lon="1.83017">
        <ele>226.1</ele>
        <time>2023-04-08T06:48:26Z</time>
      </trkpt>
      <trkpt lat="44.48157" lon="1.83017">
        <ele>224.3</ele>
        <time>2023-04-08T06:48:29Z</time>
      </trkpt>
      <trkpt lat="44.48145" lon="1.83019">
        <ele>222.6</ele>
        <time>2023-04-08T06:48:31Z</time>
      </trkpt>
      <trkpt lat="44.48132" lon="1.83021">
        <ele>220.6</ele>
        <time>2023-04-08T06:48:33Z</time>
      </trkpt>
      <trkpt lat="44.4812" lon="1.83024">
        <ele>219.2</ele>
        <time>2023-04-08T06:48:35Z</time>
      </trkpt>
      <trkpt lat="44.48109" lon="1.83027">
        <ele>218.1</ele>
        <time>2023-04-08T06:48:37Z</time>
      </trkpt>
      <trkpt lat="44.48098" lon="1.83031">
        <ele>216.9</ele>
        <time>2023-04-08T06:48:39Z</time>
      </trkpt>
      <trkpt lat="44.48085" lon="1.83039">
        <ele>215.4</ele>
        <time>2023-04-08T06:48:41Z</time>
      </trkpt>
      <trkpt lat="44.48071" lon="1.8305">
        <ele>213.7</ele>
        <time>2023-04-08T06:48:43Z</time>
      </trkpt>
      <trkpt lat="44.48058" lon="1.83063">
        <ele>212.1</ele>
        <time>2023-04-08T06:48:45Z</time>
      </trkpt>
      <trkpt lat="44.48047" lon="1.83079">
        <ele>210.4</ele>
        <time>2023-04-08T06:48:47Z</time>
      </trkpt>
      <trkpt lat="44.4804" lon="1.83098">
        <ele>208.8</ele>
        <time>2023-04-08T06:48:49Z</time>
      </trkpt>
      <trkpt lat="44.48032" lon="1.83116">
        <ele>207.4</ele>
        <time>2023-04-08T06:48:51Z</time>
      </trkpt>
      <trkpt lat="44.48025" lon="1.83132">
        <ele>206.4</ele>
        <time>2023-04-08T06:48:53Z</time>
      </trkpt>
      <trkpt lat="44.48015" lon="1.83146">
        <ele>205.6</ele>
        <time>2023-04-08T06:48:55Z</time>
      </trkpt>
      <trkpt lat="44.48005" lon="1.83159">
        <ele>205</ele>
        <time>2023-04-08T06:48:57Z</time>
      </trkpt>
      <trkpt lat="44.47996" lon="1.83173">
        <ele>204.3</ele>
        <time>2023-04-08T06:48:59Z</time>
      </trkpt>
      <trkpt lat="44.47987" lon="1.83187">
        <ele>203.5</ele>
        <time>2023-04-08T06:49:01Z</time>
      </trkpt>
      <trkpt lat="44.47977" lon="1.83201">
        <ele>202.9</ele>
        <time>2023-04-08T06:49:03Z</time>
      </trkpt>
      <trkpt lat="44.47967" lon="1.83214">
        <ele>202.3</ele>
        <time>2023-04-08T06:49:05Z</time>
      </trkpt>
      <trkpt lat="44.47957" lon="1.83225">
        <ele>201.6</ele>
        <time>2023-04-08T06:49:07Z</time>
      </trkpt>
      <trkpt lat="44.47948" lon="1.83227">
        <ele>201</ele>
        <time>2023-04-08T06:49:09Z</time>
      </trkpt>
      <trkpt lat="44.47938" lon="1.83223">
        <ele>199.9</ele>
        <time>2023-04-08T06:49:12Z</time>
      </trkpt>
      <trkpt lat="44.4793" lon="1.83217">
        <ele>198.7</ele>
        <time>2023-04-08T06:49:15Z</time>
      </trkpt>
      <trkpt lat="44.47919" lon="1.83208">
        <ele>197.4</ele>
        <time>2023-04-08T06:49:18Z</time>
      </trkpt>
      <trkpt lat="44.47911" lon="1.83199">
        <ele>196.9</ele>
        <time>2023-04-08T06:49:21Z</time>
      </trkpt>
      <trkpt lat="44.47907" lon="1.83196">
        <ele>196.9</ele>
        <time>2023-04-08T06:49:27Z</time>
      </trkpt>
      <trkpt lat="44.47907" lon="1.83195">
        <ele>196.9</ele>
        <time>2023-04-08T06:51:00Z</time>
      </trkpt>
      <trkpt lat="44.47907" lon="1.83196">
        <ele>196.9</ele>
        <time>2023-04-08T06:51:01Z</time>
      </trkpt>
      <trkpt lat="44.47907" lon="1.83196">
        <ele>196.9</ele>
        <time>2023-04-08T06:51:02Z</time>
      </trkpt>
      <trkpt lat="44.4791" lon="1.83197">
        <ele>196.9</ele>
        <time>2023-04-08T06:51:10Z</time>
      </trkpt>
      <trkpt lat="44.4791" lon="1.83197">
        <ele>196.9</ele>
        <time>2023-04-08T06:51:24Z</time>
      </trkpt>
      <trkpt lat="44.4791" lon="1.83197">
        <ele>196.9</ele>
        <time>2023-04-08T06:51:25Z</time>
      </trkpt>
      <trkpt lat="44.47909" lon="1.83196">
        <ele>197</ele>
        <time>2023-04-08T06:51:31Z</time>
      </trkpt>
      <trkpt lat="44.47902" lon="1.83185">
        <ele>197.2</ele>
        <time>2023-04-08T06:51:35Z</time>
      </trkpt>
      <trkpt lat="44.47893" lon="1.83174">
        <ele>197.6</ele>
        <time>2023-04-08T06:51:39Z</time>
      </trkpt>
      <trkpt lat="44.47887" lon="1.83165">
        <ele>198.1</ele>
        <time>2023-04-08T06:51:42Z</time>
      </trkpt>
      <trkpt lat="44.47881" lon="1.83151">
        <ele>198.7</ele>
        <time>2023-04-08T06:51:46Z</time>
      </trkpt>
      <trkpt lat="44.47873" lon="1.8314">
        <ele>199.2</ele>
        <time>2023-04-08T06:51:50Z</time>
      </trkpt>
      <trkpt lat="44.47865" lon="1.83129">
        <ele>199.8</ele>
        <time>2023-04-08T06:51:54Z</time>
      </trkpt>
      <trkpt lat="44.47859" lon="1.83119">
        <ele>200.4</ele>
        <time>2023-04-08T06:51:57Z</time>
      </trkpt>
      <trkpt lat="44.47851" lon="1.8311">
        <ele>201.7</ele>
        <time>2023-04-08T06:52:01Z</time>
      </trkpt>
      <trkpt lat="44.47848" lon="1.83109">
        <ele>202.2</ele>
        <time>2023-04-08T06:52:04Z</time>
      </trkpt>
      <trkpt lat="44.47847" lon="1.83109">
        <ele>202.2</ele>
        <time>2023-04-08T06:52:21Z</time>
      </trkpt>
      <trkpt lat="44.47843" lon="1.83098">
        <ele>203.5</ele>
        <time>2023-04-08T06:52:28Z</time>
      </trkpt>
      <trkpt lat="44.4784" lon="1.83084">
        <ele>205</ele>
        <time>2023-04-08T06:52:36Z</time>
      </trkpt>
      <trkpt lat="44.4784" lon="1.83084">
        <ele>205</ele>
        <time>2023-04-08T06:52:38Z</time>
      </trkpt>
      <trkpt lat="44.4784" lon="1.83082">
        <ele>205.2</ele>
        <time>2023-04-08T06:52:40Z</time>
      </trkpt>
      <trkpt lat="44.47843" lon="1.83068">
        <ele>207</ele>
        <time>2023-04-08T06:52:46Z</time>
      </trkpt>
      <trkpt lat="44.47845" lon="1.83053">
        <ele>209.1</ele>
        <time>2023-04-08T06:52:52Z</time>
      </trkpt>
      <trkpt lat="44.47844" lon="1.83039">
        <ele>210.8</ele>
        <time>2023-04-08T06:52:59Z</time>
      </trkpt>
      <trkpt lat="44.47844" lon="1.83025">
        <ele>212.4</ele>
        <time>2023-04-08T06:53:05Z</time>
      </trkpt>
      <trkpt lat="44.47847" lon="1.83013">
        <ele>214</ele>
        <time>2023-04-08T06:53:12Z</time>
      </trkpt>
      <trkpt lat="44.47848" lon="1.83007">
        <ele>214.6</ele>
        <time>2023-04-08T06:53:18Z</time>
      </trkpt>
      <trkpt lat="44.47847" lon="1.83007">
        <ele>214.7</ele>
        <time>2023-04-08T06:53:25Z</time>
      </trkpt>
      <trkpt lat="44.47847" lon="1.83007">
        <ele>214.7</ele>
        <time>2023-04-08T06:53:26Z</time>
      </trkpt>
      <trkpt lat="44.47847" lon="1.83007">
        <ele>214.7</ele>
        <time>2023-04-08T06:53:27Z</time>
      </trkpt>
      <trkpt lat="44.47847" lon="1.83007">
        <ele>214.7</ele>
        <time>2023-04-08T06:53:28Z</time>
      </trkpt>
      <trkpt lat="44.47847" lon="1.83006">
        <ele>214.8</ele>
        <time>2023-04-08T06:53:31Z</time>
      </trkpt>
      <trkpt lat="44.47848" lon="1.83002">
        <ele>215.3</ele>
        <time>2023-04-08T06:53:37Z</time>
      </trkpt>
      <trkpt lat="44.47848" lon="1.83002">
        <ele>215.3</ele>
        <time>2023-04-08T06:53:39Z</time>
      </trkpt>
      <trkpt lat="44.4785" lon="1.82989">
        <ele>216.7</ele>
        <time>2023-04-08T06:53:47Z</time>
      </trkpt>
      <trkpt lat="44.47852" lon="1.82975">
        <ele>218</ele>
        <time>2023-04-08T06:53:53Z</time>
      </trkpt>
      <trkpt lat="44.47853" lon="1.82962">
        <ele>219.3</ele>
        <time>2023-04-08T06:53:59Z</time>
      </trkpt>
      <trkpt lat="44.47855" lon="1.82949">
        <ele>220.5</ele>
        <time>2023-04-08T06:54:05Z</time>
      </trkpt>
      <trkpt lat="44.47857" lon="1.82934">
        <ele>222.1</ele>
        <time>2023-04-08T06:54:12Z</time>
      </trkpt>
      <trkpt lat="44.4786" lon="1.82922">
        <ele>223.5</ele>
        <time>2023-04-08T06:54:17Z</time>
      </trkpt>
      <trkpt lat="44.47862" lon="1.82909">
        <ele>225.1</ele>
        <time>2023-04-08T06:54:24Z</time>
      </trkpt>
      <trkpt lat="44.47864" lon="1.82895">
        <ele>226.5</ele>
        <time>2023-04-08T06:54:30Z</time>
      </trkpt>
      <trkpt lat="44.47867" lon="1.82882">
        <ele>227.9</ele>
        <time>2023-04-08T06:54:36Z</time>
      </trkpt>
      <trkpt lat="44.4787" lon="1.82869">
        <ele>229.5</ele>
        <time>2023-04-08T06:54:42Z</time>
      </trkpt>
      <trkpt lat="44.47871" lon="1.82854">
        <ele>231.3</ele>
        <time>2023-04-08T06:54:49Z</time>
      </trkpt>
      <trkpt lat="44.47871" lon="1.8284">
        <ele>232.8</ele>
        <time>2023-04-08T06:54:55Z</time>
      </trkpt>
      <trkpt lat="44.47871" lon="1.82826">
        <ele>234.2</ele>
        <time>2023-04-08T06:55:01Z</time>
      </trkpt>
      <trkpt lat="44.47871" lon="1.82823">
        <ele>234.4</ele>
        <time>2023-04-08T06:55:06Z</time>
      </trkpt>
      <trkpt lat="44.47871" lon="1.82822">
        <ele>234.5</ele>
        <time>2023-04-08T06:55:15Z</time>
      </trkpt>
      <trkpt lat="44.47871" lon="1.82807">
        <ele>235.7</ele>
        <time>2023-04-08T06:55:21Z</time>
      </trkpt>
      <trkpt lat="44.47871" lon="1.82793">
        <ele>237</ele>
        <time>2023-04-08T06:55:26Z</time>
      </trkpt>
      <trkpt lat="44.47871" lon="1.82778">
        <ele>238.4</ele>
        <time>2023-04-08T06:55:32Z</time>
      </trkpt>
      <trkpt lat="44.47871" lon="1.82765">
        <ele>239.6</ele>
        <time>2023-04-08T06:55:38Z</time>
      </trkpt>
      <trkpt lat="44.47871" lon="1.82751">
        <ele>240.7</ele>
        <time>2023-04-08T06:55:44Z</time>
      </trkpt>
      <trkpt lat="44.4787" lon="1.82738">
        <ele>241.7</ele>
        <time>2023-04-08T06:55:49Z</time>
      </trkpt>
      <trkpt lat="44.4787" lon="1.82724">
        <ele>242.8</ele>
        <time>2023-04-08T06:55:54Z</time>
      </trkpt>
      <trkpt lat="44.47871" lon="1.82711">
        <ele>244.1</ele>
        <time>2023-04-08T06:55:59Z</time>
      </trkpt>
      <trkpt lat="44.47873" lon="1.82698">
        <ele>245.4</ele>
        <time>2023-04-08T06:56:04Z</time>
      </trkpt>
      <trkpt lat="44.47875" lon="1.82684">
        <ele>246.9</ele>
        <time>2023-04-08T06:56:10Z</time>
      </trkpt>
      <trkpt lat="44.47878" lon="1.82671">
        <ele>248.3</ele>
        <time>2023-04-08T06:56:16Z</time>
      </trkpt>
      <trkpt lat="44.4788" lon="1.82659">
        <ele>249.5</ele>
        <time>2023-04-08T06:56:22Z</time>
      </trkpt>
      <trkpt lat="44.4788" lon="1.82645">
        <ele>250.6</ele>
        <time>2023-04-08T06:56:28Z</time>
      </trkpt>
      <trkpt lat="44.47875" lon="1.82632">
        <ele>251.5</ele>
        <time>2023-04-08T06:56:34Z</time>
      </trkpt>
      <trkpt lat="44.4787" lon="1.82619">
        <ele>252.4</ele>
        <time>2023-04-08T06:56:40Z</time>
      </trkpt>
      <trkpt lat="44.47868" lon="1.82606">
        <ele>253.1</ele>
        <time>2023-04-08T06:56:45Z</time>
      </trkpt>
      <trkpt lat="44.47868" lon="1.8259">
        <ele>253.9</ele>
        <time>2023-04-08T06:56:50Z</time>
      </trkpt>
      <trkpt lat="44.4787" lon="1.82576">
        <ele>254.4</ele>
        <time>2023-04-08T06:56:54Z</time>
      </trkpt>
      <trkpt lat="44.47872" lon="1.82562">
        <ele>255</ele>
        <time>2023-04-08T06:56:58Z</time>
      </trkpt>
      <trkpt lat="44.47872" lon="1.82549">
        <ele>255.5</ele>
        <time>2023-04-08T06:57:02Z</time>
      </trkpt>
      <trkpt lat="44.47873" lon="1.82535">
        <ele>256.1</ele>
        <time>2023-04-08T06:57:06Z</time>
      </trkpt>
      <trkpt lat="44.47874" lon="1.82521">
        <ele>256.7</ele>
        <time>2023-04-08T06:57:10Z</time>
      </trkpt>
      <trkpt lat="44.47876" lon="1.82507">
        <ele>257.2</ele>
        <time>2023-04-08T06:57:14Z</time>
      </trkpt>
      <trkpt lat="44.47878" lon="1.82492">
        <ele>257.5</ele>
        <time>2023-04-08T06:57:18Z</time>
      </trkpt>
      <trkpt lat="44.47879" lon="1.82477">
        <ele>257.7</ele>
        <time>2023-04-08T06:57:21Z</time>
      </trkpt>
      <trkpt lat="44.47881" lon="1.82463">
        <ele>257.9</ele>
        <time>2023-04-08T06:57:24Z</time>
      </trkpt>
      <trkpt lat="44.47882" lon="1.8245">
        <ele>258</ele>
        <time>2023-04-08T06:57:27Z</time>
      </trkpt>
      <trkpt lat="44.47879" lon="1.82433">
        <ele>257.9</ele>
        <time>2023-04-08T06:57:31Z</time>
      </trkpt>
      <trkpt lat="44.47875" lon="1.82421">
        <ele>257.8</ele>
        <time>2023-04-08T06:57:34Z</time>
      </trkpt>
      <trkpt lat="44.47871" lon="1.82406">
        <ele>257.5</ele>
        <time>2023-04-08T06:57:38Z</time>
      </trkpt>
      <trkpt lat="44.47866" lon="1.82391">
        <ele>257.4</ele>
        <time>2023-04-08T06:57:41Z</time>
      </trkpt>
      <trkpt lat="44.47864" lon="1.82374">
        <ele>257.4</ele>
        <time>2023-04-08T06:57:44Z</time>
      </trkpt>
      <trkpt lat="44.47863" lon="1.82359">
        <ele>257.7</ele>
        <time>2023-04-08T06:57:47Z</time>
      </trkpt>
      <trkpt lat="44.47864" lon="1.82343">
        <ele>258</ele>
        <time>2023-04-08T06:57:50Z</time>
      </trkpt>
      <trkpt lat="44.47865" lon="1.82327">
        <ele>258.3</ele>
        <time>2023-04-08T06:57:53Z</time>
      </trkpt>
      <trkpt lat="44.47866" lon="1.82311">
        <ele>258.7</ele>
        <time>2023-04-08T06:57:56Z</time>
      </trkpt>
      <trkpt lat="44.47867" lon="1.82296">
        <ele>259.1</ele>
        <time>2023-04-08T06:57:59Z</time>
      </trkpt>
      <trkpt lat="44.47863" lon="1.82283">
        <ele>259.5</ele>
        <time>2023-04-08T06:58:02Z</time>
      </trkpt>
      <trkpt lat="44.47857" lon="1.82269">
        <ele>259.9</ele>
        <time>2023-04-08T06:58:05Z</time>
      </trkpt>
      <trkpt lat="44.47853" lon="1.82254">
        <ele>260.4</ele>
        <time>2023-04-08T06:58:08Z</time>
      </trkpt>
      <trkpt lat="44.47852" lon="1.82239">
        <ele>260.7</ele>
        <time>2023-04-08T06:58:11Z</time>
      </trkpt>
      <trkpt lat="44.47852" lon="1.82224">
        <ele>260.8</ele>
        <time>2023-04-08T06:58:14Z</time>
      </trkpt>
      <trkpt lat="44.47853" lon="1.82212">
        <ele>260.4</ele>
        <time>2023-04-08T06:58:17Z</time>
      </trkpt>
      <trkpt lat="44.47853" lon="1.82197">
        <ele>259.5</ele>
        <time>2023-04-08T06:58:20Z</time>
      </trkpt>
      <trkpt lat="44.47854" lon="1.82182">
        <ele>258.6</ele>
        <time>2023-04-08T06:58:22Z</time>
      </trkpt>
      <trkpt lat="44.47854" lon="1.82166">
        <ele>257.9</ele>
        <time>2023-04-08T06:58:24Z</time>
      </trkpt>
      <trkpt lat="44.47852" lon="1.82151">
        <ele>257.2</ele>
        <time>2023-04-08T06:58:26Z</time>
      </trkpt>
      <trkpt lat="44.47849" lon="1.82138">
        <ele>256.3</ele>
        <time>2023-04-08T06:58:28Z</time>
      </trkpt>
      <trkpt lat="44.47846" lon="1.82125">
        <ele>255.1</ele>
        <time>2023-04-08T06:58:30Z</time>
      </trkpt>
      <trkpt lat="44.47841" lon="1.82112">
        <ele>253.7</ele>
        <time>2023-04-08T06:58:32Z</time>
      </trkpt>
      <trkpt lat="44.47838" lon="1.82098">
        <ele>252.1</ele>
        <time>2023-04-08T06:58:34Z</time>
      </trkpt>
      <trkpt lat="44.47836" lon="1.82079">
        <ele>250.7</ele>
        <time>2023-04-08T06:58:36Z</time>
      </trkpt>
      <trkpt lat="44.47837" lon="1.82059">
        <ele>249.9</ele>
        <time>2023-04-08T06:58:38Z</time>
      </trkpt>
      <trkpt lat="44.47836" lon="1.8204">
        <ele>249.9</ele>
        <time>2023-04-08T06:58:40Z</time>
      </trkpt>
      <trkpt lat="44.47828" lon="1.82027">
        <ele>250</ele>
        <time>2023-04-08T06:58:42Z</time>
      </trkpt>
      <trkpt lat="44.4782" lon="1.82013">
        <ele>249.9</ele>
        <time>2023-04-08T06:58:45Z</time>
      </trkpt>
      <trkpt lat="44.47814" lon="1.82001">
        <ele>249.7</ele>
        <time>2023-04-08T06:58:48Z</time>
      </trkpt>
      <trkpt lat="44.47806" lon="1.81987">
        <ele>249.2</ele>
        <time>2023-04-08T06:58:51Z</time>
      </trkpt>
      <trkpt lat="44.47801" lon="1.81976">
        <ele>248.8</ele>
        <time>2023-04-08T06:58:53Z</time>
      </trkpt>
      <trkpt lat="44.47795" lon="1.81965">
        <ele>248.5</ele>
        <time>2023-04-08T06:58:55Z</time>
      </trkpt>
      <trkpt lat="44.47788" lon="1.81954">
        <ele>248.3</ele>
        <time>2023-04-08T06:58:57Z</time>
      </trkpt>
      <trkpt lat="44.47782" lon="1.81941">
        <ele>248.1</ele>
        <time>2023-04-08T06:58:59Z</time>
      </trkpt>
      <trkpt lat="44.47775" lon="1.81928">
        <ele>247.9</ele>
        <time>2023-04-08T06:59:01Z</time>
      </trkpt>
      <trkpt lat="44.4777" lon="1.81917">
        <ele>247.8</ele>
        <time>2023-04-08T06:59:03Z</time>
      </trkpt>
      <trkpt lat="44.47762" lon="1.81903">
        <ele>247.7</ele>
        <time>2023-04-08T06:59:06Z</time>
      </trkpt>
      <trkpt lat="44.47753" lon="1.81889">
        <ele>247.6</ele>
        <time>2023-04-08T06:59:09Z</time>
      </trkpt>
      <trkpt lat="44.47744" lon="1.81875">
        <ele>247</ele>
        <time>2023-04-08T06:59:12Z</time>
      </trkpt>
      <trkpt lat="44.47738" lon="1.81865">
        <ele>246.4</ele>
        <time>2023-04-08T06:59:14Z</time>
      </trkpt>
      <trkpt lat="44.47733" lon="1.81853">
        <ele>245.9</ele>
        <time>2023-04-08T06:59:16Z</time>
      </trkpt>
      <trkpt lat="44.4773" lon="1.81841">
        <ele>245.4</ele>
        <time>2023-04-08T06:59:18Z</time>
      </trkpt>
      <trkpt lat="44.47726" lon="1.8183">
        <ele>245</ele>
        <time>2023-04-08T06:59:20Z</time>
      </trkpt>
      <trkpt lat="44.47721" lon="1.8182">
        <ele>244.7</ele>
        <time>2023-04-08T06:59:22Z</time>
      </trkpt>
      <trkpt lat="44.47712" lon="1.81808">
        <ele>244</ele>
        <time>2023-04-08T06:59:25Z</time>
      </trkpt>
      <trkpt lat="44.47707" lon="1.818">
        <ele>243.2</ele>
        <time>2023-04-08T06:59:30Z</time>
      </trkpt>
      <trkpt lat="44.47707" lon="1.818">
        <ele>243.2</ele>
        <time>2023-04-08T06:59:37Z</time>
      </trkpt>
      <trkpt lat="44.47707" lon="1.818">
        <ele>243.2</ele>
        <time>2023-04-08T06:59:38Z</time>
      </trkpt>
      <trkpt lat="44.47707" lon="1.818">
        <ele>243.2</ele>
        <time>2023-04-08T06:59:51Z</time>
      </trkpt>
      <trkpt lat="44.47707" lon="1.818">
        <ele>243.1</ele>
        <time>2023-04-08T06:59:53Z</time>
      </trkpt>
      <trkpt lat="44.47707" lon="1.818">
        <ele>243.1</ele>
        <time>2023-04-08T06:59:54Z</time>
      </trkpt>
      <trkpt lat="44.47707" lon="1.818">
        <ele>243.1</ele>
        <time>2023-04-08T06:59:55Z</time>
      </trkpt>
      <trkpt lat="44.47707" lon="1.818">
        <ele>243.1</ele>
        <time>2023-04-08T07:01:41Z</time>
      </trkpt>
      <trkpt lat="44.47703" lon="1.81788">
        <ele>241.6</ele>
        <time>2023-04-08T07:01:46Z</time>
      </trkpt>
      <trkpt lat="44.47699" lon="1.81774">
        <ele>239.8</ele>
        <time>2023-04-08T07:01:49Z</time>
      </trkpt>
      <trkpt lat="44.47695" lon="1.81757">
        <ele>237.5</ele>
        <time>2023-04-08T07:01:52Z</time>
      </trkpt>
      <trkpt lat="44.47689" lon="1.81741">
        <ele>235</ele>
        <time>2023-04-08T07:01:55Z</time>
      </trkpt>
      <trkpt lat="44.4768" lon="1.81729">
        <ele>232.5</ele>
        <time>2023-04-08T07:01:58Z</time>
      </trkpt>
      <trkpt lat="44.47671" lon="1.81716">
        <ele>229.7</ele>
        <time>2023-04-08T07:02:01Z</time>
      </trkpt>
      <trkpt lat="44.47661" lon="1.8171">
        <ele>227.5</ele>
        <time>2023-04-08T07:02:03Z</time>
      </trkpt>
      <trkpt lat="44.47649" lon="1.81705">
        <ele>224.7</ele>
        <time>2023-04-08T07:02:05Z</time>
      </trkpt>
      <trkpt lat="44.47638" lon="1.817">
        <ele>222.2</ele>
        <time>2023-04-08T07:02:07Z</time>
      </trkpt>
      <trkpt lat="44.4763" lon="1.81693">
        <ele>220.2</ele>
        <time>2023-04-08T07:02:09Z</time>
      </trkpt>
      <trkpt lat="44.47626" lon="1.8168">
        <ele>218.1</ele>
        <time>2023-04-08T07:02:11Z</time>
      </trkpt>
      <trkpt lat="44.47621" lon="1.81665">
        <ele>216</ele>
        <time>2023-04-08T07:02:13Z</time>
      </trkpt>
      <trkpt lat="44.47616" lon="1.8165">
        <ele>214.2</ele>
        <time>2023-04-08T07:02:15Z</time>
      </trkpt>
      <trkpt lat="44.47614" lon="1.81633">
        <ele>212.6</ele>
        <time>2023-04-08T07:02:17Z</time>
      </trkpt>
      <trkpt lat="44.47614" lon="1.81617">
        <ele>210.8</ele>
        <time>2023-04-08T07:02:19Z</time>
      </trkpt>
      <trkpt lat="44.47609" lon="1.81603">
        <ele>209</ele>
        <time>2023-04-08T07:02:21Z</time>
      </trkpt>
      <trkpt lat="44.4761" lon="1.81586">
        <ele>207</ele>
        <time>2023-04-08T07:02:23Z</time>
      </trkpt>
      <trkpt lat="44.47611" lon="1.81568">
        <ele>205.2</ele>
        <time>2023-04-08T07:02:25Z</time>
      </trkpt>
      <trkpt lat="44.47609" lon="1.8155">
        <ele>202.9</ele>
        <time>2023-04-08T07:02:27Z</time>
      </trkpt>
      <trkpt lat="44.47608" lon="1.81532">
        <ele>200.6</ele>
        <time>2023-04-08T07:02:29Z</time>
      </trkpt>
      <trkpt lat="44.47606" lon="1.81513">
        <ele>198.3</ele>
        <time>2023-04-08T07:02:31Z</time>
      </trkpt>
      <trkpt lat="44.47602" lon="1.81492">
        <ele>195.8</ele>
        <time>2023-04-08T07:02:33Z</time>
      </trkpt>
      <trkpt lat="44.47597" lon="1.81473">
        <ele>193.3</ele>
        <time>2023-04-08T07:02:35Z</time>
      </trkpt>
      <trkpt lat="44.47592" lon="1.81456">
        <ele>191.2</ele>
        <time>2023-04-08T07:02:37Z</time>
      </trkpt>
      <trkpt lat="44.47591" lon="1.81438">
        <ele>189</ele>
        <time>2023-04-08T07:02:39Z</time>
      </trkpt>
      <trkpt lat="44.47594" lon="1.81421">
        <ele>187</ele>
        <time>2023-04-08T07:02:41Z</time>
      </trkpt>
      <trkpt lat="44.47598" lon="1.81401">
        <ele>185</ele>
        <time>2023-04-08T07:02:43Z</time>
      </trkpt>
      <trkpt lat="44.47602" lon="1.81378">
        <ele>183</ele>
        <time>2023-04-08T07:02:45Z</time>
      </trkpt>
      <trkpt lat="44.47605" lon="1.81362">
        <ele>182.1</ele>
        <time>2023-04-08T07:02:47Z</time>
      </trkpt>
      <trkpt lat="44.47611" lon="1.8135">
        <ele>181.9</ele>
        <time>2023-04-08T07:02:50Z</time>
      </trkpt>
      <trkpt lat="44.47621" lon="1.81347">
        <ele>181.9</ele>
        <time>2023-04-08T07:02:53Z</time>
      </trkpt>
      <trkpt lat="44.47628" lon="1.81348">
        <ele>180.7</ele>
        <time>2023-04-08T07:02:58Z</time>
      </trkpt>
      <trkpt lat="44.47628" lon="1.81348">
        <ele>180.6</ele>
        <time>2023-04-08T07:03:19Z</time>
      </trkpt>
      <trkpt lat="44.47628" lon="1.81348">
        <ele>180.6</ele>
        <time>2023-04-08T07:03:20Z</time>
      </trkpt>
      <trkpt lat="44.47628" lon="1.81348">
        <ele>180.6</ele>
        <time>2023-04-08T07:03:28Z</time>
      </trkpt>
      <trkpt lat="44.47628" lon="1.81348">
        <ele>180.6</ele>
        <time>2023-04-08T07:03:29Z</time>
      </trkpt>
      <trkpt lat="44.47628" lon="1.81349">
        <ele>180.5</ele>
        <time>2023-04-08T07:03:34Z</time>
      </trkpt>
      <trkpt lat="44.47637" lon="1.8136">
        <ele>178.9</ele>
        <time>2023-04-08T07:03:38Z</time>
      </trkpt>
      <trkpt lat="44.47647" lon="1.81372">
        <ele>177.8</ele>
        <time>2023-04-08T07:03:40Z</time>
      </trkpt>
      <trkpt lat="44.47658" lon="1.81386">
        <ele>177.1</ele>
        <time>2023-04-08T07:03:42Z</time>
      </trkpt>
      <trkpt lat="44.47669" lon="1.814">
        <ele>177.1</ele>
        <time>2023-04-08T07:03:44Z</time>
      </trkpt>
      <trkpt lat="44.4768" lon="1.81412">
        <ele>177.7</ele>
        <time>2023-04-08T07:03:46Z</time>
      </trkpt>
      <trkpt lat="44.4769" lon="1.8142">
        <ele>178.4</ele>
        <time>2023-04-08T07:03:48Z</time>
      </trkpt>
      <trkpt lat="44.47701" lon="1.81423">
        <ele>179</ele>
        <time>2023-04-08T07:03:50Z</time>
      </trkpt>
      <trkpt lat="44.47711" lon="1.81425">
        <ele>179.6</ele>
        <time>2023-04-08T07:03:52Z</time>
      </trkpt>
      <trkpt lat="44.47721" lon="1.81425">
        <ele>180.2</ele>
        <time>2023-04-08T07:03:54Z</time>
      </trkpt>
      <trkpt lat="44.47731" lon="1.81425">
        <ele>180.9</ele>
        <time>2023-04-08T07:03:56Z</time>
      </trkpt>
      <trkpt lat="44.47744" lon="1.81423">
        <ele>181.9</ele>
        <time>2023-04-08T07:03:59Z</time>
      </trkpt>
      <trkpt lat="44.47756" lon="1.81422">
        <ele>182.9</ele>
        <time>2023-04-08T07:04:02Z</time>
      </trkpt>
      <trkpt lat="44.47767" lon="1.8142">
        <ele>183.9</ele>
        <time>2023-04-08T07:04:05Z</time>
      </trkpt>
      <trkpt lat="44.47779" lon="1.81417">
        <ele>184.8</ele>
        <time>2023-04-08T07:04:08Z</time>
      </trkpt>
      <trkpt lat="44.4779" lon="1.81414">
        <ele>185.7</ele>
        <time>2023-04-08T07:04:11Z</time>
      </trkpt>
      <trkpt lat="44.47801" lon="1.81411">
        <ele>186.5</ele>
        <time>2023-04-08T07:04:14Z</time>
      </trkpt>
      <trkpt lat="44.47812" lon="1.81409">
        <ele>187.2</ele>
        <time>2023-04-08T07:04:17Z</time>
      </trkpt>
      <trkpt lat="44.47823" lon="1.81407">
        <ele>188</ele>
        <time>2023-04-08T07:04:20Z</time>
      </trkpt>
      <trkpt lat="44.47833" lon="1.81402">
        <ele>188.9</ele>
        <time>2023-04-08T07:04:23Z</time>
      </trkpt>
      <trkpt lat="44.47844" lon="1.81395">
        <ele>189.7</ele>
        <time>2023-04-08T07:04:26Z</time>
      </trkpt>
      <trkpt lat="44.47854" lon="1.81388">
        <ele>190.6</ele>
        <time>2023-04-08T07:04:29Z</time>
      </trkpt>
      <trkpt lat="44.47864" lon="1.8138">
        <ele>191.6</ele>
        <time>2023-04-08T07:04:32Z</time>
      </trkpt>
      <trkpt lat="44.47875" lon="1.81376">
        <ele>192.3</ele>
        <time>2023-04-08T07:04:35Z</time>
      </trkpt>
      <trkpt lat="44.47887" lon="1.81374">
        <ele>192.8</ele>
        <time>2023-04-08T07:04:38Z</time>
      </trkpt>
      <trkpt lat="44.47898" lon="1.81374">
        <ele>193.4</ele>
        <time>2023-04-08T07:04:41Z</time>
      </trkpt>
      <trkpt lat="44.47909" lon="1.81375">
        <ele>194.1</ele>
        <time>2023-04-08T07:04:44Z</time>
      </trkpt>
      <trkpt lat="44.47919" lon="1.81376">
        <ele>194.7</ele>
        <time>2023-04-08T07:04:47Z</time>
      </trkpt>
      <trkpt lat="44.47931" lon="1.81373">
        <ele>195.2</ele>
        <time>2023-04-08T07:04:50Z</time>
      </trkpt>
      <trkpt lat="44.47943" lon="1.8137">
        <ele>195.5</ele>
        <time>2023-04-08T07:04:53Z</time>
      </trkpt>
      <trkpt lat="44.47955" lon="1.81369">
        <ele>195.9</ele>
        <time>2023-04-08T07:04:56Z</time>
      </trkpt>
      <trkpt lat="44.47967" lon="1.81371">
        <ele>196.4</ele>
        <time>2023-04-08T07:04:59Z</time>
      </trkpt>
      <trkpt lat="44.47977" lon="1.81375">
        <ele>197</ele>
        <time>2023-04-08T07:05:02Z</time>
      </trkpt>
      <trkpt lat="44.47986" lon="1.81383">
        <ele>197.7</ele>
        <time>2023-04-08T07:05:05Z</time>
      </trkpt>
      <trkpt lat="44.47996" lon="1.81391">
        <ele>198.3</ele>
        <time>2023-04-08T07:05:08Z</time>
      </trkpt>
      <trkpt lat="44.48005" lon="1.81398">
        <ele>198.8</ele>
        <time>2023-04-08T07:05:11Z</time>
      </trkpt>
      <trkpt lat="44.48014" lon="1.81406">
        <ele>199.1</ele>
        <time>2023-04-08T07:05:14Z</time>
      </trkpt>
      <trkpt lat="44.48024" lon="1.81414">
        <ele>199.6</ele>
        <time>2023-04-08T07:05:17Z</time>
      </trkpt>
      <trkpt lat="44.48034" lon="1.81419">
        <ele>200.2</ele>
        <time>2023-04-08T07:05:20Z</time>
      </trkpt>
      <trkpt lat="44.48043" lon="1.81423">
        <ele>200.8</ele>
        <time>2023-04-08T07:05:23Z</time>
      </trkpt>
      <trkpt lat="44.48054" lon="1.81427">
        <ele>201.5</ele>
        <time>2023-04-08T07:05:26Z</time>
      </trkpt>
      <trkpt lat="44.48064" lon="1.8143">
        <ele>202.1</ele>
        <time>2023-04-08T07:05:29Z</time>
      </trkpt>
      <trkpt lat="44.48075" lon="1.81433">
        <ele>202.7</ele>
        <time>2023-04-08T07:05:32Z</time>
      </trkpt>
      <trkpt lat="44.48085" lon="1.81435">
        <ele>203.3</ele>
        <time>2023-04-08T07:05:35Z</time>
      </trkpt>
      <trkpt lat="44.48096" lon="1.81435">
        <ele>203.9</ele>
        <time>2023-04-08T07:05:38Z</time>
      </trkpt>
      <trkpt lat="44.48108" lon="1.81431">
        <ele>204.4</ele>
        <time>2023-04-08T07:05:41Z</time>
      </trkpt>
      <trkpt lat="44.48116" lon="1.81419">
        <ele>204.9</ele>
        <time>2023-04-08T07:05:44Z</time>
      </trkpt>
      <trkpt lat="44.48122" lon="1.81406">
        <ele>205.5</ele>
        <time>2023-04-08T07:05:47Z</time>
      </trkpt>
      <trkpt lat="44.48133" lon="1.81404">
        <ele>206.2</ele>
        <time>2023-04-08T07:05:51Z</time>
      </trkpt>
      <trkpt lat="44.48142" lon="1.81408">
        <ele>206.8</ele>
        <time>2023-04-08T07:05:54Z</time>
      </trkpt>
      <trkpt lat="44.48153" lon="1.81412">
        <ele>207.1</ele>
        <time>2023-04-08T07:05:57Z</time>
      </trkpt>
      <trkpt lat="44.48164" lon="1.81418">
        <ele>207.4</ele>
        <time>2023-04-08T07:06:00Z</time>
      </trkpt>
      <trkpt lat="44.48175" lon="1.81426">
        <ele>207.7</ele>
        <time>2023-04-08T07:06:03Z</time>
      </trkpt>
      <trkpt lat="44.48186" lon="1.81436">
        <ele>208.2</ele>
        <time>2023-04-08T07:06:06Z</time>
      </trkpt>
      <trkpt lat="44.48197" lon="1.81444">
        <ele>208.8</ele>
        <time>2023-04-08T07:06:09Z</time>
      </trkpt>
      <trkpt lat="44.48206" lon="1.81449">
        <ele>209.4</ele>
        <time>2023-04-08T07:06:12Z</time>
      </trkpt>
      <trkpt lat="44.48216" lon="1.81456">
        <ele>209.9</ele>
        <time>2023-04-08T07:06:16Z</time>
      </trkpt>
      <trkpt lat="44.48226" lon="1.81463">
        <ele>210.4</ele>
        <time>2023-04-08T07:06:20Z</time>
      </trkpt>
      <trkpt lat="44.48235" lon="1.8147">
        <ele>210.8</ele>
        <time>2023-04-08T07:06:23Z</time>
      </trkpt>
      <trkpt lat="44.48244" lon="1.81478">
        <ele>211.3</ele>
        <time>2023-04-08T07:06:26Z</time>
      </trkpt>
      <trkpt lat="44.48254" lon="1.81484">
        <ele>211.9</ele>
        <time>2023-04-08T07:06:29Z</time>
      </trkpt>
      <trkpt lat="44.48264" lon="1.81486">
        <ele>212.6</ele>
        <time>2023-04-08T07:06:32Z</time>
      </trkpt>
      <trkpt lat="44.48275" lon="1.81486">
        <ele>213.4</ele>
        <time>2023-04-08T07:06:35Z</time>
      </trkpt>
      <trkpt lat="44.48285" lon="1.81486">
        <ele>214.2</ele>
        <time>2023-04-08T07:06:38Z</time>
      </trkpt>
      <trkpt lat="44.48294" lon="1.81486">
        <ele>215</ele>
        <time>2023-04-08T07:06:41Z</time>
      </trkpt>
      <trkpt lat="44.48306" lon="1.81486">
        <ele>216</ele>
        <time>2023-04-08T07:06:45Z</time>
      </trkpt>
      <trkpt lat="44.48317" lon="1.81487">
        <ele>217</ele>
        <time>2023-04-08T07:06:49Z</time>
      </trkpt>
      <trkpt lat="44.48329" lon="1.81489">
        <ele>217.9</ele>
        <time>2023-04-08T07:06:53Z</time>
      </trkpt>
      <trkpt lat="44.48339" lon="1.81492">
        <ele>218.4</ele>
        <time>2023-04-08T07:06:56Z</time>
      </trkpt>
      <trkpt lat="44.4835" lon="1.8149">
        <ele>219</ele>
        <time>2023-04-08T07:06:59Z</time>
      </trkpt>
      <trkpt lat="44.48359" lon="1.81486">
        <ele>219.5</ele>
        <time>2023-04-08T07:07:02Z</time>
      </trkpt>
      <trkpt lat="44.48369" lon="1.81481">
        <ele>220</ele>
        <time>2023-04-08T07:07:05Z</time>
      </trkpt>
      <trkpt lat="44.48379" lon="1.81477">
        <ele>220.3</ele>
        <time>2023-04-08T07:07:08Z</time>
      </trkpt>
      <trkpt lat="44.48388" lon="1.81472">
        <ele>220.6</ele>
        <time>2023-04-08T07:07:11Z</time>
      </trkpt>
      <trkpt lat="44.48397" lon="1.81468">
        <ele>220.8</ele>
        <time>2023-04-08T07:07:14Z</time>
      </trkpt>
      <trkpt lat="44.48407" lon="1.81464">
        <ele>220.9</ele>
        <time>2023-04-08T07:07:17Z</time>
      </trkpt>
      <trkpt lat="44.48418" lon="1.81463">
        <ele>221.1</ele>
        <time>2023-04-08T07:07:20Z</time>
      </trkpt>
      <trkpt lat="44.48429" lon="1.81464">
        <ele>221.3</ele>
        <time>2023-04-08T07:07:23Z</time>
      </trkpt>
      <trkpt lat="44.48441" lon="1.81464">
        <ele>221.7</ele>
        <time>2023-04-08T07:07:26Z</time>
      </trkpt>
      <trkpt lat="44.48453" lon="1.81464">
        <ele>222.2</ele>
        <time>2023-04-08T07:07:29Z</time>
      </trkpt>
      <trkpt lat="44.48464" lon="1.81463">
        <ele>222.7</ele>
        <time>2023-04-08T07:07:32Z</time>
      </trkpt>
      <trkpt lat="44.48475" lon="1.81462">
        <ele>223.4</ele>
        <time>2023-04-08T07:07:35Z</time>
      </trkpt>
      <trkpt lat="44.48486" lon="1.81465">
        <ele>224.1</ele>
        <time>2023-04-08T07:07:38Z</time>
      </trkpt>
      <trkpt lat="44.48496" lon="1.81466">
        <ele>224.9</ele>
        <time>2023-04-08T07:07:41Z</time>
      </trkpt>
      <trkpt lat="44.48506" lon="1.81466">
        <ele>225.5</ele>
        <time>2023-04-08T07:07:44Z</time>
      </trkpt>
      <trkpt lat="44.48518" lon="1.81466">
        <ele>226.1</ele>
        <time>2023-04-08T07:07:48Z</time>
      </trkpt>
      <trkpt lat="44.48527" lon="1.81467">
        <ele>226.5</ele>
        <time>2023-04-08T07:07:51Z</time>
      </trkpt>
      <trkpt lat="44.48539" lon="1.81468">
        <ele>227</ele>
        <time>2023-04-08T07:07:55Z</time>
      </trkpt>
      <trkpt lat="44.48551" lon="1.81469">
        <ele>227.7</ele>
        <time>2023-04-08T07:07:58Z</time>
      </trkpt>
      <trkpt lat="44.48561" lon="1.81471">
        <ele>228.5</ele>
        <time>2023-04-08T07:08:01Z</time>
      </trkpt>
      <trkpt lat="44.48572" lon="1.81471">
        <ele>229.4</ele>
        <time>2023-04-08T07:08:04Z</time>
      </trkpt>
      <trkpt lat="44.48581" lon="1.8147">
        <ele>230.3</ele>
        <time>2023-04-08T07:08:07Z</time>
      </trkpt>
      <trkpt lat="44.48591" lon="1.81473">
        <ele>231.1</ele>
        <time>2023-04-08T07:08:11Z</time>
      </trkpt>
      <trkpt lat="44.486" lon="1.81482">
        <ele>231.7</ele>
        <time>2023-04-08T07:08:15Z</time>
      </trkpt>
      <trkpt lat="44.48607" lon="1.81489">
        <ele>231.9</ele>
        <time>2023-04-08T07:08:18Z</time>
      </trkpt>
      <trkpt lat="44.48617" lon="1.81497">
        <ele>231.9</ele>
        <time>2023-04-08T07:08:21Z</time>
      </trkpt>
      <trkpt lat="44.48628" lon="1.81507">
        <ele>231.6</ele>
        <time>2023-04-08T07:08:24Z</time>
      </trkpt>
      <trkpt lat="44.48634" lon="1.81517">
        <ele>231.5</ele>
        <time>2023-04-08T07:08:26Z</time>
      </trkpt>
      <trkpt lat="44.48639" lon="1.81529">
        <ele>231.5</ele>
        <time>2023-04-08T07:08:28Z</time>
      </trkpt>
      <trkpt lat="44.48645" lon="1.81544">
        <ele>231.7</ele>
        <time>2023-04-08T07:08:31Z</time>
      </trkpt>
      <trkpt lat="44.48654" lon="1.81557">
        <ele>232</ele>
        <time>2023-04-08T07:08:34Z</time>
      </trkpt>
      <trkpt lat="44.48662" lon="1.8157">
        <ele>232.5</ele>
        <time>2023-04-08T07:08:37Z</time>
      </trkpt>
      <trkpt lat="44.48668" lon="1.81583">
        <ele>232.9</ele>
        <time>2023-04-08T07:08:40Z</time>
      </trkpt>
      <trkpt lat="44.48674" lon="1.81596">
        <ele>233</ele>
        <time>2023-04-08T07:08:43Z</time>
      </trkpt>
      <trkpt lat="44.48682" lon="1.81603">
        <ele>233.1</ele>
        <time>2023-04-08T07:08:46Z</time>
      </trkpt>
      <trkpt lat="44.48691" lon="1.81609">
        <ele>233.2</ele>
        <time>2023-04-08T07:08:49Z</time>
      </trkpt>
      <trkpt lat="44.48701" lon="1.81616">
        <ele>233.3</ele>
        <time>2023-04-08T07:08:52Z</time>
      </trkpt>
      <trkpt lat="44.4871" lon="1.81623">
        <ele>233.5</ele>
        <time>2023-04-08T07:08:55Z</time>
      </trkpt>
      <trkpt lat="44.48719" lon="1.8163">
        <ele>233.8</ele>
        <time>2023-04-08T07:08:58Z</time>
      </trkpt>
      <trkpt lat="44.48728" lon="1.81637">
        <ele>233.9</ele>
        <time>2023-04-08T07:09:01Z</time>
      </trkpt>
      <trkpt lat="44.48738" lon="1.81643">
        <ele>234.1</ele>
        <time>2023-04-08T07:09:04Z</time>
      </trkpt>
      <trkpt lat="44.48747" lon="1.81646">
        <ele>234.3</ele>
        <time>2023-04-08T07:09:07Z</time>
      </trkpt>
      <trkpt lat="44.48756" lon="1.81651">
        <ele>234.5</ele>
        <time>2023-04-08T07:09:10Z</time>
      </trkpt>
      <trkpt lat="44.48765" lon="1.81654">
        <ele>234.8</ele>
        <time>2023-04-08T07:09:13Z</time>
      </trkpt>
      <trkpt lat="44.48774" lon="1.81655">
        <ele>235.4</ele>
        <time>2023-04-08T07:09:16Z</time>
      </trkpt>
      <trkpt lat="44.48783" lon="1.81655">
        <ele>235.9</ele>
        <time>2023-04-08T07:09:19Z</time>
      </trkpt>
      <trkpt lat="44.48795" lon="1.81653">
        <ele>236.3</ele>
        <time>2023-04-08T07:09:23Z</time>
      </trkpt>
      <trkpt lat="44.48804" lon="1.81645">
        <ele>236.3</ele>
        <time>2023-04-08T07:09:26Z</time>
      </trkpt>
      <trkpt lat="44.48814" lon="1.81638">
        <ele>236.4</ele>
        <time>2023-04-08T07:09:29Z</time>
      </trkpt>
      <trkpt lat="44.48824" lon="1.81632">
        <ele>236.5</ele>
        <time>2023-04-08T07:09:32Z</time>
      </trkpt>
      <trkpt lat="44.48834" lon="1.81627">
        <ele>236.8</ele>
        <time>2023-04-08T07:09:35Z</time>
      </trkpt>
      <trkpt lat="44.48845" lon="1.81621">
        <ele>237.2</ele>
        <time>2023-04-08T07:09:38Z</time>
      </trkpt>
      <trkpt lat="44.48854" lon="1.81615">
        <ele>237.7</ele>
        <time>2023-04-08T07:09:41Z</time>
      </trkpt>
      <trkpt lat="44.48863" lon="1.81609">
        <ele>238</ele>
        <time>2023-04-08T07:09:44Z</time>
      </trkpt>
      <trkpt lat="44.48872" lon="1.81604">
        <ele>238.3</ele>
        <time>2023-04-08T07:09:47Z</time>
      </trkpt>
      <trkpt lat="44.48882" lon="1.81598">
        <ele>238.7</ele>
        <time>2023-04-08T07:09:50Z</time>
      </trkpt>
      <trkpt lat="44.48892" lon="1.81593">
        <ele>239.2</ele>
        <time>2023-04-08T07:09:53Z</time>
      </trkpt>
      <trkpt lat="44.48902" lon="1.81585">
        <ele>239.8</ele>
        <time>2023-04-08T07:09:56Z</time>
      </trkpt>
      <trkpt lat="44.48906" lon="1.81573">
        <ele>240.2</ele>
        <time>2023-04-08T07:09:59Z</time>
      </trkpt>
      <trkpt lat="44.48911" lon="1.81562">
        <ele>240.6</ele>
        <time>2023-04-08T07:10:02Z</time>
      </trkpt>
      <trkpt lat="44.4892" lon="1.81552">
        <ele>241.2</ele>
        <time>2023-04-08T07:10:06Z</time>
      </trkpt>
      <trkpt lat="44.48929" lon="1.81546">
        <ele>241.7</ele>
        <time>2023-04-08T07:10:10Z</time>
      </trkpt>
      <trkpt lat="44.48938" lon="1.8154">
        <ele>242.5</ele>
        <time>2023-04-08T07:10:14Z</time>
      </trkpt>
      <trkpt lat="44.48946" lon="1.81534">
        <ele>243.3</ele>
        <time>2023-04-08T07:10:17Z</time>
      </trkpt>
      <trkpt lat="44.48955" lon="1.81527">
        <ele>244.1</ele>
        <time>2023-04-08T07:10:24Z</time>
      </trkpt>
      <trkpt lat="44.48963" lon="1.81521">
        <ele>244.9</ele>
        <time>2023-04-08T07:10:29Z</time>
      </trkpt>
      <trkpt lat="44.48973" lon="1.81517">
        <ele>245.8</ele>
        <time>2023-04-08T07:10:33Z</time>
      </trkpt>
      <trkpt lat="44.48985" lon="1.81517">
        <ele>246.5</ele>
        <time>2023-04-08T07:10:37Z</time>
      </trkpt>
      <trkpt lat="44.48994" lon="1.8152">
        <ele>246.8</ele>
        <time>2023-04-08T07:10:40Z</time>
      </trkpt>
      <trkpt lat="44.49006" lon="1.81523">
        <ele>247.2</ele>
        <time>2023-04-08T07:10:43Z</time>
      </trkpt>
      <trkpt lat="44.49017" lon="1.81527">
        <ele>247.6</ele>
        <time>2023-04-08T07:10:46Z</time>
      </trkpt>
      <trkpt lat="44.49029" lon="1.8153">
        <ele>248.1</ele>
        <time>2023-04-08T07:10:49Z</time>
      </trkpt>
      <trkpt lat="44.49038" lon="1.81532">
        <ele>248.8</ele>
        <time>2023-04-08T07:10:52Z</time>
      </trkpt>
      <trkpt lat="44.49049" lon="1.81535">
        <ele>249.8</ele>
        <time>2023-04-08T07:10:56Z</time>
      </trkpt>
      <trkpt lat="44.49059" lon="1.81535">
        <ele>250.5</ele>
        <time>2023-04-08T07:10:59Z</time>
      </trkpt>
      <trkpt lat="44.49068" lon="1.81535">
        <ele>251.2</ele>
        <time>2023-04-08T07:11:02Z</time>
      </trkpt>
      <trkpt lat="44.49078" lon="1.81539">
        <ele>251.9</ele>
        <time>2023-04-08T07:11:06Z</time>
      </trkpt>
      <trkpt lat="44.49088" lon="1.81545">
        <ele>252.5</ele>
        <time>2023-04-08T07:11:10Z</time>
      </trkpt>
      <trkpt lat="44.49099" lon="1.81548">
        <ele>253.1</ele>
        <time>2023-04-08T07:11:14Z</time>
      </trkpt>
      <trkpt lat="44.49108" lon="1.81551">
        <ele>253.6</ele>
        <time>2023-04-08T07:11:18Z</time>
      </trkpt>
      <trkpt lat="44.49119" lon="1.81556">
        <ele>254.2</ele>
        <time>2023-04-08T07:11:22Z</time>
      </trkpt>
      <trkpt lat="44.49129" lon="1.81563">
        <ele>254.9</ele>
        <time>2023-04-08T07:11:26Z</time>
      </trkpt>
      <trkpt lat="44.4914" lon="1.81565">
        <ele>255.8</ele>
        <time>2023-04-08T07:11:30Z</time>
      </trkpt>
      <trkpt lat="44.4915" lon="1.8157">
        <ele>256.5</ele>
        <time>2023-04-08T07:11:34Z</time>
      </trkpt>
      <trkpt lat="44.49157" lon="1.8158">
        <ele>257.2</ele>
        <time>2023-04-08T07:11:38Z</time>
      </trkpt>
      <trkpt lat="44.49165" lon="1.8159">
        <ele>258</ele>
        <time>2023-04-08T07:11:42Z</time>
      </trkpt>
      <trkpt lat="44.49171" lon="1.81602">
        <ele>258.9</ele>
        <time>2023-04-08T07:11:46Z</time>
      </trkpt>
      <trkpt lat="44.49179" lon="1.81612">
        <ele>259.7</ele>
        <time>2023-04-08T07:11:50Z</time>
      </trkpt>
      <trkpt lat="44.49186" lon="1.81621">
        <ele>260.7</ele>
        <time>2023-04-08T07:11:54Z</time>
      </trkpt>
      <trkpt lat="44.49195" lon="1.8163">
        <ele>261.7</ele>
        <time>2023-04-08T07:11:58Z</time>
      </trkpt>
      <trkpt lat="44.49203" lon="1.81637">
        <ele>262.6</ele>
        <time>2023-04-08T07:12:02Z</time>
      </trkpt>
      <trkpt lat="44.49212" lon="1.81644">
        <ele>263.6</ele>
        <time>2023-04-08T07:12:06Z</time>
      </trkpt>
      <trkpt lat="44.4922" lon="1.81651">
        <ele>264.6</ele>
        <time>2023-04-08T07:12:10Z</time>
      </trkpt>
      <trkpt lat="44.49228" lon="1.81658">
        <ele>265.5</ele>
        <time>2023-04-08T07:12:14Z</time>
      </trkpt>
      <trkpt lat="44.49237" lon="1.81665">
        <ele>266.5</ele>
        <time>2023-04-08T07:12:18Z</time>
      </trkpt>
      <trkpt lat="44.49244" lon="1.81673">
        <ele>267.3</ele>
        <time>2023-04-08T07:12:22Z</time>
      </trkpt>
      <trkpt lat="44.49252" lon="1.8168">
        <ele>268.1</ele>
        <time>2023-04-08T07:12:26Z</time>
      </trkpt>
      <trkpt lat="44.49261" lon="1.81688">
        <ele>269.1</ele>
        <time>2023-04-08T07:12:31Z</time>
      </trkpt>
      <trkpt lat="44.4927" lon="1.81695">
        <ele>270.2</ele>
        <time>2023-04-08T07:12:36Z</time>
      </trkpt>
      <trkpt lat="44.49281" lon="1.81697">
        <ele>271.4</ele>
        <time>2023-04-08T07:12:41Z</time>
      </trkpt>
      <trkpt lat="44.4929" lon="1.81699">
        <ele>272.8</ele>
        <time>2023-04-08T07:12:46Z</time>
      </trkpt>
      <trkpt lat="44.49301" lon="1.81698">
        <ele>274.4</ele>
        <time>2023-04-08T07:12:51Z</time>
      </trkpt>
      <trkpt lat="44.4931" lon="1.81694">
        <ele>276.1</ele>
        <time>2023-04-08T07:12:55Z</time>
      </trkpt>
      <trkpt lat="44.49319" lon="1.8169">
        <ele>277.7</ele>
        <time>2023-04-08T07:12:59Z</time>
      </trkpt>
      <trkpt lat="44.49328" lon="1.81688">
        <ele>279.5</ele>
        <time>2023-04-08T07:13:03Z</time>
      </trkpt>
      <trkpt lat="44.49338" lon="1.81684">
        <ele>281.4</ele>
        <time>2023-04-08T07:13:08Z</time>
      </trkpt>
      <trkpt lat="44.49347" lon="1.8168">
        <ele>283.3</ele>
        <time>2023-04-08T07:13:12Z</time>
      </trkpt>
      <trkpt lat="44.49358" lon="1.81678">
        <ele>285.3</ele>
        <time>2023-04-08T07:13:17Z</time>
      </trkpt>
      <trkpt lat="44.49368" lon="1.81675">
        <ele>286.9</ele>
        <time>2023-04-08T07:13:21Z</time>
      </trkpt>
      <trkpt lat="44.49377" lon="1.81672">
        <ele>288.5</ele>
        <time>2023-04-08T07:13:26Z</time>
      </trkpt>
      <trkpt lat="44.49387" lon="1.81671">
        <ele>290.4</ele>
        <time>2023-04-08T07:13:31Z</time>
      </trkpt>
      <trkpt lat="44.49396" lon="1.81666">
        <ele>292</ele>
        <time>2023-04-08T07:13:35Z</time>
      </trkpt>
      <trkpt lat="44.49406" lon="1.81663">
        <ele>294</ele>
        <time>2023-04-08T07:13:41Z</time>
      </trkpt>
      <trkpt lat="44.49416" lon="1.81663">
        <ele>295.8</ele>
        <time>2023-04-08T07:13:46Z</time>
      </trkpt>
      <trkpt lat="44.49408" lon="1.81653">
        <ele>297.5</ele>
        <time>2023-04-08T07:13:52Z</time>
      </trkpt>
      <trkpt lat="44.49396" lon="1.8165">
        <ele>298.6</ele>
        <time>2023-04-08T07:13:56Z</time>
      </trkpt>
      <trkpt lat="44.49387" lon="1.8165">
        <ele>298.8</ele>
        <time>2023-04-08T07:13:59Z</time>
      </trkpt>
      <trkpt lat="44.49377" lon="1.81649">
        <ele>298.8</ele>
        <time>2023-04-08T07:14:02Z</time>
      </trkpt>
      <trkpt lat="44.49365" lon="1.81647">
        <ele>298.6</ele>
        <time>2023-04-08T07:14:05Z</time>
      </trkpt>
      <trkpt lat="44.49355" lon="1.81642">
        <ele>298.6</ele>
        <time>2023-04-08T07:14:08Z</time>
      </trkpt>
      <trkpt lat="44.49346" lon="1.81639">
        <ele>298.8</ele>
        <time>2023-04-08T07:14:11Z</time>
      </trkpt>
      <trkpt lat="44.49335" lon="1.81636">
        <ele>299.5</ele>
        <time>2023-04-08T07:14:15Z</time>
      </trkpt>
      <trkpt lat="44.49326" lon="1.81635">
        <ele>300</ele>
        <time>2023-04-08T07:14:18Z</time>
      </trkpt>
      <trkpt lat="44.49317" lon="1.81633">
        <ele>300.6</ele>
        <time>2023-04-08T07:14:21Z</time>
      </trkpt>
      <trkpt lat="44.49308" lon="1.8163">
        <ele>300.9</ele>
        <time>2023-04-08T07:14:24Z</time>
      </trkpt>
      <trkpt lat="44.49297" lon="1.81624">
        <ele>301</ele>
        <time>2023-04-08T07:14:27Z</time>
      </trkpt>
      <trkpt lat="44.49288" lon="1.81616">
        <ele>300.9</ele>
        <time>2023-04-08T07:14:30Z</time>
      </trkpt>
      <trkpt lat="44.49292" lon="1.81609">
        <ele>305.4</ele>
        <time>2023-04-08T07:14:44Z</time>
      </trkpt>
      <trkpt lat="44.49292" lon="1.8161">
        <ele>305.6</ele>
        <time>2023-04-08T07:14:53Z</time>
      </trkpt>
      <trkpt lat="44.49302" lon="1.81613">
        <ele>308.9</ele>
        <time>2023-04-08T07:15:02Z</time>
      </trkpt>
      <trkpt lat="44.49312" lon="1.81611">
        <ele>311.7</ele>
        <time>2023-04-08T07:15:08Z</time>
      </trkpt>
      <trkpt lat="44.49321" lon="1.81607">
        <ele>314.1</ele>
        <time>2023-04-08T07:15:14Z</time>
      </trkpt>
      <trkpt lat="44.49325" lon="1.81606">
        <ele>315.2</ele>
        <time>2023-04-08T07:15:19Z</time>
      </trkpt>
      <trkpt lat="44.49326" lon="1.81606">
        <ele>315.4</ele>
        <time>2023-04-08T07:15:20Z</time>
      </trkpt>
      <trkpt lat="44.49335" lon="1.816">
        <ele>317.4</ele>
        <time>2023-04-08T07:15:25Z</time>
      </trkpt>
      <trkpt lat="44.49344" lon="1.81597">
        <ele>319</ele>
        <time>2023-04-08T07:15:32Z</time>
      </trkpt>
      <trkpt lat="44.49353" lon="1.81596">
        <ele>320.3</ele>
        <time>2023-04-08T07:15:36Z</time>
      </trkpt>
      <trkpt lat="44.49358" lon="1.81596">
        <ele>320.8</ele>
        <time>2023-04-08T07:15:43Z</time>
      </trkpt>
      <trkpt lat="44.49359" lon="1.81596">
        <ele>320.9</ele>
        <time>2023-04-08T07:15:47Z</time>
      </trkpt>
      <trkpt lat="44.49359" lon="1.81596">
        <ele>320.9</ele>
        <time>2023-04-08T07:15:48Z</time>
      </trkpt>
      <trkpt lat="44.49359" lon="1.81595">
        <ele>320.9</ele>
        <time>2023-04-08T07:15:49Z</time>
      </trkpt>
      <trkpt lat="44.49359" lon="1.81595">
        <ele>320.9</ele>
        <time>2023-04-08T07:15:50Z</time>
      </trkpt>
      <trkpt lat="44.49359" lon="1.81596">
        <ele>320.9</ele>
        <time>2023-04-08T07:15:53Z</time>
      </trkpt>
      <trkpt lat="44.49359" lon="1.81596">
        <ele>320.9</ele>
        <time>2023-04-08T07:15:54Z</time>
      </trkpt>
      <trkpt lat="44.4936" lon="1.81595">
        <ele>321</ele>
        <time>2023-04-08T07:15:55Z</time>
      </trkpt>
      <trkpt lat="44.49359" lon="1.81595">
        <ele>321</ele>
        <time>2023-04-08T07:15:57Z</time>
      </trkpt>
      <trkpt lat="44.4936" lon="1.81595">
        <ele>321</ele>
        <time>2023-04-08T07:16:24Z</time>
      </trkpt>
      <trkpt lat="44.4936" lon="1.81595">
        <ele>321</ele>
        <time>2023-04-08T07:16:25Z</time>
      </trkpt>
      <trkpt lat="44.4936" lon="1.81595">
        <ele>321.1</ele>
        <time>2023-04-08T07:16:52Z</time>
      </trkpt>
      <trkpt lat="44.4936" lon="1.81595">
        <ele>321.1</ele>
        <time>2023-04-08T07:16:53Z</time>
      </trkpt>
      <trkpt lat="44.4936" lon="1.81595">
        <ele>321.1</ele>
        <time>2023-04-08T07:17:08Z</time>
      </trkpt>
      <trkpt lat="44.4936" lon="1.81595">
        <ele>321.1</ele>
        <time>2023-04-08T07:17:09Z</time>
      </trkpt>
      <trkpt lat="44.4936" lon="1.81595">
        <ele>321.1</ele>
        <time>2023-04-08T07:17:36Z</time>
      </trkpt>
      <trkpt lat="44.49368" lon="1.81599">
        <ele>321.9</ele>
        <time>2023-04-08T07:17:47Z</time>
      </trkpt>
      <trkpt lat="44.49377" lon="1.81603">
        <ele>322.8</ele>
        <time>2023-04-08T07:17:52Z</time>
      </trkpt>
      <trkpt lat="44.49386" lon="1.81608">
        <ele>323.2</ele>
        <time>2023-04-08T07:17:56Z</time>
      </trkpt>
      <trkpt lat="44.49397" lon="1.81612">
        <ele>323.2</ele>
        <time>2023-04-08T07:18:01Z</time>
      </trkpt>
      <trkpt lat="44.49409" lon="1.81617">
        <ele>323</ele>
        <time>2023-04-08T07:18:05Z</time>
      </trkpt>
      <trkpt lat="44.49418" lon="1.81621">
        <ele>322.7</ele>
        <time>2023-04-08T07:18:07Z</time>
      </trkpt>
      <trkpt lat="44.49429" lon="1.81625">
        <ele>322.4</ele>
        <time>2023-04-08T07:18:09Z</time>
      </trkpt>
      <trkpt lat="44.4944" lon="1.81629">
        <ele>322.2</ele>
        <time>2023-04-08T07:18:11Z</time>
      </trkpt>
      <trkpt lat="44.49449" lon="1.81636">
        <ele>322.2</ele>
        <time>2023-04-08T07:18:13Z</time>
      </trkpt>
      <trkpt lat="44.49458" lon="1.81645">
        <ele>322.3</ele>
        <time>2023-04-08T07:18:15Z</time>
      </trkpt>
      <trkpt lat="44.49465" lon="1.81655">
        <ele>322.7</ele>
        <time>2023-04-08T07:18:17Z</time>
      </trkpt>
      <trkpt lat="44.49471" lon="1.81665">
        <ele>323.5</ele>
        <time>2023-04-08T07:18:19Z</time>
      </trkpt>
      <trkpt lat="44.49479" lon="1.81677">
        <ele>325.6</ele>
        <time>2023-04-08T07:18:22Z</time>
      </trkpt>
      <trkpt lat="44.49483" lon="1.81664">
        <ele>326.3</ele>
        <time>2023-04-08T07:18:29Z</time>
      </trkpt>
      <trkpt lat="44.49486" lon="1.8165">
        <ele>327</ele>
        <time>2023-04-08T07:18:34Z</time>
      </trkpt>
      <trkpt lat="44.49494" lon="1.81639">
        <ele>327.7</ele>
        <time>2023-04-08T07:18:39Z</time>
      </trkpt>
      <trkpt lat="44.49499" lon="1.81628">
        <ele>328.4</ele>
        <time>2023-04-08T07:18:44Z</time>
      </trkpt>
      <trkpt lat="44.49507" lon="1.8162">
        <ele>329.1</ele>
        <time>2023-04-08T07:18:49Z</time>
      </trkpt>
      <trkpt lat="44.49517" lon="1.8162">
        <ele>329.9</ele>
        <time>2023-04-08T07:18:55Z</time>
      </trkpt>
      <trkpt lat="44.49526" lon="1.81622">
        <ele>330.4</ele>
        <time>2023-04-08T07:19:00Z</time>
      </trkpt>
      <trkpt lat="44.49535" lon="1.81627">
        <ele>330.9</ele>
        <time>2023-04-08T07:19:05Z</time>
      </trkpt>
      <trkpt lat="44.49545" lon="1.81629">
        <ele>331.6</ele>
        <time>2023-04-08T07:19:10Z</time>
      </trkpt>
      <trkpt lat="44.49554" lon="1.81628">
        <ele>332.3</ele>
        <time>2023-04-08T07:19:14Z</time>
      </trkpt>
      <trkpt lat="44.49563" lon="1.81624">
        <ele>333.2</ele>
        <time>2023-04-08T07:19:19Z</time>
      </trkpt>
      <trkpt lat="44.49573" lon="1.81619">
        <ele>334.3</ele>
        <time>2023-04-08T07:19:25Z</time>
      </trkpt>
      <trkpt lat="44.49583" lon="1.81613">
        <ele>335.4</ele>
        <time>2023-04-08T07:19:34Z</time>
      </trkpt>
      <trkpt lat="44.49591" lon="1.81606">
        <ele>336.3</ele>
        <time>2023-04-08T07:19:39Z</time>
      </trkpt>
      <trkpt lat="44.49601" lon="1.81603">
        <ele>337</ele>
        <time>2023-04-08T07:19:44Z</time>
      </trkpt>
      <trkpt lat="44.4961" lon="1.81599">
        <ele>337.6</ele>
        <time>2023-04-08T07:19:48Z</time>
      </trkpt>
      <trkpt lat="44.49618" lon="1.81593">
        <ele>338.3</ele>
        <time>2023-04-08T07:19:52Z</time>
      </trkpt>
      <trkpt lat="44.49628" lon="1.81587">
        <ele>339.7</ele>
        <time>2023-04-08T07:19:57Z</time>
      </trkpt>
      <trkpt lat="44.49637" lon="1.81581">
        <ele>341.6</ele>
        <time>2023-04-08T07:20:02Z</time>
      </trkpt>
      <trkpt lat="44.49645" lon="1.81574">
        <ele>343.5</ele>
        <time>2023-04-08T07:20:07Z</time>
      </trkpt>
      <trkpt lat="44.49652" lon="1.81565">
        <ele>345.3</ele>
        <time>2023-04-08T07:20:12Z</time>
      </trkpt>
      <trkpt lat="44.49659" lon="1.81556">
        <ele>347</ele>
        <time>2023-04-08T07:20:17Z</time>
      </trkpt>
      <trkpt lat="44.49666" lon="1.81546">
        <ele>348.7</ele>
        <time>2023-04-08T07:20:22Z</time>
      </trkpt>
      <trkpt lat="44.49673" lon="1.81536">
        <ele>350.3</ele>
        <time>2023-04-08T07:20:27Z</time>
      </trkpt>
      <trkpt lat="44.49681" lon="1.81525">
        <ele>351.7</ele>
        <time>2023-04-08T07:20:32Z</time>
      </trkpt>
      <trkpt lat="44.49688" lon="1.81516">
        <ele>352.9</ele>
        <time>2023-04-08T07:20:36Z</time>
      </trkpt>
      <trkpt lat="44.49695" lon="1.81508">
        <ele>353.9</ele>
        <time>2023-04-08T07:20:40Z</time>
      </trkpt>
      <trkpt lat="44.49704" lon="1.81499">
        <ele>354.9</ele>
        <time>2023-04-08T07:20:45Z</time>
      </trkpt>
      <trkpt lat="44.49713" lon="1.81492">
        <ele>355.7</ele>
        <time>2023-04-08T07:20:49Z</time>
      </trkpt>
      <trkpt lat="44.49721" lon="1.815">
        <ele>355.6</ele>
        <time>2023-04-08T07:20:54Z</time>
      </trkpt>
      <trkpt lat="44.49726" lon="1.81511">
        <ele>355.5</ele>
        <time>2023-04-08T07:20:59Z</time>
      </trkpt>
      <trkpt lat="44.49731" lon="1.81523">
        <ele>355.4</ele>
        <time>2023-04-08T07:21:05Z</time>
      </trkpt>
      <trkpt lat="44.49735" lon="1.81534">
        <ele>355.4</ele>
        <time>2023-04-08T07:21:10Z</time>
      </trkpt>
      <trkpt lat="44.49739" lon="1.81547">
        <ele>355.4</ele>
        <time>2023-04-08T07:21:15Z</time>
      </trkpt>
      <trkpt lat="44.49743" lon="1.81561">
        <ele>355.5</ele>
        <time>2023-04-08T07:21:20Z</time>
      </trkpt>
      <trkpt lat="44.49747" lon="1.81575">
        <ele>355.5</ele>
        <time>2023-04-08T07:21:25Z</time>
      </trkpt>
      <trkpt lat="44.49751" lon="1.81587">
        <ele>355.6</ele>
        <time>2023-04-08T07:21:29Z</time>
      </trkpt>
      <trkpt lat="44.49753" lon="1.81602">
        <ele>355.7</ele>
        <time>2023-04-08T07:21:34Z</time>
      </trkpt>
      <trkpt lat="44.49757" lon="1.81616">
        <ele>355.9</ele>
        <time>2023-04-08T07:21:39Z</time>
      </trkpt>
      <trkpt lat="44.49761" lon="1.81621">
        <ele>355.5</ele>
        <time>2023-04-08T07:21:45Z</time>
      </trkpt>
      <trkpt lat="44.49761" lon="1.8162">
        <ele>355.5</ele>
        <time>2023-04-08T07:24:55Z</time>
      </trkpt>
      <trkpt lat="44.49768" lon="1.81607">
        <ele>354.7</ele>
        <time>2023-04-08T07:24:59Z</time>
      </trkpt>
      <trkpt lat="44.49775" lon="1.81592">
        <ele>353.8</ele>
        <time>2023-04-08T07:25:02Z</time>
      </trkpt>
      <trkpt lat="44.49783" lon="1.81582">
        <ele>353.1</ele>
        <time>2023-04-08T07:25:04Z</time>
      </trkpt>
      <trkpt lat="44.49792" lon="1.81572">
        <ele>352</ele>
        <time>2023-04-08T07:25:06Z</time>
      </trkpt>
      <trkpt lat="44.49802" lon="1.8156">
        <ele>350.8</ele>
        <time>2023-04-08T07:25:08Z</time>
      </trkpt>
      <trkpt lat="44.49812" lon="1.81549">
        <ele>349.5</ele>
        <time>2023-04-08T07:25:10Z</time>
      </trkpt>
      <trkpt lat="44.49821" lon="1.81537">
        <ele>348.2</ele>
        <time>2023-04-08T07:25:12Z</time>
      </trkpt>
      <trkpt lat="44.49831" lon="1.81528">
        <ele>347.3</ele>
        <time>2023-04-08T07:25:14Z</time>
      </trkpt>
      <trkpt lat="44.49841" lon="1.8152">
        <ele>346.3</ele>
        <time>2023-04-08T07:25:16Z</time>
      </trkpt>
      <trkpt lat="44.49848" lon="1.81508">
        <ele>345.3</ele>
        <time>2023-04-08T07:25:18Z</time>
      </trkpt>
      <trkpt lat="44.49855" lon="1.81498">
        <ele>344.4</ele>
        <time>2023-04-08T07:25:20Z</time>
      </trkpt>
      <trkpt lat="44.49864" lon="1.81485">
        <ele>343.2</ele>
        <time>2023-04-08T07:25:22Z</time>
      </trkpt>
      <trkpt lat="44.49873" lon="1.81472">
        <ele>341.9</ele>
        <time>2023-04-08T07:25:24Z</time>
      </trkpt>
      <trkpt lat="44.49883" lon="1.8146">
        <ele>340.8</ele>
        <time>2023-04-08T07:25:26Z</time>
      </trkpt>
      <trkpt lat="44.49892" lon="1.81448">
        <ele>339.7</ele>
        <time>2023-04-08T07:25:28Z</time>
      </trkpt>
      <trkpt lat="44.49899" lon="1.81435">
        <ele>338.6</ele>
        <time>2023-04-08T07:25:30Z</time>
      </trkpt>
      <trkpt lat="44.49905" lon="1.81422">
        <ele>337.4</ele>
        <time>2023-04-08T07:25:32Z</time>
      </trkpt>
      <trkpt lat="44.4991" lon="1.81409">
        <ele>336.2</ele>
        <time>2023-04-08T07:25:34Z</time>
      </trkpt>
      <trkpt lat="44.49918" lon="1.81397">
        <ele>335.1</ele>
        <time>2023-04-08T07:25:36Z</time>
      </trkpt>
      <trkpt lat="44.49929" lon="1.81388">
        <ele>333.8</ele>
        <time>2023-04-08T07:25:38Z</time>
      </trkpt>
      <trkpt lat="44.4994" lon="1.8138">
        <ele>332.4</ele>
        <time>2023-04-08T07:25:40Z</time>
      </trkpt>
      <trkpt lat="44.49947" lon="1.81369">
        <ele>331</ele>
        <time>2023-04-08T07:25:42Z</time>
      </trkpt>
      <trkpt lat="44.49954" lon="1.81356">
        <ele>329.5</ele>
        <time>2023-04-08T07:25:44Z</time>
      </trkpt>
      <trkpt lat="44.49961" lon="1.81339">
        <ele>327.6</ele>
        <time>2023-04-08T07:25:46Z</time>
      </trkpt>
      <trkpt lat="44.4997" lon="1.8132">
        <ele>325.6</ele>
        <time>2023-04-08T07:25:48Z</time>
      </trkpt>
      <trkpt lat="44.49978" lon="1.81305">
        <ele>323.6</ele>
        <time>2023-04-08T07:25:50Z</time>
      </trkpt>
      <trkpt lat="44.49993" lon="1.81301">
        <ele>321</ele>
        <time>2023-04-08T07:25:52Z</time>
      </trkpt>
      <trkpt lat="44.50008" lon="1.81301">
        <ele>318.8</ele>
        <time>2023-04-08T07:25:54Z</time>
      </trkpt>
      <trkpt lat="44.50021" lon="1.81306">
        <ele>316.8</ele>
        <time>2023-04-08T07:25:56Z</time>
      </trkpt>
      <trkpt lat="44.50035" lon="1.81316">
        <ele>314.4</ele>
        <time>2023-04-08T07:25:58Z</time>
      </trkpt>
      <trkpt lat="44.50049" lon="1.81327">
        <ele>311.7</ele>
        <time>2023-04-08T07:26:00Z</time>
      </trkpt>
      <trkpt lat="44.5006" lon="1.81341">
        <ele>309.8</ele>
        <time>2023-04-08T07:26:02Z</time>
      </trkpt>
      <trkpt lat="44.50068" lon="1.81355">
        <ele>307.9</ele>
        <time>2023-04-08T07:26:04Z</time>
      </trkpt>
      <trkpt lat="44.50074" lon="1.81366">
        <ele>306.1</ele>
        <time>2023-04-08T07:26:07Z</time>
      </trkpt>
      <trkpt lat="44.50074" lon="1.81366">
        <ele>306</ele>
        <time>2023-04-08T07:26:10Z</time>
      </trkpt>
      <trkpt lat="44.50074" lon="1.81366">
        <ele>306</ele>
        <time>2023-04-08T07:26:11Z</time>
      </trkpt>
      <trkpt lat="44.50074" lon="1.81366">
        <ele>306</ele>
        <time>2023-04-08T07:26:12Z</time>
      </trkpt>
      <trkpt lat="44.50074" lon="1.81366">
        <ele>305.9</ele>
        <time>2023-04-08T07:26:14Z</time>
      </trkpt>
      <trkpt lat="44.50073" lon="1.81366">
        <ele>305.9</ele>
        <time>2023-04-08T07:26:16Z</time>
      </trkpt>
      <trkpt lat="44.50073" lon="1.81366">
        <ele>305.8</ele>
        <time>2023-04-08T07:26:39Z</time>
      </trkpt>
      <trkpt lat="44.50072" lon="1.81365">
        <ele>305.7</ele>
        <time>2023-04-08T07:26:43Z</time>
      </trkpt>
      <trkpt lat="44.50072" lon="1.81366">
        <ele>305.6</ele>
        <time>2023-04-08T07:26:58Z</time>
      </trkpt>
      <trkpt lat="44.50072" lon="1.81366">
        <ele>305.6</ele>
        <time>2023-04-08T07:26:59Z</time>
      </trkpt>
      <trkpt lat="44.50072" lon="1.81366">
        <ele>305.6</ele>
        <time>2023-04-08T07:27:03Z</time>
      </trkpt>
      <trkpt lat="44.50071" lon="1.81367">
        <ele>305.4</ele>
        <time>2023-04-08T07:27:08Z</time>
      </trkpt>
      <trkpt lat="44.50072" lon="1.81366">
        <ele>305.3</ele>
        <time>2023-04-08T07:27:33Z</time>
      </trkpt>
      <trkpt lat="44.50073" lon="1.8135">
        <ele>303.2</ele>
        <time>2023-04-08T07:27:38Z</time>
      </trkpt>
      <trkpt lat="44.50075" lon="1.8133">
        <ele>300.3</ele>
        <time>2023-04-08T07:27:40Z</time>
      </trkpt>
      <trkpt lat="44.50077" lon="1.81308">
        <ele>297.7</ele>
        <time>2023-04-08T07:27:42Z</time>
      </trkpt>
      <trkpt lat="44.50077" lon="1.81289">
        <ele>295.3</ele>
        <time>2023-04-08T07:27:44Z</time>
      </trkpt>
      <trkpt lat="44.50076" lon="1.81268">
        <ele>292.5</ele>
        <time>2023-04-08T07:27:46Z</time>
      </trkpt>
      <trkpt lat="44.50078" lon="1.81242">
        <ele>289.2</ele>
        <time>2023-04-08T07:27:48Z</time>
      </trkpt>
      <trkpt lat="44.50079" lon="1.81229">
        <ele>287.4</ele>
        <time>2023-04-08T07:27:49Z</time>
      </trkpt>
      <trkpt lat="44.5008" lon="1.81216">
        <ele>285.4</ele>
        <time>2023-04-08T07:27:50Z</time>
      </trkpt>
      <trkpt lat="44.5008" lon="1.81192">
        <ele>281.8</ele>
        <time>2023-04-08T07:27:52Z</time>
      </trkpt>
      <trkpt lat="44.50078" lon="1.81171">
        <ele>279</ele>
        <time>2023-04-08T07:27:54Z</time>
      </trkpt>
      <trkpt lat="44.50072" lon="1.81154">
        <ele>276.5</ele>
        <time>2023-04-08T07:27:56Z</time>
      </trkpt>
      <trkpt lat="44.50059" lon="1.8114">
        <ele>273.9</ele>
        <time>2023-04-08T07:27:58Z</time>
      </trkpt>
      <trkpt lat="44.50047" lon="1.81125">
        <ele>271.2</ele>
        <time>2023-04-08T07:28:00Z</time>
      </trkpt>
      <trkpt lat="44.50038" lon="1.81106">
        <ele>268.8</ele>
        <time>2023-04-08T07:28:02Z</time>
      </trkpt>
      <trkpt lat="44.50033" lon="1.81085">
        <ele>266.4</ele>
        <time>2023-04-08T07:28:04Z</time>
      </trkpt>
      <trkpt lat="44.50027" lon="1.81064">
        <ele>264.1</ele>
        <time>2023-04-08T07:28:06Z</time>
      </trkpt>
      <trkpt lat="44.50028" lon="1.81045">
        <ele>262.4</ele>
        <time>2023-04-08T07:28:08Z</time>
      </trkpt>
      <trkpt lat="44.5003" lon="1.81024">
        <ele>260.5</ele>
        <time>2023-04-08T07:28:10Z</time>
      </trkpt>
      <trkpt lat="44.50034" lon="1.81001">
        <ele>258.2</ele>
        <time>2023-04-08T07:28:12Z</time>
      </trkpt>
      <trkpt lat="44.50039" lon="1.80978">
        <ele>256.1</ele>
        <time>2023-04-08T07:28:14Z</time>
      </trkpt>
      <trkpt lat="44.50044" lon="1.80956">
        <ele>254.1</ele>
        <time>2023-04-08T07:28:16Z</time>
      </trkpt>
      <trkpt lat="44.50049" lon="1.80935">
        <ele>252.4</ele>
        <time>2023-04-08T07:28:18Z</time>
      </trkpt>
      <trkpt lat="44.50051" lon="1.80915">
        <ele>250.9</ele>
        <time>2023-04-08T07:28:20Z</time>
      </trkpt>
      <trkpt lat="44.50055" lon="1.80895">
        <ele>249.6</ele>
        <time>2023-04-08T07:28:22Z</time>
      </trkpt>
      <trkpt lat="44.50059" lon="1.80883">
        <ele>248.8</ele>
        <time>2023-04-08T07:28:24Z</time>
      </trkpt>
      <trkpt lat="44.50067" lon="1.80866">
        <ele>247.7</ele>
        <time>2023-04-08T07:28:27Z</time>
      </trkpt>
      <trkpt lat="44.50072" lon="1.80852">
        <ele>246.6</ele>
        <time>2023-04-08T07:28:29Z</time>
      </trkpt>
      <trkpt lat="44.50079" lon="1.80835">
        <ele>245.3</ele>
        <time>2023-04-08T07:28:31Z</time>
      </trkpt>
      <trkpt lat="44.50088" lon="1.80817">
        <ele>243.9</ele>
        <time>2023-04-08T07:28:33Z</time>
      </trkpt>
      <trkpt lat="44.50097" lon="1.80797">
        <ele>242.2</ele>
        <time>2023-04-08T07:28:35Z</time>
      </trkpt>
      <trkpt lat="44.50106" lon="1.80776">
        <ele>239.8</ele>
        <time>2023-04-08T07:28:37Z</time>
      </trkpt>
      <trkpt lat="44.50111" lon="1.80752">
        <ele>236.8</ele>
        <time>2023-04-08T07:28:39Z</time>
      </trkpt>
      <trkpt lat="44.50115" lon="1.8074">
        <ele>235.3</ele>
        <time>2023-04-08T07:28:40Z</time>
      </trkpt>
      <trkpt lat="44.50122" lon="1.80718">
        <ele>232.2</ele>
        <time>2023-04-08T07:28:42Z</time>
      </trkpt>
      <trkpt lat="44.50129" lon="1.80697">
        <ele>229.5</ele>
        <time>2023-04-08T07:28:44Z</time>
      </trkpt>
      <trkpt lat="44.50137" lon="1.80674">
        <ele>226.8</ele>
        <time>2023-04-08T07:28:46Z</time>
      </trkpt>
      <trkpt lat="44.50142" lon="1.80663">
        <ele>225.4</ele>
        <time>2023-04-08T07:28:47Z</time>
      </trkpt>
      <trkpt lat="44.50153" lon="1.80645">
        <ele>222.9</ele>
        <time>2023-04-08T07:28:49Z</time>
      </trkpt>
      <trkpt lat="44.50167" lon="1.80629">
        <ele>220.6</ele>
        <time>2023-04-08T07:28:51Z</time>
      </trkpt>
      <trkpt lat="44.50179" lon="1.80611">
        <ele>218.5</ele>
        <time>2023-04-08T07:28:53Z</time>
      </trkpt>
      <trkpt lat="44.50189" lon="1.80592">
        <ele>216.6</ele>
        <time>2023-04-08T07:28:55Z</time>
      </trkpt>
      <trkpt lat="44.502" lon="1.80575">
        <ele>214.9</ele>
        <time>2023-04-08T07:28:57Z</time>
      </trkpt>
      <trkpt lat="44.50213" lon="1.80561">
        <ele>213.3</ele>
        <time>2023-04-08T07:28:59Z</time>
      </trkpt>
      <trkpt lat="44.50226" lon="1.80549">
        <ele>212.3</ele>
        <time>2023-04-08T07:29:01Z</time>
      </trkpt>
      <trkpt lat="44.50239" lon="1.8054">
        <ele>211.6</ele>
        <time>2023-04-08T07:29:03Z</time>
      </trkpt>
      <trkpt lat="44.50251" lon="1.80534">
        <ele>211</ele>
        <time>2023-04-08T07:29:05Z</time>
      </trkpt>
      <trkpt lat="44.50262" lon="1.80529">
        <ele>210.5</ele>
        <time>2023-04-08T07:29:07Z</time>
      </trkpt>
      <trkpt lat="44.50272" lon="1.80524">
        <ele>210.1</ele>
        <time>2023-04-08T07:29:09Z</time>
      </trkpt>
      <trkpt lat="44.50281" lon="1.80519">
        <ele>209.7</ele>
        <time>2023-04-08T07:29:11Z</time>
      </trkpt>
      <trkpt lat="44.50293" lon="1.80511">
        <ele>209.6</ele>
        <time>2023-04-08T07:29:14Z</time>
      </trkpt>
      <trkpt lat="44.50301" lon="1.80506">
        <ele>210.3</ele>
        <time>2023-04-08T07:29:18Z</time>
      </trkpt>
      <trkpt lat="44.50301" lon="1.80506">
        <ele>213</ele>
        <time>2023-04-08T07:29:19Z</time>
      </trkpt>
      <trkpt lat="44.50301" lon="1.80506">
        <ele>213</ele>
        <time>2023-04-08T07:29:23Z</time>
      </trkpt>
      <trkpt lat="44.50301" lon="1.80506">
        <ele>213</ele>
        <time>2023-04-08T07:29:24Z</time>
      </trkpt>
      <trkpt lat="44.50301" lon="1.80507">
        <ele>213.1</ele>
        <time>2023-04-08T07:29:25Z</time>
      </trkpt>
      <trkpt lat="44.50299" lon="1.80507">
        <ele>213.4</ele>
        <time>2023-04-08T07:29:28Z</time>
      </trkpt>
      <trkpt lat="44.50299" lon="1.80507">
        <ele>213.4</ele>
        <time>2023-04-08T07:29:29Z</time>
      </trkpt>
      <trkpt lat="44.50299" lon="1.80507">
        <ele>213.4</ele>
        <time>2023-04-08T07:29:30Z</time>
      </trkpt>
      <trkpt lat="44.50299" lon="1.80507">
        <ele>213.5</ele>
        <time>2023-04-08T07:29:32Z</time>
      </trkpt>
      <trkpt lat="44.50299" lon="1.80507">
        <ele>213.5</ele>
        <time>2023-04-08T07:29:33Z</time>
      </trkpt>
      <trkpt lat="44.50299" lon="1.80507">
        <ele>213.5</ele>
        <time>2023-04-08T07:29:37Z</time>
      </trkpt>
      <trkpt lat="44.50299" lon="1.80508">
        <ele>213.6</ele>
        <time>2023-04-08T07:29:38Z</time>
      </trkpt>
      <trkpt lat="44.50299" lon="1.80508">
        <ele>213.6</ele>
        <time>2023-04-08T07:30:12Z</time>
      </trkpt>
      <trkpt lat="44.50299" lon="1.80508">
        <ele>213.6</ele>
        <time>2023-04-08T07:30:13Z</time>
      </trkpt>
      <trkpt lat="44.50299" lon="1.80508">
        <ele>213.6</ele>
        <time>2023-04-08T07:30:29Z</time>
      </trkpt>
      <trkpt lat="44.5029" lon="1.80499">
        <ele>215.5</ele>
        <time>2023-04-08T07:30:34Z</time>
      </trkpt>
      <trkpt lat="44.50282" lon="1.8049">
        <ele>214.1</ele>
        <time>2023-04-08T07:30:37Z</time>
      </trkpt>
      <trkpt lat="44.50273" lon="1.80481">
        <ele>213.2</ele>
        <time>2023-04-08T07:30:40Z</time>
      </trkpt>
      <trkpt lat="44.50266" lon="1.8047">
        <ele>212.5</ele>
        <time>2023-04-08T07:30:43Z</time>
      </trkpt>
      <trkpt lat="44.50266" lon="1.80457">
        <ele>212.1</ele>
        <time>2023-04-08T07:30:46Z</time>
      </trkpt>
      <trkpt lat="44.50265" lon="1.80442">
        <ele>211.7</ele>
        <time>2023-04-08T07:30:49Z</time>
      </trkpt>
      <trkpt lat="44.50259" lon="1.80427">
        <ele>211.4</ele>
        <time>2023-04-08T07:30:52Z</time>
      </trkpt>
      <trkpt lat="44.50251" lon="1.80411">
        <ele>211.1</ele>
        <time>2023-04-08T07:30:55Z</time>
      </trkpt>
      <trkpt lat="44.50245" lon="1.80402">
        <ele>211</ele>
        <time>2023-04-08T07:30:57Z</time>
      </trkpt>
      <trkpt lat="44.50236" lon="1.80388">
        <ele>210.7</ele>
        <time>2023-04-08T07:31:00Z</time>
      </trkpt>
      <trkpt lat="44.50226" lon="1.80377">
        <ele>210.4</ele>
        <time>2023-04-08T07:31:03Z</time>
      </trkpt>
      <trkpt lat="44.50214" lon="1.80368">
        <ele>209.9</ele>
        <time>2023-04-08T07:31:06Z</time>
      </trkpt>
      <trkpt lat="44.50205" lon="1.80362">
        <ele>209.6</ele>
        <time>2023-04-08T07:31:08Z</time>
      </trkpt>
      <trkpt lat="44.50196" lon="1.80355">
        <ele>209.2</ele>
        <time>2023-04-08T07:31:10Z</time>
      </trkpt>
      <trkpt lat="44.50187" lon="1.80347">
        <ele>208.9</ele>
        <time>2023-04-08T07:31:12Z</time>
      </trkpt>
      <trkpt lat="44.50177" lon="1.8034">
        <ele>208.5</ele>
        <time>2023-04-08T07:31:14Z</time>
      </trkpt>
      <trkpt lat="44.50169" lon="1.80334">
        <ele>208.2</ele>
        <time>2023-04-08T07:31:16Z</time>
      </trkpt>
      <trkpt lat="44.50161" lon="1.80327">
        <ele>207.8</ele>
        <time>2023-04-08T07:31:18Z</time>
      </trkpt>
      <trkpt lat="44.50154" lon="1.80318">
        <ele>207.4</ele>
        <time>2023-04-08T07:31:20Z</time>
      </trkpt>
      <trkpt lat="44.50148" lon="1.80308">
        <ele>207</ele>
        <time>2023-04-08T07:31:22Z</time>
      </trkpt>
      <trkpt lat="44.50144" lon="1.80295">
        <ele>206.6</ele>
        <time>2023-04-08T07:31:24Z</time>
      </trkpt>
      <trkpt lat="44.50141" lon="1.80282">
        <ele>206.1</ele>
        <time>2023-04-08T07:31:26Z</time>
      </trkpt>
      <trkpt lat="44.50139" lon="1.80268">
        <ele>205.6</ele>
        <time>2023-04-08T07:31:28Z</time>
      </trkpt>
      <trkpt lat="44.50137" lon="1.80254">
        <ele>205.2</ele>
        <time>2023-04-08T07:31:30Z</time>
      </trkpt>
      <trkpt lat="44.50135" lon="1.80239">
        <ele>204.9</ele>
        <time>2023-04-08T07:31:32Z</time>
      </trkpt>
      <trkpt lat="44.50133" lon="1.80225">
        <ele>204.5</ele>
        <time>2023-04-08T07:31:34Z</time>
      </trkpt>
      <trkpt lat="44.50129" lon="1.80211">
        <ele>204.1</ele>
        <time>2023-04-08T07:31:36Z</time>
      </trkpt>
      <trkpt lat="44.50125" lon="1.80197">
        <ele>203.7</ele>
        <time>2023-04-08T07:31:38Z</time>
      </trkpt>
      <trkpt lat="44.5012" lon="1.80183">
        <ele>203.3</ele>
        <time>2023-04-08T07:31:40Z</time>
      </trkpt>
      <trkpt lat="44.50114" lon="1.80169">
        <ele>202.9</ele>
        <time>2023-04-08T07:31:42Z</time>
      </trkpt>
      <trkpt lat="44.50108" lon="1.80155">
        <ele>202.6</ele>
        <time>2023-04-08T07:31:44Z</time>
      </trkpt>
      <trkpt lat="44.50102" lon="1.80141">
        <ele>202.3</ele>
        <time>2023-04-08T07:31:46Z</time>
      </trkpt>
      <trkpt lat="44.50097" lon="1.80128">
        <ele>202</ele>
        <time>2023-04-08T07:31:48Z</time>
      </trkpt>
      <trkpt lat="44.50092" lon="1.80115">
        <ele>201.7</ele>
        <time>2023-04-08T07:31:50Z</time>
      </trkpt>
      <trkpt lat="44.50086" lon="1.80103">
        <ele>201.5</ele>
        <time>2023-04-08T07:31:52Z</time>
      </trkpt>
      <trkpt lat="44.50079" lon="1.8009">
        <ele>201.1</ele>
        <time>2023-04-08T07:31:55Z</time>
      </trkpt>
      <trkpt lat="44.50078" lon="1.80085">
        <ele>200.9</ele>
        <time>2023-04-08T07:31:59Z</time>
      </trkpt>
      <trkpt lat="44.50078" lon="1.80085">
        <ele>200.9</ele>
        <time>2023-04-08T07:32:46Z</time>
      </trkpt>
      <trkpt lat="44.50073" lon="1.80072">
        <ele>200.3</ele>
        <time>2023-04-08T07:32:51Z</time>
      </trkpt>
      <trkpt lat="44.50068" lon="1.80058">
        <ele>199.7</ele>
        <time>2023-04-08T07:32:54Z</time>
      </trkpt>
      <trkpt lat="44.5006" lon="1.80042">
        <ele>199</ele>
        <time>2023-04-08T07:32:57Z</time>
      </trkpt>
      <trkpt lat="44.50055" lon="1.8003">
        <ele>198.4</ele>
        <time>2023-04-08T07:32:59Z</time>
      </trkpt>
      <trkpt lat="44.50047" lon="1.8002">
        <ele>197.8</ele>
        <time>2023-04-08T07:33:01Z</time>
      </trkpt>
      <trkpt lat="44.50039" lon="1.80009">
        <ele>197</ele>
        <time>2023-04-08T07:33:03Z</time>
      </trkpt>
      <trkpt lat="44.5003" lon="1.79996">
        <ele>196.1</ele>
        <time>2023-04-08T07:33:05Z</time>
      </trkpt>
      <trkpt lat="44.5002" lon="1.79982">
        <ele>195</ele>
        <time>2023-04-08T07:33:07Z</time>
      </trkpt>
      <trkpt lat="44.5001" lon="1.79968">
        <ele>194.2</ele>
        <time>2023-04-08T07:33:09Z</time>
      </trkpt>
      <trkpt lat="44.50001" lon="1.79954">
        <ele>193.6</ele>
        <time>2023-04-08T07:33:11Z</time>
      </trkpt>
      <trkpt lat="44.49992" lon="1.7994">
        <ele>193.1</ele>
        <time>2023-04-08T07:33:13Z</time>
      </trkpt>
      <trkpt lat="44.49984" lon="1.79926">
        <ele>192.6</ele>
        <time>2023-04-08T07:33:15Z</time>
      </trkpt>
      <trkpt lat="44.49977" lon="1.79912">
        <ele>192.1</ele>
        <time>2023-04-08T07:33:17Z</time>
      </trkpt>
      <trkpt lat="44.4997" lon="1.79897">
        <ele>191.6</ele>
        <time>2023-04-08T07:33:19Z</time>
      </trkpt>
      <trkpt lat="44.49961" lon="1.79883">
        <ele>191</ele>
        <time>2023-04-08T07:33:21Z</time>
      </trkpt>
      <trkpt lat="44.49952" lon="1.79869">
        <ele>190.4</ele>
        <time>2023-04-08T07:33:23Z</time>
      </trkpt>
      <trkpt lat="44.49943" lon="1.79854">
        <ele>189.5</ele>
        <time>2023-04-08T07:33:25Z</time>
      </trkpt>
      <trkpt lat="44.49933" lon="1.79838">
        <ele>188.6</ele>
        <time>2023-04-08T07:33:27Z</time>
      </trkpt>
      <trkpt lat="44.49924" lon="1.79824">
        <ele>187.9</ele>
        <time>2023-04-08T07:33:29Z</time>
      </trkpt>
      <trkpt lat="44.49915" lon="1.79809">
        <ele>187.4</ele>
        <time>2023-04-08T07:33:31Z</time>
      </trkpt>
      <trkpt lat="44.49907" lon="1.79794">
        <ele>187</ele>
        <time>2023-04-08T07:33:33Z</time>
      </trkpt>
      <trkpt lat="44.499" lon="1.79781">
        <ele>186.8</ele>
        <time>2023-04-08T07:33:35Z</time>
      </trkpt>
      <trkpt lat="44.49894" lon="1.79768">
        <ele>186.8</ele>
        <time>2023-04-08T07:33:37Z</time>
      </trkpt>
      <trkpt lat="44.49897" lon="1.79756">
        <ele>187</ele>
        <time>2023-04-08T07:33:41Z</time>
      </trkpt>
      <trkpt lat="44.49906" lon="1.79754">
        <ele>187.3</ele>
        <time>2023-04-08T07:33:45Z</time>
      </trkpt>
      <trkpt lat="44.49919" lon="1.79754">
        <ele>187.7</ele>
        <time>2023-04-08T07:33:49Z</time>
      </trkpt>
      <trkpt lat="44.49929" lon="1.79753">
        <ele>188</ele>
        <time>2023-04-08T07:33:52Z</time>
      </trkpt>
      <trkpt lat="44.4994" lon="1.79754">
        <ele>188.4</ele>
        <time>2023-04-08T07:33:55Z</time>
      </trkpt>
      <trkpt lat="44.4995" lon="1.79757">
        <ele>188.8</ele>
        <time>2023-04-08T07:33:58Z</time>
      </trkpt>
      <trkpt lat="44.49961" lon="1.79762">
        <ele>189.2</ele>
        <time>2023-04-08T07:34:01Z</time>
      </trkpt>
      <trkpt lat="44.49969" lon="1.7977">
        <ele>189.7</ele>
        <time>2023-04-08T07:34:04Z</time>
      </trkpt>
      <trkpt lat="44.49978" lon="1.7978">
        <ele>190.1</ele>
        <time>2023-04-08T07:34:07Z</time>
      </trkpt>
      <trkpt lat="44.49985" lon="1.7979">
        <ele>190.5</ele>
        <time>2023-04-08T07:34:10Z</time>
      </trkpt>
      <trkpt lat="44.49993" lon="1.798">
        <ele>190.9</ele>
        <time>2023-04-08T07:34:13Z</time>
      </trkpt>
      <trkpt lat="44.5" lon="1.79811">
        <ele>191.3</ele>
        <time>2023-04-08T07:34:16Z</time>
      </trkpt>
      <trkpt lat="44.50007" lon="1.79822">
        <ele>191.7</ele>
        <time>2023-04-08T07:34:19Z</time>
      </trkpt>
      <trkpt lat="44.50014" lon="1.79833">
        <ele>192.1</ele>
        <time>2023-04-08T07:34:22Z</time>
      </trkpt>
      <trkpt lat="44.5002" lon="1.79843">
        <ele>192.4</ele>
        <time>2023-04-08T07:34:25Z</time>
      </trkpt>
      <trkpt lat="44.50027" lon="1.79853">
        <ele>192.8</ele>
        <time>2023-04-08T07:34:28Z</time>
      </trkpt>
      <trkpt lat="44.50033" lon="1.79863">
        <ele>193.2</ele>
        <time>2023-04-08T07:34:31Z</time>
      </trkpt>
      <trkpt lat="44.5004" lon="1.79874">
        <ele>193.5</ele>
        <time>2023-04-08T07:34:34Z</time>
      </trkpt>
      <trkpt lat="44.50046" lon="1.79884">
        <ele>193.9</ele>
        <time>2023-04-08T07:34:37Z</time>
      </trkpt>
      <trkpt lat="44.50053" lon="1.79895">
        <ele>194.3</ele>
        <time>2023-04-08T07:34:40Z</time>
      </trkpt>
      <trkpt lat="44.5006" lon="1.79905">
        <ele>194.7</ele>
        <time>2023-04-08T07:34:43Z</time>
      </trkpt>
      <trkpt lat="44.50067" lon="1.79916">
        <ele>195</ele>
        <time>2023-04-08T07:34:46Z</time>
      </trkpt>
      <trkpt lat="44.50073" lon="1.79926">
        <ele>195.4</ele>
        <time>2023-04-08T07:34:49Z</time>
      </trkpt>
      <trkpt lat="44.5008" lon="1.79936">
        <ele>195.7</ele>
        <time>2023-04-08T07:34:52Z</time>
      </trkpt>
      <trkpt lat="44.50086" lon="1.79947">
        <ele>196.1</ele>
        <time>2023-04-08T07:34:55Z</time>
      </trkpt>
      <trkpt lat="44.50093" lon="1.79957">
        <ele>196.4</ele>
        <time>2023-04-08T07:34:58Z</time>
      </trkpt>
      <trkpt lat="44.50099" lon="1.79967">
        <ele>196.8</ele>
        <time>2023-04-08T07:35:01Z</time>
      </trkpt>
      <trkpt lat="44.50106" lon="1.79977">
        <ele>197.2</ele>
        <time>2023-04-08T07:35:04Z</time>
      </trkpt>
      <trkpt lat="44.50113" lon="1.79988">
        <ele>197.6</ele>
        <time>2023-04-08T07:35:07Z</time>
      </trkpt>
      <trkpt lat="44.5012" lon="1.79998">
        <ele>197.9</ele>
        <time>2023-04-08T07:35:10Z</time>
      </trkpt>
      <trkpt lat="44.50127" lon="1.80008">
        <ele>198.3</ele>
        <time>2023-04-08T07:35:13Z</time>
      </trkpt>
      <trkpt lat="44.50134" lon="1.80019">
        <ele>198.6</ele>
        <time>2023-04-08T07:35:16Z</time>
      </trkpt>
      <trkpt lat="44.50141" lon="1.8003">
        <ele>198.9</ele>
        <time>2023-04-08T07:35:19Z</time>
      </trkpt>
      <trkpt lat="44.50148" lon="1.8004">
        <ele>199.2</ele>
        <time>2023-04-08T07:35:22Z</time>
      </trkpt>
      <trkpt lat="44.50155" lon="1.80051">
        <ele>199.5</ele>
        <time>2023-04-08T07:35:25Z</time>
      </trkpt>
      <trkpt lat="44.50161" lon="1.80062">
        <ele>199.8</ele>
        <time>2023-04-08T07:35:28Z</time>
      </trkpt>
      <trkpt lat="44.50168" lon="1.80073">
        <ele>200.1</ele>
        <time>2023-04-08T07:35:31Z</time>
      </trkpt>
      <trkpt lat="44.50175" lon="1.80086">
        <ele>200.4</ele>
        <time>2023-04-08T07:35:34Z</time>
      </trkpt>
      <trkpt lat="44.5018" lon="1.801">
        <ele>200.7</ele>
        <time>2023-04-08T07:35:37Z</time>
      </trkpt>
      <trkpt lat="44.50184" lon="1.80114">
        <ele>201</ele>
        <time>2023-04-08T07:35:40Z</time>
      </trkpt>
      <trkpt lat="44.50187" lon="1.80129">
        <ele>201.4</ele>
        <time>2023-04-08T07:35:43Z</time>
      </trkpt>
      <trkpt lat="44.50189" lon="1.80144">
        <ele>201.7</ele>
        <time>2023-04-08T07:35:46Z</time>
      </trkpt>
      <trkpt lat="44.50191" lon="1.80159">
        <ele>202.1</ele>
        <time>2023-04-08T07:35:49Z</time>
      </trkpt>
      <trkpt lat="44.50193" lon="1.80174">
        <ele>202.5</ele>
        <time>2023-04-08T07:35:52Z</time>
      </trkpt>
      <trkpt lat="44.50195" lon="1.8019">
        <ele>202.9</ele>
        <time>2023-04-08T07:35:55Z</time>
      </trkpt>
      <trkpt lat="44.50197" lon="1.80206">
        <ele>203.3</ele>
        <time>2023-04-08T07:35:58Z</time>
      </trkpt>
      <trkpt lat="44.502" lon="1.80222">
        <ele>203.6</ele>
        <time>2023-04-08T07:36:01Z</time>
      </trkpt>
      <trkpt lat="44.50204" lon="1.80237">
        <ele>204</ele>
        <time>2023-04-08T07:36:04Z</time>
      </trkpt>
      <trkpt lat="44.5021" lon="1.8025">
        <ele>204.2</ele>
        <time>2023-04-08T07:36:07Z</time>
      </trkpt>
      <trkpt lat="44.50219" lon="1.80261">
        <ele>204.4</ele>
        <time>2023-04-08T07:36:10Z</time>
      </trkpt>
      <trkpt lat="44.50229" lon="1.80268">
        <ele>204.5</ele>
        <time>2023-04-08T07:36:13Z</time>
      </trkpt>
      <trkpt lat="44.50239" lon="1.80276">
        <ele>204.7</ele>
        <time>2023-04-08T07:36:16Z</time>
      </trkpt>
      <trkpt lat="44.50249" lon="1.80285">
        <ele>204.8</ele>
        <time>2023-04-08T07:36:19Z</time>
      </trkpt>
      <trkpt lat="44.50257" lon="1.80295">
        <ele>204.8</ele>
        <time>2023-04-08T07:36:22Z</time>
      </trkpt>
      <trkpt lat="44.50265" lon="1.80305">
        <ele>204.9</ele>
        <time>2023-04-08T07:36:25Z</time>
      </trkpt>
      <trkpt lat="44.50273" lon="1.80315">
        <ele>204.9</ele>
        <time>2023-04-08T07:36:28Z</time>
      </trkpt>
      <trkpt lat="44.5028" lon="1.80324">
        <ele>205</ele>
        <time>2023-04-08T07:36:31Z</time>
      </trkpt>
      <trkpt lat="44.50287" lon="1.80334">
        <ele>205.1</ele>
        <time>2023-04-08T07:36:34Z</time>
      </trkpt>
      <trkpt lat="44.50294" lon="1.80345">
        <ele>205.2</ele>
        <time>2023-04-08T07:36:37Z</time>
      </trkpt>
      <trkpt lat="44.50301" lon="1.80358">
        <ele>205.3</ele>
        <time>2023-04-08T07:36:40Z</time>
      </trkpt>
      <trkpt lat="44.50308" lon="1.80371">
        <ele>205.4</ele>
        <time>2023-04-08T07:36:43Z</time>
      </trkpt>
      <trkpt lat="44.50315" lon="1.80386">
        <ele>205.5</ele>
        <time>2023-04-08T07:36:46Z</time>
      </trkpt>
      <trkpt lat="44.50322" lon="1.80401">
        <ele>205.6</ele>
        <time>2023-04-08T07:36:49Z</time>
      </trkpt>
      <trkpt lat="44.50329" lon="1.80415">
        <ele>205.8</ele>
        <time>2023-04-08T07:36:52Z</time>
      </trkpt>
      <trkpt lat="44.50335" lon="1.8043">
        <ele>206</ele>
        <time>2023-04-08T07:36:55Z</time>
      </trkpt>
      <trkpt lat="44.50343" lon="1.80444">
        <ele>206.2</ele>
        <time>2023-04-08T07:36:58Z</time>
      </trkpt>
      <trkpt lat="44.50352" lon="1.80456">
        <ele>206.4</ele>
        <time>2023-04-08T07:37:01Z</time>
      </trkpt>
      <trkpt lat="44.50361" lon="1.80468">
        <ele>206.7</ele>
        <time>2023-04-08T07:37:04Z</time>
      </trkpt>
      <trkpt lat="44.50371" lon="1.80478">
        <ele>206.9</ele>
        <time>2023-04-08T07:37:07Z</time>
      </trkpt>
      <trkpt lat="44.5038" lon="1.80487">
        <ele>207.2</ele>
        <time>2023-04-08T07:37:10Z</time>
      </trkpt>
      <trkpt lat="44.50387" lon="1.80496">
        <ele>207.4</ele>
        <time>2023-04-08T07:37:13Z</time>
      </trkpt>
      <trkpt lat="44.50395" lon="1.80506">
        <ele>207.6</ele>
        <time>2023-04-08T07:37:16Z</time>
      </trkpt>
      <trkpt lat="44.50404" lon="1.80517">
        <ele>207.7</ele>
        <time>2023-04-08T07:37:19Z</time>
      </trkpt>
      <trkpt lat="44.5041" lon="1.80527">
        <ele>207.8</ele>
        <time>2023-04-08T07:37:23Z</time>
      </trkpt>
      <trkpt lat="44.50417" lon="1.8054">
        <ele>208</ele>
        <time>2023-04-08T07:37:29Z</time>
      </trkpt>
      <trkpt lat="44.50422" lon="1.80552">
        <ele>208.2</ele>
        <time>2023-04-08T07:37:32Z</time>
      </trkpt>
      <trkpt lat="44.50427" lon="1.80565">
        <ele>208.4</ele>
        <time>2023-04-08T07:37:35Z</time>
      </trkpt>
      <trkpt lat="44.50432" lon="1.80578">
        <ele>208.7</ele>
        <time>2023-04-08T07:37:38Z</time>
      </trkpt>
      <trkpt lat="44.50438" lon="1.80591">
        <ele>208.9</ele>
        <time>2023-04-08T07:37:41Z</time>
      </trkpt>
      <trkpt lat="44.50445" lon="1.80603">
        <ele>209.3</ele>
        <time>2023-04-08T07:37:44Z</time>
      </trkpt>
      <trkpt lat="44.50452" lon="1.80613">
        <ele>209.6</ele>
        <time>2023-04-08T07:37:49Z</time>
      </trkpt>
      <trkpt lat="44.50458" lon="1.80624">
        <ele>209.9</ele>
        <time>2023-04-08T07:37:53Z</time>
      </trkpt>
      <trkpt lat="44.50465" lon="1.80633">
        <ele>210</ele>
        <time>2023-04-08T07:37:57Z</time>
      </trkpt>
      <trkpt lat="44.50472" lon="1.80645">
        <ele>210.2</ele>
        <time>2023-04-08T07:38:00Z</time>
      </trkpt>
      <trkpt lat="44.5048" lon="1.80657">
        <ele>210.5</ele>
        <time>2023-04-08T07:38:03Z</time>
      </trkpt>
      <trkpt lat="44.50488" lon="1.8067">
        <ele>210.8</ele>
        <time>2023-04-08T07:38:06Z</time>
      </trkpt>
      <trkpt lat="44.50496" lon="1.80682">
        <ele>211</ele>
        <time>2023-04-08T07:38:09Z</time>
      </trkpt>
      <trkpt lat="44.50504" lon="1.80695">
        <ele>211.2</ele>
        <time>2023-04-08T07:38:12Z</time>
      </trkpt>
      <trkpt lat="44.50512" lon="1.80709">
        <ele>211.5</ele>
        <time>2023-04-08T07:38:15Z</time>
      </trkpt>
      <trkpt lat="44.50521" lon="1.80722">
        <ele>211.7</ele>
        <time>2023-04-08T07:38:18Z</time>
      </trkpt>
      <trkpt lat="44.50529" lon="1.80735">
        <ele>211.9</ele>
        <time>2023-04-08T07:38:21Z</time>
      </trkpt>
      <trkpt lat="44.50538" lon="1.80747">
        <ele>212.1</ele>
        <time>2023-04-08T07:38:24Z</time>
      </trkpt>
      <trkpt lat="44.50547" lon="1.80758">
        <ele>212.3</ele>
        <time>2023-04-08T07:38:27Z</time>
      </trkpt>
      <trkpt lat="44.50557" lon="1.8077">
        <ele>212.5</ele>
        <time>2023-04-08T07:38:30Z</time>
      </trkpt>
      <trkpt lat="44.50567" lon="1.80782">
        <ele>212.8</ele>
        <time>2023-04-08T07:38:33Z</time>
      </trkpt>
      <trkpt lat="44.50578" lon="1.80792">
        <ele>213.1</ele>
        <time>2023-04-08T07:38:36Z</time>
      </trkpt>
      <trkpt lat="44.50585" lon="1.808">
        <ele>213.3</ele>
        <time>2023-04-08T07:38:38Z</time>
      </trkpt>
      <trkpt lat="44.50593" lon="1.80807">
        <ele>213.7</ele>
        <time>2023-04-08T07:38:40Z</time>
      </trkpt>
      <trkpt lat="44.50601" lon="1.80814">
        <ele>214.1</ele>
        <time>2023-04-08T07:38:42Z</time>
      </trkpt>
      <trkpt lat="44.50612" lon="1.80825">
        <ele>214.7</ele>
        <time>2023-04-08T07:38:45Z</time>
      </trkpt>
      <trkpt lat="44.50623" lon="1.80834">
        <ele>215.3</ele>
        <time>2023-04-08T07:38:48Z</time>
      </trkpt>
      <trkpt lat="44.50631" lon="1.80839">
        <ele>215.7</ele>
        <time>2023-04-08T07:38:50Z</time>
      </trkpt>
      <trkpt lat="44.50644" lon="1.80844">
        <ele>216.2</ele>
        <time>2023-04-08T07:38:53Z</time>
      </trkpt>
      <trkpt lat="44.50657" lon="1.80849">
        <ele>216.7</ele>
        <time>2023-04-08T07:38:56Z</time>
      </trkpt>
      <trkpt lat="44.5067" lon="1.80853">
        <ele>216.8</ele>
        <time>2023-04-08T07:38:59Z</time>
      </trkpt>
      <trkpt lat="44.5068" lon="1.80857">
        <ele>217</ele>
        <time>2023-04-08T07:39:01Z</time>
      </trkpt>
      <trkpt lat="44.50689" lon="1.80862">
        <ele>217.1</ele>
        <time>2023-04-08T07:39:03Z</time>
      </trkpt>
      <trkpt lat="44.507" lon="1.80873">
        <ele>217.3</ele>
        <time>2023-04-08T07:39:06Z</time>
      </trkpt>
      <trkpt lat="44.50708" lon="1.80886">
        <ele>217.4</ele>
        <time>2023-04-08T07:39:09Z</time>
      </trkpt>
      <trkpt lat="44.50713" lon="1.80897">
        <ele>217.7</ele>
        <time>2023-04-08T07:39:11Z</time>
      </trkpt>
      <trkpt lat="44.50718" lon="1.80909">
        <ele>218</ele>
        <time>2023-04-08T07:39:13Z</time>
      </trkpt>
      <trkpt lat="44.50723" lon="1.8092">
        <ele>218.4</ele>
        <time>2023-04-08T07:39:15Z</time>
      </trkpt>
      <trkpt lat="44.50729" lon="1.80937">
        <ele>218.9</ele>
        <time>2023-04-08T07:39:18Z</time>
      </trkpt>
      <trkpt lat="44.50734" lon="1.80953">
        <ele>219.5</ele>
        <time>2023-04-08T07:39:21Z</time>
      </trkpt>
      <trkpt lat="44.50739" lon="1.80971">
        <ele>220</ele>
        <time>2023-04-08T07:39:24Z</time>
      </trkpt>
      <trkpt lat="44.50743" lon="1.80989">
        <ele>220.4</ele>
        <time>2023-04-08T07:39:27Z</time>
      </trkpt>
      <trkpt lat="44.50746" lon="1.81002">
        <ele>220.6</ele>
        <time>2023-04-08T07:39:29Z</time>
      </trkpt>
      <trkpt lat="44.50749" lon="1.81015">
        <ele>221</ele>
        <time>2023-04-08T07:39:31Z</time>
      </trkpt>
      <trkpt lat="44.50752" lon="1.81028">
        <ele>221.4</ele>
        <time>2023-04-08T07:39:33Z</time>
      </trkpt>
      <trkpt lat="44.50755" lon="1.8104">
        <ele>221.8</ele>
        <time>2023-04-08T07:39:35Z</time>
      </trkpt>
      <trkpt lat="44.50759" lon="1.81051">
        <ele>222.1</ele>
        <time>2023-04-08T07:39:37Z</time>
      </trkpt>
      <trkpt lat="44.50763" lon="1.81063">
        <ele>222.4</ele>
        <time>2023-04-08T07:39:39Z</time>
      </trkpt>
      <trkpt lat="44.50767" lon="1.81075">
        <ele>222.7</ele>
        <time>2023-04-08T07:39:41Z</time>
      </trkpt>
      <trkpt lat="44.50772" lon="1.81086">
        <ele>223</ele>
        <time>2023-04-08T07:39:43Z</time>
      </trkpt>
      <trkpt lat="44.50777" lon="1.81097">
        <ele>223.3</ele>
        <time>2023-04-08T07:39:45Z</time>
      </trkpt>
      <trkpt lat="44.50784" lon="1.81107">
        <ele>223.6</ele>
        <time>2023-04-08T07:39:47Z</time>
      </trkpt>
      <trkpt lat="44.50791" lon="1.81116">
        <ele>223.9</ele>
        <time>2023-04-08T07:39:49Z</time>
      </trkpt>
      <trkpt lat="44.50798" lon="1.81124">
        <ele>224.3</ele>
        <time>2023-04-08T07:39:51Z</time>
      </trkpt>
      <trkpt lat="44.50806" lon="1.81131">
        <ele>224.7</ele>
        <time>2023-04-08T07:39:53Z</time>
      </trkpt>
      <trkpt lat="44.50815" lon="1.81137">
        <ele>225.2</ele>
        <time>2023-04-08T07:39:55Z</time>
      </trkpt>
      <trkpt lat="44.50823" lon="1.81142">
        <ele>225.6</ele>
        <time>2023-04-08T07:39:57Z</time>
      </trkpt>
      <trkpt lat="44.50832" lon="1.81146">
        <ele>226.1</ele>
        <time>2023-04-08T07:39:59Z</time>
      </trkpt>
      <trkpt lat="44.50844" lon="1.81152">
        <ele>226.7</ele>
        <time>2023-04-08T07:40:02Z</time>
      </trkpt>
      <trkpt lat="44.50856" lon="1.81157">
        <ele>227.1</ele>
        <time>2023-04-08T07:40:05Z</time>
      </trkpt>
      <trkpt lat="44.50869" lon="1.81163">
        <ele>227.5</ele>
        <time>2023-04-08T07:40:08Z</time>
      </trkpt>
      <trkpt lat="44.50881" lon="1.8117">
        <ele>228</ele>
        <time>2023-04-08T07:40:11Z</time>
      </trkpt>
      <trkpt lat="44.50893" lon="1.81177">
        <ele>228.4</ele>
        <time>2023-04-08T07:40:14Z</time>
      </trkpt>
      <trkpt lat="44.50906" lon="1.81182">
        <ele>228.9</ele>
        <time>2023-04-08T07:40:17Z</time>
      </trkpt>
      <trkpt lat="44.50915" lon="1.81186">
        <ele>229.3</ele>
        <time>2023-04-08T07:40:19Z</time>
      </trkpt>
      <trkpt lat="44.50927" lon="1.81193">
        <ele>229.8</ele>
        <time>2023-04-08T07:40:22Z</time>
      </trkpt>
      <trkpt lat="44.50935" lon="1.812">
        <ele>230.2</ele>
        <time>2023-04-08T07:40:24Z</time>
      </trkpt>
      <trkpt lat="44.50942" lon="1.81207">
        <ele>230.6</ele>
        <time>2023-04-08T07:40:26Z</time>
      </trkpt>
      <trkpt lat="44.50949" lon="1.81214">
        <ele>231.1</ele>
        <time>2023-04-08T07:40:28Z</time>
      </trkpt>
      <trkpt lat="44.50959" lon="1.81227">
        <ele>231.7</ele>
        <time>2023-04-08T07:40:31Z</time>
      </trkpt>
      <trkpt lat="44.50967" lon="1.8124">
        <ele>232.3</ele>
        <time>2023-04-08T07:40:34Z</time>
      </trkpt>
      <trkpt lat="44.50974" lon="1.8125">
        <ele>232.5</ele>
        <time>2023-04-08T07:40:36Z</time>
      </trkpt>
      <trkpt lat="44.5098" lon="1.8126">
        <ele>232.9</ele>
        <time>2023-04-08T07:40:38Z</time>
      </trkpt>
      <trkpt lat="44.50986" lon="1.81271">
        <ele>232.7</ele>
        <time>2023-04-08T07:40:40Z</time>
      </trkpt>
      <trkpt lat="44.50991" lon="1.81282">
        <ele>232</ele>
        <time>2023-04-08T07:40:42Z</time>
      </trkpt>
      <trkpt lat="44.50997" lon="1.81297">
        <ele>231.2</ele>
        <time>2023-04-08T07:40:45Z</time>
      </trkpt>
      <trkpt lat="44.51002" lon="1.81312">
        <ele>230.4</ele>
        <time>2023-04-08T07:40:48Z</time>
      </trkpt>
      <trkpt lat="44.51007" lon="1.81327">
        <ele>229.8</ele>
        <time>2023-04-08T07:40:51Z</time>
      </trkpt>
      <trkpt lat="44.51012" lon="1.81341">
        <ele>229.1</ele>
        <time>2023-04-08T07:40:54Z</time>
      </trkpt>
      <trkpt lat="44.51017" lon="1.81352">
        <ele>228.4</ele>
        <time>2023-04-08T07:40:57Z</time>
      </trkpt>
      <trkpt lat="44.5102" lon="1.81354">
        <ele>229.1</ele>
        <time>2023-04-08T07:41:03Z</time>
      </trkpt>
      <trkpt lat="44.51021" lon="1.81354">
        <ele>229.2</ele>
        <time>2023-04-08T07:41:13Z</time>
      </trkpt>
      <trkpt lat="44.51031" lon="1.81349">
        <ele>231</ele>
        <time>2023-04-08T07:41:19Z</time>
      </trkpt>
      <trkpt lat="44.51041" lon="1.81346">
        <ele>232.7</ele>
        <time>2023-04-08T07:41:23Z</time>
      </trkpt>
      <trkpt lat="44.5105" lon="1.81341">
        <ele>234.2</ele>
        <time>2023-04-08T07:41:27Z</time>
      </trkpt>
      <trkpt lat="44.5106" lon="1.81334">
        <ele>236.1</ele>
        <time>2023-04-08T07:41:31Z</time>
      </trkpt>
      <trkpt lat="44.51071" lon="1.81328">
        <ele>237.8</ele>
        <time>2023-04-08T07:41:35Z</time>
      </trkpt>
      <trkpt lat="44.5108" lon="1.81323">
        <ele>239.3</ele>
        <time>2023-04-08T07:41:38Z</time>
      </trkpt>
      <trkpt lat="44.51089" lon="1.8132">
        <ele>240.1</ele>
        <time>2023-04-08T07:41:41Z</time>
      </trkpt>
      <trkpt lat="44.51098" lon="1.81316">
        <ele>240.9</ele>
        <time>2023-04-08T07:41:44Z</time>
      </trkpt>
      <trkpt lat="44.51107" lon="1.81313">
        <ele>241.6</ele>
        <time>2023-04-08T07:41:47Z</time>
      </trkpt>
      <trkpt lat="44.51117" lon="1.81312">
        <ele>242.3</ele>
        <time>2023-04-08T07:41:50Z</time>
      </trkpt>
      <trkpt lat="44.51126" lon="1.81312">
        <ele>242.9</ele>
        <time>2023-04-08T07:41:53Z</time>
      </trkpt>
      <trkpt lat="44.51136" lon="1.81311">
        <ele>243.4</ele>
        <time>2023-04-08T07:41:56Z</time>
      </trkpt>
      <trkpt lat="44.51146" lon="1.8131">
        <ele>243.9</ele>
        <time>2023-04-08T07:41:59Z</time>
      </trkpt>
      <trkpt lat="44.51155" lon="1.81308">
        <ele>244.5</ele>
        <time>2023-04-08T07:42:02Z</time>
      </trkpt>
      <trkpt lat="44.51164" lon="1.81308">
        <ele>245.1</ele>
        <time>2023-04-08T07:42:05Z</time>
      </trkpt>
      <trkpt lat="44.51173" lon="1.81308">
        <ele>245.7</ele>
        <time>2023-04-08T07:42:08Z</time>
      </trkpt>
      <trkpt lat="44.51182" lon="1.81309">
        <ele>246.4</ele>
        <time>2023-04-08T07:42:11Z</time>
      </trkpt>
      <trkpt lat="44.51191" lon="1.8131">
        <ele>247.1</ele>
        <time>2023-04-08T07:42:14Z</time>
      </trkpt>
      <trkpt lat="44.512" lon="1.81313">
        <ele>247.8</ele>
        <time>2023-04-08T07:42:17Z</time>
      </trkpt>
      <trkpt lat="44.51208" lon="1.81319">
        <ele>248.4</ele>
        <time>2023-04-08T07:42:20Z</time>
      </trkpt>
      <trkpt lat="44.51215" lon="1.81327">
        <ele>248.7</ele>
        <time>2023-04-08T07:42:23Z</time>
      </trkpt>
      <trkpt lat="44.51221" lon="1.81337">
        <ele>248.9</ele>
        <time>2023-04-08T07:42:26Z</time>
      </trkpt>
      <trkpt lat="44.51228" lon="1.8135">
        <ele>249.3</ele>
        <time>2023-04-08T07:42:30Z</time>
      </trkpt>
      <trkpt lat="44.51235" lon="1.81359">
        <ele>249.8</ele>
        <time>2023-04-08T07:42:33Z</time>
      </trkpt>
      <trkpt lat="44.51243" lon="1.81371">
        <ele>250.6</ele>
        <time>2023-04-08T07:42:37Z</time>
      </trkpt>
      <trkpt lat="44.51251" lon="1.81383">
        <ele>251.5</ele>
        <time>2023-04-08T07:42:41Z</time>
      </trkpt>
      <trkpt lat="44.51261" lon="1.8139">
        <ele>252.2</ele>
        <time>2023-04-08T07:42:45Z</time>
      </trkpt>
      <trkpt lat="44.5127" lon="1.814">
        <ele>252.8</ele>
        <time>2023-04-08T07:42:49Z</time>
      </trkpt>
      <trkpt lat="44.5128" lon="1.81407">
        <ele>253.3</ele>
        <time>2023-04-08T07:42:53Z</time>
      </trkpt>
      <trkpt lat="44.51291" lon="1.81412">
        <ele>253.7</ele>
        <time>2023-04-08T07:42:57Z</time>
      </trkpt>
      <trkpt lat="44.51303" lon="1.81416">
        <ele>254.1</ele>
        <time>2023-04-08T07:43:01Z</time>
      </trkpt>
      <trkpt lat="44.51314" lon="1.81419">
        <ele>254.5</ele>
        <time>2023-04-08T07:43:05Z</time>
      </trkpt>
      <trkpt lat="44.51324" lon="1.81421">
        <ele>255.2</ele>
        <time>2023-04-08T07:43:09Z</time>
      </trkpt>
      <trkpt lat="44.51335" lon="1.81423">
        <ele>255.9</ele>
        <time>2023-04-08T07:43:13Z</time>
      </trkpt>
      <trkpt lat="44.51346" lon="1.81426">
        <ele>256.6</ele>
        <time>2023-04-08T07:43:17Z</time>
      </trkpt>
      <trkpt lat="44.51355" lon="1.81428">
        <ele>257.3</ele>
        <time>2023-04-08T07:43:21Z</time>
      </trkpt>
      <trkpt lat="44.51365" lon="1.81431">
        <ele>258.1</ele>
        <time>2023-04-08T07:43:25Z</time>
      </trkpt>
      <trkpt lat="44.51375" lon="1.81435">
        <ele>258.8</ele>
        <time>2023-04-08T07:43:29Z</time>
      </trkpt>
      <trkpt lat="44.51384" lon="1.8144">
        <ele>259.5</ele>
        <time>2023-04-08T07:43:33Z</time>
      </trkpt>
      <trkpt lat="44.51393" lon="1.81446">
        <ele>260</ele>
        <time>2023-04-08T07:43:37Z</time>
      </trkpt>
      <trkpt lat="44.51401" lon="1.81453">
        <ele>260.7</ele>
        <time>2023-04-08T07:43:41Z</time>
      </trkpt>
      <trkpt lat="44.5141" lon="1.81459">
        <ele>261.4</ele>
        <time>2023-04-08T07:43:45Z</time>
      </trkpt>
      <trkpt lat="44.51418" lon="1.81464">
        <ele>262</ele>
        <time>2023-04-08T07:43:49Z</time>
      </trkpt>
      <trkpt lat="44.51428" lon="1.81467">
        <ele>262.7</ele>
        <time>2023-04-08T07:43:53Z</time>
      </trkpt>
      <trkpt lat="44.51438" lon="1.81469">
        <ele>263.5</ele>
        <time>2023-04-08T07:43:57Z</time>
      </trkpt>
      <trkpt lat="44.51447" lon="1.81473">
        <ele>264.1</ele>
        <time>2023-04-08T07:44:01Z</time>
      </trkpt>
      <trkpt lat="44.51456" lon="1.81475">
        <ele>264.9</ele>
        <time>2023-04-08T07:44:05Z</time>
      </trkpt>
      <trkpt lat="44.51465" lon="1.81479">
        <ele>265.7</ele>
        <time>2023-04-08T07:44:09Z</time>
      </trkpt>
      <trkpt lat="44.51474" lon="1.81482">
        <ele>266.5</ele>
        <time>2023-04-08T07:44:13Z</time>
      </trkpt>
      <trkpt lat="44.51485" lon="1.81484">
        <ele>267.3</ele>
        <time>2023-04-08T07:44:17Z</time>
      </trkpt>
      <trkpt lat="44.51495" lon="1.81484">
        <ele>268</ele>
        <time>2023-04-08T07:44:21Z</time>
      </trkpt>
      <trkpt lat="44.51506" lon="1.81483">
        <ele>268.7</ele>
        <time>2023-04-08T07:44:25Z</time>
      </trkpt>
      <trkpt lat="44.51517" lon="1.8148">
        <ele>269.3</ele>
        <time>2023-04-08T07:44:29Z</time>
      </trkpt>
      <trkpt lat="44.51527" lon="1.81476">
        <ele>270</ele>
        <time>2023-04-08T07:44:33Z</time>
      </trkpt>
      <trkpt lat="44.51537" lon="1.81473">
        <ele>270.8</ele>
        <time>2023-04-08T07:44:37Z</time>
      </trkpt>
      <trkpt lat="44.51546" lon="1.81469">
        <ele>271.6</ele>
        <time>2023-04-08T07:44:41Z</time>
      </trkpt>
      <trkpt lat="44.51556" lon="1.81464">
        <ele>272.6</ele>
        <time>2023-04-08T07:44:45Z</time>
      </trkpt>
      <trkpt lat="44.51566" lon="1.8146">
        <ele>273.4</ele>
        <time>2023-04-08T07:44:49Z</time>
      </trkpt>
      <trkpt lat="44.51577" lon="1.81458">
        <ele>274.2</ele>
        <time>2023-04-08T07:44:53Z</time>
      </trkpt>
      <trkpt lat="44.51587" lon="1.81455">
        <ele>275.2</ele>
        <time>2023-04-08T07:44:57Z</time>
      </trkpt>
      <trkpt lat="44.51596" lon="1.81448">
        <ele>276.3</ele>
        <time>2023-04-08T07:45:01Z</time>
      </trkpt>
      <trkpt lat="44.51604" lon="1.81439">
        <ele>277.4</ele>
        <time>2023-04-08T07:45:05Z</time>
      </trkpt>
      <trkpt lat="44.51611" lon="1.8143">
        <ele>278.6</ele>
        <time>2023-04-08T07:45:09Z</time>
      </trkpt>
      <trkpt lat="44.51619" lon="1.81422">
        <ele>280</ele>
        <time>2023-04-08T07:45:13Z</time>
      </trkpt>
      <trkpt lat="44.51629" lon="1.8142">
        <ele>281.2</ele>
        <time>2023-04-08T07:45:18Z</time>
      </trkpt>
      <trkpt lat="44.51638" lon="1.81423">
        <ele>282.2</ele>
        <time>2023-04-08T07:45:23Z</time>
      </trkpt>
      <trkpt lat="44.51648" lon="1.81428">
        <ele>283.2</ele>
        <time>2023-04-08T07:45:28Z</time>
      </trkpt>
      <trkpt lat="44.51658" lon="1.81432">
        <ele>284.5</ele>
        <time>2023-04-08T07:45:33Z</time>
      </trkpt>
      <trkpt lat="44.51668" lon="1.81437">
        <ele>285.8</ele>
        <time>2023-04-08T07:45:38Z</time>
      </trkpt>
      <trkpt lat="44.51676" lon="1.81447">
        <ele>287</ele>
        <time>2023-04-08T07:45:43Z</time>
      </trkpt>
      <trkpt lat="44.51686" lon="1.81454">
        <ele>288</ele>
        <time>2023-04-08T07:45:48Z</time>
      </trkpt>
      <trkpt lat="44.51695" lon="1.81458">
        <ele>288.5</ele>
        <time>2023-04-08T07:45:52Z</time>
      </trkpt>
      <trkpt lat="44.51705" lon="1.81461">
        <ele>289</ele>
        <time>2023-04-08T07:45:56Z</time>
      </trkpt>
      <trkpt lat="44.51715" lon="1.81466">
        <ele>289.5</ele>
        <time>2023-04-08T07:46:00Z</time>
      </trkpt>
      <trkpt lat="44.51724" lon="1.8147">
        <ele>290.1</ele>
        <time>2023-04-08T07:46:04Z</time>
      </trkpt>
      <trkpt lat="44.51734" lon="1.81475">
        <ele>290.8</ele>
        <time>2023-04-08T07:46:08Z</time>
      </trkpt>
      <trkpt lat="44.51743" lon="1.8148">
        <ele>291.6</ele>
        <time>2023-04-08T07:46:12Z</time>
      </trkpt>
      <trkpt lat="44.51753" lon="1.81482">
        <ele>292.2</ele>
        <time>2023-04-08T07:46:16Z</time>
      </trkpt>
      <trkpt lat="44.51763" lon="1.81479">
        <ele>292.6</ele>
        <time>2023-04-08T07:46:20Z</time>
      </trkpt>
      <trkpt lat="44.51772" lon="1.81475">
        <ele>293.1</ele>
        <time>2023-04-08T07:46:24Z</time>
      </trkpt>
      <trkpt lat="44.51782" lon="1.81471">
        <ele>293.6</ele>
        <time>2023-04-08T07:46:28Z</time>
      </trkpt>
      <trkpt lat="44.51791" lon="1.81465">
        <ele>294.1</ele>
        <time>2023-04-08T07:46:32Z</time>
      </trkpt>
      <trkpt lat="44.51801" lon="1.8146">
        <ele>294.6</ele>
        <time>2023-04-08T07:46:36Z</time>
      </trkpt>
      <trkpt lat="44.51811" lon="1.81455">
        <ele>295.2</ele>
        <time>2023-04-08T07:46:40Z</time>
      </trkpt>
      <trkpt lat="44.51821" lon="1.81451">
        <ele>295.9</ele>
        <time>2023-04-08T07:46:44Z</time>
      </trkpt>
      <trkpt lat="44.5183" lon="1.81446">
        <ele>296.7</ele>
        <time>2023-04-08T07:46:48Z</time>
      </trkpt>
      <trkpt lat="44.51838" lon="1.8144">
        <ele>297.5</ele>
        <time>2023-04-08T07:46:52Z</time>
      </trkpt>
      <trkpt lat="44.51848" lon="1.81434">
        <ele>298.5</ele>
        <time>2023-04-08T07:46:56Z</time>
      </trkpt>
      <trkpt lat="44.51857" lon="1.81428">
        <ele>299.4</ele>
        <time>2023-04-08T07:47:00Z</time>
      </trkpt>
      <trkpt lat="44.51867" lon="1.81423">
        <ele>300.4</ele>
        <time>2023-04-08T07:47:04Z</time>
      </trkpt>
      <trkpt lat="44.51876" lon="1.81417">
        <ele>301.4</ele>
        <time>2023-04-08T07:47:08Z</time>
      </trkpt>
      <trkpt lat="44.51885" lon="1.81411">
        <ele>302.2</ele>
        <time>2023-04-08T07:47:12Z</time>
      </trkpt>
      <trkpt lat="44.51893" lon="1.81402">
        <ele>303</ele>
        <time>2023-04-08T07:47:16Z</time>
      </trkpt>
      <trkpt lat="44.51896" lon="1.81389">
        <ele>303.8</ele>
        <time>2023-04-08T07:47:20Z</time>
      </trkpt>
      <trkpt lat="44.51901" lon="1.81376">
        <ele>304.9</ele>
        <time>2023-04-08T07:47:24Z</time>
      </trkpt>
      <trkpt lat="44.51908" lon="1.81365">
        <ele>306</ele>
        <time>2023-04-08T07:47:28Z</time>
      </trkpt>
      <trkpt lat="44.51915" lon="1.81356">
        <ele>307.1</ele>
        <time>2023-04-08T07:47:32Z</time>
      </trkpt>
      <trkpt lat="44.51921" lon="1.81348">
        <ele>308.1</ele>
        <time>2023-04-08T07:47:36Z</time>
      </trkpt>
      <trkpt lat="44.51931" lon="1.81339">
        <ele>309.4</ele>
        <time>2023-04-08T07:47:41Z</time>
      </trkpt>
      <trkpt lat="44.51938" lon="1.81328">
        <ele>310.7</ele>
        <time>2023-04-08T07:47:46Z</time>
      </trkpt>
      <trkpt lat="44.51946" lon="1.81318">
        <ele>312.2</ele>
        <time>2023-04-08T07:47:51Z</time>
      </trkpt>
      <trkpt lat="44.51954" lon="1.8131">
        <ele>313.8</ele>
        <time>2023-04-08T07:47:56Z</time>
      </trkpt>
      <trkpt lat="44.51962" lon="1.81301">
        <ele>315.3</ele>
        <time>2023-04-08T07:48:01Z</time>
      </trkpt>
      <trkpt lat="44.51969" lon="1.81292">
        <ele>316.7</ele>
        <time>2023-04-08T07:48:06Z</time>
      </trkpt>
      <trkpt lat="44.51976" lon="1.81283">
        <ele>318.1</ele>
        <time>2023-04-08T07:48:11Z</time>
      </trkpt>
      <trkpt lat="44.51984" lon="1.81274">
        <ele>319.6</ele>
        <time>2023-04-08T07:48:16Z</time>
      </trkpt>
      <trkpt lat="44.51988" lon="1.81262">
        <ele>321.1</ele>
        <time>2023-04-08T07:48:21Z</time>
      </trkpt>
      <trkpt lat="44.51989" lon="1.81249">
        <ele>322.8</ele>
        <time>2023-04-08T07:48:26Z</time>
      </trkpt>
      <trkpt lat="44.5199" lon="1.81234">
        <ele>324.6</ele>
        <time>2023-04-08T07:48:32Z</time>
      </trkpt>
      <trkpt lat="44.51984" lon="1.81223">
        <ele>326</ele>
        <time>2023-04-08T07:48:37Z</time>
      </trkpt>
      <trkpt lat="44.51974" lon="1.8122">
        <ele>327.3</ele>
        <time>2023-04-08T07:48:42Z</time>
      </trkpt>
      <trkpt lat="44.51963" lon="1.8122">
        <ele>328.5</ele>
        <time>2023-04-08T07:48:47Z</time>
      </trkpt>
      <trkpt lat="44.51955" lon="1.81215">
        <ele>329.7</ele>
        <time>2023-04-08T07:48:52Z</time>
      </trkpt>
      <trkpt lat="44.51956" lon="1.81201">
        <ele>330.6</ele>
        <time>2023-04-08T07:48:58Z</time>
      </trkpt>
      <trkpt lat="44.51963" lon="1.81192">
        <ele>330.9</ele>
        <time>2023-04-08T07:49:03Z</time>
      </trkpt>
      <trkpt lat="44.51972" lon="1.81183">
        <ele>331.1</ele>
        <time>2023-04-08T07:49:08Z</time>
      </trkpt>
      <trkpt lat="44.5198" lon="1.81173">
        <ele>331.3</ele>
        <time>2023-04-08T07:49:13Z</time>
      </trkpt>
      <trkpt lat="44.51986" lon="1.81161">
        <ele>331.8</ele>
        <time>2023-04-08T07:49:18Z</time>
      </trkpt>
      <trkpt lat="44.51993" lon="1.8115">
        <ele>332.4</ele>
        <time>2023-04-08T07:49:23Z</time>
      </trkpt>
      <trkpt lat="44.52001" lon="1.81139">
        <ele>333.1</ele>
        <time>2023-04-08T07:49:28Z</time>
      </trkpt>
      <trkpt lat="44.52007" lon="1.81129">
        <ele>333.7</ele>
        <time>2023-04-08T07:49:32Z</time>
      </trkpt>
      <trkpt lat="44.52011" lon="1.81118">
        <ele>334.3</ele>
        <time>2023-04-08T07:49:36Z</time>
      </trkpt>
      <trkpt lat="44.52015" lon="1.81103">
        <ele>335.1</ele>
        <time>2023-04-08T07:49:41Z</time>
      </trkpt>
      <trkpt lat="44.52017" lon="1.81089">
        <ele>336.1</ele>
        <time>2023-04-08T07:49:46Z</time>
      </trkpt>
      <trkpt lat="44.52018" lon="1.81074">
        <ele>337.1</ele>
        <time>2023-04-08T07:49:51Z</time>
      </trkpt>
      <trkpt lat="44.52025" lon="1.81063">
        <ele>337.7</ele>
        <time>2023-04-08T07:49:56Z</time>
      </trkpt>
      <trkpt lat="44.52034" lon="1.81055">
        <ele>338</ele>
        <time>2023-04-08T07:50:00Z</time>
      </trkpt>
      <trkpt lat="44.52042" lon="1.8105">
        <ele>338.3</ele>
        <time>2023-04-08T07:50:04Z</time>
      </trkpt>
      <trkpt lat="44.52051" lon="1.81043">
        <ele>338.8</ele>
        <time>2023-04-08T07:50:08Z</time>
      </trkpt>
      <trkpt lat="44.5206" lon="1.81038">
        <ele>339.4</ele>
        <time>2023-04-08T07:50:12Z</time>
      </trkpt>
      <trkpt lat="44.52068" lon="1.81032">
        <ele>340.3</ele>
        <time>2023-04-08T07:50:16Z</time>
      </trkpt>
      <trkpt lat="44.52076" lon="1.81026">
        <ele>341.2</ele>
        <time>2023-04-08T07:50:20Z</time>
      </trkpt>
      <trkpt lat="44.52084" lon="1.81016">
        <ele>342.5</ele>
        <time>2023-04-08T07:50:25Z</time>
      </trkpt>
      <trkpt lat="44.52092" lon="1.81005">
        <ele>344</ele>
        <time>2023-04-08T07:50:30Z</time>
      </trkpt>
      <trkpt lat="44.521" lon="1.80995">
        <ele>345.6</ele>
        <time>2023-04-08T07:50:35Z</time>
      </trkpt>
      <trkpt lat="44.52106" lon="1.80992">
        <ele>346.2</ele>
        <time>2023-04-08T07:50:40Z</time>
      </trkpt>
      <trkpt lat="44.52106" lon="1.80992">
        <ele>346.3</ele>
        <time>2023-04-08T07:51:12Z</time>
      </trkpt>
      <trkpt lat="44.52106" lon="1.80992">
        <ele>346.3</ele>
        <time>2023-04-08T07:51:13Z</time>
      </trkpt>
      <trkpt lat="44.52106" lon="1.80992">
        <ele>346.3</ele>
        <time>2023-04-08T07:52:04Z</time>
      </trkpt>
      <trkpt lat="44.52106" lon="1.80992">
        <ele>346.3</ele>
        <time>2023-04-08T07:52:05Z</time>
      </trkpt>
      <trkpt lat="44.52106" lon="1.80992">
        <ele>346.3</ele>
        <time>2023-04-08T07:52:37Z</time>
      </trkpt>
      <trkpt lat="44.52106" lon="1.80992">
        <ele>346.3</ele>
        <time>2023-04-08T07:52:38Z</time>
      </trkpt>
      <trkpt lat="44.52106" lon="1.80992">
        <ele>346.3</ele>
        <time>2023-04-08T07:53:07Z</time>
      </trkpt>
      <trkpt lat="44.52106" lon="1.80992">
        <ele>346.3</ele>
        <time>2023-04-08T07:53:12Z</time>
      </trkpt>
      <trkpt lat="44.52106" lon="1.80991">
        <ele>346.4</ele>
        <time>2023-04-08T07:53:58Z</time>
      </trkpt>
      <trkpt lat="44.52106" lon="1.80991">
        <ele>346.4</ele>
        <time>2023-04-08T07:54:00Z</time>
      </trkpt>
      <trkpt lat="44.52107" lon="1.80991">
        <ele>346.4</ele>
        <time>2023-04-08T07:54:05Z</time>
      </trkpt>
      <trkpt lat="44.52109" lon="1.80994">
        <ele>346.7</ele>
        <time>2023-04-08T07:54:11Z</time>
      </trkpt>
      <trkpt lat="44.52109" lon="1.80995">
        <ele>346.7</ele>
        <time>2023-04-08T07:54:12Z</time>
      </trkpt>
      <trkpt lat="44.52116" lon="1.81004">
        <ele>347.7</ele>
        <time>2023-04-08T07:54:20Z</time>
      </trkpt>
      <trkpt lat="44.52119" lon="1.81018">
        <ele>348.7</ele>
        <time>2023-04-08T07:54:25Z</time>
      </trkpt>
      <trkpt lat="44.5212" lon="1.81033">
        <ele>349.8</ele>
        <time>2023-04-08T07:54:30Z</time>
      </trkpt>
      <trkpt lat="44.52125" lon="1.81047">
        <ele>350.9</ele>
        <time>2023-04-08T07:54:35Z</time>
      </trkpt>
      <trkpt lat="44.52131" lon="1.81059">
        <ele>351.9</ele>
        <time>2023-04-08T07:54:40Z</time>
      </trkpt>
      <trkpt lat="44.52137" lon="1.81069">
        <ele>352.9</ele>
        <time>2023-04-08T07:54:45Z</time>
      </trkpt>
      <trkpt lat="44.52145" lon="1.81077">
        <ele>353.9</ele>
        <time>2023-04-08T07:54:50Z</time>
      </trkpt>
      <trkpt lat="44.52154" lon="1.81083">
        <ele>354.8</ele>
        <time>2023-04-08T07:54:55Z</time>
      </trkpt>
      <trkpt lat="44.52163" lon="1.81087">
        <ele>355.8</ele>
        <time>2023-04-08T07:55:00Z</time>
      </trkpt>
      <trkpt lat="44.52173" lon="1.81092">
        <ele>356.9</ele>
        <time>2023-04-08T07:55:06Z</time>
      </trkpt>
      <trkpt lat="44.52182" lon="1.81097">
        <ele>357.8</ele>
        <time>2023-04-08T07:55:11Z</time>
      </trkpt>
      <trkpt lat="44.52191" lon="1.81101">
        <ele>358.7</ele>
        <time>2023-04-08T07:55:16Z</time>
      </trkpt>
      <trkpt lat="44.52199" lon="1.81109">
        <ele>359.8</ele>
        <time>2023-04-08T07:55:22Z</time>
      </trkpt>
      <trkpt lat="44.52205" lon="1.8112">
        <ele>360.8</ele>
        <time>2023-04-08T07:55:27Z</time>
      </trkpt>
      <trkpt lat="44.52212" lon="1.81133">
        <ele>361.9</ele>
        <time>2023-04-08T07:55:32Z</time>
      </trkpt>
      <trkpt lat="44.52219" lon="1.81145">
        <ele>362.9</ele>
        <time>2023-04-08T07:55:37Z</time>
      </trkpt>
      <trkpt lat="44.52224" lon="1.81158">
        <ele>364</ele>
        <time>2023-04-08T07:55:42Z</time>
      </trkpt>
      <trkpt lat="44.52226" lon="1.8117">
        <ele>364.9</ele>
        <time>2023-04-08T07:55:46Z</time>
      </trkpt>
      <trkpt lat="44.5223" lon="1.81183">
        <ele>365.9</ele>
        <time>2023-04-08T07:55:50Z</time>
      </trkpt>
      <trkpt lat="44.52235" lon="1.81195">
        <ele>366.9</ele>
        <time>2023-04-08T07:55:54Z</time>
      </trkpt>
      <trkpt lat="44.52244" lon="1.81201">
        <ele>367.9</ele>
        <time>2023-04-08T07:55:58Z</time>
      </trkpt>
      <trkpt lat="44.52254" lon="1.81203">
        <ele>368.9</ele>
        <time>2023-04-08T07:56:03Z</time>
      </trkpt>
      <trkpt lat="44.52264" lon="1.81208">
        <ele>369.9</ele>
        <time>2023-04-08T07:56:08Z</time>
      </trkpt>
      <trkpt lat="44.52273" lon="1.81215">
        <ele>371</ele>
        <time>2023-04-08T07:56:13Z</time>
      </trkpt>
      <trkpt lat="44.5228" lon="1.81223">
        <ele>371.9</ele>
        <time>2023-04-08T07:56:17Z</time>
      </trkpt>
      <trkpt lat="44.5229" lon="1.81231">
        <ele>373</ele>
        <time>2023-04-08T07:56:22Z</time>
      </trkpt>
      <trkpt lat="44.52298" lon="1.81238">
        <ele>373.9</ele>
        <time>2023-04-08T07:56:26Z</time>
      </trkpt>
      <trkpt lat="44.52307" lon="1.81241">
        <ele>374</ele>
        <time>2023-04-08T07:56:31Z</time>
      </trkpt>
      <trkpt lat="44.52314" lon="1.81251">
        <ele>373.5</ele>
        <time>2023-04-08T07:56:35Z</time>
      </trkpt>
      <trkpt lat="44.5232" lon="1.81266">
        <ele>373</ele>
        <time>2023-04-08T07:56:39Z</time>
      </trkpt>
      <trkpt lat="44.52326" lon="1.81279">
        <ele>372.6</ele>
        <time>2023-04-08T07:56:42Z</time>
      </trkpt>
      <trkpt lat="44.52332" lon="1.81294">
        <ele>372.1</ele>
        <time>2023-04-08T07:56:45Z</time>
      </trkpt>
      <trkpt lat="44.52337" lon="1.81305">
        <ele>371.7</ele>
        <time>2023-04-08T07:56:47Z</time>
      </trkpt>
      <trkpt lat="44.52342" lon="1.81317">
        <ele>371.3</ele>
        <time>2023-04-08T07:56:49Z</time>
      </trkpt>
      <trkpt lat="44.52347" lon="1.8133">
        <ele>370.8</ele>
        <time>2023-04-08T07:56:51Z</time>
      </trkpt>
      <trkpt lat="44.52353" lon="1.81341">
        <ele>370.5</ele>
        <time>2023-04-08T07:56:53Z</time>
      </trkpt>
      <trkpt lat="44.52358" lon="1.81353">
        <ele>370.2</ele>
        <time>2023-04-08T07:56:56Z</time>
      </trkpt>
      <trkpt lat="44.52358" lon="1.81352">
        <ele>370.2</ele>
        <time>2023-04-08T07:56:57Z</time>
      </trkpt>
      <trkpt lat="44.52359" lon="1.81352">
        <ele>370.2</ele>
        <time>2023-04-08T07:57:27Z</time>
      </trkpt>
      <trkpt lat="44.52359" lon="1.81352">
        <ele>370.2</ele>
        <time>2023-04-08T07:57:28Z</time>
      </trkpt>
      <trkpt lat="44.52358" lon="1.81352">
        <ele>370.1</ele>
        <time>2023-04-08T07:58:02Z</time>
      </trkpt>
      <trkpt lat="44.52358" lon="1.81352">
        <ele>370.1</ele>
        <time>2023-04-08T07:58:03Z</time>
      </trkpt>
      <trkpt lat="44.52358" lon="1.81352">
        <ele>370.1</ele>
        <time>2023-04-08T07:59:22Z</time>
      </trkpt>
      <trkpt lat="44.52358" lon="1.81352">
        <ele>370.1</ele>
        <time>2023-04-08T07:59:23Z</time>
      </trkpt>
      <trkpt lat="44.52358" lon="1.81353">
        <ele>370.1</ele>
        <time>2023-04-08T08:00:12Z</time>
      </trkpt>
      <trkpt lat="44.5236" lon="1.81366">
        <ele>369.8</ele>
        <time>2023-04-08T08:00:17Z</time>
      </trkpt>
      <trkpt lat="44.52362" lon="1.81379">
        <ele>369.5</ele>
        <time>2023-04-08T08:00:20Z</time>
      </trkpt>
      <trkpt lat="44.52366" lon="1.81393">
        <ele>369.3</ele>
        <time>2023-04-08T08:00:23Z</time>
      </trkpt>
      <trkpt lat="44.52369" lon="1.8141">
        <ele>369.1</ele>
        <time>2023-04-08T08:00:26Z</time>
      </trkpt>
      <trkpt lat="44.52372" lon="1.81428">
        <ele>369</ele>
        <time>2023-04-08T08:00:29Z</time>
      </trkpt>
      <trkpt lat="44.52373" lon="1.81447">
        <ele>369</ele>
        <time>2023-04-08T08:00:32Z</time>
      </trkpt>
      <trkpt lat="44.52374" lon="1.81459">
        <ele>369</ele>
        <time>2023-04-08T08:00:34Z</time>
      </trkpt>
      <trkpt lat="44.52374" lon="1.81477">
        <ele>369.2</ele>
        <time>2023-04-08T08:00:37Z</time>
      </trkpt>
      <trkpt lat="44.52375" lon="1.81495">
        <ele>369.5</ele>
        <time>2023-04-08T08:00:40Z</time>
      </trkpt>
      <trkpt lat="44.52376" lon="1.81513">
        <ele>369.8</ele>
        <time>2023-04-08T08:00:43Z</time>
      </trkpt>
      <trkpt lat="44.52376" lon="1.81531">
        <ele>370.1</ele>
        <time>2023-04-08T08:00:46Z</time>
      </trkpt>
      <trkpt lat="44.52376" lon="1.81549">
        <ele>370.2</ele>
        <time>2023-04-08T08:00:49Z</time>
      </trkpt>
      <trkpt lat="44.52376" lon="1.81567">
        <ele>370.4</ele>
        <time>2023-04-08T08:00:52Z</time>
      </trkpt>
      <trkpt lat="44.52376" lon="1.81585">
        <ele>370.6</ele>
        <time>2023-04-08T08:00:55Z</time>
      </trkpt>
      <trkpt lat="44.52376" lon="1.81603">
        <ele>370.9</ele>
        <time>2023-04-08T08:00:58Z</time>
      </trkpt>
      <trkpt lat="44.52377" lon="1.81621">
        <ele>371.3</ele>
        <time>2023-04-08T08:01:01Z</time>
      </trkpt>
      <trkpt lat="44.52378" lon="1.81638">
        <ele>371.6</ele>
        <time>2023-04-08T08:01:04Z</time>
      </trkpt>
      <trkpt lat="44.52379" lon="1.81656">
        <ele>371.9</ele>
        <time>2023-04-08T08:01:07Z</time>
      </trkpt>
      <trkpt lat="44.52379" lon="1.81675">
        <ele>372.1</ele>
        <time>2023-04-08T08:01:10Z</time>
      </trkpt>
      <trkpt lat="44.52379" lon="1.81693">
        <ele>372.3</ele>
        <time>2023-04-08T08:01:13Z</time>
      </trkpt>
      <trkpt lat="44.52379" lon="1.81711">
        <ele>372.5</ele>
        <time>2023-04-08T08:01:16Z</time>
      </trkpt>
      <trkpt lat="44.52379" lon="1.81729">
        <ele>372.7</ele>
        <time>2023-04-08T08:01:19Z</time>
      </trkpt>
      <trkpt lat="44.5238" lon="1.81746">
        <ele>373</ele>
        <time>2023-04-08T08:01:22Z</time>
      </trkpt>
      <trkpt lat="44.52381" lon="1.81763">
        <ele>373.2</ele>
        <time>2023-04-08T08:01:25Z</time>
      </trkpt>
      <trkpt lat="44.5238" lon="1.81781">
        <ele>373.4</ele>
        <time>2023-04-08T08:01:28Z</time>
      </trkpt>
      <trkpt lat="44.52381" lon="1.81799">
        <ele>373.7</ele>
        <time>2023-04-08T08:01:31Z</time>
      </trkpt>
      <trkpt lat="44.52381" lon="1.81816">
        <ele>373.8</ele>
        <time>2023-04-08T08:01:34Z</time>
      </trkpt>
      <trkpt lat="44.52382" lon="1.81834">
        <ele>374.1</ele>
        <time>2023-04-08T08:01:37Z</time>
      </trkpt>
      <trkpt lat="44.52382" lon="1.81851">
        <ele>374.3</ele>
        <time>2023-04-08T08:01:40Z</time>
      </trkpt>
      <trkpt lat="44.52383" lon="1.81868">
        <ele>374.6</ele>
        <time>2023-04-08T08:01:43Z</time>
      </trkpt>
      <trkpt lat="44.52383" lon="1.81886">
        <ele>374.8</ele>
        <time>2023-04-08T08:01:46Z</time>
      </trkpt>
      <trkpt lat="44.52383" lon="1.81904">
        <ele>375</ele>
        <time>2023-04-08T08:01:49Z</time>
      </trkpt>
      <trkpt lat="44.52383" lon="1.81922">
        <ele>375.3</ele>
        <time>2023-04-08T08:01:52Z</time>
      </trkpt>
      <trkpt lat="44.52384" lon="1.8194">
        <ele>375.5</ele>
        <time>2023-04-08T08:01:55Z</time>
      </trkpt>
      <trkpt lat="44.52384" lon="1.81959">
        <ele>375.7</ele>
        <time>2023-04-08T08:01:58Z</time>
      </trkpt>
      <trkpt lat="44.52382" lon="1.81977">
        <ele>376</ele>
        <time>2023-04-08T08:02:01Z</time>
      </trkpt>
      <trkpt lat="44.5238" lon="1.81996">
        <ele>376.2</ele>
        <time>2023-04-08T08:02:04Z</time>
      </trkpt>
      <trkpt lat="44.52379" lon="1.82014">
        <ele>376.5</ele>
        <time>2023-04-08T08:02:07Z</time>
      </trkpt>
      <trkpt lat="44.52376" lon="1.82032">
        <ele>376.7</ele>
        <time>2023-04-08T08:02:10Z</time>
      </trkpt>
      <trkpt lat="44.52374" lon="1.82049">
        <ele>377</ele>
        <time>2023-04-08T08:02:13Z</time>
      </trkpt>
      <trkpt lat="44.52371" lon="1.82067">
        <ele>377.1</ele>
        <time>2023-04-08T08:02:16Z</time>
      </trkpt>
      <trkpt lat="44.52368" lon="1.82086">
        <ele>377.3</ele>
        <time>2023-04-08T08:02:19Z</time>
      </trkpt>
      <trkpt lat="44.52366" lon="1.82104">
        <ele>377.5</ele>
        <time>2023-04-08T08:02:22Z</time>
      </trkpt>
      <trkpt lat="44.52363" lon="1.82122">
        <ele>377.6</ele>
        <time>2023-04-08T08:02:25Z</time>
      </trkpt>
      <trkpt lat="44.5236" lon="1.82141">
        <ele>377.8</ele>
        <time>2023-04-08T08:02:28Z</time>
      </trkpt>
      <trkpt lat="44.52357" lon="1.82159">
        <ele>377.9</ele>
        <time>2023-04-08T08:02:31Z</time>
      </trkpt>
      <trkpt lat="44.52354" lon="1.82177">
        <ele>378.1</ele>
        <time>2023-04-08T08:02:34Z</time>
      </trkpt>
      <trkpt lat="44.52351" lon="1.82194">
        <ele>378.2</ele>
        <time>2023-04-08T08:02:37Z</time>
      </trkpt>
      <trkpt lat="44.52349" lon="1.82212">
        <ele>378.3</ele>
        <time>2023-04-08T08:02:40Z</time>
      </trkpt>
      <trkpt lat="44.52346" lon="1.82229">
        <ele>378.4</ele>
        <time>2023-04-08T08:02:43Z</time>
      </trkpt>
      <trkpt lat="44.52344" lon="1.82246">
        <ele>378.5</ele>
        <time>2023-04-08T08:02:46Z</time>
      </trkpt>
      <trkpt lat="44.52341" lon="1.82264">
        <ele>378.7</ele>
        <time>2023-04-08T08:02:49Z</time>
      </trkpt>
      <trkpt lat="44.52339" lon="1.8228">
        <ele>379</ele>
        <time>2023-04-08T08:02:52Z</time>
      </trkpt>
      <trkpt lat="44.52338" lon="1.82296">
        <ele>379.3</ele>
        <time>2023-04-08T08:02:55Z</time>
      </trkpt>
      <trkpt lat="44.52338" lon="1.82312">
        <ele>379.7</ele>
        <time>2023-04-08T08:02:58Z</time>
      </trkpt>
      <trkpt lat="44.52341" lon="1.82327">
        <ele>380.1</ele>
        <time>2023-04-08T08:03:01Z</time>
      </trkpt>
      <trkpt lat="44.52347" lon="1.82341">
        <ele>380.5</ele>
        <time>2023-04-08T08:03:04Z</time>
      </trkpt>
      <trkpt lat="44.52353" lon="1.82355">
        <ele>381</ele>
        <time>2023-04-08T08:03:07Z</time>
      </trkpt>
      <trkpt lat="44.5236" lon="1.82368">
        <ele>381.5</ele>
        <time>2023-04-08T08:03:10Z</time>
      </trkpt>
      <trkpt lat="44.52366" lon="1.8238">
        <ele>382</ele>
        <time>2023-04-08T08:03:13Z</time>
      </trkpt>
      <trkpt lat="44.52372" lon="1.82393">
        <ele>382.5</ele>
        <time>2023-04-08T08:03:16Z</time>
      </trkpt>
      <trkpt lat="44.52379" lon="1.82404">
        <ele>383</ele>
        <time>2023-04-08T08:03:19Z</time>
      </trkpt>
      <trkpt lat="44.52385" lon="1.82415">
        <ele>383.5</ele>
        <time>2023-04-08T08:03:22Z</time>
      </trkpt>
      <trkpt lat="44.52391" lon="1.82426">
        <ele>384</ele>
        <time>2023-04-08T08:03:25Z</time>
      </trkpt>
      <trkpt lat="44.52396" lon="1.82436">
        <ele>384.5</ele>
        <time>2023-04-08T08:03:28Z</time>
      </trkpt>
      <trkpt lat="44.52402" lon="1.82447">
        <ele>385</ele>
        <time>2023-04-08T08:03:31Z</time>
      </trkpt>
      <trkpt lat="44.52408" lon="1.82458">
        <ele>385.6</ele>
        <time>2023-04-08T08:03:34Z</time>
      </trkpt>
      <trkpt lat="44.52414" lon="1.82469">
        <ele>386.1</ele>
        <time>2023-04-08T08:03:37Z</time>
      </trkpt>
      <trkpt lat="44.5242" lon="1.82481">
        <ele>386.6</ele>
        <time>2023-04-08T08:03:40Z</time>
      </trkpt>
      <trkpt lat="44.52425" lon="1.82492">
        <ele>387.1</ele>
        <time>2023-04-08T08:03:43Z</time>
      </trkpt>
      <trkpt lat="44.5243" lon="1.82504">
        <ele>387.6</ele>
        <time>2023-04-08T08:03:46Z</time>
      </trkpt>
      <trkpt lat="44.52436" lon="1.82516">
        <ele>388</ele>
        <time>2023-04-08T08:03:50Z</time>
      </trkpt>
      <trkpt lat="44.5244" lon="1.8253">
        <ele>388.4</ele>
        <time>2023-04-08T08:03:54Z</time>
      </trkpt>
      <trkpt lat="44.52444" lon="1.82543">
        <ele>388.7</ele>
        <time>2023-04-08T08:03:57Z</time>
      </trkpt>
      <trkpt lat="44.52447" lon="1.82557">
        <ele>389</ele>
        <time>2023-04-08T08:04:00Z</time>
      </trkpt>
      <trkpt lat="44.52449" lon="1.8257">
        <ele>389.4</ele>
        <time>2023-04-08T08:04:03Z</time>
      </trkpt>
      <trkpt lat="44.52451" lon="1.82584">
        <ele>389.7</ele>
        <time>2023-04-08T08:04:06Z</time>
      </trkpt>
      <trkpt lat="44.52451" lon="1.826">
        <ele>390.1</ele>
        <time>2023-04-08T08:04:09Z</time>
      </trkpt>
      <trkpt lat="44.52451" lon="1.82615">
        <ele>390.5</ele>
        <time>2023-04-08T08:04:12Z</time>
      </trkpt>
      <trkpt lat="44.52452" lon="1.8263">
        <ele>390.9</ele>
        <time>2023-04-08T08:04:15Z</time>
      </trkpt>
      <trkpt lat="44.52452" lon="1.82645">
        <ele>391.3</ele>
        <time>2023-04-08T08:04:18Z</time>
      </trkpt>
      <trkpt lat="44.52452" lon="1.8266">
        <ele>391.7</ele>
        <time>2023-04-08T08:04:21Z</time>
      </trkpt>
      <trkpt lat="44.52452" lon="1.82676">
        <ele>392.1</ele>
        <time>2023-04-08T08:04:24Z</time>
      </trkpt>
      <trkpt lat="44.52453" lon="1.82691">
        <ele>392.5</ele>
        <time>2023-04-08T08:04:27Z</time>
      </trkpt>
      <trkpt lat="44.52453" lon="1.82706">
        <ele>392.9</ele>
        <time>2023-04-08T08:04:30Z</time>
      </trkpt>
      <trkpt lat="44.52453" lon="1.82722">
        <ele>393.3</ele>
        <time>2023-04-08T08:04:33Z</time>
      </trkpt>
      <trkpt lat="44.52453" lon="1.82738">
        <ele>393.6</ele>
        <time>2023-04-08T08:04:36Z</time>
      </trkpt>
      <trkpt lat="44.52453" lon="1.82755">
        <ele>393.7</ele>
        <time>2023-04-08T08:04:39Z</time>
      </trkpt>
      <trkpt lat="44.52453" lon="1.82773">
        <ele>393.7</ele>
        <time>2023-04-08T08:04:42Z</time>
      </trkpt>
      <trkpt lat="44.52454" lon="1.8279">
        <ele>393.5</ele>
        <time>2023-04-08T08:04:45Z</time>
      </trkpt>
      <trkpt lat="44.52454" lon="1.82806">
        <ele>393.2</ele>
        <time>2023-04-08T08:04:48Z</time>
      </trkpt>
      <trkpt lat="44.52453" lon="1.82823">
        <ele>392.7</ele>
        <time>2023-04-08T08:04:51Z</time>
      </trkpt>
      <trkpt lat="44.52452" lon="1.82841">
        <ele>392.2</ele>
        <time>2023-04-08T08:04:54Z</time>
      </trkpt>
      <trkpt lat="44.52451" lon="1.82855">
        <ele>391.7</ele>
        <time>2023-04-08T08:04:56Z</time>
      </trkpt>
      <trkpt lat="44.5245" lon="1.82869">
        <ele>391.2</ele>
        <time>2023-04-08T08:04:58Z</time>
      </trkpt>
      <trkpt lat="44.52449" lon="1.82883">
        <ele>390.7</ele>
        <time>2023-04-08T08:05:00Z</time>
      </trkpt>
      <trkpt lat="44.52447" lon="1.82898">
        <ele>390.2</ele>
        <time>2023-04-08T08:05:02Z</time>
      </trkpt>
      <trkpt lat="44.52445" lon="1.82914">
        <ele>389.7</ele>
        <time>2023-04-08T08:05:04Z</time>
      </trkpt>
      <trkpt lat="44.52443" lon="1.8293">
        <ele>389.2</ele>
        <time>2023-04-08T08:05:06Z</time>
      </trkpt>
      <trkpt lat="44.5244" lon="1.82946">
        <ele>388.7</ele>
        <time>2023-04-08T08:05:08Z</time>
      </trkpt>
      <trkpt lat="44.52437" lon="1.82962">
        <ele>388.2</ele>
        <time>2023-04-08T08:05:10Z</time>
      </trkpt>
      <trkpt lat="44.52435" lon="1.82977">
        <ele>387.9</ele>
        <time>2023-04-08T08:05:12Z</time>
      </trkpt>
      <trkpt lat="44.52432" lon="1.82992">
        <ele>387.6</ele>
        <time>2023-04-08T08:05:14Z</time>
      </trkpt>
      <trkpt lat="44.5243" lon="1.83006">
        <ele>387.5</ele>
        <time>2023-04-08T08:05:16Z</time>
      </trkpt>
      <trkpt lat="44.52428" lon="1.83019">
        <ele>387.3</ele>
        <time>2023-04-08T08:05:18Z</time>
      </trkpt>
      <trkpt lat="44.52425" lon="1.83033">
        <ele>387.2</ele>
        <time>2023-04-08T08:05:20Z</time>
      </trkpt>
      <trkpt lat="44.52423" lon="1.83047">
        <ele>387.2</ele>
        <time>2023-04-08T08:05:22Z</time>
      </trkpt>
      <trkpt lat="44.5242" lon="1.83062">
        <ele>387.3</ele>
        <time>2023-04-08T08:05:24Z</time>
      </trkpt>
      <trkpt lat="44.52418" lon="1.83076">
        <ele>387.4</ele>
        <time>2023-04-08T08:05:26Z</time>
      </trkpt>
      <trkpt lat="44.52416" lon="1.8309">
        <ele>387.5</ele>
        <time>2023-04-08T08:05:28Z</time>
      </trkpt>
      <trkpt lat="44.52413" lon="1.83103">
        <ele>387.7</ele>
        <time>2023-04-08T08:05:30Z</time>
      </trkpt>
      <trkpt lat="44.52411" lon="1.83116">
        <ele>387.8</ele>
        <time>2023-04-08T08:05:32Z</time>
      </trkpt>
      <trkpt lat="44.52408" lon="1.83129">
        <ele>388</ele>
        <time>2023-04-08T08:05:34Z</time>
      </trkpt>
      <trkpt lat="44.52406" lon="1.83142">
        <ele>388.1</ele>
        <time>2023-04-08T08:05:36Z</time>
      </trkpt>
      <trkpt lat="44.52404" lon="1.83155">
        <ele>388.2</ele>
        <time>2023-04-08T08:05:38Z</time>
      </trkpt>
      <trkpt lat="44.52402" lon="1.83167">
        <ele>388.2</ele>
        <time>2023-04-08T08:05:40Z</time>
      </trkpt>
      <trkpt lat="44.524" lon="1.8318">
        <ele>388.1</ele>
        <time>2023-04-08T08:05:42Z</time>
      </trkpt>
      <trkpt lat="44.52398" lon="1.83194">
        <ele>388</ele>
        <time>2023-04-08T08:05:44Z</time>
      </trkpt>
      <trkpt lat="44.52396" lon="1.83208">
        <ele>387.9</ele>
        <time>2023-04-08T08:05:46Z</time>
      </trkpt>
      <trkpt lat="44.52393" lon="1.83222">
        <ele>387.7</ele>
        <time>2023-04-08T08:05:48Z</time>
      </trkpt>
      <trkpt lat="44.52391" lon="1.83236">
        <ele>387.4</ele>
        <time>2023-04-08T08:05:50Z</time>
      </trkpt>
      <trkpt lat="44.52388" lon="1.83251">
        <ele>386.9</ele>
        <time>2023-04-08T08:05:52Z</time>
      </trkpt>
      <trkpt lat="44.52384" lon="1.83266">
        <ele>386.4</ele>
        <time>2023-04-08T08:05:54Z</time>
      </trkpt>
      <trkpt lat="44.52377" lon="1.83281">
        <ele>385.8</ele>
        <time>2023-04-08T08:05:56Z</time>
      </trkpt>
      <trkpt lat="44.5237" lon="1.83295">
        <ele>385.2</ele>
        <time>2023-04-08T08:05:58Z</time>
      </trkpt>
      <trkpt lat="44.52361" lon="1.83309">
        <ele>384.4</ele>
        <time>2023-04-08T08:06:00Z</time>
      </trkpt>
      <trkpt lat="44.5235" lon="1.83322">
        <ele>383.6</ele>
        <time>2023-04-08T08:06:02Z</time>
      </trkpt>
      <trkpt lat="44.52339" lon="1.83334">
        <ele>382.8</ele>
        <time>2023-04-08T08:06:04Z</time>
      </trkpt>
      <trkpt lat="44.52327" lon="1.83345">
        <ele>382</ele>
        <time>2023-04-08T08:06:06Z</time>
      </trkpt>
      <trkpt lat="44.52314" lon="1.83355">
        <ele>381.1</ele>
        <time>2023-04-08T08:06:08Z</time>
      </trkpt>
      <trkpt lat="44.523" lon="1.83365">
        <ele>380</ele>
        <time>2023-04-08T08:06:10Z</time>
      </trkpt>
      <trkpt lat="44.52286" lon="1.83376">
        <ele>378.8</ele>
        <time>2023-04-08T08:06:12Z</time>
      </trkpt>
      <trkpt lat="44.52272" lon="1.83388">
        <ele>377.7</ele>
        <time>2023-04-08T08:06:14Z</time>
      </trkpt>
      <trkpt lat="44.52259" lon="1.83404">
        <ele>376.8</ele>
        <time>2023-04-08T08:06:16Z</time>
      </trkpt>
      <trkpt lat="44.52248" lon="1.83421">
        <ele>376.1</ele>
        <time>2023-04-08T08:06:18Z</time>
      </trkpt>
      <trkpt lat="44.52238" lon="1.8344">
        <ele>375.8</ele>
        <time>2023-04-08T08:06:20Z</time>
      </trkpt>
      <trkpt lat="44.5223" lon="1.83459">
        <ele>375.5</ele>
        <time>2023-04-08T08:06:22Z</time>
      </trkpt>
      <trkpt lat="44.52222" lon="1.83477">
        <ele>375.4</ele>
        <time>2023-04-08T08:06:24Z</time>
      </trkpt>
      <trkpt lat="44.52214" lon="1.83494">
        <ele>375.3</ele>
        <time>2023-04-08T08:06:26Z</time>
      </trkpt>
      <trkpt lat="44.52206" lon="1.8351">
        <ele>375.3</ele>
        <time>2023-04-08T08:06:28Z</time>
      </trkpt>
      <trkpt lat="44.52199" lon="1.83525">
        <ele>375.4</ele>
        <time>2023-04-08T08:06:30Z</time>
      </trkpt>
      <trkpt lat="44.52192" lon="1.8354">
        <ele>375.5</ele>
        <time>2023-04-08T08:06:32Z</time>
      </trkpt>
      <trkpt lat="44.52186" lon="1.83554">
        <ele>375.5</ele>
        <time>2023-04-08T08:06:34Z</time>
      </trkpt>
      <trkpt lat="44.52181" lon="1.83569">
        <ele>375.5</ele>
        <time>2023-04-08T08:06:36Z</time>
      </trkpt>
      <trkpt lat="44.52177" lon="1.83584">
        <ele>375.6</ele>
        <time>2023-04-08T08:06:38Z</time>
      </trkpt>
      <trkpt lat="44.52174" lon="1.83599">
        <ele>375.7</ele>
        <time>2023-04-08T08:06:40Z</time>
      </trkpt>
      <trkpt lat="44.5217" lon="1.83614">
        <ele>375.9</ele>
        <time>2023-04-08T08:06:42Z</time>
      </trkpt>
      <trkpt lat="44.52166" lon="1.83627">
        <ele>376.2</ele>
        <time>2023-04-08T08:06:44Z</time>
      </trkpt>
      <trkpt lat="44.52161" lon="1.83638">
        <ele>376.7</ele>
        <time>2023-04-08T08:06:46Z</time>
      </trkpt>
      <trkpt lat="44.52153" lon="1.83652">
        <ele>377.6</ele>
        <time>2023-04-08T08:06:49Z</time>
      </trkpt>
      <trkpt lat="44.52146" lon="1.83665">
        <ele>378.4</ele>
        <time>2023-04-08T08:06:52Z</time>
      </trkpt>
      <trkpt lat="44.52139" lon="1.83678">
        <ele>379.1</ele>
        <time>2023-04-08T08:06:55Z</time>
      </trkpt>
      <trkpt lat="44.52133" lon="1.83691">
        <ele>379.7</ele>
        <time>2023-04-08T08:06:58Z</time>
      </trkpt>
      <trkpt lat="44.52126" lon="1.83704">
        <ele>380.3</ele>
        <time>2023-04-08T08:07:01Z</time>
      </trkpt>
      <trkpt lat="44.52119" lon="1.83715">
        <ele>381</ele>
        <time>2023-04-08T08:07:04Z</time>
      </trkpt>
      <trkpt lat="44.52112" lon="1.83726">
        <ele>381.6</ele>
        <time>2023-04-08T08:07:07Z</time>
      </trkpt>
      <trkpt lat="44.52105" lon="1.83737">
        <ele>382.2</ele>
        <time>2023-04-08T08:07:10Z</time>
      </trkpt>
      <trkpt lat="44.52099" lon="1.83749">
        <ele>382.8</ele>
        <time>2023-04-08T08:07:13Z</time>
      </trkpt>
      <trkpt lat="44.52093" lon="1.83761">
        <ele>383.4</ele>
        <time>2023-04-08T08:07:16Z</time>
      </trkpt>
      <trkpt lat="44.52087" lon="1.83772">
        <ele>383.9</ele>
        <time>2023-04-08T08:07:19Z</time>
      </trkpt>
      <trkpt lat="44.5208" lon="1.83784">
        <ele>384.4</ele>
        <time>2023-04-08T08:07:22Z</time>
      </trkpt>
      <trkpt lat="44.52074" lon="1.83796">
        <ele>384.9</ele>
        <time>2023-04-08T08:07:25Z</time>
      </trkpt>
      <trkpt lat="44.52069" lon="1.83807">
        <ele>385.3</ele>
        <time>2023-04-08T08:07:28Z</time>
      </trkpt>
      <trkpt lat="44.52064" lon="1.8382">
        <ele>385.8</ele>
        <time>2023-04-08T08:07:32Z</time>
      </trkpt>
      <trkpt lat="44.52058" lon="1.83835">
        <ele>386.4</ele>
        <time>2023-04-08T08:07:36Z</time>
      </trkpt>
      <trkpt lat="44.52053" lon="1.83847">
        <ele>386.8</ele>
        <time>2023-04-08T08:07:39Z</time>
      </trkpt>
      <trkpt lat="44.52048" lon="1.83859">
        <ele>387.1</ele>
        <time>2023-04-08T08:07:42Z</time>
      </trkpt>
      <trkpt lat="44.52044" lon="1.8387">
        <ele>387.3</ele>
        <time>2023-04-08T08:07:45Z</time>
      </trkpt>
      <trkpt lat="44.52039" lon="1.83882">
        <ele>387.4</ele>
        <time>2023-04-08T08:07:48Z</time>
      </trkpt>
      <trkpt lat="44.52035" lon="1.83896">
        <ele>387.2</ele>
        <time>2023-04-08T08:07:51Z</time>
      </trkpt>
      <trkpt lat="44.52031" lon="1.8391">
        <ele>386.8</ele>
        <time>2023-04-08T08:07:54Z</time>
      </trkpt>
      <trkpt lat="44.52028" lon="1.83923">
        <ele>386.3</ele>
        <time>2023-04-08T08:07:57Z</time>
      </trkpt>
      <trkpt lat="44.52025" lon="1.83937">
        <ele>385.5</ele>
        <time>2023-04-08T08:08:00Z</time>
      </trkpt>
      <trkpt lat="44.52021" lon="1.83949">
        <ele>384.5</ele>
        <time>2023-04-08T08:08:03Z</time>
      </trkpt>
      <trkpt lat="44.52021" lon="1.83956">
        <ele>384</ele>
        <time>2023-04-08T08:08:06Z</time>
      </trkpt>
      <trkpt lat="44.5202" lon="1.83956">
        <ele>384</ele>
        <time>2023-04-08T08:09:03Z</time>
      </trkpt>
      <trkpt lat="44.52014" lon="1.83972">
        <ele>382.9</ele>
        <time>2023-04-08T08:09:08Z</time>
      </trkpt>
      <trkpt lat="44.52011" lon="1.83986">
        <ele>382</ele>
        <time>2023-04-08T08:09:10Z</time>
      </trkpt>
      <trkpt lat="44.52005" lon="1.84002">
        <ele>380.9</ele>
        <time>2023-04-08T08:09:12Z</time>
      </trkpt>
      <trkpt lat="44.51997" lon="1.8402">
        <ele>379.5</ele>
        <time>2023-04-08T08:09:14Z</time>
      </trkpt>
      <trkpt lat="44.51988" lon="1.8404">
        <ele>377.8</ele>
        <time>2023-04-08T08:09:16Z</time>
      </trkpt>
      <trkpt lat="44.51982" lon="1.8405">
        <ele>376.9</ele>
        <time>2023-04-08T08:09:17Z</time>
      </trkpt>
      <trkpt lat="44.51976" lon="1.8406">
        <ele>376.3</ele>
        <time>2023-04-08T08:09:18Z</time>
      </trkpt>
      <trkpt lat="44.5197" lon="1.84071">
        <ele>375.9</ele>
        <time>2023-04-08T08:09:19Z</time>
      </trkpt>
      <trkpt lat="44.51964" lon="1.84082">
        <ele>375.7</ele>
        <time>2023-04-08T08:09:20Z</time>
      </trkpt>
      <trkpt lat="44.51958" lon="1.84092">
        <ele>375.5</ele>
        <time>2023-04-08T08:09:21Z</time>
      </trkpt>
      <trkpt lat="44.51952" lon="1.84101">
        <ele>375.3</ele>
        <time>2023-04-08T08:09:22Z</time>
      </trkpt>
      <trkpt lat="44.51942" lon="1.84121">
        <ele>375</ele>
        <time>2023-04-08T08:09:24Z</time>
      </trkpt>
      <trkpt lat="44.51932" lon="1.84139">
        <ele>374.8</ele>
        <time>2023-04-08T08:09:26Z</time>
      </trkpt>
      <trkpt lat="44.51923" lon="1.84153">
        <ele>375.2</ele>
        <time>2023-04-08T08:09:28Z</time>
      </trkpt>
      <trkpt lat="44.51916" lon="1.84164">
        <ele>375.9</ele>
        <time>2023-04-08T08:09:30Z</time>
      </trkpt>
      <trkpt lat="44.51911" lon="1.84175">
        <ele>376.8</ele>
        <time>2023-04-08T08:09:32Z</time>
      </trkpt>
      <trkpt lat="44.51902" lon="1.84189">
        <ele>377.9</ele>
        <time>2023-04-08T08:09:35Z</time>
      </trkpt>
      <trkpt lat="44.51895" lon="1.84198">
        <ele>378.5</ele>
        <time>2023-04-08T08:09:37Z</time>
      </trkpt>
      <trkpt lat="44.51888" lon="1.84207">
        <ele>378.9</ele>
        <time>2023-04-08T08:09:39Z</time>
      </trkpt>
      <trkpt lat="44.51879" lon="1.84219">
        <ele>379.2</ele>
        <time>2023-04-08T08:09:42Z</time>
      </trkpt>
      <trkpt lat="44.51871" lon="1.8423">
        <ele>379.3</ele>
        <time>2023-04-08T08:09:45Z</time>
      </trkpt>
      <trkpt lat="44.51864" lon="1.84242">
        <ele>379.1</ele>
        <time>2023-04-08T08:09:49Z</time>
      </trkpt>
      <trkpt lat="44.51857" lon="1.84253">
        <ele>378.8</ele>
        <time>2023-04-08T08:09:52Z</time>
      </trkpt>
      <trkpt lat="44.5185" lon="1.84264">
        <ele>379</ele>
        <time>2023-04-08T08:09:55Z</time>
      </trkpt>
      <trkpt lat="44.51843" lon="1.84277">
        <ele>379</ele>
        <time>2023-04-08T08:09:58Z</time>
      </trkpt>
      <trkpt lat="44.51837" lon="1.84289">
        <ele>378.8</ele>
        <time>2023-04-08T08:10:00Z</time>
      </trkpt>
      <trkpt lat="44.51829" lon="1.84303">
        <ele>378.2</ele>
        <time>2023-04-08T08:10:02Z</time>
      </trkpt>
      <trkpt lat="44.51819" lon="1.8432">
        <ele>377.4</ele>
        <time>2023-04-08T08:10:04Z</time>
      </trkpt>
      <trkpt lat="44.51809" lon="1.84338">
        <ele>376.5</ele>
        <time>2023-04-08T08:10:06Z</time>
      </trkpt>
      <trkpt lat="44.518" lon="1.84357">
        <ele>375.9</ele>
        <time>2023-04-08T08:10:08Z</time>
      </trkpt>
      <trkpt lat="44.51792" lon="1.84371">
        <ele>375.6</ele>
        <time>2023-04-08T08:10:10Z</time>
      </trkpt>
      <trkpt lat="44.51784" lon="1.8438">
        <ele>375.7</ele>
        <time>2023-04-08T08:10:12Z</time>
      </trkpt>
      <trkpt lat="44.51774" lon="1.84389">
        <ele>375.9</ele>
        <time>2023-04-08T08:10:15Z</time>
      </trkpt>
      <trkpt lat="44.51762" lon="1.84398">
        <ele>376.2</ele>
        <time>2023-04-08T08:10:18Z</time>
      </trkpt>
      <trkpt lat="44.51751" lon="1.84407">
        <ele>377.2</ele>
        <time>2023-04-08T08:10:21Z</time>
      </trkpt>
      <trkpt lat="44.5174" lon="1.84417">
        <ele>378.4</ele>
        <time>2023-04-08T08:10:24Z</time>
      </trkpt>
      <trkpt lat="44.51729" lon="1.84426">
        <ele>378.3</ele>
        <time>2023-04-08T08:10:27Z</time>
      </trkpt>
      <trkpt lat="44.5172" lon="1.84431">
        <ele>378.4</ele>
        <time>2023-04-08T08:10:29Z</time>
      </trkpt>
      <trkpt lat="44.51711" lon="1.84435">
        <ele>378.8</ele>
        <time>2023-04-08T08:10:31Z</time>
      </trkpt>
      <trkpt lat="44.51699" lon="1.8444">
        <ele>378.4</ele>
        <time>2023-04-08T08:10:34Z</time>
      </trkpt>
      <trkpt lat="44.51687" lon="1.84446">
        <ele>377.6</ele>
        <time>2023-04-08T08:10:37Z</time>
      </trkpt>
      <trkpt lat="44.51675" lon="1.84451">
        <ele>377.6</ele>
        <time>2023-04-08T08:10:40Z</time>
      </trkpt>
      <trkpt lat="44.51663" lon="1.84453">
        <ele>376.4</ele>
        <time>2023-04-08T08:10:43Z</time>
      </trkpt>
      <trkpt lat="44.51653" lon="1.84455">
        <ele>375.3</ele>
        <time>2023-04-08T08:10:45Z</time>
      </trkpt>
      <trkpt lat="44.51643" lon="1.84455">
        <ele>374.3</ele>
        <time>2023-04-08T08:10:47Z</time>
      </trkpt>
      <trkpt lat="44.51631" lon="1.84452">
        <ele>373.4</ele>
        <time>2023-04-08T08:10:49Z</time>
      </trkpt>
      <trkpt lat="44.51619" lon="1.84446">
        <ele>371.9</ele>
        <time>2023-04-08T08:10:51Z</time>
      </trkpt>
      <trkpt lat="44.51607" lon="1.84439">
        <ele>371.1</ele>
        <time>2023-04-08T08:10:53Z</time>
      </trkpt>
      <trkpt lat="44.51593" lon="1.84433">
        <ele>370.4</ele>
        <time>2023-04-08T08:10:55Z</time>
      </trkpt>
      <trkpt lat="44.5158" lon="1.84433">
        <ele>369.6</ele>
        <time>2023-04-08T08:10:57Z</time>
      </trkpt>
      <trkpt lat="44.51568" lon="1.84437">
        <ele>369.1</ele>
        <time>2023-04-08T08:10:59Z</time>
      </trkpt>
      <trkpt lat="44.51557" lon="1.8444">
        <ele>368.5</ele>
        <time>2023-04-08T08:11:01Z</time>
      </trkpt>
      <trkpt lat="44.51545" lon="1.84441">
        <ele>368.2</ele>
        <time>2023-04-08T08:11:03Z</time>
      </trkpt>
      <trkpt lat="44.51532" lon="1.84442">
        <ele>367.9</ele>
        <time>2023-04-08T08:11:05Z</time>
      </trkpt>
      <trkpt lat="44.51519" lon="1.84443">
        <ele>367.7</ele>
        <time>2023-04-08T08:11:07Z</time>
      </trkpt>
      <trkpt lat="44.51506" lon="1.84444">
        <ele>367.5</ele>
        <time>2023-04-08T08:11:09Z</time>
      </trkpt>
      <trkpt lat="44.51493" lon="1.84445">
        <ele>367.1</ele>
        <time>2023-04-08T08:11:11Z</time>
      </trkpt>
      <trkpt lat="44.5148" lon="1.84447">
        <ele>366.7</ele>
        <time>2023-04-08T08:11:13Z</time>
      </trkpt>
      <trkpt lat="44.51466" lon="1.84448">
        <ele>366.2</ele>
        <time>2023-04-08T08:11:15Z</time>
      </trkpt>
      <trkpt lat="44.51452" lon="1.8445">
        <ele>365.7</ele>
        <time>2023-04-08T08:11:17Z</time>
      </trkpt>
      <trkpt lat="44.51437" lon="1.84451">
        <ele>362.6</ele>
        <time>2023-04-08T08:11:19Z</time>
      </trkpt>
      <trkpt lat="44.51421" lon="1.84453">
        <ele>362</ele>
        <time>2023-04-08T08:11:21Z</time>
      </trkpt>
      <trkpt lat="44.51405" lon="1.84454">
        <ele>361.3</ele>
        <time>2023-04-08T08:11:23Z</time>
      </trkpt>
      <trkpt lat="44.51388" lon="1.84456">
        <ele>359.7</ele>
        <time>2023-04-08T08:11:25Z</time>
      </trkpt>
      <trkpt lat="44.51371" lon="1.84457">
        <ele>359</ele>
        <time>2023-04-08T08:11:27Z</time>
      </trkpt>
      <trkpt lat="44.51354" lon="1.84459">
        <ele>358.4</ele>
        <time>2023-04-08T08:11:29Z</time>
      </trkpt>
      <trkpt lat="44.51337" lon="1.8446">
        <ele>357.8</ele>
        <time>2023-04-08T08:11:31Z</time>
      </trkpt>
      <trkpt lat="44.5132" lon="1.84465">
        <ele>357.5</ele>
        <time>2023-04-08T08:11:33Z</time>
      </trkpt>
      <trkpt lat="44.51304" lon="1.84473">
        <ele>355.7</ele>
        <time>2023-04-08T08:11:35Z</time>
      </trkpt>
      <trkpt lat="44.51292" lon="1.84474">
        <ele>355.3</ele>
        <time>2023-04-08T08:11:37Z</time>
      </trkpt>
      <trkpt lat="44.51282" lon="1.84468">
        <ele>355.1</ele>
        <time>2023-04-08T08:11:39Z</time>
      </trkpt>
      <trkpt lat="44.51272" lon="1.8446">
        <ele>355.8</ele>
        <time>2023-04-08T08:11:41Z</time>
      </trkpt>
      <trkpt lat="44.51261" lon="1.84452">
        <ele>355.2</ele>
        <time>2023-04-08T08:11:43Z</time>
      </trkpt>
      <trkpt lat="44.5125" lon="1.84441">
        <ele>354.9</ele>
        <time>2023-04-08T08:11:45Z</time>
      </trkpt>
      <trkpt lat="44.51241" lon="1.8443">
        <ele>354.5</ele>
        <time>2023-04-08T08:11:47Z</time>
      </trkpt>
      <trkpt lat="44.51235" lon="1.84418">
        <ele>354.5</ele>
        <time>2023-04-08T08:11:49Z</time>
      </trkpt>
      <trkpt lat="44.5123" lon="1.84404">
        <ele>353.3</ele>
        <time>2023-04-08T08:11:51Z</time>
      </trkpt>
      <trkpt lat="44.51223" lon="1.84389">
        <ele>352.6</ele>
        <time>2023-04-08T08:11:53Z</time>
      </trkpt>
      <trkpt lat="44.51215" lon="1.84377">
        <ele>350.4</ele>
        <time>2023-04-08T08:11:55Z</time>
      </trkpt>
      <trkpt lat="44.51207" lon="1.8437">
        <ele>350.4</ele>
        <time>2023-04-08T08:11:57Z</time>
      </trkpt>
      <trkpt lat="44.51201" lon="1.84382">
        <ele>350.2</ele>
        <time>2023-04-08T08:12:00Z</time>
      </trkpt>
      <trkpt lat="44.51198" lon="1.84398">
        <ele>350.2</ele>
        <time>2023-04-08T08:12:03Z</time>
      </trkpt>
      <trkpt lat="44.51196" lon="1.84415">
        <ele>351</ele>
        <time>2023-04-08T08:12:06Z</time>
      </trkpt>
      <trkpt lat="44.51195" lon="1.84432">
        <ele>351.5</ele>
        <time>2023-04-08T08:12:09Z</time>
      </trkpt>
      <trkpt lat="44.51193" lon="1.84446">
        <ele>349.7</ele>
        <time>2023-04-08T08:12:12Z</time>
      </trkpt>
      <trkpt lat="44.51191" lon="1.8446">
        <ele>349.5</ele>
        <time>2023-04-08T08:12:16Z</time>
      </trkpt>
      <trkpt lat="44.51192" lon="1.84472">
        <ele>349</ele>
        <time>2023-04-08T08:12:23Z</time>
      </trkpt>
      <trkpt lat="44.51192" lon="1.84472">
        <ele>349.1</ele>
        <time>2023-04-08T08:12:24Z</time>
      </trkpt>
      <trkpt lat="44.51192" lon="1.84472">
        <ele>349.1</ele>
        <time>2023-04-08T08:12:25Z</time>
      </trkpt>
      <trkpt lat="44.51192" lon="1.84472">
        <ele>349.2</ele>
        <time>2023-04-08T08:12:40Z</time>
      </trkpt>
      <trkpt lat="44.51191" lon="1.84485">
        <ele>348.6</ele>
        <time>2023-04-08T08:12:47Z</time>
      </trkpt>
      <trkpt lat="44.51191" lon="1.84485">
        <ele>348.6</ele>
        <time>2023-04-08T08:12:48Z</time>
      </trkpt>
      <trkpt lat="44.51191" lon="1.84485">
        <ele>348.7</ele>
        <time>2023-04-08T08:12:52Z</time>
      </trkpt>
      <trkpt lat="44.5119" lon="1.84498">
        <ele>348.7</ele>
        <time>2023-04-08T08:12:57Z</time>
      </trkpt>
      <trkpt lat="44.5119" lon="1.84514">
        <ele>347.8</ele>
        <time>2023-04-08T08:13:01Z</time>
      </trkpt>
      <trkpt lat="44.5119" lon="1.84528">
        <ele>346.9</ele>
        <time>2023-04-08T08:13:04Z</time>
      </trkpt>
      <trkpt lat="44.51188" lon="1.84543">
        <ele>345.6</ele>
        <time>2023-04-08T08:13:07Z</time>
      </trkpt>
      <trkpt lat="44.51187" lon="1.84559">
        <ele>343.6</ele>
        <time>2023-04-08T08:13:10Z</time>
      </trkpt>
      <trkpt lat="44.51187" lon="1.84575">
        <ele>341.3</ele>
        <time>2023-04-08T08:13:12Z</time>
      </trkpt>
      <trkpt lat="44.5119" lon="1.84594">
        <ele>338.3</ele>
        <time>2023-04-08T08:13:14Z</time>
      </trkpt>
      <trkpt lat="44.51194" lon="1.84612">
        <ele>335.6</ele>
        <time>2023-04-08T08:13:16Z</time>
      </trkpt>
      <trkpt lat="44.51199" lon="1.84632">
        <ele>332.9</ele>
        <time>2023-04-08T08:13:18Z</time>
      </trkpt>
      <trkpt lat="44.512" lon="1.84649">
        <ele>330.1</ele>
        <time>2023-04-08T08:13:20Z</time>
      </trkpt>
      <trkpt lat="44.51196" lon="1.84662">
        <ele>327.8</ele>
        <time>2023-04-08T08:13:22Z</time>
      </trkpt>
      <trkpt lat="44.51201" lon="1.84674">
        <ele>325.4</ele>
        <time>2023-04-08T08:13:24Z</time>
      </trkpt>
      <trkpt lat="44.51209" lon="1.84683">
        <ele>325.9</ele>
        <time>2023-04-08T08:13:26Z</time>
      </trkpt>
      <trkpt lat="44.51215" lon="1.84696">
        <ele>323.8</ele>
        <time>2023-04-08T08:13:28Z</time>
      </trkpt>
      <trkpt lat="44.5122" lon="1.84712">
        <ele>323</ele>
        <time>2023-04-08T08:13:30Z</time>
      </trkpt>
      <trkpt lat="44.51226" lon="1.84725">
        <ele>323.1</ele>
        <time>2023-04-08T08:13:32Z</time>
      </trkpt>
      <trkpt lat="44.5123" lon="1.84737">
        <ele>322.4</ele>
        <time>2023-04-08T08:13:35Z</time>
      </trkpt>
      <trkpt lat="44.51233" lon="1.84746">
        <ele>320.8</ele>
        <time>2023-04-08T08:13:43Z</time>
      </trkpt>
      <trkpt lat="44.51232" lon="1.84746">
        <ele>320.9</ele>
        <time>2023-04-08T08:13:57Z</time>
      </trkpt>
      <trkpt lat="44.51239" lon="1.84762">
        <ele>319.5</ele>
        <time>2023-04-08T08:14:02Z</time>
      </trkpt>
      <trkpt lat="44.51243" lon="1.84777">
        <ele>320.4</ele>
        <time>2023-04-08T08:14:05Z</time>
      </trkpt>
      <trkpt lat="44.51248" lon="1.84789">
        <ele>320.5</ele>
        <time>2023-04-08T08:14:07Z</time>
      </trkpt>
      <trkpt lat="44.51257" lon="1.84801">
        <ele>322.1</ele>
        <time>2023-04-08T08:14:09Z</time>
      </trkpt>
      <trkpt lat="44.51263" lon="1.84814">
        <ele>321.8</ele>
        <time>2023-04-08T08:14:11Z</time>
      </trkpt>
      <trkpt lat="44.51267" lon="1.84829">
        <ele>323.4</ele>
        <time>2023-04-08T08:14:14Z</time>
      </trkpt>
      <trkpt lat="44.51272" lon="1.84841">
        <ele>323.5</ele>
        <time>2023-04-08T08:14:17Z</time>
      </trkpt>
      <trkpt lat="44.5128" lon="1.84852">
        <ele>325</ele>
        <time>2023-04-08T08:14:21Z</time>
      </trkpt>
      <trkpt lat="44.51286" lon="1.84862">
        <ele>324.6</ele>
        <time>2023-04-08T08:14:24Z</time>
      </trkpt>
      <trkpt lat="44.51292" lon="1.84874">
        <ele>325.8</ele>
        <time>2023-04-08T08:14:28Z</time>
      </trkpt>
      <trkpt lat="44.51298" lon="1.84885">
        <ele>325.4</ele>
        <time>2023-04-08T08:14:32Z</time>
      </trkpt>
      <trkpt lat="44.51304" lon="1.84896">
        <ele>326.8</ele>
        <time>2023-04-08T08:14:36Z</time>
      </trkpt>
      <trkpt lat="44.5131" lon="1.84908">
        <ele>326.5</ele>
        <time>2023-04-08T08:14:40Z</time>
      </trkpt>
      <trkpt lat="44.51317" lon="1.84922">
        <ele>326.8</ele>
        <time>2023-04-08T08:14:44Z</time>
      </trkpt>
      <trkpt lat="44.51322" lon="1.84932">
        <ele>326</ele>
        <time>2023-04-08T08:14:47Z</time>
      </trkpt>
      <trkpt lat="44.51327" lon="1.84944">
        <ele>326.1</ele>
        <time>2023-04-08T08:14:50Z</time>
      </trkpt>
      <trkpt lat="44.51333" lon="1.84957">
        <ele>326.2</ele>
        <time>2023-04-08T08:14:53Z</time>
      </trkpt>
      <trkpt lat="44.51339" lon="1.84974">
        <ele>325.6</ele>
        <time>2023-04-08T08:14:56Z</time>
      </trkpt>
      <trkpt lat="44.51343" lon="1.84986">
        <ele>325.2</ele>
        <time>2023-04-08T08:14:58Z</time>
      </trkpt>
      <trkpt lat="44.51349" lon="1.84997">
        <ele>324.8</ele>
        <time>2023-04-08T08:15:00Z</time>
      </trkpt>
      <trkpt lat="44.51357" lon="1.85006">
        <ele>324.3</ele>
        <time>2023-04-08T08:15:02Z</time>
      </trkpt>
      <trkpt lat="44.51365" lon="1.85012">
        <ele>323.9</ele>
        <time>2023-04-08T08:15:04Z</time>
      </trkpt>
      <trkpt lat="44.51377" lon="1.85017">
        <ele>323.3</ele>
        <time>2023-04-08T08:15:07Z</time>
      </trkpt>
      <trkpt lat="44.5139" lon="1.8502">
        <ele>323.4</ele>
        <time>2023-04-08T08:15:10Z</time>
      </trkpt>
      <trkpt lat="44.51403" lon="1.85024">
        <ele>323.9</ele>
        <time>2023-04-08T08:15:13Z</time>
      </trkpt>
      <trkpt lat="44.51415" lon="1.85031">
        <ele>324.5</ele>
        <time>2023-04-08T08:15:16Z</time>
      </trkpt>
      <trkpt lat="44.51424" lon="1.85044">
        <ele>325.2</ele>
        <time>2023-04-08T08:15:19Z</time>
      </trkpt>
      <trkpt lat="44.51431" lon="1.8506">
        <ele>325.9</ele>
        <time>2023-04-08T08:15:22Z</time>
      </trkpt>
      <trkpt lat="44.51437" lon="1.85075">
        <ele>326.5</ele>
        <time>2023-04-08T08:15:25Z</time>
      </trkpt>
      <trkpt lat="44.51438" lon="1.85088">
        <ele>327</ele>
        <time>2023-04-08T08:15:28Z</time>
      </trkpt>
      <trkpt lat="44.51429" lon="1.85095">
        <ele>324.7</ele>
        <time>2023-04-08T08:15:32Z</time>
      </trkpt>
      <trkpt lat="44.51419" lon="1.85102">
        <ele>323.4</ele>
        <time>2023-04-08T08:15:36Z</time>
      </trkpt>
      <trkpt lat="44.5141" lon="1.85107">
        <ele>322.1</ele>
        <time>2023-04-08T08:15:40Z</time>
      </trkpt>
      <trkpt lat="44.514" lon="1.85113">
        <ele>320.9</ele>
        <time>2023-04-08T08:15:44Z</time>
      </trkpt>
      <trkpt lat="44.51391" lon="1.85117">
        <ele>319.7</ele>
        <time>2023-04-08T08:15:47Z</time>
      </trkpt>
      <trkpt lat="44.5138" lon="1.8512">
        <ele>318.4</ele>
        <time>2023-04-08T08:15:50Z</time>
      </trkpt>
      <trkpt lat="44.5137" lon="1.85122">
        <ele>317.5</ele>
        <time>2023-04-08T08:15:52Z</time>
      </trkpt>
      <trkpt lat="44.5136" lon="1.85124">
        <ele>316.6</ele>
        <time>2023-04-08T08:15:54Z</time>
      </trkpt>
      <trkpt lat="44.5135" lon="1.85126">
        <ele>315.9</ele>
        <time>2023-04-08T08:15:56Z</time>
      </trkpt>
      <trkpt lat="44.5134" lon="1.85128">
        <ele>315.1</ele>
        <time>2023-04-08T08:15:58Z</time>
      </trkpt>
      <trkpt lat="44.5133" lon="1.8513">
        <ele>314.3</ele>
        <time>2023-04-08T08:16:00Z</time>
      </trkpt>
      <trkpt lat="44.51319" lon="1.85132">
        <ele>313.7</ele>
        <time>2023-04-08T08:16:02Z</time>
      </trkpt>
      <trkpt lat="44.51309" lon="1.85133">
        <ele>313</ele>
        <time>2023-04-08T08:16:04Z</time>
      </trkpt>
      <trkpt lat="44.51299" lon="1.85134">
        <ele>312.2</ele>
        <time>2023-04-08T08:16:06Z</time>
      </trkpt>
      <trkpt lat="44.51288" lon="1.85136">
        <ele>311.4</ele>
        <time>2023-04-08T08:16:08Z</time>
      </trkpt>
      <trkpt lat="44.51277" lon="1.85136">
        <ele>310.6</ele>
        <time>2023-04-08T08:16:10Z</time>
      </trkpt>
      <trkpt lat="44.51264" lon="1.85133">
        <ele>309.7</ele>
        <time>2023-04-08T08:16:12Z</time>
      </trkpt>
      <trkpt lat="44.51252" lon="1.8513">
        <ele>308.9</ele>
        <time>2023-04-08T08:16:14Z</time>
      </trkpt>
      <trkpt lat="44.5124" lon="1.85128">
        <ele>307.8</ele>
        <time>2023-04-08T08:16:16Z</time>
      </trkpt>
      <trkpt lat="44.51227" lon="1.85128">
        <ele>306.6</ele>
        <time>2023-04-08T08:16:18Z</time>
      </trkpt>
      <trkpt lat="44.51213" lon="1.85129">
        <ele>305.4</ele>
        <time>2023-04-08T08:16:20Z</time>
      </trkpt>
      <trkpt lat="44.51198" lon="1.85133">
        <ele>304.1</ele>
        <time>2023-04-08T08:16:22Z</time>
      </trkpt>
      <trkpt lat="44.51184" lon="1.85141">
        <ele>303</ele>
        <time>2023-04-08T08:16:24Z</time>
      </trkpt>
      <trkpt lat="44.5117" lon="1.85151">
        <ele>302.3</ele>
        <time>2023-04-08T08:16:26Z</time>
      </trkpt>
      <trkpt lat="44.51157" lon="1.85161">
        <ele>301.8</ele>
        <time>2023-04-08T08:16:28Z</time>
      </trkpt>
      <trkpt lat="44.51142" lon="1.85168">
        <ele>301.3</ele>
        <time>2023-04-08T08:16:30Z</time>
      </trkpt>
      <trkpt lat="44.51127" lon="1.85173">
        <ele>301.1</ele>
        <time>2023-04-08T08:16:32Z</time>
      </trkpt>
      <trkpt lat="44.51112" lon="1.85176">
        <ele>301.3</ele>
        <time>2023-04-08T08:16:34Z</time>
      </trkpt>
      <trkpt lat="44.51098" lon="1.8518">
        <ele>301.4</ele>
        <time>2023-04-08T08:16:36Z</time>
      </trkpt>
      <trkpt lat="44.51084" lon="1.85184">
        <ele>301.2</ele>
        <time>2023-04-08T08:16:38Z</time>
      </trkpt>
      <trkpt lat="44.51072" lon="1.85189">
        <ele>301</ele>
        <time>2023-04-08T08:16:40Z</time>
      </trkpt>
      <trkpt lat="44.51059" lon="1.85194">
        <ele>300.8</ele>
        <time>2023-04-08T08:16:42Z</time>
      </trkpt>
      <trkpt lat="44.51049" lon="1.85201">
        <ele>299.8</ele>
        <time>2023-04-08T08:16:44Z</time>
      </trkpt>
      <trkpt lat="44.51039" lon="1.85204">
        <ele>299</ele>
        <time>2023-04-08T08:16:46Z</time>
      </trkpt>
      <trkpt lat="44.51029" lon="1.85202">
        <ele>298.3</ele>
        <time>2023-04-08T08:16:48Z</time>
      </trkpt>
      <trkpt lat="44.51019" lon="1.85196">
        <ele>297.6</ele>
        <time>2023-04-08T08:16:50Z</time>
      </trkpt>
      <trkpt lat="44.51008" lon="1.85194">
        <ele>297</ele>
        <time>2023-04-08T08:16:52Z</time>
      </trkpt>
      <trkpt lat="44.50997" lon="1.85194">
        <ele>296.3</ele>
        <time>2023-04-08T08:16:54Z</time>
      </trkpt>
      <trkpt lat="44.50988" lon="1.85192">
        <ele>296</ele>
        <time>2023-04-08T08:16:58Z</time>
      </trkpt>
      <trkpt lat="44.50981" lon="1.85182">
        <ele>293.7</ele>
        <time>2023-04-08T08:17:06Z</time>
      </trkpt>
      <trkpt lat="44.50971" lon="1.85175">
        <ele>293</ele>
        <time>2023-04-08T08:17:09Z</time>
      </trkpt>
      <trkpt lat="44.50962" lon="1.85161">
        <ele>290.6</ele>
        <time>2023-04-08T08:17:12Z</time>
      </trkpt>
      <trkpt lat="44.50954" lon="1.85152">
        <ele>287.6</ele>
        <time>2023-04-08T08:17:14Z</time>
      </trkpt>
      <trkpt lat="44.50945" lon="1.85146">
        <ele>287.2</ele>
        <time>2023-04-08T08:17:16Z</time>
      </trkpt>
      <trkpt lat="44.50935" lon="1.85143">
        <ele>287.1</ele>
        <time>2023-04-08T08:17:18Z</time>
      </trkpt>
      <trkpt lat="44.50925" lon="1.8514">
        <ele>286.8</ele>
        <time>2023-04-08T08:17:20Z</time>
      </trkpt>
      <trkpt lat="44.50917" lon="1.85135">
        <ele>283.6</ele>
        <time>2023-04-08T08:17:22Z</time>
      </trkpt>
      <trkpt lat="44.50905" lon="1.85128">
        <ele>283.6</ele>
        <time>2023-04-08T08:17:25Z</time>
      </trkpt>
      <trkpt lat="44.50896" lon="1.85122">
        <ele>283.3</ele>
        <time>2023-04-08T08:17:27Z</time>
      </trkpt>
      <trkpt lat="44.50885" lon="1.85114">
        <ele>279.2</ele>
        <time>2023-04-08T08:17:30Z</time>
      </trkpt>
      <trkpt lat="44.50877" lon="1.85108">
        <ele>278.9</ele>
        <time>2023-04-08T08:17:32Z</time>
      </trkpt>
      <trkpt lat="44.50867" lon="1.85102">
        <ele>274.9</ele>
        <time>2023-04-08T08:17:34Z</time>
      </trkpt>
      <trkpt lat="44.50857" lon="1.85095">
        <ele>275.4</ele>
        <time>2023-04-08T08:17:36Z</time>
      </trkpt>
      <trkpt lat="44.50846" lon="1.85084">
        <ele>271</ele>
        <time>2023-04-08T08:17:38Z</time>
      </trkpt>
      <trkpt lat="44.50833" lon="1.85075">
        <ele>271.6</ele>
        <time>2023-04-08T08:17:40Z</time>
      </trkpt>
      <trkpt lat="44.50821" lon="1.85067">
        <ele>268</ele>
        <time>2023-04-08T08:17:42Z</time>
      </trkpt>
      <trkpt lat="44.50812" lon="1.85059">
        <ele>268.7</ele>
        <time>2023-04-08T08:17:44Z</time>
      </trkpt>
      <trkpt lat="44.50803" lon="1.85054">
        <ele>268.4</ele>
        <time>2023-04-08T08:17:46Z</time>
      </trkpt>
      <trkpt lat="44.50794" lon="1.8505">
        <ele>264.3</ele>
        <time>2023-04-08T08:17:48Z</time>
      </trkpt>
      <trkpt lat="44.50783" lon="1.85045">
        <ele>264.7</ele>
        <time>2023-04-08T08:17:50Z</time>
      </trkpt>
      <trkpt lat="44.50772" lon="1.8504">
        <ele>264.7</ele>
        <time>2023-04-08T08:17:52Z</time>
      </trkpt>
      <trkpt lat="44.50759" lon="1.85037">
        <ele>264.4</ele>
        <time>2023-04-08T08:17:54Z</time>
      </trkpt>
      <trkpt lat="44.50748" lon="1.85034">
        <ele>258.7</ele>
        <time>2023-04-08T08:17:56Z</time>
      </trkpt>
      <trkpt lat="44.50735" lon="1.85032">
        <ele>257.7</ele>
        <time>2023-04-08T08:17:59Z</time>
      </trkpt>
      <trkpt lat="44.50725" lon="1.8503">
        <ele>256.1</ele>
        <time>2023-04-08T08:18:01Z</time>
      </trkpt>
      <trkpt lat="44.50714" lon="1.8503">
        <ele>254.4</ele>
        <time>2023-04-08T08:18:03Z</time>
      </trkpt>
      <trkpt lat="44.50704" lon="1.8503">
        <ele>254.1</ele>
        <time>2023-04-08T08:18:05Z</time>
      </trkpt>
      <trkpt lat="44.50693" lon="1.85026">
        <ele>252.5</ele>
        <time>2023-04-08T08:18:07Z</time>
      </trkpt>
      <trkpt lat="44.50683" lon="1.85021">
        <ele>250.9</ele>
        <time>2023-04-08T08:18:10Z</time>
      </trkpt>
      <trkpt lat="44.50675" lon="1.85016">
        <ele>244.2</ele>
        <time>2023-04-08T08:18:13Z</time>
      </trkpt>
      <trkpt lat="44.50663" lon="1.85011">
        <ele>242.2</ele>
        <time>2023-04-08T08:18:16Z</time>
      </trkpt>
      <trkpt lat="44.50649" lon="1.85007">
        <ele>240.4</ele>
        <time>2023-04-08T08:18:19Z</time>
      </trkpt>
      <trkpt lat="44.50635" lon="1.85003">
        <ele>238.4</ele>
        <time>2023-04-08T08:18:22Z</time>
      </trkpt>
      <trkpt lat="44.50623" lon="1.84998">
        <ele>231.4</ele>
        <time>2023-04-08T08:18:24Z</time>
      </trkpt>
      <trkpt lat="44.50611" lon="1.84994">
        <ele>229.8</ele>
        <time>2023-04-08T08:18:26Z</time>
      </trkpt>
      <trkpt lat="44.50599" lon="1.84995">
        <ele>228.6</ele>
        <time>2023-04-08T08:18:28Z</time>
      </trkpt>
      <trkpt lat="44.50588" lon="1.84998">
        <ele>227.7</ele>
        <time>2023-04-08T08:18:30Z</time>
      </trkpt>
      <trkpt lat="44.50578" lon="1.85001">
        <ele>226.8</ele>
        <time>2023-04-08T08:18:32Z</time>
      </trkpt>
      <trkpt lat="44.50566" lon="1.85001">
        <ele>225.8</ele>
        <time>2023-04-08T08:18:34Z</time>
      </trkpt>
      <trkpt lat="44.50552" lon="1.85002">
        <ele>224.7</ele>
        <time>2023-04-08T08:18:36Z</time>
      </trkpt>
      <trkpt lat="44.50538" lon="1.85">
        <ele>223.6</ele>
        <time>2023-04-08T08:18:38Z</time>
      </trkpt>
      <trkpt lat="44.50525" lon="1.84998">
        <ele>222.4</ele>
        <time>2023-04-08T08:18:40Z</time>
      </trkpt>
      <trkpt lat="44.50513" lon="1.84996">
        <ele>221.3</ele>
        <time>2023-04-08T08:18:42Z</time>
      </trkpt>
      <trkpt lat="44.505" lon="1.84996">
        <ele>220</ele>
        <time>2023-04-08T08:18:44Z</time>
      </trkpt>
      <trkpt lat="44.50486" lon="1.84994">
        <ele>218.7</ele>
        <time>2023-04-08T08:18:46Z</time>
      </trkpt>
      <trkpt lat="44.50471" lon="1.84992">
        <ele>217.6</ele>
        <time>2023-04-08T08:18:48Z</time>
      </trkpt>
      <trkpt lat="44.50455" lon="1.84989">
        <ele>216.8</ele>
        <time>2023-04-08T08:18:50Z</time>
      </trkpt>
      <trkpt lat="44.50441" lon="1.84986">
        <ele>216.1</ele>
        <time>2023-04-08T08:18:52Z</time>
      </trkpt>
      <trkpt lat="44.50425" lon="1.84983">
        <ele>215.3</ele>
        <time>2023-04-08T08:18:54Z</time>
      </trkpt>
      <trkpt lat="44.50411" lon="1.84979">
        <ele>214.5</ele>
        <time>2023-04-08T08:18:56Z</time>
      </trkpt>
      <trkpt lat="44.50397" lon="1.84974">
        <ele>213.6</ele>
        <time>2023-04-08T08:18:58Z</time>
      </trkpt>
      <trkpt lat="44.50382" lon="1.84968">
        <ele>212.8</ele>
        <time>2023-04-08T08:19:00Z</time>
      </trkpt>
      <trkpt lat="44.50371" lon="1.84959">
        <ele>211.9</ele>
        <time>2023-04-08T08:19:02Z</time>
      </trkpt>
      <trkpt lat="44.5036" lon="1.8495">
        <ele>211</ele>
        <time>2023-04-08T08:19:04Z</time>
      </trkpt>
      <trkpt lat="44.50349" lon="1.84943">
        <ele>210.3</ele>
        <time>2023-04-08T08:19:06Z</time>
      </trkpt>
      <trkpt lat="44.5034" lon="1.84934">
        <ele>209.7</ele>
        <time>2023-04-08T08:19:09Z</time>
      </trkpt>
      <trkpt lat="44.50332" lon="1.84924">
        <ele>208.9</ele>
        <time>2023-04-08T08:19:13Z</time>
      </trkpt>
      <trkpt lat="44.50321" lon="1.84917">
        <ele>208</ele>
        <time>2023-04-08T08:19:17Z</time>
      </trkpt>
      <trkpt lat="44.50312" lon="1.84915">
        <ele>207.3</ele>
        <time>2023-04-08T08:19:20Z</time>
      </trkpt>
      <trkpt lat="44.50301" lon="1.8491">
        <ele>206.3</ele>
        <time>2023-04-08T08:19:23Z</time>
      </trkpt>
      <trkpt lat="44.5029" lon="1.84904">
        <ele>205.4</ele>
        <time>2023-04-08T08:19:26Z</time>
      </trkpt>
      <trkpt lat="44.50277" lon="1.84899">
        <ele>204.3</ele>
        <time>2023-04-08T08:19:29Z</time>
      </trkpt>
      <trkpt lat="44.50264" lon="1.84897">
        <ele>203.4</ele>
        <time>2023-04-08T08:19:31Z</time>
      </trkpt>
      <trkpt lat="44.5025" lon="1.84896">
        <ele>202.7</ele>
        <time>2023-04-08T08:19:33Z</time>
      </trkpt>
      <trkpt lat="44.50234" lon="1.84896">
        <ele>201.7</ele>
        <time>2023-04-08T08:19:35Z</time>
      </trkpt>
      <trkpt lat="44.50217" lon="1.84895">
        <ele>200.3</ele>
        <time>2023-04-08T08:19:37Z</time>
      </trkpt>
      <trkpt lat="44.50201" lon="1.84891">
        <ele>198.9</ele>
        <time>2023-04-08T08:19:39Z</time>
      </trkpt>
      <trkpt lat="44.50186" lon="1.84886">
        <ele>197.9</ele>
        <time>2023-04-08T08:19:41Z</time>
      </trkpt>
      <trkpt lat="44.50172" lon="1.8488">
        <ele>197.3</ele>
        <time>2023-04-08T08:19:43Z</time>
      </trkpt>
      <trkpt lat="44.50157" lon="1.84874">
        <ele>196.8</ele>
        <time>2023-04-08T08:19:45Z</time>
      </trkpt>
      <trkpt lat="44.50143" lon="1.8487">
        <ele>196.3</ele>
        <time>2023-04-08T08:19:47Z</time>
      </trkpt>
      <trkpt lat="44.50132" lon="1.84871">
        <ele>195.9</ele>
        <time>2023-04-08T08:19:49Z</time>
      </trkpt>
      <trkpt lat="44.50119" lon="1.84869">
        <ele>195.3</ele>
        <time>2023-04-08T08:19:52Z</time>
      </trkpt>
      <trkpt lat="44.50109" lon="1.84861">
        <ele>194.7</ele>
        <time>2023-04-08T08:19:55Z</time>
      </trkpt>
      <trkpt lat="44.50098" lon="1.84853">
        <ele>193.8</ele>
        <time>2023-04-08T08:19:58Z</time>
      </trkpt>
      <trkpt lat="44.50088" lon="1.84864">
        <ele>193</ele>
        <time>2023-04-08T08:20:01Z</time>
      </trkpt>
      <trkpt lat="44.50081" lon="1.84877">
        <ele>192.4</ele>
        <time>2023-04-08T08:20:04Z</time>
      </trkpt>
      <trkpt lat="44.50072" lon="1.84886">
        <ele>192</ele>
        <time>2023-04-08T08:20:07Z</time>
      </trkpt>
      <trkpt lat="44.50065" lon="1.84888">
        <ele>191.9</ele>
        <time>2023-04-08T08:20:12Z</time>
      </trkpt>
      <trkpt lat="44.50065" lon="1.84888">
        <ele>191.9</ele>
        <time>2023-04-08T08:20:16Z</time>
      </trkpt>
      <trkpt lat="44.50065" lon="1.84888">
        <ele>191.9</ele>
        <time>2023-04-08T08:20:17Z</time>
      </trkpt>
      <trkpt lat="44.50065" lon="1.84888">
        <ele>191.9</ele>
        <time>2023-04-08T08:20:21Z</time>
      </trkpt>
      <trkpt lat="44.50065" lon="1.84888">
        <ele>191.9</ele>
        <time>2023-04-08T08:20:22Z</time>
      </trkpt>
      <trkpt lat="44.50065" lon="1.84888">
        <ele>191.9</ele>
        <time>2023-04-08T08:21:25Z</time>
      </trkpt>
      <trkpt lat="44.50065" lon="1.84888">
        <ele>191.9</ele>
        <time>2023-04-08T08:21:27Z</time>
      </trkpt>
      <trkpt lat="44.50066" lon="1.84888">
        <ele>191.9</ele>
        <time>2023-04-08T08:21:46Z</time>
      </trkpt>
      <trkpt lat="44.50066" lon="1.84888">
        <ele>191.9</ele>
        <time>2023-04-08T08:21:47Z</time>
      </trkpt>
      <trkpt lat="44.50065" lon="1.84887">
        <ele>191.9</ele>
        <time>2023-04-08T08:23:25Z</time>
      </trkpt>
      <trkpt lat="44.50065" lon="1.84887">
        <ele>191.9</ele>
        <time>2023-04-08T08:23:26Z</time>
      </trkpt>
      <trkpt lat="44.50066" lon="1.84887">
        <ele>191.9</ele>
        <time>2023-04-08T08:23:27Z</time>
      </trkpt>
      <trkpt lat="44.50066" lon="1.84887">
        <ele>191.9</ele>
        <time>2023-04-08T08:23:28Z</time>
      </trkpt>
      <trkpt lat="44.50065" lon="1.84887">
        <ele>191.9</ele>
        <time>2023-04-08T08:23:29Z</time>
      </trkpt>
      <trkpt lat="44.50055" lon="1.84889">
        <ele>191.8</ele>
        <time>2023-04-08T08:23:37Z</time>
      </trkpt>
      <trkpt lat="44.50046" lon="1.8489">
        <ele>191.7</ele>
        <time>2023-04-08T08:23:42Z</time>
      </trkpt>
      <trkpt lat="44.50035" lon="1.84892">
        <ele>191.6</ele>
        <time>2023-04-08T08:23:46Z</time>
      </trkpt>
      <trkpt lat="44.50026" lon="1.84889">
        <ele>190.5</ele>
        <time>2023-04-08T08:23:49Z</time>
      </trkpt>
      <trkpt lat="44.50016" lon="1.84885">
        <ele>188</ele>
        <time>2023-04-08T08:23:52Z</time>
      </trkpt>
      <trkpt lat="44.50005" lon="1.84885">
        <ele>185.3</ele>
        <time>2023-04-08T08:23:55Z</time>
      </trkpt>
      <trkpt lat="44.49993" lon="1.84881">
        <ele>184</ele>
        <time>2023-04-08T08:23:58Z</time>
      </trkpt>
      <trkpt lat="44.49984" lon="1.84876">
        <ele>183.5</ele>
        <time>2023-04-08T08:24:00Z</time>
      </trkpt>
      <trkpt lat="44.49974" lon="1.8487">
        <ele>183</ele>
        <time>2023-04-08T08:24:02Z</time>
      </trkpt>
      <trkpt lat="44.49963" lon="1.84866">
        <ele>182.5</ele>
        <time>2023-04-08T08:24:04Z</time>
      </trkpt>
      <trkpt lat="44.49953" lon="1.84858">
        <ele>182.1</ele>
        <time>2023-04-08T08:24:07Z</time>
      </trkpt>
      <trkpt lat="44.49957" lon="1.84847">
        <ele>181.9</ele>
        <time>2023-04-08T08:24:10Z</time>
      </trkpt>
      <trkpt lat="44.49969" lon="1.84846">
        <ele>182</ele>
        <time>2023-04-08T08:24:13Z</time>
      </trkpt>
      <trkpt lat="44.4998" lon="1.84852">
        <ele>182.3</ele>
        <time>2023-04-08T08:24:16Z</time>
      </trkpt>
      <trkpt lat="44.49992" lon="1.84857">
        <ele>182.8</ele>
        <time>2023-04-08T08:24:19Z</time>
      </trkpt>
      <trkpt lat="44.50003" lon="1.84853">
        <ele>183.3</ele>
        <time>2023-04-08T08:24:22Z</time>
      </trkpt>
      <trkpt lat="44.50006" lon="1.84837">
        <ele>184</ele>
        <time>2023-04-08T08:24:25Z</time>
      </trkpt>
      <trkpt lat="44.50006" lon="1.8482">
        <ele>184.6</ele>
        <time>2023-04-08T08:24:28Z</time>
      </trkpt>
      <trkpt lat="44.50006" lon="1.84803">
        <ele>185.4</ele>
        <time>2023-04-08T08:24:31Z</time>
      </trkpt>
      <trkpt lat="44.50005" lon="1.84788">
        <ele>186.2</ele>
        <time>2023-04-08T08:24:34Z</time>
      </trkpt>
      <trkpt lat="44.50007" lon="1.84773">
        <ele>187.2</ele>
        <time>2023-04-08T08:24:37Z</time>
      </trkpt>
      <trkpt lat="44.5001" lon="1.8476">
        <ele>188.2</ele>
        <time>2023-04-08T08:24:40Z</time>
      </trkpt>
      <trkpt lat="44.50014" lon="1.84748">
        <ele>189.3</ele>
        <time>2023-04-08T08:24:43Z</time>
      </trkpt>
      <trkpt lat="44.5002" lon="1.84733">
        <ele>190.6</ele>
        <time>2023-04-08T08:24:47Z</time>
      </trkpt>
      <trkpt lat="44.50027" lon="1.8472">
        <ele>192</ele>
        <time>2023-04-08T08:24:51Z</time>
      </trkpt>
      <trkpt lat="44.50031" lon="1.84705">
        <ele>193.2</ele>
        <time>2023-04-08T08:24:55Z</time>
      </trkpt>
      <trkpt lat="44.50035" lon="1.8469">
        <ele>194.3</ele>
        <time>2023-04-08T08:24:59Z</time>
      </trkpt>
      <trkpt lat="44.50038" lon="1.84677">
        <ele>195.2</ele>
        <time>2023-04-08T08:25:02Z</time>
      </trkpt>
      <trkpt lat="44.50042" lon="1.84664">
        <ele>196.1</ele>
        <time>2023-04-08T08:25:05Z</time>
      </trkpt>
      <trkpt lat="44.50046" lon="1.84652">
        <ele>196.9</ele>
        <time>2023-04-08T08:25:08Z</time>
      </trkpt>
      <trkpt lat="44.50051" lon="1.84639">
        <ele>197.8</ele>
        <time>2023-04-08T08:25:11Z</time>
      </trkpt>
      <trkpt lat="44.50057" lon="1.84627">
        <ele>198.8</ele>
        <time>2023-04-08T08:25:14Z</time>
      </trkpt>
      <trkpt lat="44.50062" lon="1.84615">
        <ele>199.7</ele>
        <time>2023-04-08T08:25:17Z</time>
      </trkpt>
      <trkpt lat="44.50066" lon="1.84604">
        <ele>200</ele>
        <time>2023-04-08T08:25:20Z</time>
      </trkpt>
      <trkpt lat="44.50071" lon="1.84593">
        <ele>200.3</ele>
        <time>2023-04-08T08:25:23Z</time>
      </trkpt>
      <trkpt lat="44.50076" lon="1.84581">
        <ele>202</ele>
        <time>2023-04-08T08:25:26Z</time>
      </trkpt>
      <trkpt lat="44.50082" lon="1.8457">
        <ele>203.8</ele>
        <time>2023-04-08T08:25:29Z</time>
      </trkpt>
      <trkpt lat="44.50088" lon="1.8456">
        <ele>204.8</ele>
        <time>2023-04-08T08:25:32Z</time>
      </trkpt>
      <trkpt lat="44.50094" lon="1.84549">
        <ele>205.7</ele>
        <time>2023-04-08T08:25:35Z</time>
      </trkpt>
      <trkpt lat="44.501" lon="1.84538">
        <ele>206.6</ele>
        <time>2023-04-08T08:25:38Z</time>
      </trkpt>
      <trkpt lat="44.50106" lon="1.84527">
        <ele>207.4</ele>
        <time>2023-04-08T08:25:41Z</time>
      </trkpt>
      <trkpt lat="44.50111" lon="1.84516">
        <ele>208.3</ele>
        <time>2023-04-08T08:25:44Z</time>
      </trkpt>
      <trkpt lat="44.50116" lon="1.84504">
        <ele>209.3</ele>
        <time>2023-04-08T08:25:47Z</time>
      </trkpt>
      <trkpt lat="44.50121" lon="1.84492">
        <ele>210.4</ele>
        <time>2023-04-08T08:25:50Z</time>
      </trkpt>
      <trkpt lat="44.50124" lon="1.8448">
        <ele>211.5</ele>
        <time>2023-04-08T08:25:53Z</time>
      </trkpt>
      <trkpt lat="44.50127" lon="1.84468">
        <ele>212.3</ele>
        <time>2023-04-08T08:25:56Z</time>
      </trkpt>
      <trkpt lat="44.5013" lon="1.84454">
        <ele>213.2</ele>
        <time>2023-04-08T08:26:00Z</time>
      </trkpt>
      <trkpt lat="44.50135" lon="1.84443">
        <ele>213.9</ele>
        <time>2023-04-08T08:26:04Z</time>
      </trkpt>
      <trkpt lat="44.50139" lon="1.84431">
        <ele>214.6</ele>
        <time>2023-04-08T08:26:08Z</time>
      </trkpt>
      <trkpt lat="44.50143" lon="1.84416">
        <ele>215.4</ele>
        <time>2023-04-08T08:26:12Z</time>
      </trkpt>
      <trkpt lat="44.50148" lon="1.84402">
        <ele>214.3</ele>
        <time>2023-04-08T08:26:16Z</time>
      </trkpt>
      <trkpt lat="44.50151" lon="1.8439">
        <ele>213.4</ele>
        <time>2023-04-08T08:26:20Z</time>
      </trkpt>
      <trkpt lat="44.50155" lon="1.84376">
        <ele>216.8</ele>
        <time>2023-04-08T08:26:24Z</time>
      </trkpt>
      <trkpt lat="44.50159" lon="1.84362">
        <ele>215.6</ele>
        <time>2023-04-08T08:26:28Z</time>
      </trkpt>
      <trkpt lat="44.50165" lon="1.84349">
        <ele>215.8</ele>
        <time>2023-04-08T08:26:32Z</time>
      </trkpt>
      <trkpt lat="44.50173" lon="1.84339">
        <ele>219.8</ele>
        <time>2023-04-08T08:26:37Z</time>
      </trkpt>
      <trkpt lat="44.50182" lon="1.8434">
        <ele>224.6</ele>
        <time>2023-04-08T08:26:41Z</time>
      </trkpt>
      <trkpt lat="44.50193" lon="1.84337">
        <ele>229.6</ele>
        <time>2023-04-08T08:26:45Z</time>
      </trkpt>
      <trkpt lat="44.50201" lon="1.84326">
        <ele>228</ele>
        <time>2023-04-08T08:26:49Z</time>
      </trkpt>
      <trkpt lat="44.50205" lon="1.84312">
        <ele>231</ele>
        <time>2023-04-08T08:26:53Z</time>
      </trkpt>
      <trkpt lat="44.50207" lon="1.84297">
        <ele>231.2</ele>
        <time>2023-04-08T08:26:57Z</time>
      </trkpt>
      <trkpt lat="44.50208" lon="1.84283">
        <ele>230.3</ele>
        <time>2023-04-08T08:27:01Z</time>
      </trkpt>
      <trkpt lat="44.50206" lon="1.84268">
        <ele>229.7</ele>
        <time>2023-04-08T08:27:05Z</time>
      </trkpt>
      <trkpt lat="44.50207" lon="1.84253">
        <ele>228.9</ele>
        <time>2023-04-08T08:27:09Z</time>
      </trkpt>
      <trkpt lat="44.50211" lon="1.84239">
        <ele>227.8</ele>
        <time>2023-04-08T08:27:13Z</time>
      </trkpt>
      <trkpt lat="44.50215" lon="1.84224">
        <ele>231.6</ele>
        <time>2023-04-08T08:27:17Z</time>
      </trkpt>
      <trkpt lat="44.50216" lon="1.8421">
        <ele>230.7</ele>
        <time>2023-04-08T08:27:21Z</time>
      </trkpt>
      <trkpt lat="44.50218" lon="1.84194">
        <ele>230.9</ele>
        <time>2023-04-08T08:27:25Z</time>
      </trkpt>
      <trkpt lat="44.50219" lon="1.84179">
        <ele>230</ele>
        <time>2023-04-08T08:27:29Z</time>
      </trkpt>
      <trkpt lat="44.50222" lon="1.84163">
        <ele>229.4</ele>
        <time>2023-04-08T08:27:33Z</time>
      </trkpt>
      <trkpt lat="44.50225" lon="1.84149">
        <ele>229.3</ele>
        <time>2023-04-08T08:27:37Z</time>
      </trkpt>
      <trkpt lat="44.50229" lon="1.84135">
        <ele>233</ele>
        <time>2023-04-08T08:27:41Z</time>
      </trkpt>
      <trkpt lat="44.50235" lon="1.84122">
        <ele>233.1</ele>
        <time>2023-04-08T08:27:45Z</time>
      </trkpt>
      <trkpt lat="44.5024" lon="1.8411">
        <ele>236.2</ele>
        <time>2023-04-08T08:27:49Z</time>
      </trkpt>
      <trkpt lat="44.50246" lon="1.84098">
        <ele>236.1</ele>
        <time>2023-04-08T08:27:53Z</time>
      </trkpt>
      <trkpt lat="44.50251" lon="1.84085">
        <ele>239.4</ele>
        <time>2023-04-08T08:27:57Z</time>
      </trkpt>
      <trkpt lat="44.50257" lon="1.84072">
        <ele>239.4</ele>
        <time>2023-04-08T08:28:01Z</time>
      </trkpt>
      <trkpt lat="44.50262" lon="1.84059">
        <ele>239.5</ele>
        <time>2023-04-08T08:28:05Z</time>
      </trkpt>
      <trkpt lat="44.50264" lon="1.84045">
        <ele>242.9</ele>
        <time>2023-04-08T08:28:09Z</time>
      </trkpt>
      <trkpt lat="44.50265" lon="1.84031">
        <ele>243.4</ele>
        <time>2023-04-08T08:28:13Z</time>
      </trkpt>
      <trkpt lat="44.50269" lon="1.84017">
        <ele>244.3</ele>
        <time>2023-04-08T08:28:18Z</time>
      </trkpt>
      <trkpt lat="44.50274" lon="1.84006">
        <ele>244.4</ele>
        <time>2023-04-08T08:28:22Z</time>
      </trkpt>
      <trkpt lat="44.50281" lon="1.83998">
        <ele>248.1</ele>
        <time>2023-04-08T08:28:26Z</time>
      </trkpt>
      <trkpt lat="44.50287" lon="1.83986">
        <ele>249.2</ele>
        <time>2023-04-08T08:28:31Z</time>
      </trkpt>
      <trkpt lat="44.50293" lon="1.83974">
        <ele>251.7</ele>
        <time>2023-04-08T08:28:36Z</time>
      </trkpt>
      <trkpt lat="44.50301" lon="1.83963">
        <ele>254.8</ele>
        <time>2023-04-08T08:28:41Z</time>
      </trkpt>
      <trkpt lat="44.50306" lon="1.8395">
        <ele>255</ele>
        <time>2023-04-08T08:28:46Z</time>
      </trkpt>
      <trkpt lat="44.50311" lon="1.83939">
        <ele>255.2</ele>
        <time>2023-04-08T08:28:51Z</time>
      </trkpt>
      <trkpt lat="44.50316" lon="1.83926">
        <ele>257.4</ele>
        <time>2023-04-08T08:28:56Z</time>
      </trkpt>
      <trkpt lat="44.50322" lon="1.83913">
        <ele>257.8</ele>
        <time>2023-04-08T08:29:01Z</time>
      </trkpt>
      <trkpt lat="44.50327" lon="1.83899">
        <ele>260.3</ele>
        <time>2023-04-08T08:29:06Z</time>
      </trkpt>
      <trkpt lat="44.50332" lon="1.83888">
        <ele>260.4</ele>
        <time>2023-04-08T08:29:11Z</time>
      </trkpt>
      <trkpt lat="44.50337" lon="1.83875">
        <ele>263.3</ele>
        <time>2023-04-08T08:29:16Z</time>
      </trkpt>
      <trkpt lat="44.50342" lon="1.83862">
        <ele>264.1</ele>
        <time>2023-04-08T08:29:21Z</time>
      </trkpt>
      <trkpt lat="44.50347" lon="1.8385">
        <ele>264.2</ele>
        <time>2023-04-08T08:29:26Z</time>
      </trkpt>
      <trkpt lat="44.50349" lon="1.83834">
        <ele>266.9</ele>
        <time>2023-04-08T08:29:31Z</time>
      </trkpt>
      <trkpt lat="44.50353" lon="1.8382">
        <ele>267.6</ele>
        <time>2023-04-08T08:29:36Z</time>
      </trkpt>
      <trkpt lat="44.5036" lon="1.83811">
        <ele>268.6</ele>
        <time>2023-04-08T08:29:41Z</time>
      </trkpt>
      <trkpt lat="44.50367" lon="1.83802">
        <ele>271.1</ele>
        <time>2023-04-08T08:29:46Z</time>
      </trkpt>
      <trkpt lat="44.50374" lon="1.83793">
        <ele>274.5</ele>
        <time>2023-04-08T08:29:51Z</time>
      </trkpt>
      <trkpt lat="44.50382" lon="1.83783">
        <ele>274.7</ele>
        <time>2023-04-08T08:29:57Z</time>
      </trkpt>
      <trkpt lat="44.50388" lon="1.83774">
        <ele>278.7</ele>
        <time>2023-04-08T08:30:02Z</time>
      </trkpt>
      <trkpt lat="44.50394" lon="1.83764">
        <ele>278.8</ele>
        <time>2023-04-08T08:30:07Z</time>
      </trkpt>
      <trkpt lat="44.50398" lon="1.83752">
        <ele>283</ele>
        <time>2023-04-08T08:30:12Z</time>
      </trkpt>
      <trkpt lat="44.50398" lon="1.83737">
        <ele>284.1</ele>
        <time>2023-04-08T08:30:18Z</time>
      </trkpt>
      <trkpt lat="44.50388" lon="1.83733">
        <ele>281.8</ele>
        <time>2023-04-08T08:30:25Z</time>
      </trkpt>
      <trkpt lat="44.50379" lon="1.83738">
        <ele>279.4</ele>
        <time>2023-04-08T08:30:31Z</time>
      </trkpt>
      <trkpt lat="44.50369" lon="1.83742">
        <ele>277.6</ele>
        <time>2023-04-08T08:30:36Z</time>
      </trkpt>
      <trkpt lat="44.50359" lon="1.83745">
        <ele>276</ele>
        <time>2023-04-08T08:30:42Z</time>
      </trkpt>
      <trkpt lat="44.50361" lon="1.83731">
        <ele>276.4</ele>
        <time>2023-04-08T08:30:56Z</time>
      </trkpt>
      <trkpt lat="44.50364" lon="1.83728">
        <ele>276.6</ele>
        <time>2023-04-08T08:31:00Z</time>
      </trkpt>
      <trkpt lat="44.50364" lon="1.83728">
        <ele>276.6</ele>
        <time>2023-04-08T08:31:31Z</time>
      </trkpt>
      <trkpt lat="44.50364" lon="1.83727">
        <ele>276.7</ele>
        <time>2023-04-08T08:31:33Z</time>
      </trkpt>
      <trkpt lat="44.50364" lon="1.83727">
        <ele>276.7</ele>
        <time>2023-04-08T08:32:44Z</time>
      </trkpt>
      <trkpt lat="44.50369" lon="1.83715">
        <ele>277.2</ele>
        <time>2023-04-08T08:32:52Z</time>
      </trkpt>
      <trkpt lat="44.50373" lon="1.83702">
        <ele>277.8</ele>
        <time>2023-04-08T08:32:57Z</time>
      </trkpt>
      <trkpt lat="44.50378" lon="1.83688">
        <ele>278.4</ele>
        <time>2023-04-08T08:33:02Z</time>
      </trkpt>
      <trkpt lat="44.5038" lon="1.83673">
        <ele>279</ele>
        <time>2023-04-08T08:33:07Z</time>
      </trkpt>
      <trkpt lat="44.50384" lon="1.83659">
        <ele>279.7</ele>
        <time>2023-04-08T08:33:12Z</time>
      </trkpt>
      <trkpt lat="44.50388" lon="1.83645">
        <ele>280.3</ele>
        <time>2023-04-08T08:33:16Z</time>
      </trkpt>
      <trkpt lat="44.50392" lon="1.83631">
        <ele>281</ele>
        <time>2023-04-08T08:33:20Z</time>
      </trkpt>
      <trkpt lat="44.50397" lon="1.83619">
        <ele>281.7</ele>
        <time>2023-04-08T08:33:24Z</time>
      </trkpt>
      <trkpt lat="44.50405" lon="1.83607">
        <ele>282.5</ele>
        <time>2023-04-08T08:33:28Z</time>
      </trkpt>
      <trkpt lat="44.50412" lon="1.83596">
        <ele>283.3</ele>
        <time>2023-04-08T08:33:32Z</time>
      </trkpt>
      <trkpt lat="44.50419" lon="1.83587">
        <ele>284.1</ele>
        <time>2023-04-08T08:33:36Z</time>
      </trkpt>
      <trkpt lat="44.50427" lon="1.83579">
        <ele>284.8</ele>
        <time>2023-04-08T08:33:40Z</time>
      </trkpt>
      <trkpt lat="44.50438" lon="1.83577">
        <ele>285.6</ele>
        <time>2023-04-08T08:33:44Z</time>
      </trkpt>
      <trkpt lat="44.50448" lon="1.83583">
        <ele>286.2</ele>
        <time>2023-04-08T08:33:48Z</time>
      </trkpt>
      <trkpt lat="44.50453" lon="1.83595">
        <ele>286.8</ele>
        <time>2023-04-08T08:33:52Z</time>
      </trkpt>
      <trkpt lat="44.50454" lon="1.8361">
        <ele>287.4</ele>
        <time>2023-04-08T08:33:56Z</time>
      </trkpt>
      <trkpt lat="44.50456" lon="1.83625">
        <ele>288.1</ele>
        <time>2023-04-08T08:34:00Z</time>
      </trkpt>
      <trkpt lat="44.50458" lon="1.83639">
        <ele>288.7</ele>
        <time>2023-04-08T08:34:04Z</time>
      </trkpt>
      <trkpt lat="44.5046" lon="1.83653">
        <ele>289.4</ele>
        <time>2023-04-08T08:34:08Z</time>
      </trkpt>
      <trkpt lat="44.50465" lon="1.83666">
        <ele>290</ele>
        <time>2023-04-08T08:34:12Z</time>
      </trkpt>
      <trkpt lat="44.50471" lon="1.83678">
        <ele>290.6</ele>
        <time>2023-04-08T08:34:16Z</time>
      </trkpt>
      <trkpt lat="44.50478" lon="1.83687">
        <ele>291.2</ele>
        <time>2023-04-08T08:34:20Z</time>
      </trkpt>
      <trkpt lat="44.50486" lon="1.8368">
        <ele>292.4</ele>
        <time>2023-04-08T08:34:26Z</time>
      </trkpt>
      <trkpt lat="44.50481" lon="1.83665">
        <ele>292.7</ele>
        <time>2023-04-08T08:34:30Z</time>
      </trkpt>
      <trkpt lat="44.50477" lon="1.83653">
        <ele>292.8</ele>
        <time>2023-04-08T08:34:33Z</time>
      </trkpt>
      <trkpt lat="44.50472" lon="1.8364">
        <ele>293</ele>
        <time>2023-04-08T08:34:36Z</time>
      </trkpt>
      <trkpt lat="44.50468" lon="1.83626">
        <ele>293.2</ele>
        <time>2023-04-08T08:34:39Z</time>
      </trkpt>
      <trkpt lat="44.50467" lon="1.83611">
        <ele>293.4</ele>
        <time>2023-04-08T08:34:42Z</time>
      </trkpt>
      <trkpt lat="44.50467" lon="1.83595">
        <ele>293.6</ele>
        <time>2023-04-08T08:34:45Z</time>
      </trkpt>
      <trkpt lat="44.50469" lon="1.83581">
        <ele>293.9</ele>
        <time>2023-04-08T08:34:48Z</time>
      </trkpt>
      <trkpt lat="44.5047" lon="1.83566">
        <ele>294.4</ele>
        <time>2023-04-08T08:34:52Z</time>
      </trkpt>
      <trkpt lat="44.50472" lon="1.8355">
        <ele>295</ele>
        <time>2023-04-08T08:34:56Z</time>
      </trkpt>
      <trkpt lat="44.50471" lon="1.83534">
        <ele>295.6</ele>
        <time>2023-04-08T08:35:00Z</time>
      </trkpt>
      <trkpt lat="44.50467" lon="1.83519">
        <ele>296.3</ele>
        <time>2023-04-08T08:35:04Z</time>
      </trkpt>
      <trkpt lat="44.50458" lon="1.83507">
        <ele>296.9</ele>
        <time>2023-04-08T08:35:08Z</time>
      </trkpt>
      <trkpt lat="44.50448" lon="1.835">
        <ele>297.5</ele>
        <time>2023-04-08T08:35:12Z</time>
      </trkpt>
      <trkpt lat="44.50439" lon="1.83497">
        <ele>297.9</ele>
        <time>2023-04-08T08:35:15Z</time>
      </trkpt>
      <trkpt lat="44.5043" lon="1.83496">
        <ele>298.2</ele>
        <time>2023-04-08T08:35:18Z</time>
      </trkpt>
      <trkpt lat="44.50421" lon="1.83495">
        <ele>298.5</ele>
        <time>2023-04-08T08:35:21Z</time>
      </trkpt>
      <trkpt lat="44.50411" lon="1.83494">
        <ele>298.7</ele>
        <time>2023-04-08T08:35:24Z</time>
      </trkpt>
      <trkpt lat="44.50401" lon="1.83494">
        <ele>298.9</ele>
        <time>2023-04-08T08:35:27Z</time>
      </trkpt>
      <trkpt lat="44.50392" lon="1.83493">
        <ele>299.2</ele>
        <time>2023-04-08T08:35:30Z</time>
      </trkpt>
      <trkpt lat="44.50382" lon="1.83492">
        <ele>299.5</ele>
        <time>2023-04-08T08:35:33Z</time>
      </trkpt>
      <trkpt lat="44.50373" lon="1.83491">
        <ele>299.7</ele>
        <time>2023-04-08T08:35:36Z</time>
      </trkpt>
      <trkpt lat="44.50363" lon="1.8349">
        <ele>300</ele>
        <time>2023-04-08T08:35:39Z</time>
      </trkpt>
      <trkpt lat="44.50353" lon="1.83489">
        <ele>300.3</ele>
        <time>2023-04-08T08:35:42Z</time>
      </trkpt>
      <trkpt lat="44.50343" lon="1.83488">
        <ele>300.6</ele>
        <time>2023-04-08T08:35:45Z</time>
      </trkpt>
      <trkpt lat="44.50333" lon="1.83487">
        <ele>300.8</ele>
        <time>2023-04-08T08:35:48Z</time>
      </trkpt>
      <trkpt lat="44.50323" lon="1.83485">
        <ele>301.1</ele>
        <time>2023-04-08T08:35:51Z</time>
      </trkpt>
      <trkpt lat="44.50313" lon="1.83484">
        <ele>301.4</ele>
        <time>2023-04-08T08:35:54Z</time>
      </trkpt>
      <trkpt lat="44.50302" lon="1.83482">
        <ele>301.7</ele>
        <time>2023-04-08T08:35:57Z</time>
      </trkpt>
      <trkpt lat="44.50292" lon="1.83481">
        <ele>302</ele>
        <time>2023-04-08T08:36:00Z</time>
      </trkpt>
      <trkpt lat="44.50282" lon="1.8348">
        <ele>302.3</ele>
        <time>2023-04-08T08:36:03Z</time>
      </trkpt>
      <trkpt lat="44.50272" lon="1.83479">
        <ele>302.7</ele>
        <time>2023-04-08T08:36:06Z</time>
      </trkpt>
      <trkpt lat="44.50262" lon="1.83478">
        <ele>303</ele>
        <time>2023-04-08T08:36:09Z</time>
      </trkpt>
      <trkpt lat="44.50252" lon="1.83479">
        <ele>303.4</ele>
        <time>2023-04-08T08:36:12Z</time>
      </trkpt>
      <trkpt lat="44.50241" lon="1.8348">
        <ele>303.8</ele>
        <time>2023-04-08T08:36:15Z</time>
      </trkpt>
      <trkpt lat="44.50231" lon="1.83482">
        <ele>304.1</ele>
        <time>2023-04-08T08:36:18Z</time>
      </trkpt>
      <trkpt lat="44.50221" lon="1.83485">
        <ele>304.4</ele>
        <time>2023-04-08T08:36:21Z</time>
      </trkpt>
      <trkpt lat="44.50212" lon="1.83489">
        <ele>304.7</ele>
        <time>2023-04-08T08:36:25Z</time>
      </trkpt>
      <trkpt lat="44.50203" lon="1.83492">
        <ele>304.9</ele>
        <time>2023-04-08T08:36:30Z</time>
      </trkpt>
      <trkpt lat="44.50193" lon="1.83496">
        <ele>305</ele>
        <time>2023-04-08T08:36:34Z</time>
      </trkpt>
      <trkpt lat="44.50181" lon="1.835">
        <ele>305.2</ele>
        <time>2023-04-08T08:36:38Z</time>
      </trkpt>
      <trkpt lat="44.50171" lon="1.83501">
        <ele>305.4</ele>
        <time>2023-04-08T08:36:41Z</time>
      </trkpt>
      <trkpt lat="44.50162" lon="1.83498">
        <ele>305.5</ele>
        <time>2023-04-08T08:36:44Z</time>
      </trkpt>
      <trkpt lat="44.50154" lon="1.83491">
        <ele>305.9</ele>
        <time>2023-04-08T08:36:47Z</time>
      </trkpt>
      <trkpt lat="44.50147" lon="1.83481">
        <ele>306.3</ele>
        <time>2023-04-08T08:36:50Z</time>
      </trkpt>
      <trkpt lat="44.50143" lon="1.83468">
        <ele>306.7</ele>
        <time>2023-04-08T08:36:53Z</time>
      </trkpt>
      <trkpt lat="44.5014" lon="1.83454">
        <ele>307.2</ele>
        <time>2023-04-08T08:36:56Z</time>
      </trkpt>
      <trkpt lat="44.50137" lon="1.8344">
        <ele>307.6</ele>
        <time>2023-04-08T08:36:59Z</time>
      </trkpt>
      <trkpt lat="44.50135" lon="1.83425">
        <ele>308</ele>
        <time>2023-04-08T08:37:02Z</time>
      </trkpt>
      <trkpt lat="44.50133" lon="1.83411">
        <ele>308.4</ele>
        <time>2023-04-08T08:37:05Z</time>
      </trkpt>
      <trkpt lat="44.50131" lon="1.83396">
        <ele>308.8</ele>
        <time>2023-04-08T08:37:08Z</time>
      </trkpt>
      <trkpt lat="44.50128" lon="1.83382">
        <ele>309.1</ele>
        <time>2023-04-08T08:37:11Z</time>
      </trkpt>
      <trkpt lat="44.50126" lon="1.83367">
        <ele>309.4</ele>
        <time>2023-04-08T08:37:14Z</time>
      </trkpt>
      <trkpt lat="44.50125" lon="1.83352">
        <ele>309.8</ele>
        <time>2023-04-08T08:37:17Z</time>
      </trkpt>
      <trkpt lat="44.50122" lon="1.83338">
        <ele>310.1</ele>
        <time>2023-04-08T08:37:20Z</time>
      </trkpt>
      <trkpt lat="44.5012" lon="1.83324">
        <ele>310.4</ele>
        <time>2023-04-08T08:37:23Z</time>
      </trkpt>
      <trkpt lat="44.50117" lon="1.8331">
        <ele>310.8</ele>
        <time>2023-04-08T08:37:26Z</time>
      </trkpt>
      <trkpt lat="44.50115" lon="1.83296">
        <ele>311.2</ele>
        <time>2023-04-08T08:37:29Z</time>
      </trkpt>
      <trkpt lat="44.50112" lon="1.83281">
        <ele>311.6</ele>
        <time>2023-04-08T08:37:32Z</time>
      </trkpt>
      <trkpt lat="44.5011" lon="1.83267">
        <ele>312</ele>
        <time>2023-04-08T08:37:35Z</time>
      </trkpt>
      <trkpt lat="44.50108" lon="1.83252">
        <ele>312.4</ele>
        <time>2023-04-08T08:37:38Z</time>
      </trkpt>
      <trkpt lat="44.50108" lon="1.83237">
        <ele>312.8</ele>
        <time>2023-04-08T08:37:41Z</time>
      </trkpt>
      <trkpt lat="44.50108" lon="1.83222">
        <ele>313.3</ele>
        <time>2023-04-08T08:37:44Z</time>
      </trkpt>
      <trkpt lat="44.50109" lon="1.83206">
        <ele>313.7</ele>
        <time>2023-04-08T08:37:47Z</time>
      </trkpt>
      <trkpt lat="44.50111" lon="1.8319">
        <ele>314.1</ele>
        <time>2023-04-08T08:37:50Z</time>
      </trkpt>
      <trkpt lat="44.50113" lon="1.83174">
        <ele>314.4</ele>
        <time>2023-04-08T08:37:53Z</time>
      </trkpt>
      <trkpt lat="44.50117" lon="1.83159">
        <ele>314.8</ele>
        <time>2023-04-08T08:37:56Z</time>
      </trkpt>
      <trkpt lat="44.50121" lon="1.83144">
        <ele>315.1</ele>
        <time>2023-04-08T08:37:59Z</time>
      </trkpt>
      <trkpt lat="44.50126" lon="1.83129">
        <ele>315.5</ele>
        <time>2023-04-08T08:38:02Z</time>
      </trkpt>
      <trkpt lat="44.5013" lon="1.83113">
        <ele>315.9</ele>
        <time>2023-04-08T08:38:05Z</time>
      </trkpt>
      <trkpt lat="44.50133" lon="1.83097">
        <ele>316.2</ele>
        <time>2023-04-08T08:38:08Z</time>
      </trkpt>
      <trkpt lat="44.50135" lon="1.83081">
        <ele>316.5</ele>
        <time>2023-04-08T08:38:11Z</time>
      </trkpt>
      <trkpt lat="44.50136" lon="1.83065">
        <ele>316.9</ele>
        <time>2023-04-08T08:38:14Z</time>
      </trkpt>
      <trkpt lat="44.50136" lon="1.83049">
        <ele>317.2</ele>
        <time>2023-04-08T08:38:17Z</time>
      </trkpt>
      <trkpt lat="44.50134" lon="1.83034">
        <ele>317.5</ele>
        <time>2023-04-08T08:38:20Z</time>
      </trkpt>
      <trkpt lat="44.50133" lon="1.83019">
        <ele>317.8</ele>
        <time>2023-04-08T08:38:23Z</time>
      </trkpt>
      <trkpt lat="44.50132" lon="1.83003">
        <ele>318.3</ele>
        <time>2023-04-08T08:38:26Z</time>
      </trkpt>
      <trkpt lat="44.50134" lon="1.82987">
        <ele>319.1</ele>
        <time>2023-04-08T08:38:29Z</time>
      </trkpt>
      <trkpt lat="44.50137" lon="1.82971">
        <ele>319.9</ele>
        <time>2023-04-08T08:38:32Z</time>
      </trkpt>
      <trkpt lat="44.50143" lon="1.82956">
        <ele>320.6</ele>
        <time>2023-04-08T08:38:35Z</time>
      </trkpt>
      <trkpt lat="44.5015" lon="1.82943">
        <ele>321.2</ele>
        <time>2023-04-08T08:38:38Z</time>
      </trkpt>
      <trkpt lat="44.50156" lon="1.8293">
        <ele>321.9</ele>
        <time>2023-04-08T08:38:41Z</time>
      </trkpt>
      <trkpt lat="44.50162" lon="1.8292">
        <ele>322.5</ele>
        <time>2023-04-08T08:38:44Z</time>
      </trkpt>
      <trkpt lat="44.50168" lon="1.82908">
        <ele>323.2</ele>
        <time>2023-04-08T08:38:47Z</time>
      </trkpt>
      <trkpt lat="44.50172" lon="1.82894">
        <ele>323.9</ele>
        <time>2023-04-08T08:38:50Z</time>
      </trkpt>
      <trkpt lat="44.50173" lon="1.8288">
        <ele>324.4</ele>
        <time>2023-04-08T08:38:53Z</time>
      </trkpt>
      <trkpt lat="44.5017" lon="1.82867">
        <ele>324.9</ele>
        <time>2023-04-08T08:38:56Z</time>
      </trkpt>
      <trkpt lat="44.50165" lon="1.82856">
        <ele>325.3</ele>
        <time>2023-04-08T08:38:59Z</time>
      </trkpt>
      <trkpt lat="44.50157" lon="1.82849">
        <ele>325.7</ele>
        <time>2023-04-08T08:39:02Z</time>
      </trkpt>
      <trkpt lat="44.50148" lon="1.82845">
        <ele>326.2</ele>
        <time>2023-04-08T08:39:05Z</time>
      </trkpt>
      <trkpt lat="44.50139" lon="1.82842">
        <ele>326.7</ele>
        <time>2023-04-08T08:39:08Z</time>
      </trkpt>
      <trkpt lat="44.5013" lon="1.82838">
        <ele>327.2</ele>
        <time>2023-04-08T08:39:11Z</time>
      </trkpt>
      <trkpt lat="44.50121" lon="1.82835">
        <ele>327.6</ele>
        <time>2023-04-08T08:39:14Z</time>
      </trkpt>
      <trkpt lat="44.50112" lon="1.8283">
        <ele>327.9</ele>
        <time>2023-04-08T08:39:17Z</time>
      </trkpt>
      <trkpt lat="44.50104" lon="1.82823">
        <ele>328.2</ele>
        <time>2023-04-08T08:39:20Z</time>
      </trkpt>
      <trkpt lat="44.50098" lon="1.82813">
        <ele>328.6</ele>
        <time>2023-04-08T08:39:23Z</time>
      </trkpt>
      <trkpt lat="44.50095" lon="1.82801">
        <ele>329</ele>
        <time>2023-04-08T08:39:26Z</time>
      </trkpt>
      <trkpt lat="44.50095" lon="1.82787">
        <ele>329.5</ele>
        <time>2023-04-08T08:39:29Z</time>
      </trkpt>
      <trkpt lat="44.50097" lon="1.82775">
        <ele>329.9</ele>
        <time>2023-04-08T08:39:32Z</time>
      </trkpt>
      <trkpt lat="44.501" lon="1.82762">
        <ele>330.4</ele>
        <time>2023-04-08T08:39:35Z</time>
      </trkpt>
      <trkpt lat="44.50104" lon="1.82748">
        <ele>330.8</ele>
        <time>2023-04-08T08:39:38Z</time>
      </trkpt>
      <trkpt lat="44.50107" lon="1.82736">
        <ele>331.2</ele>
        <time>2023-04-08T08:39:41Z</time>
      </trkpt>
      <trkpt lat="44.5011" lon="1.82723">
        <ele>331.6</ele>
        <time>2023-04-08T08:39:44Z</time>
      </trkpt>
      <trkpt lat="44.50114" lon="1.82711">
        <ele>331.9</ele>
        <time>2023-04-08T08:39:47Z</time>
      </trkpt>
      <trkpt lat="44.50118" lon="1.82699">
        <ele>332.2</ele>
        <time>2023-04-08T08:39:50Z</time>
      </trkpt>
      <trkpt lat="44.50124" lon="1.82689">
        <ele>332.6</ele>
        <time>2023-04-08T08:39:53Z</time>
      </trkpt>
      <trkpt lat="44.50129" lon="1.82678">
        <ele>333.1</ele>
        <time>2023-04-08T08:39:56Z</time>
      </trkpt>
      <trkpt lat="44.50135" lon="1.82669">
        <ele>333.5</ele>
        <time>2023-04-08T08:39:59Z</time>
      </trkpt>
      <trkpt lat="44.50141" lon="1.82659">
        <ele>333.9</ele>
        <time>2023-04-08T08:40:02Z</time>
      </trkpt>
      <trkpt lat="44.50149" lon="1.82647">
        <ele>334.4</ele>
        <time>2023-04-08T08:40:06Z</time>
      </trkpt>
      <trkpt lat="44.50158" lon="1.82635">
        <ele>334.9</ele>
        <time>2023-04-08T08:40:10Z</time>
      </trkpt>
      <trkpt lat="44.50164" lon="1.82626">
        <ele>335.3</ele>
        <time>2023-04-08T08:40:13Z</time>
      </trkpt>
      <trkpt lat="44.50171" lon="1.82617">
        <ele>335.7</ele>
        <time>2023-04-08T08:40:16Z</time>
      </trkpt>
      <trkpt lat="44.50178" lon="1.82608">
        <ele>336.1</ele>
        <time>2023-04-08T08:40:19Z</time>
      </trkpt>
      <trkpt lat="44.50184" lon="1.82599">
        <ele>336.6</ele>
        <time>2023-04-08T08:40:22Z</time>
      </trkpt>
      <trkpt lat="44.5019" lon="1.82589">
        <ele>337</ele>
        <time>2023-04-08T08:40:25Z</time>
      </trkpt>
      <trkpt lat="44.50198" lon="1.82577">
        <ele>337.6</ele>
        <time>2023-04-08T08:40:29Z</time>
      </trkpt>
      <trkpt lat="44.50203" lon="1.82567">
        <ele>338.1</ele>
        <time>2023-04-08T08:40:32Z</time>
      </trkpt>
      <trkpt lat="44.50208" lon="1.82556">
        <ele>338.5</ele>
        <time>2023-04-08T08:40:35Z</time>
      </trkpt>
      <trkpt lat="44.50213" lon="1.82541">
        <ele>339.1</ele>
        <time>2023-04-08T08:40:39Z</time>
      </trkpt>
      <trkpt lat="44.50218" lon="1.82526">
        <ele>339.6</ele>
        <time>2023-04-08T08:40:43Z</time>
      </trkpt>
      <trkpt lat="44.50222" lon="1.82514">
        <ele>340</ele>
        <time>2023-04-08T08:40:46Z</time>
      </trkpt>
      <trkpt lat="44.50225" lon="1.82503">
        <ele>340.4</ele>
        <time>2023-04-08T08:40:49Z</time>
      </trkpt>
      <trkpt lat="44.50229" lon="1.82487">
        <ele>340.9</ele>
        <time>2023-04-08T08:40:53Z</time>
      </trkpt>
      <trkpt lat="44.50229" lon="1.82471">
        <ele>341.3</ele>
        <time>2023-04-08T08:40:57Z</time>
      </trkpt>
      <trkpt lat="44.50225" lon="1.82456">
        <ele>341.8</ele>
        <time>2023-04-08T08:41:01Z</time>
      </trkpt>
      <trkpt lat="44.50221" lon="1.8244">
        <ele>342.3</ele>
        <time>2023-04-08T08:41:05Z</time>
      </trkpt>
      <trkpt lat="44.5022" lon="1.82427">
        <ele>342.7</ele>
        <time>2023-04-08T08:41:08Z</time>
      </trkpt>
      <trkpt lat="44.50221" lon="1.82413">
        <ele>343.1</ele>
        <time>2023-04-08T08:41:11Z</time>
      </trkpt>
      <trkpt lat="44.50225" lon="1.82401">
        <ele>343.6</ele>
        <time>2023-04-08T08:41:14Z</time>
      </trkpt>
      <trkpt lat="44.50229" lon="1.82389">
        <ele>344</ele>
        <time>2023-04-08T08:41:17Z</time>
      </trkpt>
      <trkpt lat="44.50235" lon="1.82379">
        <ele>344.5</ele>
        <time>2023-04-08T08:41:20Z</time>
      </trkpt>
      <trkpt lat="44.50242" lon="1.82369">
        <ele>345</ele>
        <time>2023-04-08T08:41:23Z</time>
      </trkpt>
      <trkpt lat="44.50251" lon="1.82362">
        <ele>345.4</ele>
        <time>2023-04-08T08:41:26Z</time>
      </trkpt>
      <trkpt lat="44.5026" lon="1.82357">
        <ele>345.7</ele>
        <time>2023-04-08T08:41:29Z</time>
      </trkpt>
      <trkpt lat="44.50271" lon="1.82351">
        <ele>346.2</ele>
        <time>2023-04-08T08:41:33Z</time>
      </trkpt>
      <trkpt lat="44.50281" lon="1.82348">
        <ele>346.5</ele>
        <time>2023-04-08T08:41:36Z</time>
      </trkpt>
      <trkpt lat="44.5029" lon="1.82344">
        <ele>346.8</ele>
        <time>2023-04-08T08:41:39Z</time>
      </trkpt>
      <trkpt lat="44.50298" lon="1.82339">
        <ele>347</ele>
        <time>2023-04-08T08:41:42Z</time>
      </trkpt>
      <trkpt lat="44.50308" lon="1.82336">
        <ele>347.1</ele>
        <time>2023-04-08T08:41:46Z</time>
      </trkpt>
      <trkpt lat="44.50317" lon="1.82342">
        <ele>346.4</ele>
        <time>2023-04-08T08:41:49Z</time>
      </trkpt>
      <trkpt lat="44.50326" lon="1.8235">
        <ele>345.7</ele>
        <time>2023-04-08T08:41:52Z</time>
      </trkpt>
      <trkpt lat="44.50337" lon="1.82353">
        <ele>344.9</ele>
        <time>2023-04-08T08:41:55Z</time>
      </trkpt>
      <trkpt lat="44.50347" lon="1.82346">
        <ele>344.3</ele>
        <time>2023-04-08T08:41:58Z</time>
      </trkpt>
      <trkpt lat="44.50356" lon="1.82335">
        <ele>343.7</ele>
        <time>2023-04-08T08:42:01Z</time>
      </trkpt>
      <trkpt lat="44.50366" lon="1.82322">
        <ele>342.9</ele>
        <time>2023-04-08T08:42:04Z</time>
      </trkpt>
      <trkpt lat="44.50374" lon="1.82313">
        <ele>342.1</ele>
        <time>2023-04-08T08:42:06Z</time>
      </trkpt>
      <trkpt lat="44.50385" lon="1.82302">
        <ele>340.9</ele>
        <time>2023-04-08T08:42:08Z</time>
      </trkpt>
      <trkpt lat="44.50398" lon="1.82291">
        <ele>339.5</ele>
        <time>2023-04-08T08:42:10Z</time>
      </trkpt>
      <trkpt lat="44.50412" lon="1.82278">
        <ele>338.1</ele>
        <time>2023-04-08T08:42:12Z</time>
      </trkpt>
      <trkpt lat="44.50426" lon="1.82264">
        <ele>336.6</ele>
        <time>2023-04-08T08:42:14Z</time>
      </trkpt>
      <trkpt lat="44.50433" lon="1.82255">
        <ele>335.8</ele>
        <time>2023-04-08T08:42:15Z</time>
      </trkpt>
      <trkpt lat="44.5044" lon="1.82246">
        <ele>335</ele>
        <time>2023-04-08T08:42:16Z</time>
      </trkpt>
      <trkpt lat="44.50446" lon="1.82235">
        <ele>334.1</ele>
        <time>2023-04-08T08:42:17Z</time>
      </trkpt>
      <trkpt lat="44.50451" lon="1.82224">
        <ele>333.3</ele>
        <time>2023-04-08T08:42:18Z</time>
      </trkpt>
      <trkpt lat="44.50457" lon="1.82213">
        <ele>332.4</ele>
        <time>2023-04-08T08:42:19Z</time>
      </trkpt>
      <trkpt lat="44.50464" lon="1.82203">
        <ele>331.5</ele>
        <time>2023-04-08T08:42:20Z</time>
      </trkpt>
      <trkpt lat="44.50472" lon="1.82193">
        <ele>330.6</ele>
        <time>2023-04-08T08:42:21Z</time>
      </trkpt>
      <trkpt lat="44.5048" lon="1.82184">
        <ele>329.6</ele>
        <time>2023-04-08T08:42:22Z</time>
      </trkpt>
      <trkpt lat="44.50488" lon="1.82175">
        <ele>328.6</ele>
        <time>2023-04-08T08:42:23Z</time>
      </trkpt>
      <trkpt lat="44.50498" lon="1.82167">
        <ele>327.7</ele>
        <time>2023-04-08T08:42:24Z</time>
      </trkpt>
      <trkpt lat="44.50507" lon="1.82159">
        <ele>326.8</ele>
        <time>2023-04-08T08:42:25Z</time>
      </trkpt>
      <trkpt lat="44.50516" lon="1.8215">
        <ele>326</ele>
        <time>2023-04-08T08:42:26Z</time>
      </trkpt>
      <trkpt lat="44.50525" lon="1.82141">
        <ele>325.2</ele>
        <time>2023-04-08T08:42:27Z</time>
      </trkpt>
      <trkpt lat="44.50533" lon="1.82131">
        <ele>324.4</ele>
        <time>2023-04-08T08:42:28Z</time>
      </trkpt>
      <trkpt lat="44.50539" lon="1.82121">
        <ele>323.8</ele>
        <time>2023-04-08T08:42:29Z</time>
      </trkpt>
      <trkpt lat="44.50548" lon="1.82107">
        <ele>323.1</ele>
        <time>2023-04-08T08:42:31Z</time>
      </trkpt>
      <trkpt lat="44.5055" lon="1.82091">
        <ele>322.3</ele>
        <time>2023-04-08T08:42:35Z</time>
      </trkpt>
      <trkpt lat="44.50552" lon="1.82075">
        <ele>320.6</ele>
        <time>2023-04-08T08:42:38Z</time>
      </trkpt>
      <trkpt lat="44.50549" lon="1.82065">
        <ele>320.4</ele>
        <time>2023-04-08T08:42:44Z</time>
      </trkpt>
      <trkpt lat="44.50549" lon="1.82066">
        <ele>320.4</ele>
        <time>2023-04-08T08:43:14Z</time>
      </trkpt>
      <trkpt lat="44.50537" lon="1.82064">
        <ele>319.6</ele>
        <time>2023-04-08T08:43:20Z</time>
      </trkpt>
      <trkpt lat="44.50527" lon="1.82062">
        <ele>318.8</ele>
        <time>2023-04-08T08:43:22Z</time>
      </trkpt>
      <trkpt lat="44.50517" lon="1.82055">
        <ele>317.8</ele>
        <time>2023-04-08T08:43:24Z</time>
      </trkpt>
      <trkpt lat="44.50507" lon="1.82042">
        <ele>316.9</ele>
        <time>2023-04-08T08:43:26Z</time>
      </trkpt>
      <trkpt lat="44.50499" lon="1.82026">
        <ele>316.3</ele>
        <time>2023-04-08T08:43:28Z</time>
      </trkpt>
      <trkpt lat="44.50497" lon="1.8201">
        <ele>315.9</ele>
        <time>2023-04-08T08:43:30Z</time>
      </trkpt>
      <trkpt lat="44.50504" lon="1.81995">
        <ele>315.2</ele>
        <time>2023-04-08T08:43:32Z</time>
      </trkpt>
      <trkpt lat="44.50511" lon="1.81976">
        <ele>314.5</ele>
        <time>2023-04-08T08:43:34Z</time>
      </trkpt>
      <trkpt lat="44.50517" lon="1.81956">
        <ele>313.9</ele>
        <time>2023-04-08T08:43:36Z</time>
      </trkpt>
      <trkpt lat="44.5052" lon="1.81935">
        <ele>313.4</ele>
        <time>2023-04-08T08:43:38Z</time>
      </trkpt>
      <trkpt lat="44.50518" lon="1.81915">
        <ele>312.8</ele>
        <time>2023-04-08T08:43:40Z</time>
      </trkpt>
      <trkpt lat="44.50509" lon="1.81899">
        <ele>312.3</ele>
        <time>2023-04-08T08:43:42Z</time>
      </trkpt>
      <trkpt lat="44.50501" lon="1.81883">
        <ele>311.9</ele>
        <time>2023-04-08T08:43:44Z</time>
      </trkpt>
      <trkpt lat="44.50506" lon="1.81867">
        <ele>311.8</ele>
        <time>2023-04-08T08:43:46Z</time>
      </trkpt>
      <trkpt lat="44.50516" lon="1.8186">
        <ele>311.9</ele>
        <time>2023-04-08T08:43:48Z</time>
      </trkpt>
      <trkpt lat="44.50526" lon="1.8186">
        <ele>311.8</ele>
        <time>2023-04-08T08:43:50Z</time>
      </trkpt>
      <trkpt lat="44.50537" lon="1.81858">
        <ele>311.3</ele>
        <time>2023-04-08T08:43:52Z</time>
      </trkpt>
      <trkpt lat="44.50548" lon="1.81848">
        <ele>310.5</ele>
        <time>2023-04-08T08:43:54Z</time>
      </trkpt>
      <trkpt lat="44.50559" lon="1.81834">
        <ele>309.4</ele>
        <time>2023-04-08T08:43:56Z</time>
      </trkpt>
      <trkpt lat="44.5057" lon="1.81817">
        <ele>308.4</ele>
        <time>2023-04-08T08:43:58Z</time>
      </trkpt>
      <trkpt lat="44.50576" lon="1.81809">
        <ele>307.8</ele>
        <time>2023-04-08T08:43:59Z</time>
      </trkpt>
      <trkpt lat="44.50583" lon="1.818">
        <ele>307.3</ele>
        <time>2023-04-08T08:44:00Z</time>
      </trkpt>
      <trkpt lat="44.50595" lon="1.81782">
        <ele>306.5</ele>
        <time>2023-04-08T08:44:02Z</time>
      </trkpt>
      <trkpt lat="44.50607" lon="1.81763">
        <ele>305.9</ele>
        <time>2023-04-08T08:44:04Z</time>
      </trkpt>
      <trkpt lat="44.50618" lon="1.81746">
        <ele>305.7</ele>
        <time>2023-04-08T08:44:06Z</time>
      </trkpt>
      <trkpt lat="44.50629" lon="1.81731">
        <ele>305.7</ele>
        <time>2023-04-08T08:44:08Z</time>
      </trkpt>
      <trkpt lat="44.50638" lon="1.81717">
        <ele>305.9</ele>
        <time>2023-04-08T08:44:10Z</time>
      </trkpt>
      <trkpt lat="44.50645" lon="1.81704">
        <ele>306.1</ele>
        <time>2023-04-08T08:44:12Z</time>
      </trkpt>
      <trkpt lat="44.50652" lon="1.8169">
        <ele>306.4</ele>
        <time>2023-04-08T08:44:14Z</time>
      </trkpt>
      <trkpt lat="44.50658" lon="1.81676">
        <ele>306.8</ele>
        <time>2023-04-08T08:44:16Z</time>
      </trkpt>
      <trkpt lat="44.50662" lon="1.81663">
        <ele>307.2</ele>
        <time>2023-04-08T08:44:18Z</time>
      </trkpt>
      <trkpt lat="44.50664" lon="1.81645">
        <ele>307.3</ele>
        <time>2023-04-08T08:44:21Z</time>
      </trkpt>
      <trkpt lat="44.50666" lon="1.81632">
        <ele>307.1</ele>
        <time>2023-04-08T08:44:23Z</time>
      </trkpt>
      <trkpt lat="44.50666" lon="1.81616">
        <ele>306.5</ele>
        <time>2023-04-08T08:44:25Z</time>
      </trkpt>
      <trkpt lat="44.50664" lon="1.81597">
        <ele>305.2</ele>
        <time>2023-04-08T08:44:27Z</time>
      </trkpt>
      <trkpt lat="44.50658" lon="1.81577">
        <ele>303.1</ele>
        <time>2023-04-08T08:44:29Z</time>
      </trkpt>
      <trkpt lat="44.50645" lon="1.81559">
        <ele>300.4</ele>
        <time>2023-04-08T08:44:31Z</time>
      </trkpt>
      <trkpt lat="44.50633" lon="1.81542">
        <ele>297.6</ele>
        <time>2023-04-08T08:44:33Z</time>
      </trkpt>
      <trkpt lat="44.50624" lon="1.81525">
        <ele>295.1</ele>
        <time>2023-04-08T08:44:35Z</time>
      </trkpt>
      <trkpt lat="44.50623" lon="1.81504">
        <ele>292.8</ele>
        <time>2023-04-08T08:44:37Z</time>
      </trkpt>
      <trkpt lat="44.50628" lon="1.81483">
        <ele>291.2</ele>
        <time>2023-04-08T08:44:39Z</time>
      </trkpt>
      <trkpt lat="44.50639" lon="1.81475">
        <ele>290</ele>
        <time>2023-04-08T08:44:41Z</time>
      </trkpt>
      <trkpt lat="44.50648" lon="1.81467">
        <ele>289.1</ele>
        <time>2023-04-08T08:44:43Z</time>
      </trkpt>
      <trkpt lat="44.50659" lon="1.81458">
        <ele>288.3</ele>
        <time>2023-04-08T08:44:45Z</time>
      </trkpt>
      <trkpt lat="44.50667" lon="1.81445">
        <ele>287.7</ele>
        <time>2023-04-08T08:44:47Z</time>
      </trkpt>
      <trkpt lat="44.50672" lon="1.81429">
        <ele>287.5</ele>
        <time>2023-04-08T08:44:49Z</time>
      </trkpt>
      <trkpt lat="44.50675" lon="1.81412">
        <ele>287.5</ele>
        <time>2023-04-08T08:44:51Z</time>
      </trkpt>
      <trkpt lat="44.50678" lon="1.81396">
        <ele>287.8</ele>
        <time>2023-04-08T08:44:53Z</time>
      </trkpt>
      <trkpt lat="44.5068" lon="1.81381">
        <ele>288.1</ele>
        <time>2023-04-08T08:44:55Z</time>
      </trkpt>
      <trkpt lat="44.50679" lon="1.81367">
        <ele>288.3</ele>
        <time>2023-04-08T08:44:57Z</time>
      </trkpt>
      <trkpt lat="44.50676" lon="1.81353">
        <ele>288.5</ele>
        <time>2023-04-08T08:44:59Z</time>
      </trkpt>
      <trkpt lat="44.50672" lon="1.8134">
        <ele>288.5</ele>
        <time>2023-04-08T08:45:01Z</time>
      </trkpt>
      <trkpt lat="44.50667" lon="1.81327">
        <ele>288.2</ele>
        <time>2023-04-08T08:45:03Z</time>
      </trkpt>
      <trkpt lat="44.50662" lon="1.81311">
        <ele>287.5</ele>
        <time>2023-04-08T08:45:05Z</time>
      </trkpt>
      <trkpt lat="44.50658" lon="1.81292">
        <ele>286.7</ele>
        <time>2023-04-08T08:45:07Z</time>
      </trkpt>
      <trkpt lat="44.50653" lon="1.81272">
        <ele>285.8</ele>
        <time>2023-04-08T08:45:09Z</time>
      </trkpt>
      <trkpt lat="44.50644" lon="1.81255">
        <ele>284.9</ele>
        <time>2023-04-08T08:45:11Z</time>
      </trkpt>
      <trkpt lat="44.50634" lon="1.81237">
        <ele>284.1</ele>
        <time>2023-04-08T08:45:13Z</time>
      </trkpt>
      <trkpt lat="44.50633" lon="1.81218">
        <ele>283.6</ele>
        <time>2023-04-08T08:45:15Z</time>
      </trkpt>
      <trkpt lat="44.50633" lon="1.81198">
        <ele>283</ele>
        <time>2023-04-08T08:45:17Z</time>
      </trkpt>
      <trkpt lat="44.50631" lon="1.81178">
        <ele>282.4</ele>
        <time>2023-04-08T08:45:19Z</time>
      </trkpt>
      <trkpt lat="44.50629" lon="1.81159">
        <ele>281.9</ele>
        <time>2023-04-08T08:45:21Z</time>
      </trkpt>
      <trkpt lat="44.50628" lon="1.81141">
        <ele>281.7</ele>
        <time>2023-04-08T08:45:23Z</time>
      </trkpt>
      <trkpt lat="44.50626" lon="1.81124">
        <ele>281.7</ele>
        <time>2023-04-08T08:45:25Z</time>
      </trkpt>
      <trkpt lat="44.50623" lon="1.81108">
        <ele>281.8</ele>
        <time>2023-04-08T08:45:27Z</time>
      </trkpt>
      <trkpt lat="44.50618" lon="1.81093">
        <ele>282</ele>
        <time>2023-04-08T08:45:29Z</time>
      </trkpt>
      <trkpt lat="44.50613" lon="1.8108">
        <ele>282.1</ele>
        <time>2023-04-08T08:45:31Z</time>
      </trkpt>
      <trkpt lat="44.50607" lon="1.81068">
        <ele>282.1</ele>
        <time>2023-04-08T08:45:33Z</time>
      </trkpt>
      <trkpt lat="44.50598" lon="1.81056">
        <ele>281.8</ele>
        <time>2023-04-08T08:45:35Z</time>
      </trkpt>
      <trkpt lat="44.50585" lon="1.81049">
        <ele>281.3</ele>
        <time>2023-04-08T08:45:37Z</time>
      </trkpt>
      <trkpt lat="44.50571" lon="1.81047">
        <ele>280.7</ele>
        <time>2023-04-08T08:45:39Z</time>
      </trkpt>
      <trkpt lat="44.50556" lon="1.81048">
        <ele>279.9</ele>
        <time>2023-04-08T08:45:41Z</time>
      </trkpt>
      <trkpt lat="44.50541" lon="1.81051">
        <ele>278.7</ele>
        <time>2023-04-08T08:45:43Z</time>
      </trkpt>
      <trkpt lat="44.50523" lon="1.81054">
        <ele>277.3</ele>
        <time>2023-04-08T08:45:45Z</time>
      </trkpt>
      <trkpt lat="44.50507" lon="1.81049">
        <ele>276.4</ele>
        <time>2023-04-08T08:45:47Z</time>
      </trkpt>
      <trkpt lat="44.50501" lon="1.81032">
        <ele>276</ele>
        <time>2023-04-08T08:45:49Z</time>
      </trkpt>
      <trkpt lat="44.505" lon="1.81017">
        <ele>275.8</ele>
        <time>2023-04-08T08:45:51Z</time>
      </trkpt>
      <trkpt lat="44.50501" lon="1.81003">
        <ele>275.6</ele>
        <time>2023-04-08T08:45:53Z</time>
      </trkpt>
      <trkpt lat="44.50502" lon="1.8099">
        <ele>275.3</ele>
        <time>2023-04-08T08:45:55Z</time>
      </trkpt>
      <trkpt lat="44.50499" lon="1.80975">
        <ele>274.6</ele>
        <time>2023-04-08T08:45:57Z</time>
      </trkpt>
      <trkpt lat="44.50493" lon="1.80959">
        <ele>273.4</ele>
        <time>2023-04-08T08:45:59Z</time>
      </trkpt>
      <trkpt lat="44.50484" lon="1.80943">
        <ele>271.5</ele>
        <time>2023-04-08T08:46:01Z</time>
      </trkpt>
      <trkpt lat="44.50474" lon="1.80927">
        <ele>268.9</ele>
        <time>2023-04-08T08:46:03Z</time>
      </trkpt>
      <trkpt lat="44.50466" lon="1.80905">
        <ele>265.8</ele>
        <time>2023-04-08T08:46:05Z</time>
      </trkpt>
      <trkpt lat="44.50462" lon="1.80893">
        <ele>264.2</ele>
        <time>2023-04-08T08:46:06Z</time>
      </trkpt>
      <trkpt lat="44.50459" lon="1.8088">
        <ele>262.5</ele>
        <time>2023-04-08T08:46:07Z</time>
      </trkpt>
      <trkpt lat="44.50457" lon="1.80867">
        <ele>260.7</ele>
        <time>2023-04-08T08:46:08Z</time>
      </trkpt>
      <trkpt lat="44.50454" lon="1.80854">
        <ele>259.1</ele>
        <time>2023-04-08T08:46:09Z</time>
      </trkpt>
      <trkpt lat="44.50448" lon="1.80833">
        <ele>256</ele>
        <time>2023-04-08T08:46:11Z</time>
      </trkpt>
      <trkpt lat="44.50443" lon="1.80811">
        <ele>252.7</ele>
        <time>2023-04-08T08:46:13Z</time>
      </trkpt>
      <trkpt lat="44.50435" lon="1.80788">
        <ele>249.2</ele>
        <time>2023-04-08T08:46:15Z</time>
      </trkpt>
      <trkpt lat="44.50431" lon="1.80776">
        <ele>247.6</ele>
        <time>2023-04-08T08:46:16Z</time>
      </trkpt>
      <trkpt lat="44.50426" lon="1.80764">
        <ele>246.2</ele>
        <time>2023-04-08T08:46:17Z</time>
      </trkpt>
      <trkpt lat="44.50421" lon="1.80752">
        <ele>245</ele>
        <time>2023-04-08T08:46:18Z</time>
      </trkpt>
      <trkpt lat="44.50416" lon="1.80741">
        <ele>244</ele>
        <time>2023-04-08T08:46:19Z</time>
      </trkpt>
      <trkpt lat="44.50408" lon="1.80718">
        <ele>242.3</ele>
        <time>2023-04-08T08:46:21Z</time>
      </trkpt>
      <trkpt lat="44.50402" lon="1.80697">
        <ele>240.9</ele>
        <time>2023-04-08T08:46:23Z</time>
      </trkpt>
      <trkpt lat="44.50395" lon="1.80677">
        <ele>239.1</ele>
        <time>2023-04-08T08:46:25Z</time>
      </trkpt>
      <trkpt lat="44.50386" lon="1.80658">
        <ele>237</ele>
        <time>2023-04-08T08:46:27Z</time>
      </trkpt>
      <trkpt lat="44.50375" lon="1.80638">
        <ele>234.5</ele>
        <time>2023-04-08T08:46:29Z</time>
      </trkpt>
      <trkpt lat="44.50368" lon="1.80617">
        <ele>231.7</ele>
        <time>2023-04-08T08:46:31Z</time>
      </trkpt>
      <trkpt lat="44.50362" lon="1.80596">
        <ele>228.8</ele>
        <time>2023-04-08T08:46:33Z</time>
      </trkpt>
      <trkpt lat="44.50355" lon="1.80577">
        <ele>225.5</ele>
        <time>2023-04-08T08:46:35Z</time>
      </trkpt>
      <trkpt lat="44.50345" lon="1.80562">
        <ele>222.1</ele>
        <time>2023-04-08T08:46:37Z</time>
      </trkpt>
      <trkpt lat="44.50333" lon="1.80547">
        <ele>218.5</ele>
        <time>2023-04-08T08:46:39Z</time>
      </trkpt>
      <trkpt lat="44.50319" lon="1.80533">
        <ele>215.3</ele>
        <time>2023-04-08T08:46:41Z</time>
      </trkpt>
      <trkpt lat="44.50308" lon="1.80518">
        <ele>212.4</ele>
        <time>2023-04-08T08:46:43Z</time>
      </trkpt>
      <trkpt lat="44.50297" lon="1.80508">
        <ele>214.5</ele>
        <time>2023-04-08T08:46:45Z</time>
      </trkpt>
      <trkpt lat="44.50286" lon="1.80496">
        <ele>214.8</ele>
        <time>2023-04-08T08:46:47Z</time>
      </trkpt>
      <trkpt lat="44.50274" lon="1.80483">
        <ele>213.3</ele>
        <time>2023-04-08T08:46:49Z</time>
      </trkpt>
      <trkpt lat="44.50264" lon="1.80471">
        <ele>212.5</ele>
        <time>2023-04-08T08:46:51Z</time>
      </trkpt>
      <trkpt lat="44.50263" lon="1.80454">
        <ele>211.9</ele>
        <time>2023-04-08T08:46:54Z</time>
      </trkpt>
      <trkpt lat="44.50262" lon="1.80437">
        <ele>211.6</ele>
        <time>2023-04-08T08:46:57Z</time>
      </trkpt>
      <trkpt lat="44.50257" lon="1.80426">
        <ele>211.3</ele>
        <time>2023-04-08T08:46:59Z</time>
      </trkpt>
      <trkpt lat="44.50251" lon="1.80414">
        <ele>211.2</ele>
        <time>2023-04-08T08:47:01Z</time>
      </trkpt>
      <trkpt lat="44.50246" lon="1.80404">
        <ele>211</ele>
        <time>2023-04-08T08:47:03Z</time>
      </trkpt>
      <trkpt lat="44.50236" lon="1.80391">
        <ele>210.8</ele>
        <time>2023-04-08T08:47:06Z</time>
      </trkpt>
      <trkpt lat="44.50229" lon="1.80382">
        <ele>210.5</ele>
        <time>2023-04-08T08:47:08Z</time>
      </trkpt>
      <trkpt lat="44.5022" lon="1.80374">
        <ele>210.2</ele>
        <time>2023-04-08T08:47:10Z</time>
      </trkpt>
      <trkpt lat="44.50211" lon="1.80367">
        <ele>209.8</ele>
        <time>2023-04-08T08:47:12Z</time>
      </trkpt>
      <trkpt lat="44.50201" lon="1.8036">
        <ele>209.4</ele>
        <time>2023-04-08T08:47:14Z</time>
      </trkpt>
      <trkpt lat="44.5019" lon="1.80352">
        <ele>209</ele>
        <time>2023-04-08T08:47:16Z</time>
      </trkpt>
      <trkpt lat="44.50181" lon="1.80344">
        <ele>208.7</ele>
        <time>2023-04-08T08:47:18Z</time>
      </trkpt>
      <trkpt lat="44.50171" lon="1.80336">
        <ele>208.3</ele>
        <time>2023-04-08T08:47:20Z</time>
      </trkpt>
      <trkpt lat="44.50161" lon="1.80327">
        <ele>207.9</ele>
        <time>2023-04-08T08:47:22Z</time>
      </trkpt>
      <trkpt lat="44.50153" lon="1.80316">
        <ele>207.4</ele>
        <time>2023-04-08T08:47:24Z</time>
      </trkpt>
      <trkpt lat="44.50147" lon="1.80302">
        <ele>206.8</ele>
        <time>2023-04-08T08:47:26Z</time>
      </trkpt>
      <trkpt lat="44.50143" lon="1.80287">
        <ele>206.3</ele>
        <time>2023-04-08T08:47:28Z</time>
      </trkpt>
      <trkpt lat="44.5014" lon="1.80272">
        <ele>205.8</ele>
        <time>2023-04-08T08:47:30Z</time>
      </trkpt>
      <trkpt lat="44.50137" lon="1.80257">
        <ele>205.3</ele>
        <time>2023-04-08T08:47:32Z</time>
      </trkpt>
      <trkpt lat="44.50135" lon="1.80242">
        <ele>204.9</ele>
        <time>2023-04-08T08:47:34Z</time>
      </trkpt>
      <trkpt lat="44.50133" lon="1.80227">
        <ele>204.6</ele>
        <time>2023-04-08T08:47:36Z</time>
      </trkpt>
      <trkpt lat="44.50129" lon="1.80212">
        <ele>204.1</ele>
        <time>2023-04-08T08:47:38Z</time>
      </trkpt>
      <trkpt lat="44.50124" lon="1.80196">
        <ele>203.7</ele>
        <time>2023-04-08T08:47:40Z</time>
      </trkpt>
      <trkpt lat="44.50118" lon="1.80181">
        <ele>203.2</ele>
        <time>2023-04-08T08:47:42Z</time>
      </trkpt>
      <trkpt lat="44.50111" lon="1.80165">
        <ele>202.8</ele>
        <time>2023-04-08T08:47:44Z</time>
      </trkpt>
      <trkpt lat="44.50104" lon="1.80149">
        <ele>202.4</ele>
        <time>2023-04-08T08:47:46Z</time>
      </trkpt>
      <trkpt lat="44.50098" lon="1.80133">
        <ele>202.1</ele>
        <time>2023-04-08T08:47:48Z</time>
      </trkpt>
      <trkpt lat="44.50093" lon="1.80118">
        <ele>201.8</ele>
        <time>2023-04-08T08:47:50Z</time>
      </trkpt>
      <trkpt lat="44.50088" lon="1.80107">
        <ele>201.6</ele>
        <time>2023-04-08T08:47:52Z</time>
      </trkpt>
      <trkpt lat="44.50081" lon="1.80094">
        <ele>201.3</ele>
        <time>2023-04-08T08:47:55Z</time>
      </trkpt>
      <trkpt lat="44.50077" lon="1.8008">
        <ele>200.7</ele>
        <time>2023-04-08T08:47:58Z</time>
      </trkpt>
      <trkpt lat="44.50073" lon="1.80068">
        <ele>200.2</ele>
        <time>2023-04-08T08:48:00Z</time>
      </trkpt>
      <trkpt lat="44.50067" lon="1.80056">
        <ele>199.6</ele>
        <time>2023-04-08T08:48:02Z</time>
      </trkpt>
      <trkpt lat="44.5006" lon="1.80042">
        <ele>199</ele>
        <time>2023-04-08T08:48:04Z</time>
      </trkpt>
      <trkpt lat="44.50053" lon="1.80028">
        <ele>198.3</ele>
        <time>2023-04-08T08:48:06Z</time>
      </trkpt>
      <trkpt lat="44.50044" lon="1.80016">
        <ele>197.6</ele>
        <time>2023-04-08T08:48:08Z</time>
      </trkpt>
      <trkpt lat="44.50035" lon="1.80003">
        <ele>196.6</ele>
        <time>2023-04-08T08:48:10Z</time>
      </trkpt>
      <trkpt lat="44.50025" lon="1.79988">
        <ele>195.5</ele>
        <time>2023-04-08T08:48:12Z</time>
      </trkpt>
      <trkpt lat="44.50014" lon="1.79973">
        <ele>194.4</ele>
        <time>2023-04-08T08:48:14Z</time>
      </trkpt>
      <trkpt lat="44.50003" lon="1.79957">
        <ele>193.7</ele>
        <time>2023-04-08T08:48:16Z</time>
      </trkpt>
      <trkpt lat="44.49994" lon="1.79941">
        <ele>193.1</ele>
        <time>2023-04-08T08:48:18Z</time>
      </trkpt>
      <trkpt lat="44.49985" lon="1.79925">
        <ele>192.6</ele>
        <time>2023-04-08T08:48:20Z</time>
      </trkpt>
      <trkpt lat="44.49977" lon="1.7991">
        <ele>192.1</ele>
        <time>2023-04-08T08:48:22Z</time>
      </trkpt>
      <trkpt lat="44.4997" lon="1.79895">
        <ele>191.5</ele>
        <time>2023-04-08T08:48:24Z</time>
      </trkpt>
      <trkpt lat="44.49961" lon="1.79881">
        <ele>191</ele>
        <time>2023-04-08T08:48:26Z</time>
      </trkpt>
      <trkpt lat="44.49952" lon="1.79867">
        <ele>190.3</ele>
        <time>2023-04-08T08:48:28Z</time>
      </trkpt>
      <trkpt lat="44.49943" lon="1.79852">
        <ele>189.4</ele>
        <time>2023-04-08T08:48:30Z</time>
      </trkpt>
      <trkpt lat="44.49933" lon="1.79837">
        <ele>188.6</ele>
        <time>2023-04-08T08:48:32Z</time>
      </trkpt>
      <trkpt lat="44.49925" lon="1.79822">
        <ele>187.9</ele>
        <time>2023-04-08T08:48:34Z</time>
      </trkpt>
      <trkpt lat="44.49917" lon="1.79808">
        <ele>187.4</ele>
        <time>2023-04-08T08:48:36Z</time>
      </trkpt>
      <trkpt lat="44.49909" lon="1.79794">
        <ele>187.1</ele>
        <time>2023-04-08T08:48:38Z</time>
      </trkpt>
      <trkpt lat="44.49902" lon="1.79781">
        <ele>186.9</ele>
        <time>2023-04-08T08:48:40Z</time>
      </trkpt>
      <trkpt lat="44.49896" lon="1.79769">
        <ele>186.8</ele>
        <time>2023-04-08T08:48:42Z</time>
      </trkpt>
      <trkpt lat="44.49899" lon="1.79754">
        <ele>187.1</ele>
        <time>2023-04-08T08:48:45Z</time>
      </trkpt>
      <trkpt lat="44.49909" lon="1.79756">
        <ele>187.3</ele>
        <time>2023-04-08T08:48:48Z</time>
      </trkpt>
      <trkpt lat="44.49918" lon="1.79756">
        <ele>187.5</ele>
        <time>2023-04-08T08:48:53Z</time>
      </trkpt>
      <trkpt lat="44.4992" lon="1.79756">
        <ele>187.5</ele>
        <time>2023-04-08T08:49:00Z</time>
      </trkpt>
      <trkpt lat="44.4992" lon="1.79756">
        <ele>187.5</ele>
        <time>2023-04-08T08:49:03Z</time>
      </trkpt>
      <trkpt lat="44.4992" lon="1.79756">
        <ele>187.5</ele>
        <time>2023-04-08T08:49:04Z</time>
      </trkpt>
      <trkpt lat="44.4992" lon="1.79756">
        <ele>187.5</ele>
        <time>2023-04-08T08:49:56Z</time>
      </trkpt>
      <trkpt lat="44.4991" lon="1.79759">
        <ele>187.7</ele>
        <time>2023-04-08T08:50:05Z</time>
      </trkpt>
      <trkpt lat="44.49908" lon="1.79759">
        <ele>187.8</ele>
        <time>2023-04-08T08:50:09Z</time>
      </trkpt>
      <trkpt lat="44.49908" lon="1.79759">
        <ele>187.8</ele>
        <time>2023-04-08T08:51:01Z</time>
      </trkpt>
      <trkpt lat="44.49908" lon="1.79759">
        <ele>187.8</ele>
        <time>2023-04-08T08:51:03Z</time>
      </trkpt>
      <trkpt lat="44.49907" lon="1.79759">
        <ele>187.8</ele>
        <time>2023-04-08T08:52:30Z</time>
      </trkpt>
      <trkpt lat="44.49907" lon="1.79759">
        <ele>187.8</ele>
        <time>2023-04-08T08:52:31Z</time>
      </trkpt>
      <trkpt lat="44.49908" lon="1.79759">
        <ele>187.8</ele>
        <time>2023-04-08T08:52:33Z</time>
      </trkpt>
      <trkpt lat="44.49918" lon="1.79756">
        <ele>188</ele>
        <time>2023-04-08T08:52:48Z</time>
      </trkpt>
      <trkpt lat="44.49929" lon="1.79754">
        <ele>188.3</ele>
        <time>2023-04-08T08:52:53Z</time>
      </trkpt>
      <trkpt lat="44.4994" lon="1.79755">
        <ele>188.6</ele>
        <time>2023-04-08T08:52:57Z</time>
      </trkpt>
      <trkpt lat="44.49952" lon="1.79758">
        <ele>188.9</ele>
        <time>2023-04-08T08:53:01Z</time>
      </trkpt>
      <trkpt lat="44.49961" lon="1.79761">
        <ele>189.2</ele>
        <time>2023-04-08T08:53:04Z</time>
      </trkpt>
      <trkpt lat="44.49958" lon="1.79747">
        <ele>189</ele>
        <time>2023-04-08T08:53:10Z</time>
      </trkpt>
      <trkpt lat="44.49952" lon="1.79737">
        <ele>188.8</ele>
        <time>2023-04-08T08:53:14Z</time>
      </trkpt>
      <trkpt lat="44.49945" lon="1.79728">
        <ele>188.6</ele>
        <time>2023-04-08T08:53:17Z</time>
      </trkpt>
      <trkpt lat="44.49936" lon="1.79717">
        <ele>188.3</ele>
        <time>2023-04-08T08:53:20Z</time>
      </trkpt>
      <trkpt lat="44.49928" lon="1.79705">
        <ele>188</ele>
        <time>2023-04-08T08:53:23Z</time>
      </trkpt>
      <trkpt lat="44.49919" lon="1.79694">
        <ele>186.9</ele>
        <time>2023-04-08T08:53:26Z</time>
      </trkpt>
      <trkpt lat="44.4991" lon="1.79682">
        <ele>186.7</ele>
        <time>2023-04-08T08:53:29Z</time>
      </trkpt>
      <trkpt lat="44.49901" lon="1.7967">
        <ele>186.4</ele>
        <time>2023-04-08T08:53:32Z</time>
      </trkpt>
      <trkpt lat="44.49893" lon="1.79659">
        <ele>186.1</ele>
        <time>2023-04-08T08:53:35Z</time>
      </trkpt>
      <trkpt lat="44.49886" lon="1.79646">
        <ele>185.8</ele>
        <time>2023-04-08T08:53:38Z</time>
      </trkpt>
      <trkpt lat="44.49879" lon="1.79633">
        <ele>185.5</ele>
        <time>2023-04-08T08:53:41Z</time>
      </trkpt>
      <trkpt lat="44.49868" lon="1.7962">
        <ele>185.2</ele>
        <time>2023-04-08T08:53:44Z</time>
      </trkpt>
      <trkpt lat="44.49859" lon="1.79609">
        <ele>185</ele>
        <time>2023-04-08T08:53:46Z</time>
      </trkpt>
      <trkpt lat="44.49851" lon="1.79597">
        <ele>184.8</ele>
        <time>2023-04-08T08:53:48Z</time>
      </trkpt>
      <trkpt lat="44.49843" lon="1.79585">
        <ele>184.7</ele>
        <time>2023-04-08T08:53:50Z</time>
      </trkpt>
      <trkpt lat="44.49836" lon="1.79572">
        <ele>184.5</ele>
        <time>2023-04-08T08:53:52Z</time>
      </trkpt>
      <trkpt lat="44.49829" lon="1.79561">
        <ele>184.4</ele>
        <time>2023-04-08T08:53:54Z</time>
      </trkpt>
      <trkpt lat="44.49823" lon="1.79549">
        <ele>184.3</ele>
        <time>2023-04-08T08:53:56Z</time>
      </trkpt>
      <trkpt lat="44.49817" lon="1.79537">
        <ele>184.2</ele>
        <time>2023-04-08T08:53:58Z</time>
      </trkpt>
      <trkpt lat="44.49811" lon="1.79526">
        <ele>184.1</ele>
        <time>2023-04-08T08:54:00Z</time>
      </trkpt>
      <trkpt lat="44.49804" lon="1.79515">
        <ele>184</ele>
        <time>2023-04-08T08:54:02Z</time>
      </trkpt>
      <trkpt lat="44.49797" lon="1.79504">
        <ele>183.9</ele>
        <time>2023-04-08T08:54:04Z</time>
      </trkpt>
      <trkpt lat="44.49789" lon="1.79494">
        <ele>183.8</ele>
        <time>2023-04-08T08:54:06Z</time>
      </trkpt>
      <trkpt lat="44.49781" lon="1.79484">
        <ele>183.6</ele>
        <time>2023-04-08T08:54:08Z</time>
      </trkpt>
      <trkpt lat="44.49773" lon="1.79475">
        <ele>183.5</ele>
        <time>2023-04-08T08:54:10Z</time>
      </trkpt>
      <trkpt lat="44.49764" lon="1.79467">
        <ele>183.4</ele>
        <time>2023-04-08T08:54:12Z</time>
      </trkpt>
      <trkpt lat="44.49755" lon="1.79459">
        <ele>183.3</ele>
        <time>2023-04-08T08:54:14Z</time>
      </trkpt>
      <trkpt lat="44.49746" lon="1.79449">
        <ele>183.1</ele>
        <time>2023-04-08T08:54:16Z</time>
      </trkpt>
      <trkpt lat="44.49737" lon="1.79441">
        <ele>183</ele>
        <time>2023-04-08T08:54:18Z</time>
      </trkpt>
      <trkpt lat="44.4973" lon="1.79429">
        <ele>182.9</ele>
        <time>2023-04-08T08:54:21Z</time>
      </trkpt>
      <trkpt lat="44.49719" lon="1.7942">
        <ele>182.8</ele>
        <time>2023-04-08T08:54:24Z</time>
      </trkpt>
      <trkpt lat="44.49711" lon="1.79412">
        <ele>182.6</ele>
        <time>2023-04-08T08:54:26Z</time>
      </trkpt>
      <trkpt lat="44.49703" lon="1.79404">
        <ele>182.5</ele>
        <time>2023-04-08T08:54:29Z</time>
      </trkpt>
      <trkpt lat="44.49703" lon="1.79403">
        <ele>182.5</ele>
        <time>2023-04-08T08:54:32Z</time>
      </trkpt>
      <trkpt lat="44.49703" lon="1.79402">
        <ele>182.5</ele>
        <time>2023-04-08T08:54:39Z</time>
      </trkpt>
      <trkpt lat="44.49703" lon="1.79403">
        <ele>182.5</ele>
        <time>2023-04-08T08:54:41Z</time>
      </trkpt>
      <trkpt lat="44.49702" lon="1.79402">
        <ele>182.5</ele>
        <time>2023-04-08T08:54:42Z</time>
      </trkpt>
      <trkpt lat="44.49693" lon="1.7939">
        <ele>182.3</ele>
        <time>2023-04-08T08:54:46Z</time>
      </trkpt>
      <trkpt lat="44.49686" lon="1.7938">
        <ele>182.2</ele>
        <time>2023-04-08T08:54:48Z</time>
      </trkpt>
      <trkpt lat="44.49679" lon="1.79371">
        <ele>182</ele>
        <time>2023-04-08T08:54:50Z</time>
      </trkpt>
      <trkpt lat="44.49672" lon="1.79361">
        <ele>181.9</ele>
        <time>2023-04-08T08:54:52Z</time>
      </trkpt>
      <trkpt lat="44.49664" lon="1.79351">
        <ele>181.7</ele>
        <time>2023-04-08T08:54:54Z</time>
      </trkpt>
      <trkpt lat="44.49657" lon="1.79341">
        <ele>181.5</ele>
        <time>2023-04-08T08:54:56Z</time>
      </trkpt>
      <trkpt lat="44.49649" lon="1.7933">
        <ele>180.5</ele>
        <time>2023-04-08T08:54:58Z</time>
      </trkpt>
      <trkpt lat="44.49642" lon="1.79319">
        <ele>180.8</ele>
        <time>2023-04-08T08:55:00Z</time>
      </trkpt>
      <trkpt lat="44.49635" lon="1.79307">
        <ele>180.5</ele>
        <time>2023-04-08T08:55:02Z</time>
      </trkpt>
      <trkpt lat="44.49627" lon="1.79296">
        <ele>180.8</ele>
        <time>2023-04-08T08:55:04Z</time>
      </trkpt>
      <trkpt lat="44.49619" lon="1.79286">
        <ele>180.4</ele>
        <time>2023-04-08T08:55:06Z</time>
      </trkpt>
      <trkpt lat="44.49614" lon="1.79274">
        <ele>178.9</ele>
        <time>2023-04-08T08:55:08Z</time>
      </trkpt>
      <trkpt lat="44.4961" lon="1.79257">
        <ele>178.5</ele>
        <time>2023-04-08T08:55:11Z</time>
      </trkpt>
      <trkpt lat="44.49615" lon="1.7924">
        <ele>179.7</ele>
        <time>2023-04-08T08:55:14Z</time>
      </trkpt>
      <trkpt lat="44.49622" lon="1.79231">
        <ele>180.3</ele>
        <time>2023-04-08T08:55:16Z</time>
      </trkpt>
      <trkpt lat="44.49629" lon="1.79224">
        <ele>181.5</ele>
        <time>2023-04-08T08:55:18Z</time>
      </trkpt>
      <trkpt lat="44.49642" lon="1.79216">
        <ele>182.7</ele>
        <time>2023-04-08T08:55:21Z</time>
      </trkpt>
      <trkpt lat="44.49652" lon="1.79208">
        <ele>184</ele>
        <time>2023-04-08T08:55:24Z</time>
      </trkpt>
      <trkpt lat="44.49651" lon="1.79193">
        <ele>185.3</ele>
        <time>2023-04-08T08:55:28Z</time>
      </trkpt>
      <trkpt lat="44.49645" lon="1.79182">
        <ele>185.3</ele>
        <time>2023-04-08T08:55:32Z</time>
      </trkpt>
      <trkpt lat="44.49633" lon="1.79183">
        <ele>185</ele>
        <time>2023-04-08T08:55:35Z</time>
      </trkpt>
      <trkpt lat="44.49624" lon="1.79183">
        <ele>184.3</ele>
        <time>2023-04-08T08:55:37Z</time>
      </trkpt>
      <trkpt lat="44.49614" lon="1.79185">
        <ele>184.6</ele>
        <time>2023-04-08T08:55:39Z</time>
      </trkpt>
      <trkpt lat="44.49604" lon="1.79186">
        <ele>183.7</ele>
        <time>2023-04-08T08:55:41Z</time>
      </trkpt>
      <trkpt lat="44.49593" lon="1.79187">
        <ele>183</ele>
        <time>2023-04-08T08:55:43Z</time>
      </trkpt>
      <trkpt lat="44.49583" lon="1.79187">
        <ele>182.9</ele>
        <time>2023-04-08T08:55:45Z</time>
      </trkpt>
      <trkpt lat="44.49572" lon="1.79188">
        <ele>183.5</ele>
        <time>2023-04-08T08:55:47Z</time>
      </trkpt>
      <trkpt lat="44.49561" lon="1.79189">
        <ele>184.3</ele>
        <time>2023-04-08T08:55:49Z</time>
      </trkpt>
      <trkpt lat="44.49551" lon="1.79191">
        <ele>185.2</ele>
        <time>2023-04-08T08:55:51Z</time>
      </trkpt>
      <trkpt lat="44.4954" lon="1.79193">
        <ele>186.1</ele>
        <time>2023-04-08T08:55:53Z</time>
      </trkpt>
      <trkpt lat="44.49528" lon="1.79195">
        <ele>186.3</ele>
        <time>2023-04-08T08:55:55Z</time>
      </trkpt>
      <trkpt lat="44.49517" lon="1.79195">
        <ele>187.1</ele>
        <time>2023-04-08T08:55:57Z</time>
      </trkpt>
      <trkpt lat="44.49507" lon="1.79194">
        <ele>187.8</ele>
        <time>2023-04-08T08:55:59Z</time>
      </trkpt>
      <trkpt lat="44.49497" lon="1.79192">
        <ele>188.5</ele>
        <time>2023-04-08T08:56:01Z</time>
      </trkpt>
      <trkpt lat="44.49487" lon="1.79188">
        <ele>188.9</ele>
        <time>2023-04-08T08:56:03Z</time>
      </trkpt>
      <trkpt lat="44.49477" lon="1.79184">
        <ele>189</ele>
        <time>2023-04-08T08:56:05Z</time>
      </trkpt>
      <trkpt lat="44.49468" lon="1.79179">
        <ele>192.4</ele>
        <time>2023-04-08T08:56:07Z</time>
      </trkpt>
      <trkpt lat="44.49459" lon="1.79174">
        <ele>191.9</ele>
        <time>2023-04-08T08:56:09Z</time>
      </trkpt>
      <trkpt lat="44.49449" lon="1.7917">
        <ele>191.3</ele>
        <time>2023-04-08T08:56:11Z</time>
      </trkpt>
      <trkpt lat="44.49438" lon="1.79163">
        <ele>190.6</ele>
        <time>2023-04-08T08:56:14Z</time>
      </trkpt>
      <trkpt lat="44.4943" lon="1.79151">
        <ele>191.6</ele>
        <time>2023-04-08T08:56:18Z</time>
      </trkpt>
      <trkpt lat="44.49423" lon="1.7914">
        <ele>192.7</ele>
        <time>2023-04-08T08:56:21Z</time>
      </trkpt>
      <trkpt lat="44.49411" lon="1.79133">
        <ele>193.6</ele>
        <time>2023-04-08T08:56:24Z</time>
      </trkpt>
      <trkpt lat="44.49408" lon="1.79129">
        <ele>193.7</ele>
        <time>2023-04-08T08:56:27Z</time>
      </trkpt>
      <trkpt lat="44.49408" lon="1.7913">
        <ele>193.7</ele>
        <time>2023-04-08T08:56:28Z</time>
      </trkpt>
      <trkpt lat="44.49408" lon="1.7913">
        <ele>193.8</ele>
        <time>2023-04-08T08:56:30Z</time>
      </trkpt>
      <trkpt lat="44.49407" lon="1.79129">
        <ele>193.8</ele>
        <time>2023-04-08T08:57:25Z</time>
      </trkpt>
      <trkpt lat="44.49407" lon="1.79129">
        <ele>193.8</ele>
        <time>2023-04-08T08:57:26Z</time>
      </trkpt>
      <trkpt lat="44.49408" lon="1.79129">
        <ele>193.8</ele>
        <time>2023-04-08T08:57:59Z</time>
      </trkpt>
      <trkpt lat="44.49408" lon="1.79128">
        <ele>193.8</ele>
        <time>2023-04-08T08:58:01Z</time>
      </trkpt>
      <trkpt lat="44.49408" lon="1.79128">
        <ele>193.8</ele>
        <time>2023-04-08T08:59:17Z</time>
      </trkpt>
      <trkpt lat="44.49408" lon="1.79128">
        <ele>193.8</ele>
        <time>2023-04-08T08:59:18Z</time>
      </trkpt>
      <trkpt lat="44.49408" lon="1.79128">
        <ele>193.8</ele>
        <time>2023-04-08T08:59:46Z</time>
      </trkpt>
      <trkpt lat="44.49408" lon="1.79128">
        <ele>193.8</ele>
        <time>2023-04-08T08:59:47Z</time>
      </trkpt>
      <trkpt lat="44.49408" lon="1.79128">
        <ele>193.8</ele>
        <time>2023-04-08T09:00:07Z</time>
      </trkpt>
      <trkpt lat="44.49408" lon="1.79128">
        <ele>193.8</ele>
        <time>2023-04-08T09:00:08Z</time>
      </trkpt>
      <trkpt lat="44.49408" lon="1.79128">
        <ele>193.8</ele>
        <time>2023-04-08T09:00:25Z</time>
      </trkpt>
      <trkpt lat="44.49408" lon="1.79128">
        <ele>193.8</ele>
        <time>2023-04-08T09:00:26Z</time>
      </trkpt>
      <trkpt lat="44.49408" lon="1.79127">
        <ele>193.9</ele>
        <time>2023-04-08T09:01:56Z</time>
      </trkpt>
      <trkpt lat="44.49408" lon="1.79127">
        <ele>193.9</ele>
        <time>2023-04-08T09:01:57Z</time>
      </trkpt>
      <trkpt lat="44.49408" lon="1.79127">
        <ele>193.9</ele>
        <time>2023-04-08T09:03:56Z</time>
      </trkpt>
      <trkpt lat="44.49408" lon="1.79127">
        <ele>193.9</ele>
        <time>2023-04-08T09:03:57Z</time>
      </trkpt>
      <trkpt lat="44.49408" lon="1.79127">
        <ele>193.9</ele>
        <time>2023-04-08T09:05:01Z</time>
      </trkpt>
      <trkpt lat="44.49408" lon="1.79127">
        <ele>193.9</ele>
        <time>2023-04-08T09:05:02Z</time>
      </trkpt>
      <trkpt lat="44.49408" lon="1.79127">
        <ele>193.9</ele>
        <time>2023-04-08T09:07:40Z</time>
      </trkpt>
      <trkpt lat="44.49408" lon="1.79127">
        <ele>193.9</ele>
        <time>2023-04-08T09:07:41Z</time>
      </trkpt>
      <trkpt lat="44.49408" lon="1.79127">
        <ele>193.9</ele>
        <time>2023-04-08T09:07:47Z</time>
      </trkpt>
      <trkpt lat="44.49408" lon="1.79127">
        <ele>193.9</ele>
        <time>2023-04-08T09:07:48Z</time>
      </trkpt>
      <trkpt lat="44.49409" lon="1.79127">
        <ele>193.9</ele>
        <time>2023-04-08T09:09:21Z</time>
      </trkpt>
      <trkpt lat="44.49409" lon="1.79127">
        <ele>193.9</ele>
        <time>2023-04-08T09:09:22Z</time>
      </trkpt>
      <trkpt lat="44.49409" lon="1.79127">
        <ele>193.9</ele>
        <time>2023-04-08T09:11:22Z</time>
      </trkpt>
      <trkpt lat="44.49409" lon="1.79127">
        <ele>193.9</ele>
        <time>2023-04-08T09:11:23Z</time>
      </trkpt>
      <trkpt lat="44.49409" lon="1.79127">
        <ele>193.9</ele>
        <time>2023-04-08T09:11:37Z</time>
      </trkpt>
      <trkpt lat="44.49409" lon="1.79126">
        <ele>193.9</ele>
        <time>2023-04-08T09:11:38Z</time>
      </trkpt>
      <trkpt lat="44.49409" lon="1.79126">
        <ele>193.9</ele>
        <time>2023-04-08T09:11:40Z</time>
      </trkpt>
      <trkpt lat="44.49409" lon="1.79126">
        <ele>193.9</ele>
        <time>2023-04-08T09:11:41Z</time>
      </trkpt>
      <trkpt lat="44.49409" lon="1.79126">
        <ele>193.9</ele>
        <time>2023-04-08T09:11:44Z</time>
      </trkpt>
      <trkpt lat="44.49402" lon="1.79115">
        <ele>194.4</ele>
        <time>2023-04-08T09:11:51Z</time>
      </trkpt>
      <trkpt lat="44.49395" lon="1.79106">
        <ele>194.8</ele>
        <time>2023-04-08T09:11:55Z</time>
      </trkpt>
      <trkpt lat="44.49389" lon="1.79095">
        <ele>195.2</ele>
        <time>2023-04-08T09:11:59Z</time>
      </trkpt>
      <trkpt lat="44.49382" lon="1.79086">
        <ele>195.4</ele>
        <time>2023-04-08T09:12:03Z</time>
      </trkpt>
      <trkpt lat="44.49375" lon="1.79078">
        <ele>195.4</ele>
        <time>2023-04-08T09:12:07Z</time>
      </trkpt>
      <trkpt lat="44.49365" lon="1.7907">
        <ele>195.1</ele>
        <time>2023-04-08T09:12:10Z</time>
      </trkpt>
      <trkpt lat="44.49356" lon="1.79065">
        <ele>194.7</ele>
        <time>2023-04-08T09:12:12Z</time>
      </trkpt>
      <trkpt lat="44.49346" lon="1.79056">
        <ele>194.3</ele>
        <time>2023-04-08T09:12:14Z</time>
      </trkpt>
      <trkpt lat="44.49336" lon="1.79047">
        <ele>193.9</ele>
        <time>2023-04-08T09:12:16Z</time>
      </trkpt>
      <trkpt lat="44.49327" lon="1.79039">
        <ele>193.4</ele>
        <time>2023-04-08T09:12:18Z</time>
      </trkpt>
      <trkpt lat="44.49318" lon="1.79031">
        <ele>193</ele>
        <time>2023-04-08T09:12:20Z</time>
      </trkpt>
      <trkpt lat="44.49309" lon="1.79023">
        <ele>192.6</ele>
        <time>2023-04-08T09:12:22Z</time>
      </trkpt>
      <trkpt lat="44.493" lon="1.79016">
        <ele>192.4</ele>
        <time>2023-04-08T09:12:24Z</time>
      </trkpt>
      <trkpt lat="44.4929" lon="1.79007">
        <ele>192.1</ele>
        <time>2023-04-08T09:12:27Z</time>
      </trkpt>
      <trkpt lat="44.49279" lon="1.79001">
        <ele>190.8</ele>
        <time>2023-04-08T09:12:30Z</time>
      </trkpt>
      <trkpt lat="44.49268" lon="1.78997">
        <ele>189.4</ele>
        <time>2023-04-08T09:12:33Z</time>
      </trkpt>
      <trkpt lat="44.49257" lon="1.78993">
        <ele>187.8</ele>
        <time>2023-04-08T09:12:36Z</time>
      </trkpt>
      <trkpt lat="44.49244" lon="1.78996">
        <ele>186</ele>
        <time>2023-04-08T09:12:39Z</time>
      </trkpt>
      <trkpt lat="44.49232" lon="1.78999">
        <ele>184.3</ele>
        <time>2023-04-08T09:12:42Z</time>
      </trkpt>
      <trkpt lat="44.49222" lon="1.79004">
        <ele>183</ele>
        <time>2023-04-08T09:12:45Z</time>
      </trkpt>
      <trkpt lat="44.49219" lon="1.78991">
        <ele>183.1</ele>
        <time>2023-04-08T09:12:51Z</time>
      </trkpt>
      <trkpt lat="44.49223" lon="1.78977">
        <ele>183.2</ele>
        <time>2023-04-08T09:12:55Z</time>
      </trkpt>
      <trkpt lat="44.49225" lon="1.78965">
        <ele>183.5</ele>
        <time>2023-04-08T09:12:58Z</time>
      </trkpt>
      <trkpt lat="44.49225" lon="1.78952">
        <ele>183.8</ele>
        <time>2023-04-08T09:13:01Z</time>
      </trkpt>
      <trkpt lat="44.49224" lon="1.78938">
        <ele>184.1</ele>
        <time>2023-04-08T09:13:04Z</time>
      </trkpt>
      <trkpt lat="44.49223" lon="1.78924">
        <ele>184.5</ele>
        <time>2023-04-08T09:13:07Z</time>
      </trkpt>
      <trkpt lat="44.49222" lon="1.7891">
        <ele>184.9</ele>
        <time>2023-04-08T09:13:10Z</time>
      </trkpt>
      <trkpt lat="44.49219" lon="1.78895">
        <ele>185.3</ele>
        <time>2023-04-08T09:13:13Z</time>
      </trkpt>
      <trkpt lat="44.49217" lon="1.78879">
        <ele>185.8</ele>
        <time>2023-04-08T09:13:16Z</time>
      </trkpt>
      <trkpt lat="44.49215" lon="1.78863">
        <ele>186.2</ele>
        <time>2023-04-08T09:13:19Z</time>
      </trkpt>
      <trkpt lat="44.49213" lon="1.78847">
        <ele>186.7</ele>
        <time>2023-04-08T09:13:22Z</time>
      </trkpt>
      <trkpt lat="44.49212" lon="1.78831">
        <ele>187.2</ele>
        <time>2023-04-08T09:13:25Z</time>
      </trkpt>
      <trkpt lat="44.49212" lon="1.78815">
        <ele>187.6</ele>
        <time>2023-04-08T09:13:28Z</time>
      </trkpt>
      <trkpt lat="44.49211" lon="1.78799">
        <ele>188</ele>
        <time>2023-04-08T09:13:31Z</time>
      </trkpt>
      <trkpt lat="44.49209" lon="1.78783">
        <ele>188.4</ele>
        <time>2023-04-08T09:13:34Z</time>
      </trkpt>
      <trkpt lat="44.49208" lon="1.78766">
        <ele>188.9</ele>
        <time>2023-04-08T09:13:37Z</time>
      </trkpt>
      <trkpt lat="44.49207" lon="1.7875">
        <ele>189.3</ele>
        <time>2023-04-08T09:13:40Z</time>
      </trkpt>
      <trkpt lat="44.49205" lon="1.78735">
        <ele>189.7</ele>
        <time>2023-04-08T09:13:43Z</time>
      </trkpt>
      <trkpt lat="44.49205" lon="1.78717">
        <ele>190.1</ele>
        <time>2023-04-08T09:13:46Z</time>
      </trkpt>
      <trkpt lat="44.49205" lon="1.787">
        <ele>190.7</ele>
        <time>2023-04-08T09:13:49Z</time>
      </trkpt>
      <trkpt lat="44.49205" lon="1.78685">
        <ele>191.2</ele>
        <time>2023-04-08T09:13:52Z</time>
      </trkpt>
      <trkpt lat="44.49205" lon="1.78669">
        <ele>191.6</ele>
        <time>2023-04-08T09:13:55Z</time>
      </trkpt>
      <trkpt lat="44.49205" lon="1.78653">
        <ele>192</ele>
        <time>2023-04-08T09:13:58Z</time>
      </trkpt>
      <trkpt lat="44.49206" lon="1.78637">
        <ele>192.4</ele>
        <time>2023-04-08T09:14:01Z</time>
      </trkpt>
      <trkpt lat="44.49208" lon="1.78622">
        <ele>192.8</ele>
        <time>2023-04-08T09:14:04Z</time>
      </trkpt>
      <trkpt lat="44.4921" lon="1.78607">
        <ele>193.1</ele>
        <time>2023-04-08T09:14:07Z</time>
      </trkpt>
      <trkpt lat="44.49211" lon="1.78594">
        <ele>193.5</ele>
        <time>2023-04-08T09:14:10Z</time>
      </trkpt>
      <trkpt lat="44.49213" lon="1.7858">
        <ele>193.9</ele>
        <time>2023-04-08T09:14:13Z</time>
      </trkpt>
      <trkpt lat="44.49215" lon="1.78567">
        <ele>194.4</ele>
        <time>2023-04-08T09:14:16Z</time>
      </trkpt>
      <trkpt lat="44.49217" lon="1.78555">
        <ele>194.9</ele>
        <time>2023-04-08T09:14:19Z</time>
      </trkpt>
      <trkpt lat="44.49219" lon="1.7854">
        <ele>195.5</ele>
        <time>2023-04-08T09:14:22Z</time>
      </trkpt>
      <trkpt lat="44.49224" lon="1.78527">
        <ele>195.6</ele>
        <time>2023-04-08T09:14:25Z</time>
      </trkpt>
      <trkpt lat="44.49229" lon="1.78513">
        <ele>195.6</ele>
        <time>2023-04-08T09:14:28Z</time>
      </trkpt>
      <trkpt lat="44.49232" lon="1.78498">
        <ele>194.9</ele>
        <time>2023-04-08T09:14:31Z</time>
      </trkpt>
      <trkpt lat="44.49236" lon="1.78483">
        <ele>196.5</ele>
        <time>2023-04-08T09:14:34Z</time>
      </trkpt>
      <trkpt lat="44.4924" lon="1.78469">
        <ele>196.3</ele>
        <time>2023-04-08T09:14:37Z</time>
      </trkpt>
      <trkpt lat="44.49242" lon="1.78456">
        <ele>196.1</ele>
        <time>2023-04-08T09:14:40Z</time>
      </trkpt>
      <trkpt lat="44.49242" lon="1.78452">
        <ele>196</ele>
        <time>2023-04-08T09:14:44Z</time>
      </trkpt>
      <trkpt lat="44.49242" lon="1.78451">
        <ele>196</ele>
        <time>2023-04-08T09:15:10Z</time>
      </trkpt>
      <trkpt lat="44.49236" lon="1.78438">
        <ele>196.1</ele>
        <time>2023-04-08T09:15:16Z</time>
      </trkpt>
      <trkpt lat="44.4923" lon="1.78429">
        <ele>195.3</ele>
        <time>2023-04-08T09:15:20Z</time>
      </trkpt>
      <trkpt lat="44.49223" lon="1.78419">
        <ele>196.4</ele>
        <time>2023-04-08T09:15:23Z</time>
      </trkpt>
      <trkpt lat="44.49215" lon="1.78408">
        <ele>197.1</ele>
        <time>2023-04-08T09:15:26Z</time>
      </trkpt>
      <trkpt lat="44.49208" lon="1.78397">
        <ele>200.7</ele>
        <time>2023-04-08T09:15:29Z</time>
      </trkpt>
      <trkpt lat="44.49202" lon="1.78386">
        <ele>203</ele>
        <time>2023-04-08T09:15:32Z</time>
      </trkpt>
      <trkpt lat="44.49194" lon="1.78375">
        <ele>206.2</ele>
        <time>2023-04-08T09:15:35Z</time>
      </trkpt>
      <trkpt lat="44.49189" lon="1.78362">
        <ele>208.1</ele>
        <time>2023-04-08T09:15:38Z</time>
      </trkpt>
      <trkpt lat="44.49185" lon="1.78349">
        <ele>212.4</ele>
        <time>2023-04-08T09:15:41Z</time>
      </trkpt>
      <trkpt lat="44.49178" lon="1.7834">
        <ele>212.4</ele>
        <time>2023-04-08T09:15:45Z</time>
      </trkpt>
      <trkpt lat="44.49175" lon="1.78353">
        <ele>212.4</ele>
        <time>2023-04-08T09:15:49Z</time>
      </trkpt>
      <trkpt lat="44.49176" lon="1.78368">
        <ele>211.1</ele>
        <time>2023-04-08T09:15:54Z</time>
      </trkpt>
      <trkpt lat="44.49177" lon="1.78382">
        <ele>209.7</ele>
        <time>2023-04-08T09:15:58Z</time>
      </trkpt>
      <trkpt lat="44.4918" lon="1.78395">
        <ele>207.6</ele>
        <time>2023-04-08T09:16:02Z</time>
      </trkpt>
      <trkpt lat="44.49182" lon="1.78409">
        <ele>205.4</ele>
        <time>2023-04-08T09:16:06Z</time>
      </trkpt>
      <trkpt lat="44.49182" lon="1.78423">
        <ele>205.4</ele>
        <time>2023-04-08T09:16:10Z</time>
      </trkpt>
      <trkpt lat="44.49182" lon="1.78436">
        <ele>203.4</ele>
        <time>2023-04-08T09:16:14Z</time>
      </trkpt>
      <trkpt lat="44.4918" lon="1.78451">
        <ele>201.8</ele>
        <time>2023-04-08T09:16:19Z</time>
      </trkpt>
      <trkpt lat="44.49175" lon="1.78465">
        <ele>200.7</ele>
        <time>2023-04-08T09:16:24Z</time>
      </trkpt>
      <trkpt lat="44.4917" lon="1.78476">
        <ele>205.1</ele>
        <time>2023-04-08T09:16:28Z</time>
      </trkpt>
      <trkpt lat="44.49165" lon="1.78488">
        <ele>203.8</ele>
        <time>2023-04-08T09:16:32Z</time>
      </trkpt>
      <trkpt lat="44.4916" lon="1.785">
        <ele>207.6</ele>
        <time>2023-04-08T09:16:36Z</time>
      </trkpt>
      <trkpt lat="44.49155" lon="1.78512">
        <ele>206</ele>
        <time>2023-04-08T09:16:40Z</time>
      </trkpt>
      <trkpt lat="44.49151" lon="1.78525">
        <ele>206</ele>
        <time>2023-04-08T09:16:44Z</time>
      </trkpt>
      <trkpt lat="44.49147" lon="1.78538">
        <ele>209.9</ele>
        <time>2023-04-08T09:16:48Z</time>
      </trkpt>
      <trkpt lat="44.49142" lon="1.78552">
        <ele>208.4</ele>
        <time>2023-04-08T09:16:52Z</time>
      </trkpt>
      <trkpt lat="44.49138" lon="1.78564">
        <ele>207</ele>
        <time>2023-04-08T09:16:56Z</time>
      </trkpt>
      <trkpt lat="44.49133" lon="1.78576">
        <ele>212.8</ele>
        <time>2023-04-08T09:17:00Z</time>
      </trkpt>
      <trkpt lat="44.49129" lon="1.78589">
        <ele>211.7</ele>
        <time>2023-04-08T09:17:04Z</time>
      </trkpt>
      <trkpt lat="44.49127" lon="1.78603">
        <ele>210.9</ele>
        <time>2023-04-08T09:17:08Z</time>
      </trkpt>
      <trkpt lat="44.49123" lon="1.78617">
        <ele>216</ele>
        <time>2023-04-08T09:17:12Z</time>
      </trkpt>
      <trkpt lat="44.49119" lon="1.78631">
        <ele>216</ele>
        <time>2023-04-08T09:17:16Z</time>
      </trkpt>
      <trkpt lat="44.49115" lon="1.78643">
        <ele>216.1</ele>
        <time>2023-04-08T09:17:20Z</time>
      </trkpt>
      <trkpt lat="44.49112" lon="1.78658">
        <ele>216.4</ele>
        <time>2023-04-08T09:17:25Z</time>
      </trkpt>
      <trkpt lat="44.4911" lon="1.78671">
        <ele>222.5</ele>
        <time>2023-04-08T09:17:29Z</time>
      </trkpt>
      <trkpt lat="44.49108" lon="1.78684">
        <ele>222.3</ele>
        <time>2023-04-08T09:17:33Z</time>
      </trkpt>
      <trkpt lat="44.49106" lon="1.78697">
        <ele>222.3</ele>
        <time>2023-04-08T09:17:37Z</time>
      </trkpt>
      <trkpt lat="44.49105" lon="1.78713">
        <ele>222.1</ele>
        <time>2023-04-08T09:17:41Z</time>
      </trkpt>
      <trkpt lat="44.49105" lon="1.78726">
        <ele>222.2</ele>
        <time>2023-04-08T09:17:44Z</time>
      </trkpt>
      <trkpt lat="44.49105" lon="1.7874">
        <ele>222.5</ele>
        <time>2023-04-08T09:17:47Z</time>
      </trkpt>
      <trkpt lat="44.49105" lon="1.78756">
        <ele>223.1</ele>
        <time>2023-04-08T09:17:50Z</time>
      </trkpt>
      <trkpt lat="44.49105" lon="1.78773">
        <ele>224</ele>
        <time>2023-04-08T09:17:53Z</time>
      </trkpt>
      <trkpt lat="44.49104" lon="1.78788">
        <ele>224.7</ele>
        <time>2023-04-08T09:17:56Z</time>
      </trkpt>
      <trkpt lat="44.49104" lon="1.78801">
        <ele>224.7</ele>
        <time>2023-04-08T09:17:59Z</time>
      </trkpt>
      <trkpt lat="44.49103" lon="1.78816">
        <ele>224.8</ele>
        <time>2023-04-08T09:18:02Z</time>
      </trkpt>
      <trkpt lat="44.49101" lon="1.78829">
        <ele>224.4</ele>
        <time>2023-04-08T09:18:05Z</time>
      </trkpt>
      <trkpt lat="44.49098" lon="1.78845">
        <ele>229</ele>
        <time>2023-04-08T09:18:09Z</time>
      </trkpt>
      <trkpt lat="44.49092" lon="1.78859">
        <ele>227.1</ele>
        <time>2023-04-08T09:18:13Z</time>
      </trkpt>
      <trkpt lat="44.49085" lon="1.78871">
        <ele>232.8</ele>
        <time>2023-04-08T09:18:17Z</time>
      </trkpt>
      <trkpt lat="44.49077" lon="1.78879">
        <ele>229.6</ele>
        <time>2023-04-08T09:18:21Z</time>
      </trkpt>
      <trkpt lat="44.49065" lon="1.78881">
        <ele>234</ele>
        <time>2023-04-08T09:18:25Z</time>
      </trkpt>
      <trkpt lat="44.49057" lon="1.78878">
        <ele>237.5</ele>
        <time>2023-04-08T09:18:28Z</time>
      </trkpt>
      <trkpt lat="44.49047" lon="1.78872">
        <ele>239.7</ele>
        <time>2023-04-08T09:18:31Z</time>
      </trkpt>
      <trkpt lat="44.49038" lon="1.78863">
        <ele>243.8</ele>
        <time>2023-04-08T09:18:34Z</time>
      </trkpt>
      <trkpt lat="44.4903" lon="1.78854">
        <ele>248.1</ele>
        <time>2023-04-08T09:18:37Z</time>
      </trkpt>
      <trkpt lat="44.49022" lon="1.78844">
        <ele>248.5</ele>
        <time>2023-04-08T09:18:40Z</time>
      </trkpt>
      <trkpt lat="44.49015" lon="1.78834">
        <ele>249.4</ele>
        <time>2023-04-08T09:18:43Z</time>
      </trkpt>
      <trkpt lat="44.49008" lon="1.78822">
        <ele>250.1</ele>
        <time>2023-04-08T09:18:46Z</time>
      </trkpt>
      <trkpt lat="44.49002" lon="1.78809">
        <ele>250.7</ele>
        <time>2023-04-08T09:18:49Z</time>
      </trkpt>
      <trkpt lat="44.48998" lon="1.78795">
        <ele>251.4</ele>
        <time>2023-04-08T09:18:52Z</time>
      </trkpt>
      <trkpt lat="44.48996" lon="1.78782">
        <ele>252.2</ele>
        <time>2023-04-08T09:18:55Z</time>
      </trkpt>
      <trkpt lat="44.48995" lon="1.78769">
        <ele>253.3</ele>
        <time>2023-04-08T09:18:58Z</time>
      </trkpt>
      <trkpt lat="44.48995" lon="1.78753">
        <ele>254.2</ele>
        <time>2023-04-08T09:19:02Z</time>
      </trkpt>
      <trkpt lat="44.48994" lon="1.78736">
        <ele>254</ele>
        <time>2023-04-08T09:19:06Z</time>
      </trkpt>
      <trkpt lat="44.48993" lon="1.7872">
        <ele>254</ele>
        <time>2023-04-08T09:19:10Z</time>
      </trkpt>
      <trkpt lat="44.48993" lon="1.78704">
        <ele>254.5</ele>
        <time>2023-04-08T09:19:14Z</time>
      </trkpt>
      <trkpt lat="44.48993" lon="1.78687">
        <ele>255.4</ele>
        <time>2023-04-08T09:19:18Z</time>
      </trkpt>
      <trkpt lat="44.48993" lon="1.78671">
        <ele>256.4</ele>
        <time>2023-04-08T09:19:22Z</time>
      </trkpt>
      <trkpt lat="44.4899" lon="1.78656">
        <ele>257.4</ele>
        <time>2023-04-08T09:19:26Z</time>
      </trkpt>
      <trkpt lat="44.48986" lon="1.78644">
        <ele>258.4</ele>
        <time>2023-04-08T09:19:30Z</time>
      </trkpt>
      <trkpt lat="44.48981" lon="1.78632">
        <ele>259.4</ele>
        <time>2023-04-08T09:19:34Z</time>
      </trkpt>
      <trkpt lat="44.48975" lon="1.78621">
        <ele>260.7</ele>
        <time>2023-04-08T09:19:38Z</time>
      </trkpt>
      <trkpt lat="44.48969" lon="1.78609">
        <ele>262</ele>
        <time>2023-04-08T09:19:42Z</time>
      </trkpt>
      <trkpt lat="44.48964" lon="1.78596">
        <ele>263.5</ele>
        <time>2023-04-08T09:19:46Z</time>
      </trkpt>
      <trkpt lat="44.48959" lon="1.78584">
        <ele>264.9</ele>
        <time>2023-04-08T09:19:50Z</time>
      </trkpt>
      <trkpt lat="44.48955" lon="1.78572">
        <ele>266.3</ele>
        <time>2023-04-08T09:19:54Z</time>
      </trkpt>
      <trkpt lat="44.4895" lon="1.7856">
        <ele>267.7</ele>
        <time>2023-04-08T09:19:58Z</time>
      </trkpt>
      <trkpt lat="44.48945" lon="1.78549">
        <ele>269.1</ele>
        <time>2023-04-08T09:20:02Z</time>
      </trkpt>
      <trkpt lat="44.48942" lon="1.78537">
        <ele>270.4</ele>
        <time>2023-04-08T09:20:06Z</time>
      </trkpt>
      <trkpt lat="44.48938" lon="1.78525">
        <ele>271.9</ele>
        <time>2023-04-08T09:20:10Z</time>
      </trkpt>
      <trkpt lat="44.48933" lon="1.78513">
        <ele>273.2</ele>
        <time>2023-04-08T09:20:14Z</time>
      </trkpt>
      <trkpt lat="44.48926" lon="1.78501">
        <ele>274.3</ele>
        <time>2023-04-08T09:20:19Z</time>
      </trkpt>
      <trkpt lat="44.48915" lon="1.78499">
        <ele>275</ele>
        <time>2023-04-08T09:20:23Z</time>
      </trkpt>
      <trkpt lat="44.48905" lon="1.78497">
        <ele>276.2</ele>
        <time>2023-04-08T09:20:27Z</time>
      </trkpt>
      <trkpt lat="44.48902" lon="1.78496">
        <ele>276.5</ele>
        <time>2023-04-08T09:20:30Z</time>
      </trkpt>
      <trkpt lat="44.48901" lon="1.78496">
        <ele>276.5</ele>
        <time>2023-04-08T09:20:36Z</time>
      </trkpt>
      <trkpt lat="44.48901" lon="1.78496">
        <ele>276.5</ele>
        <time>2023-04-08T09:20:37Z</time>
      </trkpt>
      <trkpt lat="44.48901" lon="1.78496">
        <ele>276.6</ele>
        <time>2023-04-08T09:20:41Z</time>
      </trkpt>
      <trkpt lat="44.48901" lon="1.78496">
        <ele>276.6</ele>
        <time>2023-04-08T09:20:42Z</time>
      </trkpt>
      <trkpt lat="44.48901" lon="1.78496">
        <ele>276.6</ele>
        <time>2023-04-08T09:20:55Z</time>
      </trkpt>
      <trkpt lat="44.48901" lon="1.78496">
        <ele>276.6</ele>
        <time>2023-04-08T09:20:56Z</time>
      </trkpt>
      <trkpt lat="44.48901" lon="1.78496">
        <ele>276.6</ele>
        <time>2023-04-08T09:21:41Z</time>
      </trkpt>
      <trkpt lat="44.48901" lon="1.78496">
        <ele>276.6</ele>
        <time>2023-04-08T09:21:42Z</time>
      </trkpt>
      <trkpt lat="44.48901" lon="1.78496">
        <ele>276.6</ele>
        <time>2023-04-08T09:22:25Z</time>
      </trkpt>
      <trkpt lat="44.48901" lon="1.78496">
        <ele>276.6</ele>
        <time>2023-04-08T09:22:26Z</time>
      </trkpt>
      <trkpt lat="44.48901" lon="1.78496">
        <ele>276.6</ele>
        <time>2023-04-08T09:23:02Z</time>
      </trkpt>
      <trkpt lat="44.48901" lon="1.78496">
        <ele>276.6</ele>
        <time>2023-04-08T09:23:03Z</time>
      </trkpt>
      <trkpt lat="44.489" lon="1.78496">
        <ele>276.7</ele>
        <time>2023-04-08T09:23:17Z</time>
      </trkpt>
      <trkpt lat="44.4889" lon="1.78489">
        <ele>277.9</ele>
        <time>2023-04-08T09:23:24Z</time>
      </trkpt>
      <trkpt lat="44.48883" lon="1.78482">
        <ele>279</ele>
        <time>2023-04-08T09:23:28Z</time>
      </trkpt>
      <trkpt lat="44.48874" lon="1.78481">
        <ele>280</ele>
        <time>2023-04-08T09:23:32Z</time>
      </trkpt>
      <trkpt lat="44.48863" lon="1.78487">
        <ele>279.2</ele>
        <time>2023-04-08T09:23:35Z</time>
      </trkpt>
      <trkpt lat="44.48853" lon="1.78489">
        <ele>278.4</ele>
        <time>2023-04-08T09:23:37Z</time>
      </trkpt>
      <trkpt lat="44.48841" lon="1.78489">
        <ele>277.4</ele>
        <time>2023-04-08T09:23:39Z</time>
      </trkpt>
      <trkpt lat="44.48828" lon="1.78485">
        <ele>276.3</ele>
        <time>2023-04-08T09:23:41Z</time>
      </trkpt>
      <trkpt lat="44.48814" lon="1.78476">
        <ele>275.1</ele>
        <time>2023-04-08T09:23:43Z</time>
      </trkpt>
      <trkpt lat="44.48801" lon="1.78464">
        <ele>274</ele>
        <time>2023-04-08T09:23:45Z</time>
      </trkpt>
      <trkpt lat="44.48791" lon="1.78455">
        <ele>273.5</ele>
        <time>2023-04-08T09:23:47Z</time>
      </trkpt>
      <trkpt lat="44.48782" lon="1.78447">
        <ele>273.1</ele>
        <time>2023-04-08T09:23:49Z</time>
      </trkpt>
      <trkpt lat="44.48774" lon="1.7844">
        <ele>272.7</ele>
        <time>2023-04-08T09:23:51Z</time>
      </trkpt>
      <trkpt lat="44.48766" lon="1.7843">
        <ele>271.9</ele>
        <time>2023-04-08T09:23:54Z</time>
      </trkpt>
      <trkpt lat="44.48771" lon="1.78417">
        <ele>276</ele>
        <time>2023-04-08T09:24:02Z</time>
      </trkpt>
      <trkpt lat="44.48774" lon="1.78404">
        <ele>279.1</ele>
        <time>2023-04-08T09:24:07Z</time>
      </trkpt>
      <trkpt lat="44.48776" lon="1.78391">
        <ele>279</ele>
        <time>2023-04-08T09:24:12Z</time>
      </trkpt>
      <trkpt lat="44.48779" lon="1.78378">
        <ele>282.1</ele>
        <time>2023-04-08T09:24:17Z</time>
      </trkpt>
      <trkpt lat="44.48782" lon="1.78364">
        <ele>285.5</ele>
        <time>2023-04-08T09:24:22Z</time>
      </trkpt>
      <trkpt lat="44.48785" lon="1.78351">
        <ele>288.3</ele>
        <time>2023-04-08T09:24:27Z</time>
      </trkpt>
      <trkpt lat="44.48788" lon="1.78337">
        <ele>290.8</ele>
        <time>2023-04-08T09:24:33Z</time>
      </trkpt>
      <trkpt lat="44.4879" lon="1.78324">
        <ele>290.6</ele>
        <time>2023-04-08T09:24:38Z</time>
      </trkpt>
      <trkpt lat="44.4879" lon="1.78309">
        <ele>292.5</ele>
        <time>2023-04-08T09:24:44Z</time>
      </trkpt>
      <trkpt lat="44.48795" lon="1.78297">
        <ele>294.5</ele>
        <time>2023-04-08T09:24:50Z</time>
      </trkpt>
      <trkpt lat="44.48791" lon="1.78284">
        <ele>295.6</ele>
        <time>2023-04-08T09:24:56Z</time>
      </trkpt>
      <trkpt lat="44.48791" lon="1.78276">
        <ele>295.8</ele>
        <time>2023-04-08T09:25:01Z</time>
      </trkpt>
      <trkpt lat="44.48791" lon="1.78277">
        <ele>295.8</ele>
        <time>2023-04-08T09:25:06Z</time>
      </trkpt>
      <trkpt lat="44.48791" lon="1.78277">
        <ele>295.8</ele>
        <time>2023-04-08T09:25:07Z</time>
      </trkpt>
      <trkpt lat="44.48791" lon="1.78277">
        <ele>295.8</ele>
        <time>2023-04-08T09:25:17Z</time>
      </trkpt>
      <trkpt lat="44.48791" lon="1.78277">
        <ele>295.8</ele>
        <time>2023-04-08T09:25:18Z</time>
      </trkpt>
      <trkpt lat="44.48791" lon="1.78277">
        <ele>295.8</ele>
        <time>2023-04-08T09:25:23Z</time>
      </trkpt>
      <trkpt lat="44.4878" lon="1.78279">
        <ele>296.3</ele>
        <time>2023-04-08T09:25:29Z</time>
      </trkpt>
      <trkpt lat="44.48769" lon="1.78281">
        <ele>296.9</ele>
        <time>2023-04-08T09:25:33Z</time>
      </trkpt>
      <trkpt lat="44.4876" lon="1.78285">
        <ele>297.5</ele>
        <time>2023-04-08T09:25:36Z</time>
      </trkpt>
      <trkpt lat="44.48751" lon="1.78289">
        <ele>298.2</ele>
        <time>2023-04-08T09:25:39Z</time>
      </trkpt>
      <trkpt lat="44.48741" lon="1.78293">
        <ele>298.8</ele>
        <time>2023-04-08T09:25:42Z</time>
      </trkpt>
      <trkpt lat="44.48731" lon="1.78297">
        <ele>299.6</ele>
        <time>2023-04-08T09:25:45Z</time>
      </trkpt>
      <trkpt lat="44.48719" lon="1.78292">
        <ele>300.8</ele>
        <time>2023-04-08T09:25:49Z</time>
      </trkpt>
      <trkpt lat="44.48709" lon="1.78289">
        <ele>302.1</ele>
        <time>2023-04-08T09:25:52Z</time>
      </trkpt>
      <trkpt lat="44.487" lon="1.78286">
        <ele>303.4</ele>
        <time>2023-04-08T09:25:55Z</time>
      </trkpt>
      <trkpt lat="44.48691" lon="1.78282">
        <ele>304.3</ele>
        <time>2023-04-08T09:25:58Z</time>
      </trkpt>
      <trkpt lat="44.48681" lon="1.7828">
        <ele>305</ele>
        <time>2023-04-08T09:26:01Z</time>
      </trkpt>
      <trkpt lat="44.48671" lon="1.7828">
        <ele>305.7</ele>
        <time>2023-04-08T09:26:04Z</time>
      </trkpt>
      <trkpt lat="44.48662" lon="1.7828">
        <ele>306.2</ele>
        <time>2023-04-08T09:26:07Z</time>
      </trkpt>
      <trkpt lat="44.48653" lon="1.78281">
        <ele>306.5</ele>
        <time>2023-04-08T09:26:10Z</time>
      </trkpt>
      <trkpt lat="44.48642" lon="1.7828">
        <ele>306.7</ele>
        <time>2023-04-08T09:26:13Z</time>
      </trkpt>
      <trkpt lat="44.4863" lon="1.7828">
        <ele>306.9</ele>
        <time>2023-04-08T09:26:16Z</time>
      </trkpt>
      <trkpt lat="44.48619" lon="1.78279">
        <ele>307.2</ele>
        <time>2023-04-08T09:26:19Z</time>
      </trkpt>
      <trkpt lat="44.48608" lon="1.78277">
        <ele>307.6</ele>
        <time>2023-04-08T09:26:22Z</time>
      </trkpt>
      <trkpt lat="44.48598" lon="1.78275">
        <ele>308.1</ele>
        <time>2023-04-08T09:26:25Z</time>
      </trkpt>
      <trkpt lat="44.48587" lon="1.78274">
        <ele>308.6</ele>
        <time>2023-04-08T09:26:28Z</time>
      </trkpt>
      <trkpt lat="44.48577" lon="1.78274">
        <ele>309</ele>
        <time>2023-04-08T09:26:31Z</time>
      </trkpt>
      <trkpt lat="44.48566" lon="1.78274">
        <ele>309.6</ele>
        <time>2023-04-08T09:26:34Z</time>
      </trkpt>
      <trkpt lat="44.48555" lon="1.78274">
        <ele>310.1</ele>
        <time>2023-04-08T09:26:37Z</time>
      </trkpt>
      <trkpt lat="44.48546" lon="1.78274">
        <ele>310.4</ele>
        <time>2023-04-08T09:26:40Z</time>
      </trkpt>
      <trkpt lat="44.48536" lon="1.78278">
        <ele>310.4</ele>
        <time>2023-04-08T09:26:43Z</time>
      </trkpt>
      <trkpt lat="44.48524" lon="1.78284">
        <ele>309.9</ele>
        <time>2023-04-08T09:26:46Z</time>
      </trkpt>
      <trkpt lat="44.48515" lon="1.78287">
        <ele>309.4</ele>
        <time>2023-04-08T09:26:48Z</time>
      </trkpt>
      <trkpt lat="44.48505" lon="1.7829">
        <ele>308.7</ele>
        <time>2023-04-08T09:26:50Z</time>
      </trkpt>
      <trkpt lat="44.48495" lon="1.78296">
        <ele>307.9</ele>
        <time>2023-04-08T09:26:52Z</time>
      </trkpt>
      <trkpt lat="44.48484" lon="1.78301">
        <ele>306.9</ele>
        <time>2023-04-08T09:26:54Z</time>
      </trkpt>
      <trkpt lat="44.48475" lon="1.78308">
        <ele>305.8</ele>
        <time>2023-04-08T09:26:56Z</time>
      </trkpt>
      <trkpt lat="44.48464" lon="1.78316">
        <ele>304.2</ele>
        <time>2023-04-08T09:26:58Z</time>
      </trkpt>
      <trkpt lat="44.48454" lon="1.78324">
        <ele>302.8</ele>
        <time>2023-04-08T09:27:00Z</time>
      </trkpt>
      <trkpt lat="44.48445" lon="1.78331">
        <ele>301.6</ele>
        <time>2023-04-08T09:27:02Z</time>
      </trkpt>
      <trkpt lat="44.48434" lon="1.7834">
        <ele>300.2</ele>
        <time>2023-04-08T09:27:04Z</time>
      </trkpt>
      <trkpt lat="44.48422" lon="1.78349">
        <ele>299.3</ele>
        <time>2023-04-08T09:27:06Z</time>
      </trkpt>
      <trkpt lat="44.48413" lon="1.78358">
        <ele>298.8</ele>
        <time>2023-04-08T09:27:08Z</time>
      </trkpt>
      <trkpt lat="44.48404" lon="1.78366">
        <ele>298.6</ele>
        <time>2023-04-08T09:27:12Z</time>
      </trkpt>
      <trkpt lat="44.48395" lon="1.78371">
        <ele>298.4</ele>
        <time>2023-04-08T09:27:15Z</time>
      </trkpt>
      <trkpt lat="44.48386" lon="1.78379">
        <ele>298</ele>
        <time>2023-04-08T09:27:18Z</time>
      </trkpt>
      <trkpt lat="44.48378" lon="1.78386">
        <ele>297.7</ele>
        <time>2023-04-08T09:27:20Z</time>
      </trkpt>
      <trkpt lat="44.48368" lon="1.78389">
        <ele>297.4</ele>
        <time>2023-04-08T09:27:22Z</time>
      </trkpt>
      <trkpt lat="44.48359" lon="1.78393">
        <ele>297.2</ele>
        <time>2023-04-08T09:27:24Z</time>
      </trkpt>
      <trkpt lat="44.4835" lon="1.78395">
        <ele>297</ele>
        <time>2023-04-08T09:27:26Z</time>
      </trkpt>
      <trkpt lat="44.48341" lon="1.78399">
        <ele>296.7</ele>
        <time>2023-04-08T09:27:28Z</time>
      </trkpt>
      <trkpt lat="44.4833" lon="1.78403">
        <ele>296.3</ele>
        <time>2023-04-08T09:27:30Z</time>
      </trkpt>
      <trkpt lat="44.48319" lon="1.78405">
        <ele>295.8</ele>
        <time>2023-04-08T09:27:32Z</time>
      </trkpt>
      <trkpt lat="44.48308" lon="1.78406">
        <ele>295.2</ele>
        <time>2023-04-08T09:27:34Z</time>
      </trkpt>
      <trkpt lat="44.48297" lon="1.7841">
        <ele>294.4</ele>
        <time>2023-04-08T09:27:36Z</time>
      </trkpt>
      <trkpt lat="44.48287" lon="1.78415">
        <ele>293.5</ele>
        <time>2023-04-08T09:27:38Z</time>
      </trkpt>
      <trkpt lat="44.48277" lon="1.78417">
        <ele>292.8</ele>
        <time>2023-04-08T09:27:40Z</time>
      </trkpt>
      <trkpt lat="44.48268" lon="1.78418">
        <ele>292.1</ele>
        <time>2023-04-08T09:27:43Z</time>
      </trkpt>
      <trkpt lat="44.48255" lon="1.78422">
        <ele>290.8</ele>
        <time>2023-04-08T09:27:47Z</time>
      </trkpt>
      <trkpt lat="44.48246" lon="1.78427">
        <ele>289.6</ele>
        <time>2023-04-08T09:27:49Z</time>
      </trkpt>
      <trkpt lat="44.48236" lon="1.7843">
        <ele>288.3</ele>
        <time>2023-04-08T09:27:51Z</time>
      </trkpt>
      <trkpt lat="44.48224" lon="1.78434">
        <ele>286.3</ele>
        <time>2023-04-08T09:27:54Z</time>
      </trkpt>
      <trkpt lat="44.48211" lon="1.78439">
        <ele>284.3</ele>
        <time>2023-04-08T09:27:57Z</time>
      </trkpt>
      <trkpt lat="44.482" lon="1.78445">
        <ele>282.6</ele>
        <time>2023-04-08T09:28:01Z</time>
      </trkpt>
      <trkpt lat="44.48191" lon="1.78448">
        <ele>280.9</ele>
        <time>2023-04-08T09:28:04Z</time>
      </trkpt>
      <trkpt lat="44.4818" lon="1.78453">
        <ele>278.7</ele>
        <time>2023-04-08T09:28:06Z</time>
      </trkpt>
      <trkpt lat="44.48168" lon="1.78457">
        <ele>276.7</ele>
        <time>2023-04-08T09:28:08Z</time>
      </trkpt>
      <trkpt lat="44.48159" lon="1.78457">
        <ele>275.4</ele>
        <time>2023-04-08T09:28:10Z</time>
      </trkpt>
      <trkpt lat="44.48148" lon="1.78454">
        <ele>274.2</ele>
        <time>2023-04-08T09:28:13Z</time>
      </trkpt>
      <trkpt lat="44.48137" lon="1.7845">
        <ele>273.3</ele>
        <time>2023-04-08T09:28:16Z</time>
      </trkpt>
      <trkpt lat="44.48126" lon="1.78446">
        <ele>272.5</ele>
        <time>2023-04-08T09:28:19Z</time>
      </trkpt>
      <trkpt lat="44.48118" lon="1.78442">
        <ele>271.8</ele>
        <time>2023-04-08T09:28:22Z</time>
      </trkpt>
      <trkpt lat="44.48106" lon="1.78438">
        <ele>270.4</ele>
        <time>2023-04-08T09:28:26Z</time>
      </trkpt>
      <trkpt lat="44.48096" lon="1.78438">
        <ele>269.2</ele>
        <time>2023-04-08T09:28:28Z</time>
      </trkpt>
      <trkpt lat="44.48084" lon="1.78439">
        <ele>268.2</ele>
        <time>2023-04-08T09:28:30Z</time>
      </trkpt>
      <trkpt lat="44.48071" lon="1.78439">
        <ele>267.5</ele>
        <time>2023-04-08T09:28:32Z</time>
      </trkpt>
      <trkpt lat="44.48059" lon="1.78441">
        <ele>266.7</ele>
        <time>2023-04-08T09:28:34Z</time>
      </trkpt>
      <trkpt lat="44.48046" lon="1.78442">
        <ele>266</ele>
        <time>2023-04-08T09:28:36Z</time>
      </trkpt>
      <trkpt lat="44.48033" lon="1.78444">
        <ele>264.8</ele>
        <time>2023-04-08T09:28:38Z</time>
      </trkpt>
      <trkpt lat="44.4802" lon="1.7845">
        <ele>262.9</ele>
        <time>2023-04-08T09:28:40Z</time>
      </trkpt>
      <trkpt lat="44.48007" lon="1.78455">
        <ele>261</ele>
        <time>2023-04-08T09:28:42Z</time>
      </trkpt>
      <trkpt lat="44.47994" lon="1.7846">
        <ele>259.3</ele>
        <time>2023-04-08T09:28:44Z</time>
      </trkpt>
      <trkpt lat="44.47982" lon="1.78465">
        <ele>257.5</ele>
        <time>2023-04-08T09:28:46Z</time>
      </trkpt>
      <trkpt lat="44.47968" lon="1.78471">
        <ele>255.2</ele>
        <time>2023-04-08T09:28:48Z</time>
      </trkpt>
      <trkpt lat="44.47955" lon="1.78476">
        <ele>252.9</ele>
        <time>2023-04-08T09:28:50Z</time>
      </trkpt>
      <trkpt lat="44.47944" lon="1.78482">
        <ele>251.3</ele>
        <time>2023-04-08T09:28:52Z</time>
      </trkpt>
      <trkpt lat="44.47932" lon="1.78486">
        <ele>249.5</ele>
        <time>2023-04-08T09:28:54Z</time>
      </trkpt>
      <trkpt lat="44.47918" lon="1.78492">
        <ele>247.1</ele>
        <time>2023-04-08T09:28:56Z</time>
      </trkpt>
      <trkpt lat="44.47904" lon="1.78499">
        <ele>244.7</ele>
        <time>2023-04-08T09:28:58Z</time>
      </trkpt>
      <trkpt lat="44.47892" lon="1.78506">
        <ele>243.4</ele>
        <time>2023-04-08T09:29:00Z</time>
      </trkpt>
      <trkpt lat="44.47884" lon="1.78509">
        <ele>242.7</ele>
        <time>2023-04-08T09:29:02Z</time>
      </trkpt>
      <trkpt lat="44.47872" lon="1.78511">
        <ele>242.1</ele>
        <time>2023-04-08T09:29:05Z</time>
      </trkpt>
      <trkpt lat="44.47859" lon="1.78515">
        <ele>241.6</ele>
        <time>2023-04-08T09:29:08Z</time>
      </trkpt>
      <trkpt lat="44.47845" lon="1.78518">
        <ele>241.1</ele>
        <time>2023-04-08T09:29:11Z</time>
      </trkpt>
      <trkpt lat="44.47836" lon="1.78519">
        <ele>240.6</ele>
        <time>2023-04-08T09:29:13Z</time>
      </trkpt>
      <trkpt lat="44.47826" lon="1.7852">
        <ele>239.9</ele>
        <time>2023-04-08T09:29:15Z</time>
      </trkpt>
      <trkpt lat="44.47815" lon="1.7852">
        <ele>239.1</ele>
        <time>2023-04-08T09:29:17Z</time>
      </trkpt>
      <trkpt lat="44.47804" lon="1.78521">
        <ele>237.9</ele>
        <time>2023-04-08T09:29:19Z</time>
      </trkpt>
      <trkpt lat="44.47791" lon="1.7852">
        <ele>236.5</ele>
        <time>2023-04-08T09:29:21Z</time>
      </trkpt>
      <trkpt lat="44.47777" lon="1.7852">
        <ele>234.5</ele>
        <time>2023-04-08T09:29:23Z</time>
      </trkpt>
      <trkpt lat="44.47763" lon="1.78518">
        <ele>232.3</ele>
        <time>2023-04-08T09:29:25Z</time>
      </trkpt>
      <trkpt lat="44.47749" lon="1.78516">
        <ele>230.2</ele>
        <time>2023-04-08T09:29:27Z</time>
      </trkpt>
      <trkpt lat="44.47735" lon="1.78512">
        <ele>227.9</ele>
        <time>2023-04-08T09:29:29Z</time>
      </trkpt>
      <trkpt lat="44.47723" lon="1.78508">
        <ele>225</ele>
        <time>2023-04-08T09:29:31Z</time>
      </trkpt>
      <trkpt lat="44.47711" lon="1.78508">
        <ele>222.9</ele>
        <time>2023-04-08T09:29:33Z</time>
      </trkpt>
      <trkpt lat="44.47701" lon="1.78506">
        <ele>221.6</ele>
        <time>2023-04-08T09:29:35Z</time>
      </trkpt>
      <trkpt lat="44.47692" lon="1.78502">
        <ele>220.4</ele>
        <time>2023-04-08T09:29:37Z</time>
      </trkpt>
      <trkpt lat="44.47682" lon="1.78499">
        <ele>218.7</ele>
        <time>2023-04-08T09:29:39Z</time>
      </trkpt>
      <trkpt lat="44.47669" lon="1.78497">
        <ele>216.3</ele>
        <time>2023-04-08T09:29:41Z</time>
      </trkpt>
      <trkpt lat="44.47657" lon="1.78498">
        <ele>214</ele>
        <time>2023-04-08T09:29:43Z</time>
      </trkpt>
      <trkpt lat="44.47647" lon="1.78498">
        <ele>212.1</ele>
        <time>2023-04-08T09:29:45Z</time>
      </trkpt>
      <trkpt lat="44.47637" lon="1.78496">
        <ele>210.6</ele>
        <time>2023-04-08T09:29:47Z</time>
      </trkpt>
      <trkpt lat="44.47624" lon="1.78495">
        <ele>208.8</ele>
        <time>2023-04-08T09:29:49Z</time>
      </trkpt>
      <trkpt lat="44.47613" lon="1.78493">
        <ele>207.1</ele>
        <time>2023-04-08T09:29:51Z</time>
      </trkpt>
      <trkpt lat="44.47604" lon="1.7849">
        <ele>205.6</ele>
        <time>2023-04-08T09:29:53Z</time>
      </trkpt>
      <trkpt lat="44.47595" lon="1.78487">
        <ele>204.1</ele>
        <time>2023-04-08T09:29:55Z</time>
      </trkpt>
      <trkpt lat="44.47583" lon="1.78482">
        <ele>201.7</ele>
        <time>2023-04-08T09:29:58Z</time>
      </trkpt>
      <trkpt lat="44.4757" lon="1.78475">
        <ele>199.1</ele>
        <time>2023-04-08T09:30:01Z</time>
      </trkpt>
      <trkpt lat="44.47559" lon="1.78467">
        <ele>197.1</ele>
        <time>2023-04-08T09:30:03Z</time>
      </trkpt>
      <trkpt lat="44.47551" lon="1.7846">
        <ele>195.3</ele>
        <time>2023-04-08T09:30:05Z</time>
      </trkpt>
      <trkpt lat="44.47539" lon="1.78452">
        <ele>192.8</ele>
        <time>2023-04-08T09:30:08Z</time>
      </trkpt>
      <trkpt lat="44.47529" lon="1.78445">
        <ele>190.7</ele>
        <time>2023-04-08T09:30:11Z</time>
      </trkpt>
      <trkpt lat="44.47519" lon="1.7844">
        <ele>189</ele>
        <time>2023-04-08T09:30:14Z</time>
      </trkpt>
      <trkpt lat="44.47509" lon="1.78434">
        <ele>187.6</ele>
        <time>2023-04-08T09:30:17Z</time>
      </trkpt>
      <trkpt lat="44.47499" lon="1.78428">
        <ele>186.2</ele>
        <time>2023-04-08T09:30:20Z</time>
      </trkpt>
      <trkpt lat="44.47491" lon="1.78423">
        <ele>185.1</ele>
        <time>2023-04-08T09:30:26Z</time>
      </trkpt>
      <trkpt lat="44.47489" lon="1.78423">
        <ele>184.9</ele>
        <time>2023-04-08T09:30:29Z</time>
      </trkpt>
      <trkpt lat="44.47489" lon="1.78423">
        <ele>184.9</ele>
        <time>2023-04-08T09:30:37Z</time>
      </trkpt>
      <trkpt lat="44.47478" lon="1.78415">
        <ele>183.3</ele>
        <time>2023-04-08T09:30:45Z</time>
      </trkpt>
      <trkpt lat="44.47469" lon="1.7841">
        <ele>182</ele>
        <time>2023-04-08T09:30:47Z</time>
      </trkpt>
      <trkpt lat="44.47457" lon="1.78406">
        <ele>180.7</ele>
        <time>2023-04-08T09:30:49Z</time>
      </trkpt>
      <trkpt lat="44.47445" lon="1.784">
        <ele>179.9</ele>
        <time>2023-04-08T09:30:51Z</time>
      </trkpt>
      <trkpt lat="44.47433" lon="1.78394">
        <ele>179.4</ele>
        <time>2023-04-08T09:30:53Z</time>
      </trkpt>
      <trkpt lat="44.47422" lon="1.78388">
        <ele>178.2</ele>
        <time>2023-04-08T09:30:55Z</time>
      </trkpt>
      <trkpt lat="44.4741" lon="1.78385">
        <ele>176.7</ele>
        <time>2023-04-08T09:30:57Z</time>
      </trkpt>
      <trkpt lat="44.47401" lon="1.78379">
        <ele>175.6</ele>
        <time>2023-04-08T09:31:00Z</time>
      </trkpt>
      <trkpt lat="44.47401" lon="1.78379">
        <ele>175.6</ele>
        <time>2023-04-08T09:31:01Z</time>
      </trkpt>
      <trkpt lat="44.47401" lon="1.78379">
        <ele>175.6</ele>
        <time>2023-04-08T09:31:02Z</time>
      </trkpt>
      <trkpt lat="44.47401" lon="1.78379">
        <ele>175.6</ele>
        <time>2023-04-08T09:31:03Z</time>
      </trkpt>
      <trkpt lat="44.47401" lon="1.78378">
        <ele>175.5</ele>
        <time>2023-04-08T09:31:05Z</time>
      </trkpt>
      <trkpt lat="44.47401" lon="1.78375">
        <ele>175.2</ele>
        <time>2023-04-08T09:31:18Z</time>
      </trkpt>
      <trkpt lat="44.47401" lon="1.78375">
        <ele>175.1</ele>
        <time>2023-04-08T09:31:20Z</time>
      </trkpt>
      <trkpt lat="44.474" lon="1.78374">
        <ele>174.9</ele>
        <time>2023-04-08T09:31:23Z</time>
      </trkpt>
      <trkpt lat="44.474" lon="1.78374">
        <ele>174.9</ele>
        <time>2023-04-08T09:31:25Z</time>
      </trkpt>
      <trkpt lat="44.47391" lon="1.78371">
        <ele>173.2</ele>
        <time>2023-04-08T09:31:29Z</time>
      </trkpt>
      <trkpt lat="44.4738" lon="1.78369">
        <ele>173</ele>
        <time>2023-04-08T09:31:32Z</time>
      </trkpt>
      <trkpt lat="44.47377" lon="1.78365">
        <ele>173.8</ele>
        <time>2023-04-08T09:31:37Z</time>
      </trkpt>
      <trkpt lat="44.47377" lon="1.78365">
        <ele>173.8</ele>
        <time>2023-04-08T09:31:52Z</time>
      </trkpt>
      <trkpt lat="44.47377" lon="1.78365">
        <ele>173.8</ele>
        <time>2023-04-08T09:31:53Z</time>
      </trkpt>
      <trkpt lat="44.47378" lon="1.78365">
        <ele>173.9</ele>
        <time>2023-04-08T09:32:45Z</time>
      </trkpt>
      <trkpt lat="44.47378" lon="1.78365">
        <ele>173.9</ele>
        <time>2023-04-08T09:32:46Z</time>
      </trkpt>
      <trkpt lat="44.47378" lon="1.78365">
        <ele>173.9</ele>
        <time>2023-04-08T09:34:24Z</time>
      </trkpt>
      <trkpt lat="44.47378" lon="1.78365">
        <ele>173.9</ele>
        <time>2023-04-08T09:34:25Z</time>
      </trkpt>
      <trkpt lat="44.47378" lon="1.78365">
        <ele>174</ele>
        <time>2023-04-08T09:34:31Z</time>
      </trkpt>
      <trkpt lat="44.47378" lon="1.78365">
        <ele>174</ele>
        <time>2023-04-08T09:34:32Z</time>
      </trkpt>
      <trkpt lat="44.47378" lon="1.78365">
        <ele>174</ele>
        <time>2023-04-08T09:34:35Z</time>
      </trkpt>
      <trkpt lat="44.47378" lon="1.78365">
        <ele>174</ele>
        <time>2023-04-08T09:34:36Z</time>
      </trkpt>
      <trkpt lat="44.47378" lon="1.78365">
        <ele>174.1</ele>
        <time>2023-04-08T09:35:21Z</time>
      </trkpt>
      <trkpt lat="44.47371" lon="1.78354">
        <ele>175.3</ele>
        <time>2023-04-08T09:35:31Z</time>
      </trkpt>
      <trkpt lat="44.47359" lon="1.78347">
        <ele>172</ele>
        <time>2023-04-08T09:35:35Z</time>
      </trkpt>
      <trkpt lat="44.4735" lon="1.78341">
        <ele>169.5</ele>
        <time>2023-04-08T09:35:37Z</time>
      </trkpt>
      <trkpt lat="44.47337" lon="1.78334">
        <ele>166.2</ele>
        <time>2023-04-08T09:35:40Z</time>
      </trkpt>
      <trkpt lat="44.47329" lon="1.78328">
        <ele>164.5</ele>
        <time>2023-04-08T09:35:42Z</time>
      </trkpt>
      <trkpt lat="44.47321" lon="1.78322">
        <ele>163</ele>
        <time>2023-04-08T09:35:44Z</time>
      </trkpt>
      <trkpt lat="44.4731" lon="1.78314">
        <ele>161.2</ele>
        <time>2023-04-08T09:35:47Z</time>
      </trkpt>
      <trkpt lat="44.47302" lon="1.78307">
        <ele>159.9</ele>
        <time>2023-04-08T09:35:50Z</time>
      </trkpt>
      <trkpt lat="44.47292" lon="1.78303">
        <ele>149.7</ele>
        <time>2023-04-08T09:35:54Z</time>
      </trkpt>
      <trkpt lat="44.47284" lon="1.78315">
        <ele>149.2</ele>
        <time>2023-04-08T09:35:57Z</time>
      </trkpt>
      <trkpt lat="44.47277" lon="1.78325">
        <ele>149.3</ele>
        <time>2023-04-08T09:36:00Z</time>
      </trkpt>
      <trkpt lat="44.47267" lon="1.78331">
        <ele>149.4</ele>
        <time>2023-04-08T09:36:04Z</time>
      </trkpt>
      <trkpt lat="44.47264" lon="1.78341">
        <ele>149.8</ele>
        <time>2023-04-08T09:36:20Z</time>
      </trkpt>
      <trkpt lat="44.47264" lon="1.78341">
        <ele>149.8</ele>
        <time>2023-04-08T09:36:26Z</time>
      </trkpt>
      <trkpt lat="44.47264" lon="1.78341">
        <ele>149.8</ele>
        <time>2023-04-08T09:36:28Z</time>
      </trkpt>
      <trkpt lat="44.47264" lon="1.78341">
        <ele>149.8</ele>
        <time>2023-04-08T09:36:36Z</time>
      </trkpt>
      <trkpt lat="44.47269" lon="1.7833">
        <ele>149.7</ele>
        <time>2023-04-08T09:36:45Z</time>
      </trkpt>
      <trkpt lat="44.47273" lon="1.78327">
        <ele>149.7</ele>
        <time>2023-04-08T09:36:49Z</time>
      </trkpt>
      <trkpt lat="44.47273" lon="1.78327">
        <ele>149.7</ele>
        <time>2023-04-08T09:37:03Z</time>
      </trkpt>
      <trkpt lat="44.47273" lon="1.78328">
        <ele>149.7</ele>
        <time>2023-04-08T09:37:05Z</time>
      </trkpt>
      <trkpt lat="44.47273" lon="1.78328">
        <ele>149.7</ele>
        <time>2023-04-08T09:37:06Z</time>
      </trkpt>
      <trkpt lat="44.47266" lon="1.78336">
        <ele>149.6</ele>
        <time>2023-04-08T09:37:15Z</time>
      </trkpt>
      <trkpt lat="44.4726" lon="1.78349">
        <ele>150.4</ele>
        <time>2023-04-08T09:37:20Z</time>
      </trkpt>
      <trkpt lat="44.4726" lon="1.78363">
        <ele>152.1</ele>
        <time>2023-04-08T09:37:25Z</time>
      </trkpt>
      <trkpt lat="44.47266" lon="1.78376">
        <ele>154.1</ele>
        <time>2023-04-08T09:37:30Z</time>
      </trkpt>
      <trkpt lat="44.47271" lon="1.78387">
        <ele>155.8</ele>
        <time>2023-04-08T09:37:34Z</time>
      </trkpt>
      <trkpt lat="44.47276" lon="1.78399">
        <ele>157.7</ele>
        <time>2023-04-08T09:37:39Z</time>
      </trkpt>
      <trkpt lat="44.47278" lon="1.78404">
        <ele>158.5</ele>
        <time>2023-04-08T09:37:43Z</time>
      </trkpt>
      <trkpt lat="44.47277" lon="1.78404">
        <ele>158.5</ele>
        <time>2023-04-08T09:37:57Z</time>
      </trkpt>
      <trkpt lat="44.47282" lon="1.78415">
        <ele>160.2</ele>
        <time>2023-04-08T09:38:05Z</time>
      </trkpt>
      <trkpt lat="44.47287" lon="1.78428">
        <ele>162.1</ele>
        <time>2023-04-08T09:38:10Z</time>
      </trkpt>
      <trkpt lat="44.47293" lon="1.78439">
        <ele>163.7</ele>
        <time>2023-04-08T09:38:14Z</time>
      </trkpt>
      <trkpt lat="44.47298" lon="1.78452">
        <ele>164.4</ele>
        <time>2023-04-08T09:38:18Z</time>
      </trkpt>
      <trkpt lat="44.47302" lon="1.78464">
        <ele>164.9</ele>
        <time>2023-04-08T09:38:22Z</time>
      </trkpt>
      <trkpt lat="44.47307" lon="1.78475">
        <ele>165.5</ele>
        <time>2023-04-08T09:38:26Z</time>
      </trkpt>
      <trkpt lat="44.47314" lon="1.78488">
        <ele>166.2</ele>
        <time>2023-04-08T09:38:31Z</time>
      </trkpt>
      <trkpt lat="44.4732" lon="1.78498">
        <ele>167</ele>
        <time>2023-04-08T09:38:35Z</time>
      </trkpt>
      <trkpt lat="44.47328" lon="1.78509">
        <ele>167.8</ele>
        <time>2023-04-08T09:38:40Z</time>
      </trkpt>
      <trkpt lat="44.47336" lon="1.7852">
        <ele>168.7</ele>
        <time>2023-04-08T09:38:45Z</time>
      </trkpt>
      <trkpt lat="44.47343" lon="1.7853">
        <ele>169.4</ele>
        <time>2023-04-08T09:38:50Z</time>
      </trkpt>
      <trkpt lat="44.4735" lon="1.78539">
        <ele>170.1</ele>
        <time>2023-04-08T09:38:54Z</time>
      </trkpt>
      <trkpt lat="44.47358" lon="1.7855">
        <ele>171</ele>
        <time>2023-04-08T09:38:59Z</time>
      </trkpt>
      <trkpt lat="44.47365" lon="1.7856">
        <ele>171.7</ele>
        <time>2023-04-08T09:39:04Z</time>
      </trkpt>
      <trkpt lat="44.47372" lon="1.78569">
        <ele>172.4</ele>
        <time>2023-04-08T09:39:09Z</time>
      </trkpt>
      <trkpt lat="44.47379" lon="1.78578">
        <ele>173.1</ele>
        <time>2023-04-08T09:39:14Z</time>
      </trkpt>
      <trkpt lat="44.47387" lon="1.7859">
        <ele>173.9</ele>
        <time>2023-04-08T09:39:19Z</time>
      </trkpt>
      <trkpt lat="44.47394" lon="1.786">
        <ele>174.7</ele>
        <time>2023-04-08T09:39:24Z</time>
      </trkpt>
      <trkpt lat="44.47401" lon="1.7861">
        <ele>175.5</ele>
        <time>2023-04-08T09:39:29Z</time>
      </trkpt>
      <trkpt lat="44.47408" lon="1.78622">
        <ele>176.2</ele>
        <time>2023-04-08T09:39:34Z</time>
      </trkpt>
      <trkpt lat="44.47414" lon="1.78631">
        <ele>176.7</ele>
        <time>2023-04-08T09:39:38Z</time>
      </trkpt>
      <trkpt lat="44.47417" lon="1.78644">
        <ele>179</ele>
        <time>2023-04-08T09:39:43Z</time>
      </trkpt>
      <trkpt lat="44.47407" lon="1.78637">
        <ele>181</ele>
        <time>2023-04-08T09:39:49Z</time>
      </trkpt>
      <trkpt lat="44.47398" lon="1.7863">
        <ele>182.8</ele>
        <time>2023-04-08T09:39:54Z</time>
      </trkpt>
      <trkpt lat="44.47388" lon="1.78625">
        <ele>184.8</ele>
        <time>2023-04-08T09:39:59Z</time>
      </trkpt>
      <trkpt lat="44.47379" lon="1.78619">
        <ele>186.6</ele>
        <time>2023-04-08T09:40:04Z</time>
      </trkpt>
      <trkpt lat="44.47369" lon="1.78615">
        <ele>188.7</ele>
        <time>2023-04-08T09:40:09Z</time>
      </trkpt>
      <trkpt lat="44.4736" lon="1.78614">
        <ele>189.9</ele>
        <time>2023-04-08T09:40:14Z</time>
      </trkpt>
      <trkpt lat="44.47367" lon="1.78624">
        <ele>191.4</ele>
        <time>2023-04-08T09:40:21Z</time>
      </trkpt>
      <trkpt lat="44.47374" lon="1.78634">
        <ele>192.9</ele>
        <time>2023-04-08T09:40:27Z</time>
      </trkpt>
      <trkpt lat="44.47381" lon="1.78644">
        <ele>194.4</ele>
        <time>2023-04-08T09:40:32Z</time>
      </trkpt>
      <trkpt lat="44.47388" lon="1.78653">
        <ele>195.8</ele>
        <time>2023-04-08T09:40:36Z</time>
      </trkpt>
      <trkpt lat="44.47396" lon="1.78663">
        <ele>197.4</ele>
        <time>2023-04-08T09:40:41Z</time>
      </trkpt>
      <trkpt lat="44.47404" lon="1.78673">
        <ele>199</ele>
        <time>2023-04-08T09:40:46Z</time>
      </trkpt>
      <trkpt lat="44.47412" lon="1.78684">
        <ele>200.8</ele>
        <time>2023-04-08T09:40:51Z</time>
      </trkpt>
      <trkpt lat="44.47418" lon="1.78695">
        <ele>202.5</ele>
        <time>2023-04-08T09:40:56Z</time>
      </trkpt>
      <trkpt lat="44.47424" lon="1.78707">
        <ele>204.3</ele>
        <time>2023-04-08T09:41:01Z</time>
      </trkpt>
      <trkpt lat="44.4743" lon="1.78718">
        <ele>206.1</ele>
        <time>2023-04-08T09:41:06Z</time>
      </trkpt>
      <trkpt lat="44.47436" lon="1.78729">
        <ele>207.6</ele>
        <time>2023-04-08T09:41:11Z</time>
      </trkpt>
      <trkpt lat="44.47442" lon="1.78742">
        <ele>209</ele>
        <time>2023-04-08T09:41:16Z</time>
      </trkpt>
      <trkpt lat="44.47449" lon="1.7875">
        <ele>210.2</ele>
        <time>2023-04-08T09:41:20Z</time>
      </trkpt>
      <trkpt lat="44.47457" lon="1.78758">
        <ele>211.2</ele>
        <time>2023-04-08T09:41:24Z</time>
      </trkpt>
      <trkpt lat="44.47465" lon="1.78766">
        <ele>212.3</ele>
        <time>2023-04-08T09:41:28Z</time>
      </trkpt>
      <trkpt lat="44.47472" lon="1.78775">
        <ele>213.4</ele>
        <time>2023-04-08T09:41:32Z</time>
      </trkpt>
      <trkpt lat="44.47479" lon="1.78784">
        <ele>214.7</ele>
        <time>2023-04-08T09:41:36Z</time>
      </trkpt>
      <trkpt lat="44.47487" lon="1.78794">
        <ele>216.4</ele>
        <time>2023-04-08T09:41:41Z</time>
      </trkpt>
      <trkpt lat="44.47495" lon="1.78806">
        <ele>218.3</ele>
        <time>2023-04-08T09:41:46Z</time>
      </trkpt>
      <trkpt lat="44.47502" lon="1.78816">
        <ele>220.3</ele>
        <time>2023-04-08T09:41:51Z</time>
      </trkpt>
      <trkpt lat="44.47509" lon="1.78826">
        <ele>222.1</ele>
        <time>2023-04-08T09:41:56Z</time>
      </trkpt>
      <trkpt lat="44.47516" lon="1.78837">
        <ele>224</ele>
        <time>2023-04-08T09:42:01Z</time>
      </trkpt>
      <trkpt lat="44.47523" lon="1.78847">
        <ele>225.7</ele>
        <time>2023-04-08T09:42:06Z</time>
      </trkpt>
      <trkpt lat="44.47528" lon="1.78859">
        <ele>227.5</ele>
        <time>2023-04-08T09:42:11Z</time>
      </trkpt>
      <trkpt lat="44.47533" lon="1.7887">
        <ele>229</ele>
        <time>2023-04-08T09:42:16Z</time>
      </trkpt>
      <trkpt lat="44.47536" lon="1.78883">
        <ele>230.4</ele>
        <time>2023-04-08T09:42:21Z</time>
      </trkpt>
      <trkpt lat="44.47539" lon="1.78897">
        <ele>231.7</ele>
        <time>2023-04-08T09:42:26Z</time>
      </trkpt>
      <trkpt lat="44.47541" lon="1.78911">
        <ele>232.9</ele>
        <time>2023-04-08T09:42:31Z</time>
      </trkpt>
      <trkpt lat="44.47542" lon="1.78924">
        <ele>233.8</ele>
        <time>2023-04-08T09:42:35Z</time>
      </trkpt>
      <trkpt lat="44.47545" lon="1.78936">
        <ele>234.7</ele>
        <time>2023-04-08T09:42:39Z</time>
      </trkpt>
      <trkpt lat="44.47551" lon="1.78946">
        <ele>235.6</ele>
        <time>2023-04-08T09:42:43Z</time>
      </trkpt>
      <trkpt lat="44.47557" lon="1.78956">
        <ele>236.5</ele>
        <time>2023-04-08T09:42:47Z</time>
      </trkpt>
      <trkpt lat="44.47564" lon="1.78967">
        <ele>237.5</ele>
        <time>2023-04-08T09:42:51Z</time>
      </trkpt>
      <trkpt lat="44.47571" lon="1.78977">
        <ele>238.6</ele>
        <time>2023-04-08T09:42:55Z</time>
      </trkpt>
      <trkpt lat="44.47576" lon="1.78988">
        <ele>239.9</ele>
        <time>2023-04-08T09:42:59Z</time>
      </trkpt>
      <trkpt lat="44.4758" lon="1.79">
        <ele>241.3</ele>
        <time>2023-04-08T09:43:03Z</time>
      </trkpt>
      <trkpt lat="44.47583" lon="1.79013">
        <ele>242.8</ele>
        <time>2023-04-08T09:43:07Z</time>
      </trkpt>
      <trkpt lat="44.47586" lon="1.79026">
        <ele>244.3</ele>
        <time>2023-04-08T09:43:11Z</time>
      </trkpt>
      <trkpt lat="44.47585" lon="1.79041">
        <ele>246</ele>
        <time>2023-04-08T09:43:16Z</time>
      </trkpt>
      <trkpt lat="44.47585" lon="1.79055">
        <ele>247.6</ele>
        <time>2023-04-08T09:43:21Z</time>
      </trkpt>
      <trkpt lat="44.47584" lon="1.79069">
        <ele>249.2</ele>
        <time>2023-04-08T09:43:26Z</time>
      </trkpt>
      <trkpt lat="44.47582" lon="1.79083">
        <ele>250.9</ele>
        <time>2023-04-08T09:43:31Z</time>
      </trkpt>
      <trkpt lat="44.47581" lon="1.79096">
        <ele>252.6</ele>
        <time>2023-04-08T09:43:36Z</time>
      </trkpt>
      <trkpt lat="44.47579" lon="1.79109">
        <ele>254.2</ele>
        <time>2023-04-08T09:43:41Z</time>
      </trkpt>
      <trkpt lat="44.47577" lon="1.79122">
        <ele>255.6</ele>
        <time>2023-04-08T09:43:46Z</time>
      </trkpt>
      <trkpt lat="44.47577" lon="1.79136">
        <ele>256.8</ele>
        <time>2023-04-08T09:43:51Z</time>
      </trkpt>
      <trkpt lat="44.47582" lon="1.7915">
        <ele>257.7</ele>
        <time>2023-04-08T09:43:55Z</time>
      </trkpt>
      <trkpt lat="44.47587" lon="1.79162">
        <ele>258.3</ele>
        <time>2023-04-08T09:43:59Z</time>
      </trkpt>
      <trkpt lat="44.47595" lon="1.79173">
        <ele>259</ele>
        <time>2023-04-08T09:44:03Z</time>
      </trkpt>
      <trkpt lat="44.47601" lon="1.79183">
        <ele>259.6</ele>
        <time>2023-04-08T09:44:06Z</time>
      </trkpt>
      <trkpt lat="44.47608" lon="1.79192">
        <ele>260.3</ele>
        <time>2023-04-08T09:44:09Z</time>
      </trkpt>
      <trkpt lat="44.47617" lon="1.79201">
        <ele>260.2</ele>
        <time>2023-04-08T09:44:13Z</time>
      </trkpt>
      <trkpt lat="44.47629" lon="1.79206">
        <ele>259.5</ele>
        <time>2023-04-08T09:44:17Z</time>
      </trkpt>
      <trkpt lat="44.47639" lon="1.79212">
        <ele>259.1</ele>
        <time>2023-04-08T09:44:21Z</time>
      </trkpt>
      <trkpt lat="44.47649" lon="1.79218">
        <ele>258.9</ele>
        <time>2023-04-08T09:44:25Z</time>
      </trkpt>
      <trkpt lat="44.47657" lon="1.79223">
        <ele>258.8</ele>
        <time>2023-04-08T09:44:29Z</time>
      </trkpt>
      <trkpt lat="44.47666" lon="1.79228">
        <ele>258.8</ele>
        <time>2023-04-08T09:44:33Z</time>
      </trkpt>
      <trkpt lat="44.47675" lon="1.7923">
        <ele>258.7</ele>
        <time>2023-04-08T09:44:37Z</time>
      </trkpt>
      <trkpt lat="44.47686" lon="1.79229">
        <ele>258.8</ele>
        <time>2023-04-08T09:44:42Z</time>
      </trkpt>
      <trkpt lat="44.47695" lon="1.79233">
        <ele>259.9</ele>
        <time>2023-04-08T09:44:47Z</time>
      </trkpt>
      <trkpt lat="44.477" lon="1.79237">
        <ele>260.4</ele>
        <time>2023-04-08T09:44:53Z</time>
      </trkpt>
      <trkpt lat="44.47701" lon="1.79237">
        <ele>260.4</ele>
        <time>2023-04-08T09:44:54Z</time>
      </trkpt>
      <trkpt lat="44.47701" lon="1.79237">
        <ele>260.4</ele>
        <time>2023-04-08T09:44:55Z</time>
      </trkpt>
      <trkpt lat="44.477" lon="1.79237">
        <ele>260.4</ele>
        <time>2023-04-08T09:47:08Z</time>
      </trkpt>
      <trkpt lat="44.47701" lon="1.79238">
        <ele>260.4</ele>
        <time>2023-04-08T09:47:11Z</time>
      </trkpt>
      <trkpt lat="44.47701" lon="1.79238">
        <ele>260.4</ele>
        <time>2023-04-08T09:48:00Z</time>
      </trkpt>
      <trkpt lat="44.47709" lon="1.79245">
        <ele>260.8</ele>
        <time>2023-04-08T09:48:05Z</time>
      </trkpt>
      <trkpt lat="44.47717" lon="1.79254">
        <ele>261</ele>
        <time>2023-04-08T09:48:08Z</time>
      </trkpt>
      <trkpt lat="44.47726" lon="1.79263">
        <ele>261.1</ele>
        <time>2023-04-08T09:48:11Z</time>
      </trkpt>
      <trkpt lat="44.47738" lon="1.79272">
        <ele>261.3</ele>
        <time>2023-04-08T09:48:14Z</time>
      </trkpt>
      <trkpt lat="44.47747" lon="1.79283">
        <ele>261.5</ele>
        <time>2023-04-08T09:48:17Z</time>
      </trkpt>
      <trkpt lat="44.47754" lon="1.79293">
        <ele>261.7</ele>
        <time>2023-04-08T09:48:20Z</time>
      </trkpt>
      <trkpt lat="44.47762" lon="1.79303">
        <ele>261.9</ele>
        <time>2023-04-08T09:48:23Z</time>
      </trkpt>
      <trkpt lat="44.4777" lon="1.79313">
        <ele>262.2</ele>
        <time>2023-04-08T09:48:26Z</time>
      </trkpt>
      <trkpt lat="44.47778" lon="1.79321">
        <ele>262.4</ele>
        <time>2023-04-08T09:48:29Z</time>
      </trkpt>
      <trkpt lat="44.47786" lon="1.79329">
        <ele>262.5</ele>
        <time>2023-04-08T09:48:32Z</time>
      </trkpt>
      <trkpt lat="44.47793" lon="1.79339">
        <ele>262.6</ele>
        <time>2023-04-08T09:48:35Z</time>
      </trkpt>
      <trkpt lat="44.47801" lon="1.79348">
        <ele>263.2</ele>
        <time>2023-04-08T09:48:38Z</time>
      </trkpt>
      <trkpt lat="44.47812" lon="1.79355">
        <ele>264.1</ele>
        <time>2023-04-08T09:48:41Z</time>
      </trkpt>
      <trkpt lat="44.47821" lon="1.79359">
        <ele>264.8</ele>
        <time>2023-04-08T09:48:44Z</time>
      </trkpt>
      <trkpt lat="44.47831" lon="1.79355">
        <ele>265.5</ele>
        <time>2023-04-08T09:48:48Z</time>
      </trkpt>
      <trkpt lat="44.47842" lon="1.79352">
        <ele>266.2</ele>
        <time>2023-04-08T09:48:52Z</time>
      </trkpt>
      <trkpt lat="44.47851" lon="1.79352">
        <ele>266.8</ele>
        <time>2023-04-08T09:48:55Z</time>
      </trkpt>
      <trkpt lat="44.47862" lon="1.79356">
        <ele>267.7</ele>
        <time>2023-04-08T09:48:59Z</time>
      </trkpt>
      <trkpt lat="44.47873" lon="1.79361">
        <ele>268.3</ele>
        <time>2023-04-08T09:49:03Z</time>
      </trkpt>
      <trkpt lat="44.4788" lon="1.79373">
        <ele>269</ele>
        <time>2023-04-08T09:49:07Z</time>
      </trkpt>
      <trkpt lat="44.47889" lon="1.79384">
        <ele>269.7</ele>
        <time>2023-04-08T09:49:11Z</time>
      </trkpt>
      <trkpt lat="44.47895" lon="1.79396">
        <ele>270.3</ele>
        <time>2023-04-08T09:49:15Z</time>
      </trkpt>
      <trkpt lat="44.47898" lon="1.79408">
        <ele>271</ele>
        <time>2023-04-08T09:49:19Z</time>
      </trkpt>
      <trkpt lat="44.47904" lon="1.79417">
        <ele>271.6</ele>
        <time>2023-04-08T09:49:24Z</time>
      </trkpt>
      <trkpt lat="44.47914" lon="1.79424">
        <ele>272.3</ele>
        <time>2023-04-08T09:49:29Z</time>
      </trkpt>
      <trkpt lat="44.47921" lon="1.79435">
        <ele>272.8</ele>
        <time>2023-04-08T09:49:33Z</time>
      </trkpt>
      <trkpt lat="44.47927" lon="1.79445">
        <ele>273.2</ele>
        <time>2023-04-08T09:49:36Z</time>
      </trkpt>
      <trkpt lat="44.47932" lon="1.79454">
        <ele>273.6</ele>
        <time>2023-04-08T09:49:41Z</time>
      </trkpt>
      <trkpt lat="44.47933" lon="1.79453">
        <ele>273.6</ele>
        <time>2023-04-08T09:49:45Z</time>
      </trkpt>
      <trkpt lat="44.47943" lon="1.79456">
        <ele>274</ele>
        <time>2023-04-08T09:49:53Z</time>
      </trkpt>
      <trkpt lat="44.47955" lon="1.79459">
        <ele>274.5</ele>
        <time>2023-04-08T09:49:57Z</time>
      </trkpt>
      <trkpt lat="44.47964" lon="1.79463">
        <ele>274.9</ele>
        <time>2023-04-08T09:50:00Z</time>
      </trkpt>
      <trkpt lat="44.47972" lon="1.79474">
        <ele>275.4</ele>
        <time>2023-04-08T09:50:03Z</time>
      </trkpt>
      <trkpt lat="44.47978" lon="1.79485">
        <ele>275.9</ele>
        <time>2023-04-08T09:50:06Z</time>
      </trkpt>
      <trkpt lat="44.47986" lon="1.79495">
        <ele>276.3</ele>
        <time>2023-04-08T09:50:09Z</time>
      </trkpt>
      <trkpt lat="44.47994" lon="1.79503">
        <ele>276.5</ele>
        <time>2023-04-08T09:50:12Z</time>
      </trkpt>
      <trkpt lat="44.48" lon="1.79512">
        <ele>276.7</ele>
        <time>2023-04-08T09:50:15Z</time>
      </trkpt>
      <trkpt lat="44.48006" lon="1.79526">
        <ele>277.1</ele>
        <time>2023-04-08T09:50:18Z</time>
      </trkpt>
      <trkpt lat="44.48009" lon="1.79539">
        <ele>277.5</ele>
        <time>2023-04-08T09:50:23Z</time>
      </trkpt>
      <trkpt lat="44.48013" lon="1.79553">
        <ele>277.6</ele>
        <time>2023-04-08T09:50:27Z</time>
      </trkpt>
      <trkpt lat="44.48014" lon="1.79566">
        <ele>277.8</ele>
        <time>2023-04-08T09:50:31Z</time>
      </trkpt>
      <trkpt lat="44.48015" lon="1.79582">
        <ele>278.1</ele>
        <time>2023-04-08T09:50:35Z</time>
      </trkpt>
      <trkpt lat="44.48023" lon="1.79591">
        <ele>278.5</ele>
        <time>2023-04-08T09:50:39Z</time>
      </trkpt>
      <trkpt lat="44.4803" lon="1.79602">
        <ele>278.9</ele>
        <time>2023-04-08T09:50:43Z</time>
      </trkpt>
      <trkpt lat="44.48036" lon="1.79615">
        <ele>279.2</ele>
        <time>2023-04-08T09:50:48Z</time>
      </trkpt>
      <trkpt lat="44.4804" lon="1.79631">
        <ele>279.7</ele>
        <time>2023-04-08T09:50:52Z</time>
      </trkpt>
      <trkpt lat="44.48047" lon="1.79642">
        <ele>280.2</ele>
        <time>2023-04-08T09:50:57Z</time>
      </trkpt>
      <trkpt lat="44.48054" lon="1.79653">
        <ele>280.7</ele>
        <time>2023-04-08T09:51:01Z</time>
      </trkpt>
      <trkpt lat="44.48057" lon="1.79666">
        <ele>281.1</ele>
        <time>2023-04-08T09:51:05Z</time>
      </trkpt>
      <trkpt lat="44.48059" lon="1.79679">
        <ele>281.6</ele>
        <time>2023-04-08T09:51:09Z</time>
      </trkpt>
      <trkpt lat="44.48063" lon="1.79692">
        <ele>282</ele>
        <time>2023-04-08T09:51:13Z</time>
      </trkpt>
      <trkpt lat="44.48066" lon="1.79705">
        <ele>282.2</ele>
        <time>2023-04-08T09:51:17Z</time>
      </trkpt>
      <trkpt lat="44.48067" lon="1.79708">
        <ele>282.3</ele>
        <time>2023-04-08T09:51:21Z</time>
      </trkpt>
      <trkpt lat="44.48068" lon="1.79708">
        <ele>282.3</ele>
        <time>2023-04-08T09:51:23Z</time>
      </trkpt>
      <trkpt lat="44.48075" lon="1.7972">
        <ele>282.6</ele>
        <time>2023-04-08T09:51:28Z</time>
      </trkpt>
      <trkpt lat="44.48078" lon="1.79736">
        <ele>282.9</ele>
        <time>2023-04-08T09:51:31Z</time>
      </trkpt>
      <trkpt lat="44.48083" lon="1.79752">
        <ele>283.4</ele>
        <time>2023-04-08T09:51:34Z</time>
      </trkpt>
      <trkpt lat="44.48085" lon="1.79766">
        <ele>284</ele>
        <time>2023-04-08T09:51:37Z</time>
      </trkpt>
      <trkpt lat="44.48083" lon="1.7978">
        <ele>284.9</ele>
        <time>2023-04-08T09:51:41Z</time>
      </trkpt>
      <trkpt lat="44.4809" lon="1.79791">
        <ele>285.7</ele>
        <time>2023-04-08T09:51:46Z</time>
      </trkpt>
      <trkpt lat="44.48099" lon="1.79801">
        <ele>286.1</ele>
        <time>2023-04-08T09:51:50Z</time>
      </trkpt>
      <trkpt lat="44.48108" lon="1.79812">
        <ele>286.4</ele>
        <time>2023-04-08T09:51:53Z</time>
      </trkpt>
      <trkpt lat="44.48117" lon="1.79819">
        <ele>286.4</ele>
        <time>2023-04-08T09:51:56Z</time>
      </trkpt>
      <trkpt lat="44.48126" lon="1.79828">
        <ele>286.2</ele>
        <time>2023-04-08T09:51:59Z</time>
      </trkpt>
      <trkpt lat="44.48137" lon="1.79836">
        <ele>285.8</ele>
        <time>2023-04-08T09:52:02Z</time>
      </trkpt>
      <trkpt lat="44.48148" lon="1.79845">
        <ele>285.2</ele>
        <time>2023-04-08T09:52:05Z</time>
      </trkpt>
      <trkpt lat="44.48156" lon="1.79851">
        <ele>284.7</ele>
        <time>2023-04-08T09:52:07Z</time>
      </trkpt>
      <trkpt lat="44.48168" lon="1.79858">
        <ele>283.8</ele>
        <time>2023-04-08T09:52:10Z</time>
      </trkpt>
      <trkpt lat="44.4818" lon="1.79866">
        <ele>282.4</ele>
        <time>2023-04-08T09:52:13Z</time>
      </trkpt>
      <trkpt lat="44.48188" lon="1.79878">
        <ele>280.4</ele>
        <time>2023-04-08T09:52:16Z</time>
      </trkpt>
      <trkpt lat="44.48195" lon="1.79892">
        <ele>278.6</ele>
        <time>2023-04-08T09:52:19Z</time>
      </trkpt>
      <trkpt lat="44.48202" lon="1.79902">
        <ele>277.1</ele>
        <time>2023-04-08T09:52:22Z</time>
      </trkpt>
      <trkpt lat="44.48213" lon="1.79913">
        <ele>275.2</ele>
        <time>2023-04-08T09:52:25Z</time>
      </trkpt>
      <trkpt lat="44.4822" lon="1.79921">
        <ele>274.1</ele>
        <time>2023-04-08T09:52:27Z</time>
      </trkpt>
      <trkpt lat="44.48228" lon="1.79934">
        <ele>272.9</ele>
        <time>2023-04-08T09:52:30Z</time>
      </trkpt>
      <trkpt lat="44.48231" lon="1.79948">
        <ele>272.5</ele>
        <time>2023-04-08T09:52:33Z</time>
      </trkpt>
      <trkpt lat="44.48229" lon="1.79956">
        <ele>272.8</ele>
        <time>2023-04-08T09:52:38Z</time>
      </trkpt>
      <trkpt lat="44.48229" lon="1.79955">
        <ele>272.8</ele>
        <time>2023-04-08T09:53:09Z</time>
      </trkpt>
      <trkpt lat="44.48229" lon="1.79955">
        <ele>272.8</ele>
        <time>2023-04-08T09:53:11Z</time>
      </trkpt>
      <trkpt lat="44.48229" lon="1.79955">
        <ele>272.9</ele>
        <time>2023-04-08T09:53:22Z</time>
      </trkpt>
      <trkpt lat="44.48229" lon="1.79955">
        <ele>272.9</ele>
        <time>2023-04-08T09:53:24Z</time>
      </trkpt>
      <trkpt lat="44.4823" lon="1.79955">
        <ele>272.9</ele>
        <time>2023-04-08T09:53:52Z</time>
      </trkpt>
      <trkpt lat="44.4823" lon="1.79955">
        <ele>272.9</ele>
        <time>2023-04-08T09:53:54Z</time>
      </trkpt>
      <trkpt lat="44.4823" lon="1.79955">
        <ele>272.9</ele>
        <time>2023-04-08T09:54:23Z</time>
      </trkpt>
      <trkpt lat="44.4823" lon="1.79955">
        <ele>272.9</ele>
        <time>2023-04-08T09:54:24Z</time>
      </trkpt>
      <trkpt lat="44.4823" lon="1.79955">
        <ele>272.9</ele>
        <time>2023-04-08T09:55:38Z</time>
      </trkpt>
      <trkpt lat="44.4823" lon="1.79955">
        <ele>272.9</ele>
        <time>2023-04-08T09:55:39Z</time>
      </trkpt>
      <trkpt lat="44.4823" lon="1.79955">
        <ele>272.9</ele>
        <time>2023-04-08T09:55:43Z</time>
      </trkpt>
      <trkpt lat="44.4823" lon="1.79955">
        <ele>272.9</ele>
        <time>2023-04-08T09:55:44Z</time>
      </trkpt>
      <trkpt lat="44.4823" lon="1.79955">
        <ele>272.9</ele>
        <time>2023-04-08T09:55:50Z</time>
      </trkpt>
      <trkpt lat="44.4823" lon="1.79955">
        <ele>272.9</ele>
        <time>2023-04-08T09:55:51Z</time>
      </trkpt>
      <trkpt lat="44.4823" lon="1.79955">
        <ele>273</ele>
        <time>2023-04-08T09:56:12Z</time>
      </trkpt>
      <trkpt lat="44.48239" lon="1.79957">
        <ele>273.5</ele>
        <time>2023-04-08T09:56:20Z</time>
      </trkpt>
      <trkpt lat="44.48249" lon="1.79961">
        <ele>274.3</ele>
        <time>2023-04-08T09:56:25Z</time>
      </trkpt>
      <trkpt lat="44.48259" lon="1.79965">
        <ele>275.4</ele>
        <time>2023-04-08T09:56:30Z</time>
      </trkpt>
      <trkpt lat="44.48269" lon="1.79969">
        <ele>276.5</ele>
        <time>2023-04-08T09:56:35Z</time>
      </trkpt>
      <trkpt lat="44.48278" lon="1.7997">
        <ele>277.2</ele>
        <time>2023-04-08T09:56:39Z</time>
      </trkpt>
      <trkpt lat="44.48288" lon="1.79972">
        <ele>277.7</ele>
        <time>2023-04-08T09:56:43Z</time>
      </trkpt>
      <trkpt lat="44.48297" lon="1.79977">
        <ele>278.3</ele>
        <time>2023-04-08T09:56:47Z</time>
      </trkpt>
      <trkpt lat="44.48307" lon="1.79983">
        <ele>279.3</ele>
        <time>2023-04-08T09:56:52Z</time>
      </trkpt>
      <trkpt lat="44.48316" lon="1.79986">
        <ele>280.4</ele>
        <time>2023-04-08T09:56:56Z</time>
      </trkpt>
      <trkpt lat="44.48326" lon="1.79986">
        <ele>281.8</ele>
        <time>2023-04-08T09:57:00Z</time>
      </trkpt>
      <trkpt lat="44.48336" lon="1.79987">
        <ele>283.2</ele>
        <time>2023-04-08T09:57:04Z</time>
      </trkpt>
      <trkpt lat="44.48346" lon="1.7999">
        <ele>284.7</ele>
        <time>2023-04-08T09:57:09Z</time>
      </trkpt>
      <trkpt lat="44.48355" lon="1.79995">
        <ele>286</ele>
        <time>2023-04-08T09:57:13Z</time>
      </trkpt>
      <trkpt lat="44.48363" lon="1.8">
        <ele>287</ele>
        <time>2023-04-08T09:57:17Z</time>
      </trkpt>
      <trkpt lat="44.48373" lon="1.80006">
        <ele>288.2</ele>
        <time>2023-04-08T09:57:22Z</time>
      </trkpt>
      <trkpt lat="44.48381" lon="1.80012">
        <ele>289.2</ele>
        <time>2023-04-08T09:57:27Z</time>
      </trkpt>
      <trkpt lat="44.4839" lon="1.80018">
        <ele>290.3</ele>
        <time>2023-04-08T09:57:32Z</time>
      </trkpt>
      <trkpt lat="44.48398" lon="1.80025">
        <ele>291.8</ele>
        <time>2023-04-08T09:57:37Z</time>
      </trkpt>
      <trkpt lat="44.48403" lon="1.80037">
        <ele>293.7</ele>
        <time>2023-04-08T09:57:42Z</time>
      </trkpt>
      <trkpt lat="44.48401" lon="1.8005">
        <ele>295.4</ele>
        <time>2023-04-08T09:57:47Z</time>
      </trkpt>
      <trkpt lat="44.48391" lon="1.80053">
        <ele>296.9</ele>
        <time>2023-04-08T09:57:52Z</time>
      </trkpt>
      <trkpt lat="44.48394" lon="1.80066">
        <ele>298.2</ele>
        <time>2023-04-08T09:57:58Z</time>
      </trkpt>
      <trkpt lat="44.48401" lon="1.80075">
        <ele>299.3</ele>
        <time>2023-04-08T09:58:03Z</time>
      </trkpt>
      <trkpt lat="44.48409" lon="1.80084">
        <ele>300.1</ele>
        <time>2023-04-08T09:58:08Z</time>
      </trkpt>
      <trkpt lat="44.48417" lon="1.80092">
        <ele>300.6</ele>
        <time>2023-04-08T09:58:13Z</time>
      </trkpt>
      <trkpt lat="44.48424" lon="1.80101">
        <ele>301.1</ele>
        <time>2023-04-08T09:58:18Z</time>
      </trkpt>
      <trkpt lat="44.48433" lon="1.80108">
        <ele>301.9</ele>
        <time>2023-04-08T09:58:23Z</time>
      </trkpt>
      <trkpt lat="44.48443" lon="1.80108">
        <ele>302.8</ele>
        <time>2023-04-08T09:58:28Z</time>
      </trkpt>
      <trkpt lat="44.48451" lon="1.80103">
        <ele>303.6</ele>
        <time>2023-04-08T09:58:32Z</time>
      </trkpt>
      <trkpt lat="44.48458" lon="1.80093">
        <ele>304.4</ele>
        <time>2023-04-08T09:58:37Z</time>
      </trkpt>
      <trkpt lat="44.48463" lon="1.80081">
        <ele>305</ele>
        <time>2023-04-08T09:58:42Z</time>
      </trkpt>
      <trkpt lat="44.48463" lon="1.80065">
        <ele>305.6</ele>
        <time>2023-04-08T09:58:47Z</time>
      </trkpt>
      <trkpt lat="44.4846" lon="1.80051">
        <ele>306.3</ele>
        <time>2023-04-08T09:58:52Z</time>
      </trkpt>
      <trkpt lat="44.48457" lon="1.80036">
        <ele>307.2</ele>
        <time>2023-04-08T09:58:57Z</time>
      </trkpt>
      <trkpt lat="44.48453" lon="1.80022">
        <ele>307.9</ele>
        <time>2023-04-08T09:59:02Z</time>
      </trkpt>
      <trkpt lat="44.48448" lon="1.80008">
        <ele>308.3</ele>
        <time>2023-04-08T09:59:07Z</time>
      </trkpt>
      <trkpt lat="44.48444" lon="1.79994">
        <ele>308.8</ele>
        <time>2023-04-08T09:59:12Z</time>
      </trkpt>
      <trkpt lat="44.4844" lon="1.7998">
        <ele>309.3</ele>
        <time>2023-04-08T09:59:17Z</time>
      </trkpt>
      <trkpt lat="44.48436" lon="1.79968">
        <ele>309.9</ele>
        <time>2023-04-08T09:59:22Z</time>
      </trkpt>
      <trkpt lat="44.48432" lon="1.79955">
        <ele>310.1</ele>
        <time>2023-04-08T09:59:27Z</time>
      </trkpt>
      <trkpt lat="44.48428" lon="1.79943">
        <ele>310.3</ele>
        <time>2023-04-08T09:59:32Z</time>
      </trkpt>
      <trkpt lat="44.48422" lon="1.79931">
        <ele>310.4</ele>
        <time>2023-04-08T09:59:37Z</time>
      </trkpt>
      <trkpt lat="44.48415" lon="1.79919">
        <ele>310.7</ele>
        <time>2023-04-08T09:59:42Z</time>
      </trkpt>
      <trkpt lat="44.48408" lon="1.79909">
        <ele>311.1</ele>
        <time>2023-04-08T09:59:47Z</time>
      </trkpt>
      <trkpt lat="44.48401" lon="1.79898">
        <ele>311.4</ele>
        <time>2023-04-08T09:59:52Z</time>
      </trkpt>
      <trkpt lat="44.48394" lon="1.79887">
        <ele>311.2</ele>
        <time>2023-04-08T09:59:57Z</time>
      </trkpt>
      <trkpt lat="44.48404" lon="1.79892">
        <ele>310.7</ele>
        <time>2023-04-08T10:00:09Z</time>
      </trkpt>
      <trkpt lat="44.48413" lon="1.79902">
        <ele>310</ele>
        <time>2023-04-08T10:00:13Z</time>
      </trkpt>
      <trkpt lat="44.48423" lon="1.79912">
        <ele>309.5</ele>
        <time>2023-04-08T10:00:17Z</time>
      </trkpt>
      <trkpt lat="44.48432" lon="1.79919">
        <ele>309.4</ele>
        <time>2023-04-08T10:00:21Z</time>
      </trkpt>
      <trkpt lat="44.48441" lon="1.79924">
        <ele>309.2</ele>
        <time>2023-04-08T10:00:26Z</time>
      </trkpt>
      <trkpt lat="44.48441" lon="1.79925">
        <ele>309.2</ele>
        <time>2023-04-08T10:00:28Z</time>
      </trkpt>
      <trkpt lat="44.48441" lon="1.79925">
        <ele>309.2</ele>
        <time>2023-04-08T10:00:52Z</time>
      </trkpt>
      <trkpt lat="44.4844" lon="1.79925">
        <ele>309.2</ele>
        <time>2023-04-08T10:00:55Z</time>
      </trkpt>
      <trkpt lat="44.4844" lon="1.79925">
        <ele>309.2</ele>
        <time>2023-04-08T10:00:57Z</time>
      </trkpt>
      <trkpt lat="44.4844" lon="1.79925">
        <ele>309.2</ele>
        <time>2023-04-08T10:00:59Z</time>
      </trkpt>
      <trkpt lat="44.4844" lon="1.79924">
        <ele>309.2</ele>
        <time>2023-04-08T10:01:26Z</time>
      </trkpt>
      <trkpt lat="44.4844" lon="1.79924">
        <ele>309.2</ele>
        <time>2023-04-08T10:01:27Z</time>
      </trkpt>
      <trkpt lat="44.4844" lon="1.79924">
        <ele>309.2</ele>
        <time>2023-04-08T10:02:18Z</time>
      </trkpt>
      <trkpt lat="44.48446" lon="1.79936">
        <ele>309.2</ele>
        <time>2023-04-08T10:02:24Z</time>
      </trkpt>
      <trkpt lat="44.48452" lon="1.79949">
        <ele>309.4</ele>
        <time>2023-04-08T10:02:28Z</time>
      </trkpt>
      <trkpt lat="44.48457" lon="1.79963">
        <ele>309.9</ele>
        <time>2023-04-08T10:02:32Z</time>
      </trkpt>
      <trkpt lat="44.48462" lon="1.79976">
        <ele>310.6</ele>
        <time>2023-04-08T10:02:35Z</time>
      </trkpt>
      <trkpt lat="44.48467" lon="1.7999">
        <ele>311.5</ele>
        <time>2023-04-08T10:02:38Z</time>
      </trkpt>
      <trkpt lat="44.48473" lon="1.80003">
        <ele>312.4</ele>
        <time>2023-04-08T10:02:41Z</time>
      </trkpt>
      <trkpt lat="44.4848" lon="1.80014">
        <ele>313.4</ele>
        <time>2023-04-08T10:02:44Z</time>
      </trkpt>
      <trkpt lat="44.48487" lon="1.80024">
        <ele>314.5</ele>
        <time>2023-04-08T10:02:47Z</time>
      </trkpt>
      <trkpt lat="44.48493" lon="1.80033">
        <ele>315.5</ele>
        <time>2023-04-08T10:02:50Z</time>
      </trkpt>
      <trkpt lat="44.48502" lon="1.80044">
        <ele>316.9</ele>
        <time>2023-04-08T10:02:54Z</time>
      </trkpt>
      <trkpt lat="44.4851" lon="1.80054">
        <ele>318.3</ele>
        <time>2023-04-08T10:02:58Z</time>
      </trkpt>
      <trkpt lat="44.48516" lon="1.80065">
        <ele>319.8</ele>
        <time>2023-04-08T10:03:02Z</time>
      </trkpt>
      <trkpt lat="44.48522" lon="1.80076">
        <ele>321.3</ele>
        <time>2023-04-08T10:03:06Z</time>
      </trkpt>
      <trkpt lat="44.48529" lon="1.80086">
        <ele>322.9</ele>
        <time>2023-04-08T10:03:11Z</time>
      </trkpt>
      <trkpt lat="44.48536" lon="1.80098">
        <ele>324.7</ele>
        <time>2023-04-08T10:03:16Z</time>
      </trkpt>
      <trkpt lat="44.48542" lon="1.80109">
        <ele>326.3</ele>
        <time>2023-04-08T10:03:21Z</time>
      </trkpt>
      <trkpt lat="44.48545" lon="1.80124">
        <ele>327.9</ele>
        <time>2023-04-08T10:03:26Z</time>
      </trkpt>
      <trkpt lat="44.48545" lon="1.80137">
        <ele>329.2</ele>
        <time>2023-04-08T10:03:30Z</time>
      </trkpt>
      <trkpt lat="44.48542" lon="1.80149">
        <ele>330.3</ele>
        <time>2023-04-08T10:03:34Z</time>
      </trkpt>
      <trkpt lat="44.48537" lon="1.8016">
        <ele>331.4</ele>
        <time>2023-04-08T10:03:38Z</time>
      </trkpt>
      <trkpt lat="44.48532" lon="1.80171">
        <ele>332.6</ele>
        <time>2023-04-08T10:03:42Z</time>
      </trkpt>
      <trkpt lat="44.48528" lon="1.80183">
        <ele>333.7</ele>
        <time>2023-04-08T10:03:46Z</time>
      </trkpt>
      <trkpt lat="44.48524" lon="1.80194">
        <ele>334.8</ele>
        <time>2023-04-08T10:03:50Z</time>
      </trkpt>
      <trkpt lat="44.48519" lon="1.80207">
        <ele>335.9</ele>
        <time>2023-04-08T10:03:54Z</time>
      </trkpt>
      <trkpt lat="44.48515" lon="1.80219">
        <ele>336.9</ele>
        <time>2023-04-08T10:03:58Z</time>
      </trkpt>
      <trkpt lat="44.4851" lon="1.80232">
        <ele>337.9</ele>
        <time>2023-04-08T10:04:02Z</time>
      </trkpt>
      <trkpt lat="44.48507" lon="1.80245">
        <ele>338.8</ele>
        <time>2023-04-08T10:04:06Z</time>
      </trkpt>
      <trkpt lat="44.48503" lon="1.80259">
        <ele>339.8</ele>
        <time>2023-04-08T10:04:10Z</time>
      </trkpt>
      <trkpt lat="44.48499" lon="1.80273">
        <ele>340.7</ele>
        <time>2023-04-08T10:04:14Z</time>
      </trkpt>
      <trkpt lat="44.48494" lon="1.80287">
        <ele>341.7</ele>
        <time>2023-04-08T10:04:18Z</time>
      </trkpt>
      <trkpt lat="44.48491" lon="1.80301">
        <ele>342.6</ele>
        <time>2023-04-08T10:04:22Z</time>
      </trkpt>
      <trkpt lat="44.48489" lon="1.80317">
        <ele>343.6</ele>
        <time>2023-04-08T10:04:26Z</time>
      </trkpt>
      <trkpt lat="44.48488" lon="1.80333">
        <ele>344.5</ele>
        <time>2023-04-08T10:04:30Z</time>
      </trkpt>
      <trkpt lat="44.48488" lon="1.80348">
        <ele>345.3</ele>
        <time>2023-04-08T10:04:34Z</time>
      </trkpt>
      <trkpt lat="44.48489" lon="1.80363">
        <ele>346</ele>
        <time>2023-04-08T10:04:38Z</time>
      </trkpt>
      <trkpt lat="44.48489" lon="1.80379">
        <ele>346.8</ele>
        <time>2023-04-08T10:04:42Z</time>
      </trkpt>
      <trkpt lat="44.48488" lon="1.80396">
        <ele>347.4</ele>
        <time>2023-04-08T10:04:46Z</time>
      </trkpt>
      <trkpt lat="44.48488" lon="1.80412">
        <ele>347.8</ele>
        <time>2023-04-08T10:04:50Z</time>
      </trkpt>
      <trkpt lat="44.48488" lon="1.80425">
        <ele>348</ele>
        <time>2023-04-08T10:04:53Z</time>
      </trkpt>
      <trkpt lat="44.48488" lon="1.80439">
        <ele>348.1</ele>
        <time>2023-04-08T10:04:56Z</time>
      </trkpt>
      <trkpt lat="44.48491" lon="1.80451">
        <ele>348.1</ele>
        <time>2023-04-08T10:04:59Z</time>
      </trkpt>
      <trkpt lat="44.48495" lon="1.80464">
        <ele>348.1</ele>
        <time>2023-04-08T10:05:02Z</time>
      </trkpt>
      <trkpt lat="44.48499" lon="1.80475">
        <ele>348</ele>
        <time>2023-04-08T10:05:05Z</time>
      </trkpt>
      <trkpt lat="44.48505" lon="1.80487">
        <ele>347.8</ele>
        <time>2023-04-08T10:05:08Z</time>
      </trkpt>
      <trkpt lat="44.4851" lon="1.80498">
        <ele>347.6</ele>
        <time>2023-04-08T10:05:11Z</time>
      </trkpt>
      <trkpt lat="44.48515" lon="1.8051">
        <ele>347.3</ele>
        <time>2023-04-08T10:05:14Z</time>
      </trkpt>
      <trkpt lat="44.48521" lon="1.80524">
        <ele>347</ele>
        <time>2023-04-08T10:05:17Z</time>
      </trkpt>
      <trkpt lat="44.48527" lon="1.80538">
        <ele>346.6</ele>
        <time>2023-04-08T10:05:20Z</time>
      </trkpt>
      <trkpt lat="44.48534" lon="1.80553">
        <ele>346.2</ele>
        <time>2023-04-08T10:05:23Z</time>
      </trkpt>
      <trkpt lat="44.48542" lon="1.80569">
        <ele>345.8</ele>
        <time>2023-04-08T10:05:26Z</time>
      </trkpt>
      <trkpt lat="44.48548" lon="1.8058">
        <ele>345.5</ele>
        <time>2023-04-08T10:05:28Z</time>
      </trkpt>
      <trkpt lat="44.48554" lon="1.80591">
        <ele>345.4</ele>
        <time>2023-04-08T10:05:30Z</time>
      </trkpt>
      <trkpt lat="44.48559" lon="1.80603">
        <ele>345.4</ele>
        <time>2023-04-08T10:05:32Z</time>
      </trkpt>
      <trkpt lat="44.48565" lon="1.80615">
        <ele>345.7</ele>
        <time>2023-04-08T10:05:34Z</time>
      </trkpt>
      <trkpt lat="44.48569" lon="1.80627">
        <ele>346.1</ele>
        <time>2023-04-08T10:05:36Z</time>
      </trkpt>
      <trkpt lat="44.48573" lon="1.80644">
        <ele>346.9</ele>
        <time>2023-04-08T10:05:39Z</time>
      </trkpt>
      <trkpt lat="44.48574" lon="1.80659">
        <ele>347.8</ele>
        <time>2023-04-08T10:05:42Z</time>
      </trkpt>
      <trkpt lat="44.48575" lon="1.80673">
        <ele>348.6</ele>
        <time>2023-04-08T10:05:45Z</time>
      </trkpt>
      <trkpt lat="44.48577" lon="1.80686">
        <ele>349.5</ele>
        <time>2023-04-08T10:05:48Z</time>
      </trkpt>
      <trkpt lat="44.4858" lon="1.80702">
        <ele>350.7</ele>
        <time>2023-04-08T10:05:52Z</time>
      </trkpt>
      <trkpt lat="44.48584" lon="1.80715">
        <ele>351.8</ele>
        <time>2023-04-08T10:05:56Z</time>
      </trkpt>
      <trkpt lat="44.48589" lon="1.80728">
        <ele>352.7</ele>
        <time>2023-04-08T10:06:00Z</time>
      </trkpt>
      <trkpt lat="44.48593" lon="1.80741">
        <ele>353.7</ele>
        <time>2023-04-08T10:06:04Z</time>
      </trkpt>
      <trkpt lat="44.48597" lon="1.80753">
        <ele>354.6</ele>
        <time>2023-04-08T10:06:08Z</time>
      </trkpt>
      <trkpt lat="44.48602" lon="1.80765">
        <ele>355.4</ele>
        <time>2023-04-08T10:06:12Z</time>
      </trkpt>
      <trkpt lat="44.48607" lon="1.80777">
        <ele>356.1</ele>
        <time>2023-04-08T10:06:16Z</time>
      </trkpt>
      <trkpt lat="44.48612" lon="1.80788">
        <ele>356.7</ele>
        <time>2023-04-08T10:06:20Z</time>
      </trkpt>
      <trkpt lat="44.48619" lon="1.80798">
        <ele>357.1</ele>
        <time>2023-04-08T10:06:24Z</time>
      </trkpt>
      <trkpt lat="44.48627" lon="1.80808">
        <ele>357.4</ele>
        <time>2023-04-08T10:06:29Z</time>
      </trkpt>
      <trkpt lat="44.48637" lon="1.80813">
        <ele>357.4</ele>
        <time>2023-04-08T10:06:33Z</time>
      </trkpt>
      <trkpt lat="44.48648" lon="1.80817">
        <ele>357.5</ele>
        <time>2023-04-08T10:06:36Z</time>
      </trkpt>
      <trkpt lat="44.48659" lon="1.80821">
        <ele>357.5</ele>
        <time>2023-04-08T10:06:39Z</time>
      </trkpt>
      <trkpt lat="44.4867" lon="1.80824">
        <ele>357.3</ele>
        <time>2023-04-08T10:06:42Z</time>
      </trkpt>
      <trkpt lat="44.48682" lon="1.80828">
        <ele>356.7</ele>
        <time>2023-04-08T10:06:45Z</time>
      </trkpt>
      <trkpt lat="44.48691" lon="1.80831">
        <ele>355.8</ele>
        <time>2023-04-08T10:06:47Z</time>
      </trkpt>
      <trkpt lat="44.48702" lon="1.80833">
        <ele>354.9</ele>
        <time>2023-04-08T10:06:49Z</time>
      </trkpt>
      <trkpt lat="44.48714" lon="1.80835">
        <ele>354</ele>
        <time>2023-04-08T10:06:51Z</time>
      </trkpt>
      <trkpt lat="44.48727" lon="1.80835">
        <ele>353.5</ele>
        <time>2023-04-08T10:06:53Z</time>
      </trkpt>
      <trkpt lat="44.4874" lon="1.80834">
        <ele>353.5</ele>
        <time>2023-04-08T10:06:55Z</time>
      </trkpt>
      <trkpt lat="44.48752" lon="1.80833">
        <ele>353.8</ele>
        <time>2023-04-08T10:06:57Z</time>
      </trkpt>
      <trkpt lat="44.48762" lon="1.80837">
        <ele>354.1</ele>
        <time>2023-04-08T10:06:59Z</time>
      </trkpt>
      <trkpt lat="44.48771" lon="1.80843">
        <ele>354.4</ele>
        <time>2023-04-08T10:07:01Z</time>
      </trkpt>
      <trkpt lat="44.48778" lon="1.80851">
        <ele>354.6</ele>
        <time>2023-04-08T10:07:03Z</time>
      </trkpt>
      <trkpt lat="44.48785" lon="1.8086">
        <ele>354.6</ele>
        <time>2023-04-08T10:07:05Z</time>
      </trkpt>
      <trkpt lat="44.48791" lon="1.8087">
        <ele>354.6</ele>
        <time>2023-04-08T10:07:07Z</time>
      </trkpt>
      <trkpt lat="44.48799" lon="1.80879">
        <ele>354.6</ele>
        <time>2023-04-08T10:07:09Z</time>
      </trkpt>
      <trkpt lat="44.48808" lon="1.80889">
        <ele>354.6</ele>
        <time>2023-04-08T10:07:11Z</time>
      </trkpt>
      <trkpt lat="44.48817" lon="1.80899">
        <ele>354.3</ele>
        <time>2023-04-08T10:07:13Z</time>
      </trkpt>
      <trkpt lat="44.48826" lon="1.8091">
        <ele>353.6</ele>
        <time>2023-04-08T10:07:15Z</time>
      </trkpt>
      <trkpt lat="44.48835" lon="1.80921">
        <ele>352.7</ele>
        <time>2023-04-08T10:07:17Z</time>
      </trkpt>
      <trkpt lat="44.48845" lon="1.80934">
        <ele>351.7</ele>
        <time>2023-04-08T10:07:19Z</time>
      </trkpt>
      <trkpt lat="44.48857" lon="1.80947">
        <ele>351.1</ele>
        <time>2023-04-08T10:07:21Z</time>
      </trkpt>
      <trkpt lat="44.4887" lon="1.80956">
        <ele>350.5</ele>
        <time>2023-04-08T10:07:23Z</time>
      </trkpt>
      <trkpt lat="44.48885" lon="1.80963">
        <ele>349.5</ele>
        <time>2023-04-08T10:07:25Z</time>
      </trkpt>
      <trkpt lat="44.48898" lon="1.80973">
        <ele>347.6</ele>
        <time>2023-04-08T10:07:27Z</time>
      </trkpt>
      <trkpt lat="44.48912" lon="1.80986">
        <ele>345.2</ele>
        <time>2023-04-08T10:07:29Z</time>
      </trkpt>
      <trkpt lat="44.48928" lon="1.80996">
        <ele>342.8</ele>
        <time>2023-04-08T10:07:31Z</time>
      </trkpt>
      <trkpt lat="44.48943" lon="1.81006">
        <ele>339.9</ele>
        <time>2023-04-08T10:07:33Z</time>
      </trkpt>
      <trkpt lat="44.48958" lon="1.81014">
        <ele>336.8</ele>
        <time>2023-04-08T10:07:35Z</time>
      </trkpt>
      <trkpt lat="44.48974" lon="1.81023">
        <ele>333.8</ele>
        <time>2023-04-08T10:07:37Z</time>
      </trkpt>
      <trkpt lat="44.4899" lon="1.8103">
        <ele>331.3</ele>
        <time>2023-04-08T10:07:39Z</time>
      </trkpt>
      <trkpt lat="44.49003" lon="1.81032">
        <ele>329.5</ele>
        <time>2023-04-08T10:07:41Z</time>
      </trkpt>
      <trkpt lat="44.49016" lon="1.81026">
        <ele>328.4</ele>
        <time>2023-04-08T10:07:43Z</time>
      </trkpt>
      <trkpt lat="44.49028" lon="1.81018">
        <ele>328</ele>
        <time>2023-04-08T10:07:45Z</time>
      </trkpt>
      <trkpt lat="44.4904" lon="1.81012">
        <ele>327.7</ele>
        <time>2023-04-08T10:07:47Z</time>
      </trkpt>
      <trkpt lat="44.49053" lon="1.81007">
        <ele>327.3</ele>
        <time>2023-04-08T10:07:49Z</time>
      </trkpt>
      <trkpt lat="44.49065" lon="1.81007">
        <ele>326.9</ele>
        <time>2023-04-08T10:07:51Z</time>
      </trkpt>
      <trkpt lat="44.49077" lon="1.81006">
        <ele>326.5</ele>
        <time>2023-04-08T10:07:53Z</time>
      </trkpt>
      <trkpt lat="44.4909" lon="1.81004">
        <ele>326</ele>
        <time>2023-04-08T10:07:55Z</time>
      </trkpt>
      <trkpt lat="44.49102" lon="1.81003">
        <ele>325.3</ele>
        <time>2023-04-08T10:07:57Z</time>
      </trkpt>
      <trkpt lat="44.49116" lon="1.81003">
        <ele>324.9</ele>
        <time>2023-04-08T10:07:59Z</time>
      </trkpt>
      <trkpt lat="44.4913" lon="1.81008">
        <ele>325.5</ele>
        <time>2023-04-08T10:08:01Z</time>
      </trkpt>
      <trkpt lat="44.49133" lon="1.81023">
        <ele>326.1</ele>
        <time>2023-04-08T10:08:03Z</time>
      </trkpt>
      <trkpt lat="44.49133" lon="1.8104">
        <ele>326.8</ele>
        <time>2023-04-08T10:08:06Z</time>
      </trkpt>
      <trkpt lat="44.49133" lon="1.81053">
        <ele>327.2</ele>
        <time>2023-04-08T10:08:09Z</time>
      </trkpt>
      <trkpt lat="44.49131" lon="1.81067">
        <ele>327.7</ele>
        <time>2023-04-08T10:08:12Z</time>
      </trkpt>
      <trkpt lat="44.4913" lon="1.81081">
        <ele>328.1</ele>
        <time>2023-04-08T10:08:15Z</time>
      </trkpt>
      <trkpt lat="44.49128" lon="1.81097">
        <ele>328.3</ele>
        <time>2023-04-08T10:08:18Z</time>
      </trkpt>
      <trkpt lat="44.49125" lon="1.81116">
        <ele>328.4</ele>
        <time>2023-04-08T10:08:21Z</time>
      </trkpt>
      <trkpt lat="44.49124" lon="1.8113">
        <ele>328.4</ele>
        <time>2023-04-08T10:08:23Z</time>
      </trkpt>
      <trkpt lat="44.49123" lon="1.81144">
        <ele>328.4</ele>
        <time>2023-04-08T10:08:25Z</time>
      </trkpt>
      <trkpt lat="44.49122" lon="1.81158">
        <ele>328.5</ele>
        <time>2023-04-08T10:08:27Z</time>
      </trkpt>
      <trkpt lat="44.49121" lon="1.81172">
        <ele>328.5</ele>
        <time>2023-04-08T10:08:29Z</time>
      </trkpt>
      <trkpt lat="44.49119" lon="1.81185">
        <ele>328.5</ele>
        <time>2023-04-08T10:08:31Z</time>
      </trkpt>
      <trkpt lat="44.49118" lon="1.81198">
        <ele>328.6</ele>
        <time>2023-04-08T10:08:33Z</time>
      </trkpt>
      <trkpt lat="44.49119" lon="1.81211">
        <ele>328.8</ele>
        <time>2023-04-08T10:08:35Z</time>
      </trkpt>
      <trkpt lat="44.4912" lon="1.81224">
        <ele>329.2</ele>
        <time>2023-04-08T10:08:37Z</time>
      </trkpt>
      <trkpt lat="44.49121" lon="1.81237">
        <ele>329.7</ele>
        <time>2023-04-08T10:08:39Z</time>
      </trkpt>
      <trkpt lat="44.49123" lon="1.8125">
        <ele>330.1</ele>
        <time>2023-04-08T10:08:41Z</time>
      </trkpt>
      <trkpt lat="44.49125" lon="1.81267">
        <ele>330.6</ele>
        <time>2023-04-08T10:08:44Z</time>
      </trkpt>
      <trkpt lat="44.49128" lon="1.81281">
        <ele>331</ele>
        <time>2023-04-08T10:08:47Z</time>
      </trkpt>
      <trkpt lat="44.49135" lon="1.81292">
        <ele>331.3</ele>
        <time>2023-04-08T10:08:50Z</time>
      </trkpt>
      <trkpt lat="44.49144" lon="1.81302">
        <ele>331.5</ele>
        <time>2023-04-08T10:08:53Z</time>
      </trkpt>
      <trkpt lat="44.49156" lon="1.81312">
        <ele>331.7</ele>
        <time>2023-04-08T10:08:56Z</time>
      </trkpt>
      <trkpt lat="44.49164" lon="1.8132">
        <ele>331.8</ele>
        <time>2023-04-08T10:08:58Z</time>
      </trkpt>
      <trkpt lat="44.49175" lon="1.81329">
        <ele>332.1</ele>
        <time>2023-04-08T10:09:01Z</time>
      </trkpt>
      <trkpt lat="44.49185" lon="1.81336">
        <ele>332.4</ele>
        <time>2023-04-08T10:09:04Z</time>
      </trkpt>
      <trkpt lat="44.49195" lon="1.81343">
        <ele>332.8</ele>
        <time>2023-04-08T10:09:07Z</time>
      </trkpt>
      <trkpt lat="44.49208" lon="1.81344">
        <ele>333.2</ele>
        <time>2023-04-08T10:09:10Z</time>
      </trkpt>
      <trkpt lat="44.4922" lon="1.81349">
        <ele>333.6</ele>
        <time>2023-04-08T10:09:13Z</time>
      </trkpt>
      <trkpt lat="44.49229" lon="1.81351">
        <ele>333.8</ele>
        <time>2023-04-08T10:09:15Z</time>
      </trkpt>
      <trkpt lat="44.49239" lon="1.81357">
        <ele>334</ele>
        <time>2023-04-08T10:09:18Z</time>
      </trkpt>
      <trkpt lat="44.49248" lon="1.8137">
        <ele>334.2</ele>
        <time>2023-04-08T10:09:21Z</time>
      </trkpt>
      <trkpt lat="44.49251" lon="1.81387">
        <ele>333.6</ele>
        <time>2023-04-08T10:09:24Z</time>
      </trkpt>
      <trkpt lat="44.4925" lon="1.81403">
        <ele>331.6</ele>
        <time>2023-04-08T10:09:28Z</time>
      </trkpt>
      <trkpt lat="44.49251" lon="1.81405">
        <ele>331.3</ele>
        <time>2023-04-08T10:09:30Z</time>
      </trkpt>
      <trkpt lat="44.49251" lon="1.81405">
        <ele>331.3</ele>
        <time>2023-04-08T10:09:47Z</time>
      </trkpt>
      <trkpt lat="44.49251" lon="1.81405">
        <ele>331.3</ele>
        <time>2023-04-08T10:09:48Z</time>
      </trkpt>
      <trkpt lat="44.49251" lon="1.81405">
        <ele>331.3</ele>
        <time>2023-04-08T10:10:02Z</time>
      </trkpt>
      <trkpt lat="44.49251" lon="1.81405">
        <ele>331.3</ele>
        <time>2023-04-08T10:10:03Z</time>
      </trkpt>
      <trkpt lat="44.49251" lon="1.81406">
        <ele>331.2</ele>
        <time>2023-04-08T10:10:21Z</time>
      </trkpt>
      <trkpt lat="44.49253" lon="1.81421">
        <ele>329.5</ele>
        <time>2023-04-08T10:10:26Z</time>
      </trkpt>
      <trkpt lat="44.49255" lon="1.81433">
        <ele>328.2</ele>
        <time>2023-04-08T10:10:29Z</time>
      </trkpt>
      <trkpt lat="44.49257" lon="1.81447">
        <ele>325.8</ele>
        <time>2023-04-08T10:10:32Z</time>
      </trkpt>
      <trkpt lat="44.49261" lon="1.81458">
        <ele>329.5</ele>
        <time>2023-04-08T10:10:35Z</time>
      </trkpt>
      <trkpt lat="44.49268" lon="1.8147">
        <ele>327.4</ele>
        <time>2023-04-08T10:10:39Z</time>
      </trkpt>
      <trkpt lat="44.4927" lon="1.81484">
        <ele>324.7</ele>
        <time>2023-04-08T10:10:44Z</time>
      </trkpt>
      <trkpt lat="44.49272" lon="1.815">
        <ele>325.2</ele>
        <time>2023-04-08T10:10:47Z</time>
      </trkpt>
      <trkpt lat="44.49274" lon="1.81516">
        <ele>321.5</ele>
        <time>2023-04-08T10:10:49Z</time>
      </trkpt>
      <trkpt lat="44.49279" lon="1.81532">
        <ele>316.7</ele>
        <time>2023-04-08T10:10:51Z</time>
      </trkpt>
      <trkpt lat="44.49286" lon="1.81549">
        <ele>320.9</ele>
        <time>2023-04-08T10:10:53Z</time>
      </trkpt>
      <trkpt lat="44.49294" lon="1.81562">
        <ele>316.3</ele>
        <time>2023-04-08T10:10:55Z</time>
      </trkpt>
      <trkpt lat="44.49304" lon="1.81571">
        <ele>315.3</ele>
        <time>2023-04-08T10:10:57Z</time>
      </trkpt>
      <trkpt lat="44.49316" lon="1.81575">
        <ele>318.6</ele>
        <time>2023-04-08T10:10:59Z</time>
      </trkpt>
      <trkpt lat="44.49329" lon="1.8158">
        <ele>321.1</ele>
        <time>2023-04-08T10:11:01Z</time>
      </trkpt>
      <trkpt lat="44.49343" lon="1.81587">
        <ele>318.9</ele>
        <time>2023-04-08T10:11:03Z</time>
      </trkpt>
      <trkpt lat="44.49357" lon="1.81594">
        <ele>320.8</ele>
        <time>2023-04-08T10:11:05Z</time>
      </trkpt>
      <trkpt lat="44.4937" lon="1.81602">
        <ele>322.1</ele>
        <time>2023-04-08T10:11:07Z</time>
      </trkpt>
      <trkpt lat="44.49381" lon="1.81607">
        <ele>323</ele>
        <time>2023-04-08T10:11:09Z</time>
      </trkpt>
      <trkpt lat="44.49391" lon="1.81612">
        <ele>323.2</ele>
        <time>2023-04-08T10:11:11Z</time>
      </trkpt>
      <trkpt lat="44.494" lon="1.81615">
        <ele>323.2</ele>
        <time>2023-04-08T10:11:13Z</time>
      </trkpt>
      <trkpt lat="44.49409" lon="1.81618">
        <ele>323</ele>
        <time>2023-04-08T10:11:15Z</time>
      </trkpt>
      <trkpt lat="44.49419" lon="1.81622">
        <ele>322.7</ele>
        <time>2023-04-08T10:11:17Z</time>
      </trkpt>
      <trkpt lat="44.49431" lon="1.81626">
        <ele>322.3</ele>
        <time>2023-04-08T10:11:19Z</time>
      </trkpt>
      <trkpt lat="44.49444" lon="1.81631">
        <ele>322.2</ele>
        <time>2023-04-08T10:11:21Z</time>
      </trkpt>
      <trkpt lat="44.49455" lon="1.8164">
        <ele>322.3</ele>
        <time>2023-04-08T10:11:23Z</time>
      </trkpt>
      <trkpt lat="44.49464" lon="1.8165">
        <ele>322.5</ele>
        <time>2023-04-08T10:11:25Z</time>
      </trkpt>
      <trkpt lat="44.49471" lon="1.8166">
        <ele>323.2</ele>
        <time>2023-04-08T10:11:27Z</time>
      </trkpt>
      <trkpt lat="44.49477" lon="1.81672">
        <ele>324.7</ele>
        <time>2023-04-08T10:11:30Z</time>
      </trkpt>
      <trkpt lat="44.49483" lon="1.81682">
        <ele>325.3</ele>
        <time>2023-04-08T10:11:33Z</time>
      </trkpt>
      <trkpt lat="44.49485" lon="1.81691">
        <ele>324.8</ele>
        <time>2023-04-08T10:11:39Z</time>
      </trkpt>
      <trkpt lat="44.49485" lon="1.81691">
        <ele>324.8</ele>
        <time>2023-04-08T10:12:08Z</time>
      </trkpt>
      <trkpt lat="44.49485" lon="1.81691">
        <ele>324.8</ele>
        <time>2023-04-08T10:12:09Z</time>
      </trkpt>
      <trkpt lat="44.49485" lon="1.81691">
        <ele>324.8</ele>
        <time>2023-04-08T10:12:21Z</time>
      </trkpt>
      <trkpt lat="44.49485" lon="1.81691">
        <ele>324.8</ele>
        <time>2023-04-08T10:12:22Z</time>
      </trkpt>
      <trkpt lat="44.49485" lon="1.81691">
        <ele>324.7</ele>
        <time>2023-04-08T10:12:59Z</time>
      </trkpt>
      <trkpt lat="44.49485" lon="1.81691">
        <ele>324.7</ele>
        <time>2023-04-08T10:13:00Z</time>
      </trkpt>
      <trkpt lat="44.49485" lon="1.81691">
        <ele>324.7</ele>
        <time>2023-04-08T10:13:55Z</time>
      </trkpt>
      <trkpt lat="44.49485" lon="1.81692">
        <ele>324.7</ele>
        <time>2023-04-08T10:13:58Z</time>
      </trkpt>
      <trkpt lat="44.49484" lon="1.81692">
        <ele>324.7</ele>
        <time>2023-04-08T10:14:06Z</time>
      </trkpt>
      <trkpt lat="44.49484" lon="1.81692">
        <ele>324.7</ele>
        <time>2023-04-08T10:14:07Z</time>
      </trkpt>
      <trkpt lat="44.49484" lon="1.81692">
        <ele>324.6</ele>
        <time>2023-04-08T10:14:09Z</time>
      </trkpt>
      <trkpt lat="44.49482" lon="1.81706">
        <ele>324.1</ele>
        <time>2023-04-08T10:14:14Z</time>
      </trkpt>
      <trkpt lat="44.49476" lon="1.8172">
        <ele>323.9</ele>
        <time>2023-04-08T10:14:18Z</time>
      </trkpt>
      <trkpt lat="44.49468" lon="1.81726">
        <ele>324.3</ele>
        <time>2023-04-08T10:14:21Z</time>
      </trkpt>
      <trkpt lat="44.49457" lon="1.8173">
        <ele>325.2</ele>
        <time>2023-04-08T10:14:25Z</time>
      </trkpt>
      <trkpt lat="44.49449" lon="1.81736">
        <ele>326.2</ele>
        <time>2023-04-08T10:14:29Z</time>
      </trkpt>
      <trkpt lat="44.4944" lon="1.81745">
        <ele>327.6</ele>
        <time>2023-04-08T10:14:34Z</time>
      </trkpt>
      <trkpt lat="44.49433" lon="1.81755">
        <ele>328.9</ele>
        <time>2023-04-08T10:14:39Z</time>
      </trkpt>
      <trkpt lat="44.49426" lon="1.81766">
        <ele>330.2</ele>
        <time>2023-04-08T10:14:44Z</time>
      </trkpt>
      <trkpt lat="44.4942" lon="1.81777">
        <ele>331.5</ele>
        <time>2023-04-08T10:14:50Z</time>
      </trkpt>
      <trkpt lat="44.49414" lon="1.81788">
        <ele>332.9</ele>
        <time>2023-04-08T10:14:56Z</time>
      </trkpt>
      <trkpt lat="44.49409" lon="1.81799">
        <ele>333.9</ele>
        <time>2023-04-08T10:15:01Z</time>
      </trkpt>
      <trkpt lat="44.49403" lon="1.8181">
        <ele>334.8</ele>
        <time>2023-04-08T10:15:06Z</time>
      </trkpt>
      <trkpt lat="44.49397" lon="1.81821">
        <ele>335.7</ele>
        <time>2023-04-08T10:15:11Z</time>
      </trkpt>
      <trkpt lat="44.49392" lon="1.81833">
        <ele>336.5</ele>
        <time>2023-04-08T10:15:16Z</time>
      </trkpt>
      <trkpt lat="44.49389" lon="1.81847">
        <ele>337.1</ele>
        <time>2023-04-08T10:15:21Z</time>
      </trkpt>
      <trkpt lat="44.49386" lon="1.81862">
        <ele>337.6</ele>
        <time>2023-04-08T10:15:26Z</time>
      </trkpt>
      <trkpt lat="44.49384" lon="1.81877">
        <ele>337.8</ele>
        <time>2023-04-08T10:15:31Z</time>
      </trkpt>
      <trkpt lat="44.49383" lon="1.81891">
        <ele>337.5</ele>
        <time>2023-04-08T10:15:36Z</time>
      </trkpt>
      <trkpt lat="44.49379" lon="1.81904">
        <ele>337</ele>
        <time>2023-04-08T10:15:39Z</time>
      </trkpt>
      <trkpt lat="44.49375" lon="1.81919">
        <ele>336</ele>
        <time>2023-04-08T10:15:42Z</time>
      </trkpt>
      <trkpt lat="44.49372" lon="1.81933">
        <ele>335.1</ele>
        <time>2023-04-08T10:15:44Z</time>
      </trkpt>
      <trkpt lat="44.4937" lon="1.81948">
        <ele>334.2</ele>
        <time>2023-04-08T10:15:46Z</time>
      </trkpt>
      <trkpt lat="44.49367" lon="1.81964">
        <ele>333.3</ele>
        <time>2023-04-08T10:15:48Z</time>
      </trkpt>
      <trkpt lat="44.49365" lon="1.81981">
        <ele>332.4</ele>
        <time>2023-04-08T10:15:50Z</time>
      </trkpt>
      <trkpt lat="44.49363" lon="1.81998">
        <ele>331.6</ele>
        <time>2023-04-08T10:15:52Z</time>
      </trkpt>
      <trkpt lat="44.49363" lon="1.82015">
        <ele>330.9</ele>
        <time>2023-04-08T10:15:54Z</time>
      </trkpt>
      <trkpt lat="44.49362" lon="1.82033">
        <ele>330.3</ele>
        <time>2023-04-08T10:15:56Z</time>
      </trkpt>
      <trkpt lat="44.49361" lon="1.82049">
        <ele>329.9</ele>
        <time>2023-04-08T10:15:58Z</time>
      </trkpt>
      <trkpt lat="44.4936" lon="1.82062">
        <ele>329.8</ele>
        <time>2023-04-08T10:16:00Z</time>
      </trkpt>
      <trkpt lat="44.49358" lon="1.8208">
        <ele>329.7</ele>
        <time>2023-04-08T10:16:03Z</time>
      </trkpt>
      <trkpt lat="44.49356" lon="1.82096">
        <ele>329.6</ele>
        <time>2023-04-08T10:16:06Z</time>
      </trkpt>
      <trkpt lat="44.49353" lon="1.82113">
        <ele>329.9</ele>
        <time>2023-04-08T10:16:09Z</time>
      </trkpt>
      <trkpt lat="44.4935" lon="1.82128">
        <ele>330.5</ele>
        <time>2023-04-08T10:16:12Z</time>
      </trkpt>
      <trkpt lat="44.49347" lon="1.82141">
        <ele>331.1</ele>
        <time>2023-04-08T10:16:15Z</time>
      </trkpt>
      <trkpt lat="44.49343" lon="1.82155">
        <ele>331.8</ele>
        <time>2023-04-08T10:16:18Z</time>
      </trkpt>
      <trkpt lat="44.49338" lon="1.82167">
        <ele>332.3</ele>
        <time>2023-04-08T10:16:21Z</time>
      </trkpt>
      <trkpt lat="44.49333" lon="1.82181">
        <ele>332.9</ele>
        <time>2023-04-08T10:16:25Z</time>
      </trkpt>
      <trkpt lat="44.49329" lon="1.82194">
        <ele>333.4</ele>
        <time>2023-04-08T10:16:29Z</time>
      </trkpt>
      <trkpt lat="44.49324" lon="1.82205">
        <ele>334</ele>
        <time>2023-04-08T10:16:33Z</time>
      </trkpt>
      <trkpt lat="44.49319" lon="1.82217">
        <ele>334.9</ele>
        <time>2023-04-08T10:16:37Z</time>
      </trkpt>
      <trkpt lat="44.49313" lon="1.8223">
        <ele>335.9</ele>
        <time>2023-04-08T10:16:41Z</time>
      </trkpt>
      <trkpt lat="44.49307" lon="1.82241">
        <ele>336.9</ele>
        <time>2023-04-08T10:16:45Z</time>
      </trkpt>
      <trkpt lat="44.49302" lon="1.82253">
        <ele>337.8</ele>
        <time>2023-04-08T10:16:49Z</time>
      </trkpt>
      <trkpt lat="44.49296" lon="1.82263">
        <ele>338.5</ele>
        <time>2023-04-08T10:16:53Z</time>
      </trkpt>
      <trkpt lat="44.49292" lon="1.82274">
        <ele>339.1</ele>
        <time>2023-04-08T10:16:57Z</time>
      </trkpt>
      <trkpt lat="44.49286" lon="1.82284">
        <ele>339.5</ele>
        <time>2023-04-08T10:17:01Z</time>
      </trkpt>
      <trkpt lat="44.49279" lon="1.82294">
        <ele>339.8</ele>
        <time>2023-04-08T10:17:05Z</time>
      </trkpt>
      <trkpt lat="44.49271" lon="1.82305">
        <ele>340.1</ele>
        <time>2023-04-08T10:17:09Z</time>
      </trkpt>
      <trkpt lat="44.49264" lon="1.82318">
        <ele>340.4</ele>
        <time>2023-04-08T10:17:13Z</time>
      </trkpt>
      <trkpt lat="44.49257" lon="1.82331">
        <ele>340.8</ele>
        <time>2023-04-08T10:17:17Z</time>
      </trkpt>
      <trkpt lat="44.4925" lon="1.82344">
        <ele>341.2</ele>
        <time>2023-04-08T10:17:21Z</time>
      </trkpt>
      <trkpt lat="44.49243" lon="1.82355">
        <ele>341.6</ele>
        <time>2023-04-08T10:17:25Z</time>
      </trkpt>
      <trkpt lat="44.49235" lon="1.82364">
        <ele>341.9</ele>
        <time>2023-04-08T10:17:29Z</time>
      </trkpt>
      <trkpt lat="44.49228" lon="1.82375">
        <ele>342.4</ele>
        <time>2023-04-08T10:17:33Z</time>
      </trkpt>
      <trkpt lat="44.4922" lon="1.82387">
        <ele>342.8</ele>
        <time>2023-04-08T10:17:37Z</time>
      </trkpt>
      <trkpt lat="44.49213" lon="1.82395">
        <ele>343.1</ele>
        <time>2023-04-08T10:17:40Z</time>
      </trkpt>
      <trkpt lat="44.49206" lon="1.82403">
        <ele>343.3</ele>
        <time>2023-04-08T10:17:43Z</time>
      </trkpt>
      <trkpt lat="44.49199" lon="1.82412">
        <ele>343.5</ele>
        <time>2023-04-08T10:17:46Z</time>
      </trkpt>
      <trkpt lat="44.49191" lon="1.82423">
        <ele>343.7</ele>
        <time>2023-04-08T10:17:50Z</time>
      </trkpt>
      <trkpt lat="44.49184" lon="1.82432">
        <ele>343.7</ele>
        <time>2023-04-08T10:17:53Z</time>
      </trkpt>
      <trkpt lat="44.49176" lon="1.82441">
        <ele>343.4</ele>
        <time>2023-04-08T10:17:56Z</time>
      </trkpt>
      <trkpt lat="44.49169" lon="1.82452">
        <ele>343.1</ele>
        <time>2023-04-08T10:17:59Z</time>
      </trkpt>
      <trkpt lat="44.49162" lon="1.82463">
        <ele>342.7</ele>
        <time>2023-04-08T10:18:02Z</time>
      </trkpt>
      <trkpt lat="44.49154" lon="1.82475">
        <ele>342</ele>
        <time>2023-04-08T10:18:05Z</time>
      </trkpt>
      <trkpt lat="44.49148" lon="1.82486">
        <ele>341.1</ele>
        <time>2023-04-08T10:18:08Z</time>
      </trkpt>
      <trkpt lat="44.49141" lon="1.82497">
        <ele>340.1</ele>
        <time>2023-04-08T10:18:11Z</time>
      </trkpt>
      <trkpt lat="44.49132" lon="1.8251">
        <ele>338.7</ele>
        <time>2023-04-08T10:18:14Z</time>
      </trkpt>
      <trkpt lat="44.49125" lon="1.82523">
        <ele>337.3</ele>
        <time>2023-04-08T10:18:17Z</time>
      </trkpt>
      <trkpt lat="44.49122" lon="1.82539">
        <ele>336.5</ele>
        <time>2023-04-08T10:18:20Z</time>
      </trkpt>
      <trkpt lat="44.49119" lon="1.82552">
        <ele>335.8</ele>
        <time>2023-04-08T10:18:22Z</time>
      </trkpt>
      <trkpt lat="44.49115" lon="1.82567">
        <ele>334.8</ele>
        <time>2023-04-08T10:18:24Z</time>
      </trkpt>
      <trkpt lat="44.49112" lon="1.82582">
        <ele>333.9</ele>
        <time>2023-04-08T10:18:26Z</time>
      </trkpt>
      <trkpt lat="44.49109" lon="1.82597">
        <ele>332.9</ele>
        <time>2023-04-08T10:18:28Z</time>
      </trkpt>
      <trkpt lat="44.49108" lon="1.82614">
        <ele>331.8</ele>
        <time>2023-04-08T10:18:30Z</time>
      </trkpt>
      <trkpt lat="44.49111" lon="1.82632">
        <ele>330.4</ele>
        <time>2023-04-08T10:18:32Z</time>
      </trkpt>
      <trkpt lat="44.49113" lon="1.82652">
        <ele>328.8</ele>
        <time>2023-04-08T10:18:34Z</time>
      </trkpt>
      <trkpt lat="44.49108" lon="1.82672">
        <ele>327.2</ele>
        <time>2023-04-08T10:18:36Z</time>
      </trkpt>
      <trkpt lat="44.491" lon="1.82688">
        <ele>326.4</ele>
        <time>2023-04-08T10:18:38Z</time>
      </trkpt>
      <trkpt lat="44.49091" lon="1.82704">
        <ele>326.1</ele>
        <time>2023-04-08T10:18:40Z</time>
      </trkpt>
      <trkpt lat="44.49081" lon="1.82718">
        <ele>326</ele>
        <time>2023-04-08T10:18:42Z</time>
      </trkpt>
      <trkpt lat="44.49073" lon="1.82732">
        <ele>326</ele>
        <time>2023-04-08T10:18:44Z</time>
      </trkpt>
      <trkpt lat="44.49065" lon="1.82744">
        <ele>326</ele>
        <time>2023-04-08T10:18:46Z</time>
      </trkpt>
      <trkpt lat="44.4906" lon="1.82755">
        <ele>325.9</ele>
        <time>2023-04-08T10:18:48Z</time>
      </trkpt>
      <trkpt lat="44.49053" lon="1.82769">
        <ele>325.9</ele>
        <time>2023-04-08T10:18:51Z</time>
      </trkpt>
      <trkpt lat="44.49046" lon="1.82784">
        <ele>325.7</ele>
        <time>2023-04-08T10:18:54Z</time>
      </trkpt>
      <trkpt lat="44.49041" lon="1.82796">
        <ele>325.6</ele>
        <time>2023-04-08T10:18:56Z</time>
      </trkpt>
      <trkpt lat="44.49035" lon="1.82809">
        <ele>325.5</ele>
        <time>2023-04-08T10:18:58Z</time>
      </trkpt>
      <trkpt lat="44.4903" lon="1.82822">
        <ele>325.4</ele>
        <time>2023-04-08T10:19:00Z</time>
      </trkpt>
      <trkpt lat="44.49025" lon="1.82836">
        <ele>325.2</ele>
        <time>2023-04-08T10:19:02Z</time>
      </trkpt>
      <trkpt lat="44.49019" lon="1.8285">
        <ele>325</ele>
        <time>2023-04-08T10:19:04Z</time>
      </trkpt>
      <trkpt lat="44.49015" lon="1.82864">
        <ele>324.9</ele>
        <time>2023-04-08T10:19:06Z</time>
      </trkpt>
      <trkpt lat="44.4901" lon="1.82877">
        <ele>324.8</ele>
        <time>2023-04-08T10:19:08Z</time>
      </trkpt>
      <trkpt lat="44.49005" lon="1.82891">
        <ele>324.4</ele>
        <time>2023-04-08T10:19:10Z</time>
      </trkpt>
      <trkpt lat="44.49" lon="1.82906">
        <ele>323.9</ele>
        <time>2023-04-08T10:19:12Z</time>
      </trkpt>
      <trkpt lat="44.48994" lon="1.82924">
        <ele>323.5</ele>
        <time>2023-04-08T10:19:14Z</time>
      </trkpt>
      <trkpt lat="44.4899" lon="1.82942">
        <ele>323.2</ele>
        <time>2023-04-08T10:19:16Z</time>
      </trkpt>
      <trkpt lat="44.48989" lon="1.82961">
        <ele>323.1</ele>
        <time>2023-04-08T10:19:18Z</time>
      </trkpt>
      <trkpt lat="44.48989" lon="1.8298">
        <ele>323.2</ele>
        <time>2023-04-08T10:19:20Z</time>
      </trkpt>
      <trkpt lat="44.48991" lon="1.82999">
        <ele>323.4</ele>
        <time>2023-04-08T10:19:22Z</time>
      </trkpt>
      <trkpt lat="44.48994" lon="1.83017">
        <ele>323.8</ele>
        <time>2023-04-08T10:19:24Z</time>
      </trkpt>
      <trkpt lat="44.48997" lon="1.83035">
        <ele>324.1</ele>
        <time>2023-04-08T10:19:26Z</time>
      </trkpt>
      <trkpt lat="44.48998" lon="1.83053">
        <ele>324.6</ele>
        <time>2023-04-08T10:19:28Z</time>
      </trkpt>
      <trkpt lat="44.48996" lon="1.8307">
        <ele>324.1</ele>
        <time>2023-04-08T10:19:30Z</time>
      </trkpt>
      <trkpt lat="44.48993" lon="1.83085">
        <ele>323.5</ele>
        <time>2023-04-08T10:19:32Z</time>
      </trkpt>
      <trkpt lat="44.48991" lon="1.83101">
        <ele>322.8</ele>
        <time>2023-04-08T10:19:34Z</time>
      </trkpt>
      <trkpt lat="44.48988" lon="1.83116">
        <ele>322.3</ele>
        <time>2023-04-08T10:19:36Z</time>
      </trkpt>
      <trkpt lat="44.48986" lon="1.83131">
        <ele>321.6</ele>
        <time>2023-04-08T10:19:38Z</time>
      </trkpt>
      <trkpt lat="44.48986" lon="1.83148">
        <ele>320.4</ele>
        <time>2023-04-08T10:19:40Z</time>
      </trkpt>
      <trkpt lat="44.48986" lon="1.83168">
        <ele>318.8</ele>
        <time>2023-04-08T10:19:42Z</time>
      </trkpt>
      <trkpt lat="44.48985" lon="1.83191">
        <ele>316.4</ele>
        <time>2023-04-08T10:19:44Z</time>
      </trkpt>
      <trkpt lat="44.48982" lon="1.83214">
        <ele>313.7</ele>
        <time>2023-04-08T10:19:46Z</time>
      </trkpt>
      <trkpt lat="44.48978" lon="1.83236">
        <ele>311</ele>
        <time>2023-04-08T10:19:48Z</time>
      </trkpt>
      <trkpt lat="44.48976" lon="1.83259">
        <ele>308.5</ele>
        <time>2023-04-08T10:19:50Z</time>
      </trkpt>
      <trkpt lat="44.48975" lon="1.83283">
        <ele>305.8</ele>
        <time>2023-04-08T10:19:52Z</time>
      </trkpt>
      <trkpt lat="44.48974" lon="1.83304">
        <ele>303.5</ele>
        <time>2023-04-08T10:19:54Z</time>
      </trkpt>
      <trkpt lat="44.48971" lon="1.83321">
        <ele>301.4</ele>
        <time>2023-04-08T10:19:57Z</time>
      </trkpt>
      <trkpt lat="44.48969" lon="1.83338">
        <ele>299.3</ele>
        <time>2023-04-08T10:19:59Z</time>
      </trkpt>
      <trkpt lat="44.48966" lon="1.83359">
        <ele>296.8</ele>
        <time>2023-04-08T10:20:01Z</time>
      </trkpt>
      <trkpt lat="44.48963" lon="1.83379">
        <ele>294.6</ele>
        <time>2023-04-08T10:20:03Z</time>
      </trkpt>
      <trkpt lat="44.48961" lon="1.83397">
        <ele>292.9</ele>
        <time>2023-04-08T10:20:05Z</time>
      </trkpt>
      <trkpt lat="44.4896" lon="1.83413">
        <ele>291.5</ele>
        <time>2023-04-08T10:20:07Z</time>
      </trkpt>
      <trkpt lat="44.48963" lon="1.83425">
        <ele>289.6</ele>
        <time>2023-04-08T10:20:09Z</time>
      </trkpt>
      <trkpt lat="44.48975" lon="1.83431">
        <ele>286</ele>
        <time>2023-04-08T10:20:12Z</time>
      </trkpt>
      <trkpt lat="44.4897" lon="1.83444">
        <ele>282.8</ele>
        <time>2023-04-08T10:20:23Z</time>
      </trkpt>
      <trkpt lat="44.48961" lon="1.83438">
        <ele>280.1</ele>
        <time>2023-04-08T10:20:29Z</time>
      </trkpt>
      <trkpt lat="44.48962" lon="1.83451">
        <ele>277.6</ele>
        <time>2023-04-08T10:20:34Z</time>
      </trkpt>
      <trkpt lat="44.48966" lon="1.83468">
        <ele>273.7</ele>
        <time>2023-04-08T10:20:37Z</time>
      </trkpt>
      <trkpt lat="44.48956" lon="1.83471">
        <ele>270.6</ele>
        <time>2023-04-08T10:20:42Z</time>
      </trkpt>
      <trkpt lat="44.48943" lon="1.83464">
        <ele>267.6</ele>
        <time>2023-04-08T10:20:45Z</time>
      </trkpt>
      <trkpt lat="44.48932" lon="1.83461">
        <ele>265.7</ele>
        <time>2023-04-08T10:20:47Z</time>
      </trkpt>
      <trkpt lat="44.48918" lon="1.8346">
        <ele>263.5</ele>
        <time>2023-04-08T10:20:49Z</time>
      </trkpt>
      <trkpt lat="44.48904" lon="1.83464">
        <ele>261.3</ele>
        <time>2023-04-08T10:20:51Z</time>
      </trkpt>
      <trkpt lat="44.48892" lon="1.83469">
        <ele>259.4</ele>
        <time>2023-04-08T10:20:53Z</time>
      </trkpt>
      <trkpt lat="44.48885" lon="1.83478">
        <ele>257.9</ele>
        <time>2023-04-08T10:20:55Z</time>
      </trkpt>
      <trkpt lat="44.48878" lon="1.83487">
        <ele>256</ele>
        <time>2023-04-08T10:20:58Z</time>
      </trkpt>
      <trkpt lat="44.48893" lon="1.83489">
        <ele>252.4</ele>
        <time>2023-04-08T10:21:02Z</time>
      </trkpt>
      <trkpt lat="44.48907" lon="1.83488">
        <ele>249.9</ele>
        <time>2023-04-08T10:21:04Z</time>
      </trkpt>
      <trkpt lat="44.48919" lon="1.83486">
        <ele>247.7</ele>
        <time>2023-04-08T10:21:06Z</time>
      </trkpt>
      <trkpt lat="44.48929" lon="1.8349">
        <ele>245.9</ele>
        <time>2023-04-08T10:21:08Z</time>
      </trkpt>
      <trkpt lat="44.48938" lon="1.83494">
        <ele>244.1</ele>
        <time>2023-04-08T10:21:10Z</time>
      </trkpt>
      <trkpt lat="44.48945" lon="1.83503">
        <ele>242.4</ele>
        <time>2023-04-08T10:21:13Z</time>
      </trkpt>
      <trkpt lat="44.48949" lon="1.83515">
        <ele>240.8</ele>
        <time>2023-04-08T10:21:15Z</time>
      </trkpt>
      <trkpt lat="44.48954" lon="1.83529">
        <ele>239</ele>
        <time>2023-04-08T10:21:17Z</time>
      </trkpt>
      <trkpt lat="44.48959" lon="1.83543">
        <ele>237</ele>
        <time>2023-04-08T10:21:19Z</time>
      </trkpt>
      <trkpt lat="44.48967" lon="1.83555">
        <ele>234.8</ele>
        <time>2023-04-08T10:21:21Z</time>
      </trkpt>
      <trkpt lat="44.48975" lon="1.83565">
        <ele>232.8</ele>
        <time>2023-04-08T10:21:23Z</time>
      </trkpt>
      <trkpt lat="44.48984" lon="1.83571">
        <ele>230.8</ele>
        <time>2023-04-08T10:21:25Z</time>
      </trkpt>
      <trkpt lat="44.48992" lon="1.83576">
        <ele>228.8</ele>
        <time>2023-04-08T10:21:27Z</time>
      </trkpt>
      <trkpt lat="44.49001" lon="1.83586">
        <ele>226.3</ele>
        <time>2023-04-08T10:21:30Z</time>
      </trkpt>
      <trkpt lat="44.49009" lon="1.83593">
        <ele>224.4</ele>
        <time>2023-04-08T10:21:32Z</time>
      </trkpt>
      <trkpt lat="44.49017" lon="1.83601">
        <ele>222.6</ele>
        <time>2023-04-08T10:21:34Z</time>
      </trkpt>
      <trkpt lat="44.49027" lon="1.8361">
        <ele>220.4</ele>
        <time>2023-04-08T10:21:36Z</time>
      </trkpt>
      <trkpt lat="44.4904" lon="1.83619">
        <ele>218.2</ele>
        <time>2023-04-08T10:21:38Z</time>
      </trkpt>
      <trkpt lat="44.49053" lon="1.83628">
        <ele>216.1</ele>
        <time>2023-04-08T10:21:40Z</time>
      </trkpt>
      <trkpt lat="44.49066" lon="1.83636">
        <ele>214.3</ele>
        <time>2023-04-08T10:21:42Z</time>
      </trkpt>
      <trkpt lat="44.49077" lon="1.83641">
        <ele>212.5</ele>
        <time>2023-04-08T10:21:44Z</time>
      </trkpt>
      <trkpt lat="44.49088" lon="1.83646">
        <ele>210.1</ele>
        <time>2023-04-08T10:21:47Z</time>
      </trkpt>
      <trkpt lat="44.49079" lon="1.8365">
        <ele>209.9</ele>
        <time>2023-04-08T10:21:51Z</time>
      </trkpt>
      <trkpt lat="44.49077" lon="1.8365">
        <ele>209.4</ele>
        <time>2023-04-08T10:21:54Z</time>
      </trkpt>
      <trkpt lat="44.49077" lon="1.8365">
        <ele>209.3</ele>
        <time>2023-04-08T10:21:57Z</time>
      </trkpt>
      <trkpt lat="44.49077" lon="1.8365">
        <ele>209.3</ele>
        <time>2023-04-08T10:21:59Z</time>
      </trkpt>
      <trkpt lat="44.49077" lon="1.8365">
        <ele>209.3</ele>
        <time>2023-04-08T10:22:04Z</time>
      </trkpt>
      <trkpt lat="44.49077" lon="1.8365">
        <ele>209.3</ele>
        <time>2023-04-08T10:22:05Z</time>
      </trkpt>
      <trkpt lat="44.49076" lon="1.8365">
        <ele>209.2</ele>
        <time>2023-04-08T10:22:22Z</time>
      </trkpt>
      <trkpt lat="44.49076" lon="1.8365">
        <ele>209.2</ele>
        <time>2023-04-08T10:22:23Z</time>
      </trkpt>
      <trkpt lat="44.49076" lon="1.8365">
        <ele>209.2</ele>
        <time>2023-04-08T10:22:33Z</time>
      </trkpt>
      <trkpt lat="44.49076" lon="1.8365">
        <ele>209.2</ele>
        <time>2023-04-08T10:22:34Z</time>
      </trkpt>
      <trkpt lat="44.49076" lon="1.8365">
        <ele>209.1</ele>
        <time>2023-04-08T10:22:56Z</time>
      </trkpt>
      <trkpt lat="44.49076" lon="1.8365">
        <ele>209.1</ele>
        <time>2023-04-08T10:22:57Z</time>
      </trkpt>
      <trkpt lat="44.49076" lon="1.8365">
        <ele>209.1</ele>
        <time>2023-04-08T10:23:46Z</time>
      </trkpt>
      <trkpt lat="44.49076" lon="1.8365">
        <ele>209.1</ele>
        <time>2023-04-08T10:23:47Z</time>
      </trkpt>
      <trkpt lat="44.49076" lon="1.8365">
        <ele>209.1</ele>
        <time>2023-04-08T10:24:08Z</time>
      </trkpt>
      <trkpt lat="44.49076" lon="1.8365">
        <ele>209</ele>
        <time>2023-04-08T10:24:10Z</time>
      </trkpt>
      <trkpt lat="44.49075" lon="1.8365">
        <ele>208.9</ele>
        <time>2023-04-08T10:25:08Z</time>
      </trkpt>
      <trkpt lat="44.49069" lon="1.83649">
        <ele>207.5</ele>
        <time>2023-04-08T10:25:15Z</time>
      </trkpt>
      <trkpt lat="44.49069" lon="1.83649">
        <ele>207.4</ele>
        <time>2023-04-08T10:25:23Z</time>
      </trkpt>
      <trkpt lat="44.49069" lon="1.83649">
        <ele>207.4</ele>
        <time>2023-04-08T10:25:24Z</time>
      </trkpt>
      <trkpt lat="44.49068" lon="1.83649">
        <ele>207.2</ele>
        <time>2023-04-08T10:25:39Z</time>
      </trkpt>
      <trkpt lat="44.49057" lon="1.83652">
        <ele>204.8</ele>
        <time>2023-04-08T10:25:42Z</time>
      </trkpt>
      <trkpt lat="44.49048" lon="1.83654">
        <ele>202.6</ele>
        <time>2023-04-08T10:25:44Z</time>
      </trkpt>
      <trkpt lat="44.49038" lon="1.83656">
        <ele>200.5</ele>
        <time>2023-04-08T10:25:46Z</time>
      </trkpt>
      <trkpt lat="44.49028" lon="1.83658">
        <ele>198.2</ele>
        <time>2023-04-08T10:25:48Z</time>
      </trkpt>
      <trkpt lat="44.49016" lon="1.83659">
        <ele>195.6</ele>
        <time>2023-04-08T10:25:50Z</time>
      </trkpt>
      <trkpt lat="44.49004" lon="1.83661">
        <ele>193.1</ele>
        <time>2023-04-08T10:25:52Z</time>
      </trkpt>
      <trkpt lat="44.4899" lon="1.83665">
        <ele>190.5</ele>
        <time>2023-04-08T10:25:54Z</time>
      </trkpt>
      <trkpt lat="44.48975" lon="1.83669">
        <ele>187.9</ele>
        <time>2023-04-08T10:25:56Z</time>
      </trkpt>
      <trkpt lat="44.48961" lon="1.83677">
        <ele>185.4</ele>
        <time>2023-04-08T10:25:58Z</time>
      </trkpt>
      <trkpt lat="44.48947" lon="1.83687">
        <ele>182.8</ele>
        <time>2023-04-08T10:26:00Z</time>
      </trkpt>
      <trkpt lat="44.48932" lon="1.83696">
        <ele>180.3</ele>
        <time>2023-04-08T10:26:02Z</time>
      </trkpt>
      <trkpt lat="44.4892" lon="1.83707">
        <ele>178.4</ele>
        <time>2023-04-08T10:26:04Z</time>
      </trkpt>
      <trkpt lat="44.48913" lon="1.83718">
        <ele>177</ele>
        <time>2023-04-08T10:26:06Z</time>
      </trkpt>
      <trkpt lat="44.48907" lon="1.8373">
        <ele>176</ele>
        <time>2023-04-08T10:26:09Z</time>
      </trkpt>
      <trkpt lat="44.48902" lon="1.83735">
        <ele>175.6</ele>
        <time>2023-04-08T10:26:14Z</time>
      </trkpt>
      <trkpt lat="44.48902" lon="1.83734">
        <ele>175.5</ele>
        <time>2023-04-08T10:26:20Z</time>
      </trkpt>
      <trkpt lat="44.48893" lon="1.83737">
        <ele>174.8</ele>
        <time>2023-04-08T10:26:23Z</time>
      </trkpt>
      <trkpt lat="44.48884" lon="1.8374">
        <ele>174.2</ele>
        <time>2023-04-08T10:26:26Z</time>
      </trkpt>
      <trkpt lat="44.48875" lon="1.83743">
        <ele>173.8</ele>
        <time>2023-04-08T10:26:30Z</time>
      </trkpt>
      <trkpt lat="44.48863" lon="1.83745">
        <ele>173.2</ele>
        <time>2023-04-08T10:26:34Z</time>
      </trkpt>
      <trkpt lat="44.48851" lon="1.8375">
        <ele>172.6</ele>
        <time>2023-04-08T10:26:37Z</time>
      </trkpt>
      <trkpt lat="44.48842" lon="1.83752">
        <ele>172.3</ele>
        <time>2023-04-08T10:26:39Z</time>
      </trkpt>
      <trkpt lat="44.48833" lon="1.83753">
        <ele>172.1</ele>
        <time>2023-04-08T10:26:41Z</time>
      </trkpt>
      <trkpt lat="44.48821" lon="1.83758">
        <ele>171.8</ele>
        <time>2023-04-08T10:26:44Z</time>
      </trkpt>
      <trkpt lat="44.48812" lon="1.83761">
        <ele>171.7</ele>
        <time>2023-04-08T10:26:46Z</time>
      </trkpt>
      <trkpt lat="44.48801" lon="1.83768">
        <ele>171.4</ele>
        <time>2023-04-08T10:26:49Z</time>
      </trkpt>
      <trkpt lat="44.48794" lon="1.83774">
        <ele>171.1</ele>
        <time>2023-04-08T10:26:58Z</time>
      </trkpt>
      <trkpt lat="44.48794" lon="1.83775">
        <ele>171</ele>
        <time>2023-04-08T10:27:05Z</time>
      </trkpt>
      <trkpt lat="44.48784" lon="1.8378">
        <ele>170.4</ele>
        <time>2023-04-08T10:27:09Z</time>
      </trkpt>
      <trkpt lat="44.48773" lon="1.83784">
        <ele>169.8</ele>
        <time>2023-04-08T10:27:12Z</time>
      </trkpt>
      <trkpt lat="44.48767" lon="1.83786">
        <ele>169.5</ele>
        <time>2023-04-08T10:27:16Z</time>
      </trkpt>
      <trkpt lat="44.48768" lon="1.83786">
        <ele>169.5</ele>
        <time>2023-04-08T10:27:29Z</time>
      </trkpt>
      <trkpt lat="44.48768" lon="1.83786">
        <ele>169.5</ele>
        <time>2023-04-08T10:27:30Z</time>
      </trkpt>
      <trkpt lat="44.48768" lon="1.83786">
        <ele>169.5</ele>
        <time>2023-04-08T10:27:42Z</time>
      </trkpt>
      <trkpt lat="44.48759" lon="1.83788">
        <ele>169.1</ele>
        <time>2023-04-08T10:27:50Z</time>
      </trkpt>
      <trkpt lat="44.48749" lon="1.8379">
        <ele>168.7</ele>
        <time>2023-04-08T10:27:53Z</time>
      </trkpt>
      <trkpt lat="44.48736" lon="1.83792">
        <ele>168.3</ele>
        <time>2023-04-08T10:27:56Z</time>
      </trkpt>
      <trkpt lat="44.48726" lon="1.83795">
        <ele>168</ele>
        <time>2023-04-08T10:27:58Z</time>
      </trkpt>
      <trkpt lat="44.48715" lon="1.83799">
        <ele>167.6</ele>
        <time>2023-04-08T10:28:00Z</time>
      </trkpt>
      <trkpt lat="44.48704" lon="1.83803">
        <ele>167.2</ele>
        <time>2023-04-08T10:28:02Z</time>
      </trkpt>
      <trkpt lat="44.48693" lon="1.83807">
        <ele>166.8</ele>
        <time>2023-04-08T10:28:04Z</time>
      </trkpt>
      <trkpt lat="44.48682" lon="1.83812">
        <ele>166.4</ele>
        <time>2023-04-08T10:28:06Z</time>
      </trkpt>
    </trkseg>
  </trk>
</gpx>